<?xml version="1.0" encoding="UTF-8" standalone="no" ?>
<gpx xmlns="http://www.topografix.com/GPX/1/1" xmlns:xsi="http://www.w3.org/2001/XMLSchema-instance" xsi:schemaLocation="http://www.topografix.com/GPX/1/1 http://www.topografix.com/GPX/1/1/gpx.xsd" version="1.1" creator="VisuGPX - https://www.visugpx.com">
  <metadata>
    <name>2018-01-24 Bike ride-Val d-Azergues O</name>
    <desc><![CDATA[2018-01-24 Bike ride-Val d-Azergues O]]></desc>
  </metadata>
  <wpt lat="45.92452" lon="4.73726">
    <ele>174</ele>
    <name><![CDATA[2018-01-24 10:41 (Start)]]></name>
  </wpt>
  <wpt lat="45.92462" lon="4.73711">
    <ele>174</ele>
    <name><![CDATA[2018-01-24 10:41 (End)]]></name>
  </wpt>
  <trk>
    <name><![CDATA[2018-01-24 10:41]]></name>
    <trkseg>
      <trkpt lat="45.92452" lon="4.73726">
        <ele>174</ele>
        <time>2018-01-24T09:41:59.595Z</time>
      </trkpt>
      <trkpt lat="45.92459" lon="4.7372">
        <ele>174</ele>
        <time>2018-01-24T09:42:05.75Z</time>
      </trkpt>
      <trkpt lat="45.92459" lon="4.73714">
        <ele>174</ele>
        <time>2018-01-24T09:42:06.75Z</time>
      </trkpt>
      <trkpt lat="45.92459" lon="4.73715">
        <ele>174</ele>
        <time>2018-01-24T09:42:07.75Z</time>
      </trkpt>
      <trkpt lat="45.92448" lon="4.737">
        <ele>174</ele>
        <time>2018-01-24T09:42:08Z</time>
      </trkpt>
      <trkpt lat="45.92456" lon="4.73705">
        <ele>174</ele>
        <time>2018-01-24T09:42:09Z</time>
      </trkpt>
      <trkpt lat="45.92458" lon="4.7371">
        <ele>174</ele>
        <time>2018-01-24T09:42:10Z</time>
      </trkpt>
      <trkpt lat="45.9246" lon="4.7371">
        <ele>174</ele>
        <time>2018-01-24T09:42:11Z</time>
      </trkpt>
      <trkpt lat="45.92465" lon="4.73701">
        <ele>174</ele>
        <time>2018-01-24T09:42:36Z</time>
      </trkpt>
      <trkpt lat="45.92465" lon="4.73698">
        <ele>174</ele>
        <time>2018-01-24T09:42:37Z</time>
      </trkpt>
      <trkpt lat="45.92465" lon="4.73688">
        <ele>174</ele>
        <time>2018-01-24T09:42:40Z</time>
      </trkpt>
      <trkpt lat="45.92466" lon="4.73684">
        <ele>174</ele>
        <time>2018-01-24T09:42:41Z</time>
      </trkpt>
      <trkpt lat="45.92467" lon="4.73675">
        <ele>174</ele>
        <time>2018-01-24T09:42:43Z</time>
      </trkpt>
      <trkpt lat="45.92468" lon="4.73671">
        <ele>174</ele>
        <time>2018-01-24T09:42:44Z</time>
      </trkpt>
      <trkpt lat="45.92469" lon="4.73661">
        <ele>174</ele>
        <time>2018-01-24T09:42:46Z</time>
      </trkpt>
      <trkpt lat="45.92469" lon="4.73656">
        <ele>174</ele>
        <time>2018-01-24T09:42:47Z</time>
      </trkpt>
      <trkpt lat="45.92471" lon="4.73645">
        <ele>174</ele>
        <time>2018-01-24T09:42:49Z</time>
      </trkpt>
      <trkpt lat="45.92471" lon="4.73639">
        <ele>174</ele>
        <time>2018-01-24T09:42:50Z</time>
      </trkpt>
      <trkpt lat="45.92472" lon="4.73627">
        <ele>174</ele>
        <time>2018-01-24T09:42:52Z</time>
      </trkpt>
      <trkpt lat="45.92472" lon="4.73619">
        <ele>174</ele>
        <time>2018-01-24T09:42:53Z</time>
      </trkpt>
      <trkpt lat="45.92471" lon="4.73612">
        <ele>174</ele>
        <time>2018-01-24T09:42:54Z</time>
      </trkpt>
      <trkpt lat="45.9247" lon="4.73606">
        <ele>174</ele>
        <time>2018-01-24T09:42:55Z</time>
      </trkpt>
      <trkpt lat="45.92469" lon="4.73593">
        <ele>174</ele>
        <time>2018-01-24T09:42:57Z</time>
      </trkpt>
      <trkpt lat="45.92469" lon="4.73587">
        <ele>174</ele>
        <time>2018-01-24T09:42:58Z</time>
      </trkpt>
      <trkpt lat="45.92468" lon="4.73577">
        <ele>173</ele>
        <time>2018-01-24T09:43:00Z</time>
      </trkpt>
      <trkpt lat="45.92469" lon="4.7357">
        <ele>173</ele>
        <time>2018-01-24T09:43:01Z</time>
      </trkpt>
      <trkpt lat="45.92469" lon="4.73563">
        <ele>173</ele>
        <time>2018-01-24T09:43:02Z</time>
      </trkpt>
      <trkpt lat="45.9247" lon="4.73556">
        <ele>173</ele>
        <time>2018-01-24T09:43:03Z</time>
      </trkpt>
      <trkpt lat="45.92469" lon="4.73544">
        <ele>173</ele>
        <time>2018-01-24T09:43:05Z</time>
      </trkpt>
      <trkpt lat="45.92469" lon="4.7354">
        <ele>174</ele>
        <time>2018-01-24T09:43:06Z</time>
      </trkpt>
      <trkpt lat="45.92469" lon="4.73528">
        <ele>174</ele>
        <time>2018-01-24T09:43:08Z</time>
      </trkpt>
      <trkpt lat="45.92469" lon="4.73522">
        <ele>174</ele>
        <time>2018-01-24T09:43:09Z</time>
      </trkpt>
      <trkpt lat="45.9247" lon="4.7351">
        <ele>174</ele>
        <time>2018-01-24T09:43:11Z</time>
      </trkpt>
      <trkpt lat="45.9247" lon="4.73503">
        <ele>174</ele>
        <time>2018-01-24T09:43:12Z</time>
      </trkpt>
      <trkpt lat="45.9247" lon="4.73497">
        <ele>173</ele>
        <time>2018-01-24T09:43:13Z</time>
      </trkpt>
      <trkpt lat="45.92471" lon="4.7349">
        <ele>173</ele>
        <time>2018-01-24T09:43:14Z</time>
      </trkpt>
      <trkpt lat="45.92471" lon="4.73484">
        <ele>173</ele>
        <time>2018-01-24T09:43:15Z</time>
      </trkpt>
      <trkpt lat="45.9247" lon="4.73477">
        <ele>173</ele>
        <time>2018-01-24T09:43:16Z</time>
      </trkpt>
      <trkpt lat="45.9247" lon="4.73469">
        <ele>173</ele>
        <time>2018-01-24T09:43:17Z</time>
      </trkpt>
      <trkpt lat="45.92469" lon="4.73462">
        <ele>173</ele>
        <time>2018-01-24T09:43:18Z</time>
      </trkpt>
      <trkpt lat="45.92468" lon="4.73454">
        <ele>173</ele>
        <time>2018-01-24T09:43:19Z</time>
      </trkpt>
      <trkpt lat="45.92467" lon="4.73446">
        <ele>173</ele>
        <time>2018-01-24T09:43:20Z</time>
      </trkpt>
      <trkpt lat="45.92465" lon="4.7344">
        <ele>173</ele>
        <time>2018-01-24T09:43:21Z</time>
      </trkpt>
      <trkpt lat="45.92463" lon="4.73432">
        <ele>173</ele>
        <time>2018-01-24T09:43:22Z</time>
      </trkpt>
      <trkpt lat="45.92459" lon="4.73426">
        <ele>173</ele>
        <time>2018-01-24T09:43:23Z</time>
      </trkpt>
      <trkpt lat="45.92455" lon="4.73421">
        <ele>173</ele>
        <time>2018-01-24T09:43:24Z</time>
      </trkpt>
      <trkpt lat="45.9245" lon="4.73418">
        <ele>173</ele>
        <time>2018-01-24T09:43:25Z</time>
      </trkpt>
      <trkpt lat="45.92446" lon="4.73415">
        <ele>172</ele>
        <time>2018-01-24T09:43:26Z</time>
      </trkpt>
      <trkpt lat="45.92442" lon="4.73412">
        <ele>172</ele>
        <time>2018-01-24T09:43:27Z</time>
      </trkpt>
      <trkpt lat="45.92437" lon="4.73408">
        <ele>172</ele>
        <time>2018-01-24T09:43:28Z</time>
      </trkpt>
      <trkpt lat="45.92433" lon="4.73403">
        <ele>172</ele>
        <time>2018-01-24T09:43:29Z</time>
      </trkpt>
      <trkpt lat="45.9243" lon="4.73397">
        <ele>172</ele>
        <time>2018-01-24T09:43:30Z</time>
      </trkpt>
      <trkpt lat="45.92428" lon="4.7339">
        <ele>172</ele>
        <time>2018-01-24T09:43:31Z</time>
      </trkpt>
      <trkpt lat="45.92426" lon="4.73383">
        <ele>172</ele>
        <time>2018-01-24T09:43:32Z</time>
      </trkpt>
      <trkpt lat="45.92424" lon="4.73376">
        <ele>172</ele>
        <time>2018-01-24T09:43:33Z</time>
      </trkpt>
      <trkpt lat="45.92423" lon="4.73369">
        <ele>172</ele>
        <time>2018-01-24T09:43:34Z</time>
      </trkpt>
      <trkpt lat="45.92421" lon="4.73361">
        <ele>172</ele>
        <time>2018-01-24T09:43:35Z</time>
      </trkpt>
      <trkpt lat="45.9242" lon="4.73355">
        <ele>171</ele>
        <time>2018-01-24T09:43:36Z</time>
      </trkpt>
      <trkpt lat="45.92418" lon="4.73347">
        <ele>171</ele>
        <time>2018-01-24T09:43:37Z</time>
      </trkpt>
      <trkpt lat="45.92417" lon="4.73339">
        <ele>171</ele>
        <time>2018-01-24T09:43:38Z</time>
      </trkpt>
      <trkpt lat="45.92416" lon="4.73334">
        <ele>171</ele>
        <time>2018-01-24T09:43:39Z</time>
      </trkpt>
      <trkpt lat="45.92416" lon="4.73326">
        <ele>171</ele>
        <time>2018-01-24T09:43:40Z</time>
      </trkpt>
      <trkpt lat="45.92416" lon="4.73317">
        <ele>171</ele>
        <time>2018-01-24T09:43:41Z</time>
      </trkpt>
      <trkpt lat="45.92415" lon="4.73309">
        <ele>171</ele>
        <time>2018-01-24T09:43:42Z</time>
      </trkpt>
      <trkpt lat="45.92415" lon="4.733">
        <ele>171</ele>
        <time>2018-01-24T09:43:43Z</time>
      </trkpt>
      <trkpt lat="45.92414" lon="4.73293">
        <ele>171</ele>
        <time>2018-01-24T09:43:44Z</time>
      </trkpt>
      <trkpt lat="45.92413" lon="4.73287">
        <ele>171</ele>
        <time>2018-01-24T09:43:45Z</time>
      </trkpt>
      <trkpt lat="45.92413" lon="4.73279">
        <ele>171</ele>
        <time>2018-01-24T09:43:46Z</time>
      </trkpt>
      <trkpt lat="45.92413" lon="4.73271">
        <ele>171</ele>
        <time>2018-01-24T09:43:47Z</time>
      </trkpt>
      <trkpt lat="45.92413" lon="4.73264">
        <ele>171</ele>
        <time>2018-01-24T09:43:48Z</time>
      </trkpt>
      <trkpt lat="45.92414" lon="4.73257">
        <ele>171</ele>
        <time>2018-01-24T09:43:49Z</time>
      </trkpt>
      <trkpt lat="45.92414" lon="4.73247">
        <ele>171</ele>
        <time>2018-01-24T09:43:50Z</time>
      </trkpt>
      <trkpt lat="45.92413" lon="4.73239">
        <ele>171</ele>
        <time>2018-01-24T09:43:51Z</time>
      </trkpt>
      <trkpt lat="45.92412" lon="4.73231">
        <ele>171</ele>
        <time>2018-01-24T09:43:52Z</time>
      </trkpt>
      <trkpt lat="45.92412" lon="4.73224">
        <ele>171</ele>
        <time>2018-01-24T09:43:53Z</time>
      </trkpt>
      <trkpt lat="45.92411" lon="4.73216">
        <ele>171</ele>
        <time>2018-01-24T09:43:54Z</time>
      </trkpt>
      <trkpt lat="45.92411" lon="4.73207">
        <ele>171</ele>
        <time>2018-01-24T09:43:55Z</time>
      </trkpt>
      <trkpt lat="45.9241" lon="4.73199">
        <ele>171</ele>
        <time>2018-01-24T09:43:56Z</time>
      </trkpt>
      <trkpt lat="45.9241" lon="4.73191">
        <ele>171</ele>
        <time>2018-01-24T09:43:57Z</time>
      </trkpt>
      <trkpt lat="45.92409" lon="4.73183">
        <ele>171</ele>
        <time>2018-01-24T09:43:58Z</time>
      </trkpt>
      <trkpt lat="45.9241" lon="4.73175">
        <ele>170</ele>
        <time>2018-01-24T09:43:59Z</time>
      </trkpt>
      <trkpt lat="45.92408" lon="4.73167">
        <ele>170</ele>
        <time>2018-01-24T09:44:00Z</time>
      </trkpt>
      <trkpt lat="45.92408" lon="4.73159">
        <ele>170</ele>
        <time>2018-01-24T09:44:01Z</time>
      </trkpt>
      <trkpt lat="45.92407" lon="4.73152">
        <ele>171</ele>
        <time>2018-01-24T09:44:02Z</time>
      </trkpt>
      <trkpt lat="45.92408" lon="4.73145">
        <ele>171</ele>
        <time>2018-01-24T09:44:03Z</time>
      </trkpt>
      <trkpt lat="45.92408" lon="4.73137">
        <ele>171</ele>
        <time>2018-01-24T09:44:04Z</time>
      </trkpt>
      <trkpt lat="45.92407" lon="4.7313">
        <ele>171</ele>
        <time>2018-01-24T09:44:05Z</time>
      </trkpt>
      <trkpt lat="45.92408" lon="4.73124">
        <ele>171</ele>
        <time>2018-01-24T09:44:06Z</time>
      </trkpt>
      <trkpt lat="45.9241" lon="4.73118">
        <ele>171</ele>
        <time>2018-01-24T09:44:07Z</time>
      </trkpt>
      <trkpt lat="45.92414" lon="4.73114">
        <ele>171</ele>
        <time>2018-01-24T09:44:08Z</time>
      </trkpt>
      <trkpt lat="45.92418" lon="4.73111">
        <ele>170</ele>
        <time>2018-01-24T09:44:09Z</time>
      </trkpt>
      <trkpt lat="45.92423" lon="4.73107">
        <ele>171</ele>
        <time>2018-01-24T09:44:10Z</time>
      </trkpt>
      <trkpt lat="45.92428" lon="4.73103">
        <ele>171</ele>
        <time>2018-01-24T09:44:11Z</time>
      </trkpt>
      <trkpt lat="45.92433" lon="4.731">
        <ele>171</ele>
        <time>2018-01-24T09:44:12Z</time>
      </trkpt>
      <trkpt lat="45.92437" lon="4.73095">
        <ele>171</ele>
        <time>2018-01-24T09:44:13Z</time>
      </trkpt>
      <trkpt lat="45.92442" lon="4.73091">
        <ele>170</ele>
        <time>2018-01-24T09:44:14Z</time>
      </trkpt>
      <trkpt lat="45.92448" lon="4.73086">
        <ele>170</ele>
        <time>2018-01-24T09:44:15Z</time>
      </trkpt>
      <trkpt lat="45.92453" lon="4.73082">
        <ele>170</ele>
        <time>2018-01-24T09:44:16Z</time>
      </trkpt>
      <trkpt lat="45.92459" lon="4.73078">
        <ele>170</ele>
        <time>2018-01-24T09:44:17Z</time>
      </trkpt>
      <trkpt lat="45.92464" lon="4.73073">
        <ele>170</ele>
        <time>2018-01-24T09:44:18Z</time>
      </trkpt>
      <trkpt lat="45.92469" lon="4.73069">
        <ele>170</ele>
        <time>2018-01-24T09:44:19Z</time>
      </trkpt>
      <trkpt lat="45.92474" lon="4.73064">
        <ele>170</ele>
        <time>2018-01-24T09:44:20Z</time>
      </trkpt>
      <trkpt lat="45.92479" lon="4.73061">
        <ele>170</ele>
        <time>2018-01-24T09:44:21Z</time>
      </trkpt>
      <trkpt lat="45.92484" lon="4.73057">
        <ele>170</ele>
        <time>2018-01-24T09:44:22Z</time>
      </trkpt>
      <trkpt lat="45.9249" lon="4.73052">
        <ele>170</ele>
        <time>2018-01-24T09:44:23Z</time>
      </trkpt>
      <trkpt lat="45.92494" lon="4.73047">
        <ele>170</ele>
        <time>2018-01-24T09:44:24Z</time>
      </trkpt>
      <trkpt lat="45.92499" lon="4.73043">
        <ele>170</ele>
        <time>2018-01-24T09:44:25Z</time>
      </trkpt>
      <trkpt lat="45.92504" lon="4.73039">
        <ele>169</ele>
        <time>2018-01-24T09:44:26Z</time>
      </trkpt>
      <trkpt lat="45.92511" lon="4.73035">
        <ele>169</ele>
        <time>2018-01-24T09:44:27Z</time>
      </trkpt>
      <trkpt lat="45.92517" lon="4.73031">
        <ele>169</ele>
        <time>2018-01-24T09:44:28Z</time>
      </trkpt>
      <trkpt lat="45.92522" lon="4.73026">
        <ele>169</ele>
        <time>2018-01-24T09:44:29Z</time>
      </trkpt>
      <trkpt lat="45.92528" lon="4.7302">
        <ele>169</ele>
        <time>2018-01-24T09:44:30Z</time>
      </trkpt>
      <trkpt lat="45.92533" lon="4.73016">
        <ele>169</ele>
        <time>2018-01-24T09:44:31Z</time>
      </trkpt>
      <trkpt lat="45.92538" lon="4.73011">
        <ele>169</ele>
        <time>2018-01-24T09:44:32Z</time>
      </trkpt>
      <trkpt lat="45.92543" lon="4.73006">
        <ele>169</ele>
        <time>2018-01-24T09:44:33Z</time>
      </trkpt>
      <trkpt lat="45.92549" lon="4.73001">
        <ele>169</ele>
        <time>2018-01-24T09:44:34Z</time>
      </trkpt>
      <trkpt lat="45.92554" lon="4.72995">
        <ele>169</ele>
        <time>2018-01-24T09:44:35Z</time>
      </trkpt>
      <trkpt lat="45.92559" lon="4.7299">
        <ele>169</ele>
        <time>2018-01-24T09:44:36Z</time>
      </trkpt>
      <trkpt lat="45.92565" lon="4.72985">
        <ele>169</ele>
        <time>2018-01-24T09:44:37Z</time>
      </trkpt>
      <trkpt lat="45.9257" lon="4.72978">
        <ele>169</ele>
        <time>2018-01-24T09:44:38Z</time>
      </trkpt>
      <trkpt lat="45.92576" lon="4.72972">
        <ele>169</ele>
        <time>2018-01-24T09:44:39Z</time>
      </trkpt>
      <trkpt lat="45.9258" lon="4.72967">
        <ele>169</ele>
        <time>2018-01-24T09:44:40Z</time>
      </trkpt>
      <trkpt lat="45.92585" lon="4.72961">
        <ele>169</ele>
        <time>2018-01-24T09:44:41Z</time>
      </trkpt>
      <trkpt lat="45.9259" lon="4.72955">
        <ele>169</ele>
        <time>2018-01-24T09:44:42Z</time>
      </trkpt>
      <trkpt lat="45.92594" lon="4.7295">
        <ele>169</ele>
        <time>2018-01-24T09:44:43Z</time>
      </trkpt>
      <trkpt lat="45.92599" lon="4.72944">
        <ele>169</ele>
        <time>2018-01-24T09:44:44Z</time>
      </trkpt>
      <trkpt lat="45.92604" lon="4.72939">
        <ele>169</ele>
        <time>2018-01-24T09:44:45Z</time>
      </trkpt>
      <trkpt lat="45.92608" lon="4.72934">
        <ele>169</ele>
        <time>2018-01-24T09:44:46Z</time>
      </trkpt>
      <trkpt lat="45.92613" lon="4.72928">
        <ele>169</ele>
        <time>2018-01-24T09:44:47Z</time>
      </trkpt>
      <trkpt lat="45.92618" lon="4.72923">
        <ele>169</ele>
        <time>2018-01-24T09:44:48Z</time>
      </trkpt>
      <trkpt lat="45.92623" lon="4.72918">
        <ele>169</ele>
        <time>2018-01-24T09:44:49Z</time>
      </trkpt>
      <trkpt lat="45.92629" lon="4.72914">
        <ele>169</ele>
        <time>2018-01-24T09:44:50Z</time>
      </trkpt>
      <trkpt lat="45.92634" lon="4.7291">
        <ele>169</ele>
        <time>2018-01-24T09:44:51Z</time>
      </trkpt>
      <trkpt lat="45.92639" lon="4.72905">
        <ele>169</ele>
        <time>2018-01-24T09:44:52Z</time>
      </trkpt>
      <trkpt lat="45.92645" lon="4.72902">
        <ele>169</ele>
        <time>2018-01-24T09:44:53Z</time>
      </trkpt>
      <trkpt lat="45.9265" lon="4.72897">
        <ele>169</ele>
        <time>2018-01-24T09:44:54Z</time>
      </trkpt>
      <trkpt lat="45.92656" lon="4.72892">
        <ele>169</ele>
        <time>2018-01-24T09:44:55Z</time>
      </trkpt>
      <trkpt lat="45.92662" lon="4.72887">
        <ele>169</ele>
        <time>2018-01-24T09:44:56Z</time>
      </trkpt>
      <trkpt lat="45.92668" lon="4.72881">
        <ele>170</ele>
        <time>2018-01-24T09:44:57Z</time>
      </trkpt>
      <trkpt lat="45.92674" lon="4.72877">
        <ele>170</ele>
        <time>2018-01-24T09:44:58Z</time>
      </trkpt>
      <trkpt lat="45.92679" lon="4.72873">
        <ele>169</ele>
        <time>2018-01-24T09:44:59Z</time>
      </trkpt>
      <trkpt lat="45.92685" lon="4.72868">
        <ele>169</ele>
        <time>2018-01-24T09:45:00Z</time>
      </trkpt>
      <trkpt lat="45.9269" lon="4.72864">
        <ele>169</ele>
        <time>2018-01-24T09:45:01Z</time>
      </trkpt>
      <trkpt lat="45.92696" lon="4.7286">
        <ele>169</ele>
        <time>2018-01-24T09:45:02Z</time>
      </trkpt>
      <trkpt lat="45.92702" lon="4.72855">
        <ele>169</ele>
        <time>2018-01-24T09:45:03Z</time>
      </trkpt>
      <trkpt lat="45.92707" lon="4.72851">
        <ele>169</ele>
        <time>2018-01-24T09:45:04Z</time>
      </trkpt>
      <trkpt lat="45.92714" lon="4.72847">
        <ele>169</ele>
        <time>2018-01-24T09:45:05Z</time>
      </trkpt>
      <trkpt lat="45.92719" lon="4.72843">
        <ele>169</ele>
        <time>2018-01-24T09:45:06Z</time>
      </trkpt>
      <trkpt lat="45.92724" lon="4.72839">
        <ele>169</ele>
        <time>2018-01-24T09:45:07Z</time>
      </trkpt>
      <trkpt lat="45.9273" lon="4.72835">
        <ele>169</ele>
        <time>2018-01-24T09:45:08Z</time>
      </trkpt>
      <trkpt lat="45.92736" lon="4.7283">
        <ele>169</ele>
        <time>2018-01-24T09:45:09Z</time>
      </trkpt>
      <trkpt lat="45.92742" lon="4.72827">
        <ele>169</ele>
        <time>2018-01-24T09:45:10Z</time>
      </trkpt>
      <trkpt lat="45.92747" lon="4.72823">
        <ele>169</ele>
        <time>2018-01-24T09:45:11Z</time>
      </trkpt>
      <trkpt lat="45.92752" lon="4.72818">
        <ele>170</ele>
        <time>2018-01-24T09:45:12Z</time>
      </trkpt>
      <trkpt lat="45.92758" lon="4.72813">
        <ele>170</ele>
        <time>2018-01-24T09:45:13Z</time>
      </trkpt>
      <trkpt lat="45.92764" lon="4.72809">
        <ele>170</ele>
        <time>2018-01-24T09:45:14Z</time>
      </trkpt>
      <trkpt lat="45.92769" lon="4.72805">
        <ele>170</ele>
        <time>2018-01-24T09:45:15Z</time>
      </trkpt>
      <trkpt lat="45.92775" lon="4.72801">
        <ele>170</ele>
        <time>2018-01-24T09:45:16Z</time>
      </trkpt>
      <trkpt lat="45.9278" lon="4.72797">
        <ele>170</ele>
        <time>2018-01-24T09:45:17Z</time>
      </trkpt>
      <trkpt lat="45.92786" lon="4.72792">
        <ele>170</ele>
        <time>2018-01-24T09:45:18Z</time>
      </trkpt>
      <trkpt lat="45.92791" lon="4.72788">
        <ele>171</ele>
        <time>2018-01-24T09:45:19Z</time>
      </trkpt>
      <trkpt lat="45.92796" lon="4.72785">
        <ele>171</ele>
        <time>2018-01-24T09:45:20Z</time>
      </trkpt>
      <trkpt lat="45.92804" lon="4.72786">
        <ele>171</ele>
        <time>2018-01-24T09:45:22Z</time>
      </trkpt>
      <trkpt lat="45.92807" lon="4.72791">
        <ele>171</ele>
        <time>2018-01-24T09:45:23Z</time>
      </trkpt>
      <trkpt lat="45.92808" lon="4.72797">
        <ele>171</ele>
        <time>2018-01-24T09:45:24Z</time>
      </trkpt>
      <trkpt lat="45.92808" lon="4.72804">
        <ele>171</ele>
        <time>2018-01-24T09:45:25Z</time>
      </trkpt>
      <trkpt lat="45.92809" lon="4.7281">
        <ele>171</ele>
        <time>2018-01-24T09:45:26Z</time>
      </trkpt>
      <trkpt lat="45.9281" lon="4.72817">
        <ele>171</ele>
        <time>2018-01-24T09:45:27Z</time>
      </trkpt>
      <trkpt lat="45.92811" lon="4.72826">
        <ele>171</ele>
        <time>2018-01-24T09:45:28Z</time>
      </trkpt>
      <trkpt lat="45.92812" lon="4.72832">
        <ele>171</ele>
        <time>2018-01-24T09:45:29Z</time>
      </trkpt>
      <trkpt lat="45.92813" lon="4.7284">
        <ele>170</ele>
        <time>2018-01-24T09:45:30Z</time>
      </trkpt>
      <trkpt lat="45.92814" lon="4.72848">
        <ele>170</ele>
        <time>2018-01-24T09:45:31Z</time>
      </trkpt>
      <trkpt lat="45.92815" lon="4.72855">
        <ele>170</ele>
        <time>2018-01-24T09:45:32Z</time>
      </trkpt>
      <trkpt lat="45.92816" lon="4.72864">
        <ele>170</ele>
        <time>2018-01-24T09:45:33Z</time>
      </trkpt>
      <trkpt lat="45.92817" lon="4.72872">
        <ele>170</ele>
        <time>2018-01-24T09:45:34Z</time>
      </trkpt>
      <trkpt lat="45.92819" lon="4.7288">
        <ele>170</ele>
        <time>2018-01-24T09:45:35Z</time>
      </trkpt>
      <trkpt lat="45.9282" lon="4.72887">
        <ele>170</ele>
        <time>2018-01-24T09:45:36Z</time>
      </trkpt>
      <trkpt lat="45.92822" lon="4.72894">
        <ele>170</ele>
        <time>2018-01-24T09:45:37Z</time>
      </trkpt>
      <trkpt lat="45.92823" lon="4.72903">
        <ele>170</ele>
        <time>2018-01-24T09:45:38Z</time>
      </trkpt>
      <trkpt lat="45.92824" lon="4.72912">
        <ele>170</ele>
        <time>2018-01-24T09:45:39Z</time>
      </trkpt>
      <trkpt lat="45.92825" lon="4.7292">
        <ele>170</ele>
        <time>2018-01-24T09:45:40Z</time>
      </trkpt>
      <trkpt lat="45.92826" lon="4.72927">
        <ele>170</ele>
        <time>2018-01-24T09:45:41Z</time>
      </trkpt>
      <trkpt lat="45.92827" lon="4.72935">
        <ele>170</ele>
        <time>2018-01-24T09:45:42Z</time>
      </trkpt>
      <trkpt lat="45.92827" lon="4.72944">
        <ele>170</ele>
        <time>2018-01-24T09:45:43Z</time>
      </trkpt>
      <trkpt lat="45.92828" lon="4.72952">
        <ele>170</ele>
        <time>2018-01-24T09:45:44Z</time>
      </trkpt>
      <trkpt lat="45.92828" lon="4.7296">
        <ele>170</ele>
        <time>2018-01-24T09:45:45Z</time>
      </trkpt>
      <trkpt lat="45.92829" lon="4.72968">
        <ele>170</ele>
        <time>2018-01-24T09:45:46Z</time>
      </trkpt>
      <trkpt lat="45.9283" lon="4.72976">
        <ele>170</ele>
        <time>2018-01-24T09:45:47Z</time>
      </trkpt>
      <trkpt lat="45.92829" lon="4.72983">
        <ele>170</ele>
        <time>2018-01-24T09:45:48Z</time>
      </trkpt>
      <trkpt lat="45.92831" lon="4.72993">
        <ele>170</ele>
        <time>2018-01-24T09:45:49Z</time>
      </trkpt>
      <trkpt lat="45.92832" lon="4.73003">
        <ele>170</ele>
        <time>2018-01-24T09:45:50Z</time>
      </trkpt>
      <trkpt lat="45.92832" lon="4.73011">
        <ele>170</ele>
        <time>2018-01-24T09:45:51Z</time>
      </trkpt>
      <trkpt lat="45.92833" lon="4.73018">
        <ele>170</ele>
        <time>2018-01-24T09:45:52Z</time>
      </trkpt>
      <trkpt lat="45.92835" lon="4.73027">
        <ele>171</ele>
        <time>2018-01-24T09:45:53Z</time>
      </trkpt>
      <trkpt lat="45.92836" lon="4.73035">
        <ele>171</ele>
        <time>2018-01-24T09:45:54Z</time>
      </trkpt>
      <trkpt lat="45.92838" lon="4.73041">
        <ele>171</ele>
        <time>2018-01-24T09:45:55Z</time>
      </trkpt>
      <trkpt lat="45.92839" lon="4.73048">
        <ele>171</ele>
        <time>2018-01-24T09:45:56Z</time>
      </trkpt>
      <trkpt lat="45.9284" lon="4.73056">
        <ele>171</ele>
        <time>2018-01-24T09:45:57Z</time>
      </trkpt>
      <trkpt lat="45.92841" lon="4.73063">
        <ele>171</ele>
        <time>2018-01-24T09:45:58Z</time>
      </trkpt>
      <trkpt lat="45.92842" lon="4.73072">
        <ele>171</ele>
        <time>2018-01-24T09:45:59Z</time>
      </trkpt>
      <trkpt lat="45.92844" lon="4.73079">
        <ele>171</ele>
        <time>2018-01-24T09:46:00Z</time>
      </trkpt>
      <trkpt lat="45.92845" lon="4.73085">
        <ele>171</ele>
        <time>2018-01-24T09:46:01Z</time>
      </trkpt>
      <trkpt lat="45.92847" lon="4.73098">
        <ele>171</ele>
        <time>2018-01-24T09:46:03Z</time>
      </trkpt>
      <trkpt lat="45.9285" lon="4.73103">
        <ele>171</ele>
        <time>2018-01-24T09:46:04Z</time>
      </trkpt>
      <trkpt lat="45.92857" lon="4.73104">
        <ele>171</ele>
        <time>2018-01-24T09:46:06Z</time>
      </trkpt>
      <trkpt lat="45.9286" lon="4.73102">
        <ele>171</ele>
        <time>2018-01-24T09:46:07Z</time>
      </trkpt>
      <trkpt lat="45.92864" lon="4.73094">
        <ele>171</ele>
        <time>2018-01-24T09:46:09Z</time>
      </trkpt>
      <trkpt lat="45.92867" lon="4.7309">
        <ele>172</ele>
        <time>2018-01-24T09:46:10Z</time>
      </trkpt>
      <trkpt lat="45.92872" lon="4.73084">
        <ele>172</ele>
        <time>2018-01-24T09:46:11Z</time>
      </trkpt>
      <trkpt lat="45.92875" lon="4.73082">
        <ele>172</ele>
        <time>2018-01-24T09:46:12Z</time>
      </trkpt>
      <trkpt lat="45.9288" lon="4.73081">
        <ele>172</ele>
        <time>2018-01-24T09:46:13Z</time>
      </trkpt>
      <trkpt lat="45.92885" lon="4.73078">
        <ele>172</ele>
        <time>2018-01-24T09:46:14Z</time>
      </trkpt>
      <trkpt lat="45.92889" lon="4.73073">
        <ele>172</ele>
        <time>2018-01-24T09:46:15Z</time>
      </trkpt>
      <trkpt lat="45.92893" lon="4.73068">
        <ele>172</ele>
        <time>2018-01-24T09:46:16Z</time>
      </trkpt>
      <trkpt lat="45.92896" lon="4.73062">
        <ele>172</ele>
        <time>2018-01-24T09:46:17Z</time>
      </trkpt>
      <trkpt lat="45.929" lon="4.73056">
        <ele>172</ele>
        <time>2018-01-24T09:46:18Z</time>
      </trkpt>
      <trkpt lat="45.92904" lon="4.73049">
        <ele>172</ele>
        <time>2018-01-24T09:46:19Z</time>
      </trkpt>
      <trkpt lat="45.92908" lon="4.73044">
        <ele>172</ele>
        <time>2018-01-24T09:46:20Z</time>
      </trkpt>
      <trkpt lat="45.92912" lon="4.73039">
        <ele>172</ele>
        <time>2018-01-24T09:46:21Z</time>
      </trkpt>
      <trkpt lat="45.92915" lon="4.73034">
        <ele>172</ele>
        <time>2018-01-24T09:46:22Z</time>
      </trkpt>
      <trkpt lat="45.92919" lon="4.73028">
        <ele>172</ele>
        <time>2018-01-24T09:46:23Z</time>
      </trkpt>
      <trkpt lat="45.92923" lon="4.73023">
        <ele>171</ele>
        <time>2018-01-24T09:46:24Z</time>
      </trkpt>
      <trkpt lat="45.92927" lon="4.73018">
        <ele>171</ele>
        <time>2018-01-24T09:46:25Z</time>
      </trkpt>
      <trkpt lat="45.92932" lon="4.73013">
        <ele>171</ele>
        <time>2018-01-24T09:46:26Z</time>
      </trkpt>
      <trkpt lat="45.92936" lon="4.73008">
        <ele>171</ele>
        <time>2018-01-24T09:46:27Z</time>
      </trkpt>
      <trkpt lat="45.92941" lon="4.73002">
        <ele>171</ele>
        <time>2018-01-24T09:46:28Z</time>
      </trkpt>
      <trkpt lat="45.92945" lon="4.72997">
        <ele>171</ele>
        <time>2018-01-24T09:46:29Z</time>
      </trkpt>
      <trkpt lat="45.9295" lon="4.72992">
        <ele>171</ele>
        <time>2018-01-24T09:46:30Z</time>
      </trkpt>
      <trkpt lat="45.92954" lon="4.72987">
        <ele>171</ele>
        <time>2018-01-24T09:46:31Z</time>
      </trkpt>
      <trkpt lat="45.92958" lon="4.72982">
        <ele>171</ele>
        <time>2018-01-24T09:46:32Z</time>
      </trkpt>
      <trkpt lat="45.92963" lon="4.72976">
        <ele>171</ele>
        <time>2018-01-24T09:46:33Z</time>
      </trkpt>
      <trkpt lat="45.92967" lon="4.7297">
        <ele>171</ele>
        <time>2018-01-24T09:46:34Z</time>
      </trkpt>
      <trkpt lat="45.92972" lon="4.72966">
        <ele>171</ele>
        <time>2018-01-24T09:46:35Z</time>
      </trkpt>
      <trkpt lat="45.92976" lon="4.72961">
        <ele>171</ele>
        <time>2018-01-24T09:46:36Z</time>
      </trkpt>
      <trkpt lat="45.9298" lon="4.72954">
        <ele>171</ele>
        <time>2018-01-24T09:46:37Z</time>
      </trkpt>
      <trkpt lat="45.92985" lon="4.72948">
        <ele>171</ele>
        <time>2018-01-24T09:46:38Z</time>
      </trkpt>
      <trkpt lat="45.92988" lon="4.72943">
        <ele>171</ele>
        <time>2018-01-24T09:46:39Z</time>
      </trkpt>
      <trkpt lat="45.92993" lon="4.72938">
        <ele>171</ele>
        <time>2018-01-24T09:46:40Z</time>
      </trkpt>
      <trkpt lat="45.92999" lon="4.72932">
        <ele>171</ele>
        <time>2018-01-24T09:46:41Z</time>
      </trkpt>
      <trkpt lat="45.93004" lon="4.72926">
        <ele>170</ele>
        <time>2018-01-24T09:46:42Z</time>
      </trkpt>
      <trkpt lat="45.93009" lon="4.7292">
        <ele>170</ele>
        <time>2018-01-24T09:46:43Z</time>
      </trkpt>
      <trkpt lat="45.93013" lon="4.72913">
        <ele>171</ele>
        <time>2018-01-24T09:46:44Z</time>
      </trkpt>
      <trkpt lat="45.93018" lon="4.72908">
        <ele>172</ele>
        <time>2018-01-24T09:46:45Z</time>
      </trkpt>
      <trkpt lat="45.93023" lon="4.72902">
        <ele>172</ele>
        <time>2018-01-24T09:46:46Z</time>
      </trkpt>
      <trkpt lat="45.93028" lon="4.72896">
        <ele>172</ele>
        <time>2018-01-24T09:46:47Z</time>
      </trkpt>
      <trkpt lat="45.93033" lon="4.72889">
        <ele>172</ele>
        <time>2018-01-24T09:46:48Z</time>
      </trkpt>
      <trkpt lat="45.93038" lon="4.72883">
        <ele>172</ele>
        <time>2018-01-24T09:46:49Z</time>
      </trkpt>
      <trkpt lat="45.93043" lon="4.72878">
        <ele>172</ele>
        <time>2018-01-24T09:46:50Z</time>
      </trkpt>
      <trkpt lat="45.93048" lon="4.72872">
        <ele>172</ele>
        <time>2018-01-24T09:46:51Z</time>
      </trkpt>
      <trkpt lat="45.93052" lon="4.72867">
        <ele>172</ele>
        <time>2018-01-24T09:46:52Z</time>
      </trkpt>
      <trkpt lat="45.93058" lon="4.72861">
        <ele>172</ele>
        <time>2018-01-24T09:46:53Z</time>
      </trkpt>
      <trkpt lat="45.93063" lon="4.72856">
        <ele>172</ele>
        <time>2018-01-24T09:46:54Z</time>
      </trkpt>
      <trkpt lat="45.93068" lon="4.72849">
        <ele>172</ele>
        <time>2018-01-24T09:46:56Z</time>
      </trkpt>
      <trkpt lat="45.93082" lon="4.7283">
        <ele>173</ele>
        <time>2018-01-24T09:46:59Z</time>
      </trkpt>
      <trkpt lat="45.93089" lon="4.72821">
        <ele>172</ele>
        <time>2018-01-24T09:47:00Z</time>
      </trkpt>
      <trkpt lat="45.9309" lon="4.72813">
        <ele>172</ele>
        <time>2018-01-24T09:47:01Z</time>
      </trkpt>
      <trkpt lat="45.93095" lon="4.72811">
        <ele>172</ele>
        <time>2018-01-24T09:47:02Z</time>
      </trkpt>
      <trkpt lat="45.93101" lon="4.72806">
        <ele>171</ele>
        <time>2018-01-24T09:47:03Z</time>
      </trkpt>
      <trkpt lat="45.93106" lon="4.72802">
        <ele>171</ele>
        <time>2018-01-24T09:47:04Z</time>
      </trkpt>
      <trkpt lat="45.93112" lon="4.72798">
        <ele>171</ele>
        <time>2018-01-24T09:47:05Z</time>
      </trkpt>
      <trkpt lat="45.93118" lon="4.72794">
        <ele>171</ele>
        <time>2018-01-24T09:47:06Z</time>
      </trkpt>
      <trkpt lat="45.93123" lon="4.72787">
        <ele>171</ele>
        <time>2018-01-24T09:47:07Z</time>
      </trkpt>
      <trkpt lat="45.93127" lon="4.72781">
        <ele>171</ele>
        <time>2018-01-24T09:47:08Z</time>
      </trkpt>
      <trkpt lat="45.93132" lon="4.72775">
        <ele>171</ele>
        <time>2018-01-24T09:47:09Z</time>
      </trkpt>
      <trkpt lat="45.93137" lon="4.72769">
        <ele>171</ele>
        <time>2018-01-24T09:47:10Z</time>
      </trkpt>
      <trkpt lat="45.93142" lon="4.72764">
        <ele>171</ele>
        <time>2018-01-24T09:47:11Z</time>
      </trkpt>
      <trkpt lat="45.93147" lon="4.72758">
        <ele>171</ele>
        <time>2018-01-24T09:47:12Z</time>
      </trkpt>
      <trkpt lat="45.93152" lon="4.72753">
        <ele>170</ele>
        <time>2018-01-24T09:47:13Z</time>
      </trkpt>
      <trkpt lat="45.93157" lon="4.72747">
        <ele>170</ele>
        <time>2018-01-24T09:47:14Z</time>
      </trkpt>
      <trkpt lat="45.93162" lon="4.7274">
        <ele>170</ele>
        <time>2018-01-24T09:47:15Z</time>
      </trkpt>
      <trkpt lat="45.93168" lon="4.72734">
        <ele>170</ele>
        <time>2018-01-24T09:47:16Z</time>
      </trkpt>
      <trkpt lat="45.93171" lon="4.72729">
        <ele>170</ele>
        <time>2018-01-24T09:47:17Z</time>
      </trkpt>
      <trkpt lat="45.93176" lon="4.72724">
        <ele>170</ele>
        <time>2018-01-24T09:47:18Z</time>
      </trkpt>
      <trkpt lat="45.9318" lon="4.72719">
        <ele>169</ele>
        <time>2018-01-24T09:47:19Z</time>
      </trkpt>
      <trkpt lat="45.93185" lon="4.72713">
        <ele>169</ele>
        <time>2018-01-24T09:47:20Z</time>
      </trkpt>
      <trkpt lat="45.93189" lon="4.72708">
        <ele>169</ele>
        <time>2018-01-24T09:47:21Z</time>
      </trkpt>
      <trkpt lat="45.93194" lon="4.72703">
        <ele>169</ele>
        <time>2018-01-24T09:47:22Z</time>
      </trkpt>
      <trkpt lat="45.93198" lon="4.72697">
        <ele>169</ele>
        <time>2018-01-24T09:47:23Z</time>
      </trkpt>
      <trkpt lat="45.93203" lon="4.72691">
        <ele>169</ele>
        <time>2018-01-24T09:47:24Z</time>
      </trkpt>
      <trkpt lat="45.93207" lon="4.72685">
        <ele>169</ele>
        <time>2018-01-24T09:47:25Z</time>
      </trkpt>
      <trkpt lat="45.93212" lon="4.72679">
        <ele>169</ele>
        <time>2018-01-24T09:47:26Z</time>
      </trkpt>
      <trkpt lat="45.93216" lon="4.72674">
        <ele>169</ele>
        <time>2018-01-24T09:47:27Z</time>
      </trkpt>
      <trkpt lat="45.93221" lon="4.72669">
        <ele>169</ele>
        <time>2018-01-24T09:47:28Z</time>
      </trkpt>
      <trkpt lat="45.93225" lon="4.72664">
        <ele>170</ele>
        <time>2018-01-24T09:47:29Z</time>
      </trkpt>
      <trkpt lat="45.9323" lon="4.72659">
        <ele>169</ele>
        <time>2018-01-24T09:47:30Z</time>
      </trkpt>
      <trkpt lat="45.93235" lon="4.72653">
        <ele>169</ele>
        <time>2018-01-24T09:47:31Z</time>
      </trkpt>
      <trkpt lat="45.9324" lon="4.72647">
        <ele>170</ele>
        <time>2018-01-24T09:47:32Z</time>
      </trkpt>
      <trkpt lat="45.93245" lon="4.72641">
        <ele>170</ele>
        <time>2018-01-24T09:47:33Z</time>
      </trkpt>
      <trkpt lat="45.93252" lon="4.72634">
        <ele>170</ele>
        <time>2018-01-24T09:47:34Z</time>
      </trkpt>
      <trkpt lat="45.93256" lon="4.72628">
        <ele>170</ele>
        <time>2018-01-24T09:47:35Z</time>
      </trkpt>
      <trkpt lat="45.9326" lon="4.72624">
        <ele>170</ele>
        <time>2018-01-24T09:47:36Z</time>
      </trkpt>
      <trkpt lat="45.93265" lon="4.72619">
        <ele>170</ele>
        <time>2018-01-24T09:47:37Z</time>
      </trkpt>
      <trkpt lat="45.9327" lon="4.72614">
        <ele>170</ele>
        <time>2018-01-24T09:47:38Z</time>
      </trkpt>
      <trkpt lat="45.93274" lon="4.72609">
        <ele>170</ele>
        <time>2018-01-24T09:47:39Z</time>
      </trkpt>
      <trkpt lat="45.93278" lon="4.72604">
        <ele>170</ele>
        <time>2018-01-24T09:47:40Z</time>
      </trkpt>
      <trkpt lat="45.93282" lon="4.72598">
        <ele>170</ele>
        <time>2018-01-24T09:47:41Z</time>
      </trkpt>
      <trkpt lat="45.93287" lon="4.72593">
        <ele>170</ele>
        <time>2018-01-24T09:47:42Z</time>
      </trkpt>
      <trkpt lat="45.93292" lon="4.72588">
        <ele>170</ele>
        <time>2018-01-24T09:47:43Z</time>
      </trkpt>
      <trkpt lat="45.93296" lon="4.72582">
        <ele>171</ele>
        <time>2018-01-24T09:47:44Z</time>
      </trkpt>
      <trkpt lat="45.93301" lon="4.72576">
        <ele>171</ele>
        <time>2018-01-24T09:47:45Z</time>
      </trkpt>
      <trkpt lat="45.93306" lon="4.72571">
        <ele>171</ele>
        <time>2018-01-24T09:47:46Z</time>
      </trkpt>
      <trkpt lat="45.93311" lon="4.72565">
        <ele>171</ele>
        <time>2018-01-24T09:47:47Z</time>
      </trkpt>
      <trkpt lat="45.93315" lon="4.7256">
        <ele>171</ele>
        <time>2018-01-24T09:47:48Z</time>
      </trkpt>
      <trkpt lat="45.9332" lon="4.72555">
        <ele>172</ele>
        <time>2018-01-24T09:47:49Z</time>
      </trkpt>
      <trkpt lat="45.93324" lon="4.72549">
        <ele>172</ele>
        <time>2018-01-24T09:47:50Z</time>
      </trkpt>
      <trkpt lat="45.93329" lon="4.72544">
        <ele>172</ele>
        <time>2018-01-24T09:47:51Z</time>
      </trkpt>
      <trkpt lat="45.93333" lon="4.72538">
        <ele>172</ele>
        <time>2018-01-24T09:47:52Z</time>
      </trkpt>
      <trkpt lat="45.93337" lon="4.72533">
        <ele>172</ele>
        <time>2018-01-24T09:47:53Z</time>
      </trkpt>
      <trkpt lat="45.93342" lon="4.72528">
        <ele>172</ele>
        <time>2018-01-24T09:47:54Z</time>
      </trkpt>
      <trkpt lat="45.93346" lon="4.72524">
        <ele>172</ele>
        <time>2018-01-24T09:47:55Z</time>
      </trkpt>
      <trkpt lat="45.9335" lon="4.7252">
        <ele>172</ele>
        <time>2018-01-24T09:47:56Z</time>
      </trkpt>
      <trkpt lat="45.93355" lon="4.72516">
        <ele>172</ele>
        <time>2018-01-24T09:47:57Z</time>
      </trkpt>
      <trkpt lat="45.93358" lon="4.7251">
        <ele>172</ele>
        <time>2018-01-24T09:47:58Z</time>
      </trkpt>
      <trkpt lat="45.93363" lon="4.72505">
        <ele>172</ele>
        <time>2018-01-24T09:47:59Z</time>
      </trkpt>
      <trkpt lat="45.93367" lon="4.72501">
        <ele>172</ele>
        <time>2018-01-24T09:48:00Z</time>
      </trkpt>
      <trkpt lat="45.93371" lon="4.72497">
        <ele>173</ele>
        <time>2018-01-24T09:48:01Z</time>
      </trkpt>
      <trkpt lat="45.93376" lon="4.72491">
        <ele>173</ele>
        <time>2018-01-24T09:48:02Z</time>
      </trkpt>
      <trkpt lat="45.93381" lon="4.72486">
        <ele>173</ele>
        <time>2018-01-24T09:48:03Z</time>
      </trkpt>
      <trkpt lat="45.93385" lon="4.7248">
        <ele>173</ele>
        <time>2018-01-24T09:48:04Z</time>
      </trkpt>
      <trkpt lat="45.9339" lon="4.72475">
        <ele>173</ele>
        <time>2018-01-24T09:48:05Z</time>
      </trkpt>
      <trkpt lat="45.93393" lon="4.72467">
        <ele>173</ele>
        <time>2018-01-24T09:48:06Z</time>
      </trkpt>
      <trkpt lat="45.93396" lon="4.72459">
        <ele>173</ele>
        <time>2018-01-24T09:48:07Z</time>
      </trkpt>
      <trkpt lat="45.93398" lon="4.72451">
        <ele>173</ele>
        <time>2018-01-24T09:48:08Z</time>
      </trkpt>
      <trkpt lat="45.934" lon="4.72443">
        <ele>173</ele>
        <time>2018-01-24T09:48:09Z</time>
      </trkpt>
      <trkpt lat="45.93402" lon="4.72436">
        <ele>173</ele>
        <time>2018-01-24T09:48:10Z</time>
      </trkpt>
      <trkpt lat="45.93406" lon="4.72429">
        <ele>173</ele>
        <time>2018-01-24T09:48:11Z</time>
      </trkpt>
      <trkpt lat="45.9341" lon="4.72423">
        <ele>174</ele>
        <time>2018-01-24T09:48:12Z</time>
      </trkpt>
      <trkpt lat="45.93415" lon="4.72418">
        <ele>174</ele>
        <time>2018-01-24T09:48:13Z</time>
      </trkpt>
      <trkpt lat="45.93421" lon="4.72414">
        <ele>174</ele>
        <time>2018-01-24T09:48:14Z</time>
      </trkpt>
      <trkpt lat="45.93426" lon="4.72411">
        <ele>174</ele>
        <time>2018-01-24T09:48:15Z</time>
      </trkpt>
      <trkpt lat="45.93431" lon="4.7241">
        <ele>174</ele>
        <time>2018-01-24T09:48:16Z</time>
      </trkpt>
      <trkpt lat="45.93437" lon="4.72407">
        <ele>174</ele>
        <time>2018-01-24T09:48:17Z</time>
      </trkpt>
      <trkpt lat="45.93442" lon="4.72404">
        <ele>173</ele>
        <time>2018-01-24T09:48:18Z</time>
      </trkpt>
      <trkpt lat="45.93448" lon="4.724">
        <ele>173</ele>
        <time>2018-01-24T09:48:19Z</time>
      </trkpt>
      <trkpt lat="45.93453" lon="4.72395">
        <ele>173</ele>
        <time>2018-01-24T09:48:20Z</time>
      </trkpt>
      <trkpt lat="45.93459" lon="4.72389">
        <ele>173</ele>
        <time>2018-01-24T09:48:21Z</time>
      </trkpt>
      <trkpt lat="45.93464" lon="4.72384">
        <ele>173</ele>
        <time>2018-01-24T09:48:22Z</time>
      </trkpt>
      <trkpt lat="45.93468" lon="4.72378">
        <ele>173</ele>
        <time>2018-01-24T09:48:23Z</time>
      </trkpt>
      <trkpt lat="45.93473" lon="4.72372">
        <ele>173</ele>
        <time>2018-01-24T09:48:24Z</time>
      </trkpt>
      <trkpt lat="45.93478" lon="4.72366">
        <ele>173</ele>
        <time>2018-01-24T09:48:25Z</time>
      </trkpt>
      <trkpt lat="45.93483" lon="4.7236">
        <ele>173</ele>
        <time>2018-01-24T09:48:26Z</time>
      </trkpt>
      <trkpt lat="45.93488" lon="4.72354">
        <ele>173</ele>
        <time>2018-01-24T09:48:27Z</time>
      </trkpt>
      <trkpt lat="45.93492" lon="4.72348">
        <ele>173</ele>
        <time>2018-01-24T09:48:28Z</time>
      </trkpt>
      <trkpt lat="45.93496" lon="4.72341">
        <ele>173</ele>
        <time>2018-01-24T09:48:29Z</time>
      </trkpt>
      <trkpt lat="45.935" lon="4.72335">
        <ele>173</ele>
        <time>2018-01-24T09:48:30Z</time>
      </trkpt>
      <trkpt lat="45.93504" lon="4.72328">
        <ele>173</ele>
        <time>2018-01-24T09:48:31Z</time>
      </trkpt>
      <trkpt lat="45.93509" lon="4.72322">
        <ele>173</ele>
        <time>2018-01-24T09:48:32Z</time>
      </trkpt>
      <trkpt lat="45.93513" lon="4.72317">
        <ele>173</ele>
        <time>2018-01-24T09:48:33Z</time>
      </trkpt>
      <trkpt lat="45.93517" lon="4.72312">
        <ele>173</ele>
        <time>2018-01-24T09:48:34Z</time>
      </trkpt>
      <trkpt lat="45.9352" lon="4.72307">
        <ele>173</ele>
        <time>2018-01-24T09:48:35Z</time>
      </trkpt>
      <trkpt lat="45.93523" lon="4.723">
        <ele>172</ele>
        <time>2018-01-24T09:48:36Z</time>
      </trkpt>
      <trkpt lat="45.93525" lon="4.72295">
        <ele>172</ele>
        <time>2018-01-24T09:48:37Z</time>
      </trkpt>
      <trkpt lat="45.93527" lon="4.72287">
        <ele>172</ele>
        <time>2018-01-24T09:48:38Z</time>
      </trkpt>
      <trkpt lat="45.9353" lon="4.72282">
        <ele>172</ele>
        <time>2018-01-24T09:48:39Z</time>
      </trkpt>
      <trkpt lat="45.93533" lon="4.72274">
        <ele>172</ele>
        <time>2018-01-24T09:48:40Z</time>
      </trkpt>
      <trkpt lat="45.93535" lon="4.72268">
        <ele>172</ele>
        <time>2018-01-24T09:48:41Z</time>
      </trkpt>
      <trkpt lat="45.93538" lon="4.72262">
        <ele>172</ele>
        <time>2018-01-24T09:48:42Z</time>
      </trkpt>
      <trkpt lat="45.93541" lon="4.72255">
        <ele>172</ele>
        <time>2018-01-24T09:48:43Z</time>
      </trkpt>
      <trkpt lat="45.93544" lon="4.72249">
        <ele>172</ele>
        <time>2018-01-24T09:48:44Z</time>
      </trkpt>
      <trkpt lat="45.93547" lon="4.72241">
        <ele>172</ele>
        <time>2018-01-24T09:48:45Z</time>
      </trkpt>
      <trkpt lat="45.93549" lon="4.72235">
        <ele>172</ele>
        <time>2018-01-24T09:48:46Z</time>
      </trkpt>
      <trkpt lat="45.93552" lon="4.72228">
        <ele>173</ele>
        <time>2018-01-24T09:48:47Z</time>
      </trkpt>
      <trkpt lat="45.93556" lon="4.72222">
        <ele>173</ele>
        <time>2018-01-24T09:48:48Z</time>
      </trkpt>
      <trkpt lat="45.9356" lon="4.72216">
        <ele>173</ele>
        <time>2018-01-24T09:48:49Z</time>
      </trkpt>
      <trkpt lat="45.93565" lon="4.72211">
        <ele>173</ele>
        <time>2018-01-24T09:48:50Z</time>
      </trkpt>
      <trkpt lat="45.93569" lon="4.72206">
        <ele>173</ele>
        <time>2018-01-24T09:48:51Z</time>
      </trkpt>
      <trkpt lat="45.93574" lon="4.722">
        <ele>173</ele>
        <time>2018-01-24T09:48:52Z</time>
      </trkpt>
      <trkpt lat="45.9358" lon="4.72196">
        <ele>173</ele>
        <time>2018-01-24T09:48:53Z</time>
      </trkpt>
      <trkpt lat="45.93584" lon="4.72191">
        <ele>173</ele>
        <time>2018-01-24T09:48:54Z</time>
      </trkpt>
      <trkpt lat="45.93589" lon="4.72188">
        <ele>173</ele>
        <time>2018-01-24T09:48:55Z</time>
      </trkpt>
      <trkpt lat="45.93594" lon="4.72183">
        <ele>173</ele>
        <time>2018-01-24T09:48:56Z</time>
      </trkpt>
      <trkpt lat="45.93599" lon="4.72179">
        <ele>173</ele>
        <time>2018-01-24T09:48:57Z</time>
      </trkpt>
      <trkpt lat="45.93604" lon="4.72173">
        <ele>173</ele>
        <time>2018-01-24T09:48:58Z</time>
      </trkpt>
      <trkpt lat="45.93609" lon="4.72167">
        <ele>173</ele>
        <time>2018-01-24T09:48:59Z</time>
      </trkpt>
      <trkpt lat="45.93613" lon="4.72161">
        <ele>173</ele>
        <time>2018-01-24T09:49:00Z</time>
      </trkpt>
      <trkpt lat="45.93616" lon="4.72156">
        <ele>173</ele>
        <time>2018-01-24T09:49:01Z</time>
      </trkpt>
      <trkpt lat="45.93621" lon="4.72151">
        <ele>173</ele>
        <time>2018-01-24T09:49:02Z</time>
      </trkpt>
      <trkpt lat="45.93626" lon="4.72144">
        <ele>173</ele>
        <time>2018-01-24T09:49:03Z</time>
      </trkpt>
      <trkpt lat="45.93632" lon="4.72138">
        <ele>173</ele>
        <time>2018-01-24T09:49:04Z</time>
      </trkpt>
      <trkpt lat="45.93635" lon="4.72131">
        <ele>173</ele>
        <time>2018-01-24T09:49:05Z</time>
      </trkpt>
      <trkpt lat="45.9364" lon="4.72125">
        <ele>173</ele>
        <time>2018-01-24T09:49:06Z</time>
      </trkpt>
      <trkpt lat="45.93643" lon="4.72119">
        <ele>173</ele>
        <time>2018-01-24T09:49:07Z</time>
      </trkpt>
      <trkpt lat="45.93647" lon="4.72114">
        <ele>173</ele>
        <time>2018-01-24T09:49:08Z</time>
      </trkpt>
      <trkpt lat="45.93651" lon="4.72108">
        <ele>173</ele>
        <time>2018-01-24T09:49:09Z</time>
      </trkpt>
      <trkpt lat="45.93654" lon="4.72101">
        <ele>173</ele>
        <time>2018-01-24T09:49:10Z</time>
      </trkpt>
      <trkpt lat="45.93658" lon="4.72096">
        <ele>173</ele>
        <time>2018-01-24T09:49:11Z</time>
      </trkpt>
      <trkpt lat="45.93661" lon="4.72089">
        <ele>172</ele>
        <time>2018-01-24T09:49:12Z</time>
      </trkpt>
      <trkpt lat="45.93665" lon="4.72083">
        <ele>172</ele>
        <time>2018-01-24T09:49:13Z</time>
      </trkpt>
      <trkpt lat="45.93668" lon="4.72078">
        <ele>172</ele>
        <time>2018-01-24T09:49:14Z</time>
      </trkpt>
      <trkpt lat="45.93671" lon="4.72072">
        <ele>172</ele>
        <time>2018-01-24T09:49:15Z</time>
      </trkpt>
      <trkpt lat="45.93675" lon="4.72064">
        <ele>172</ele>
        <time>2018-01-24T09:49:16Z</time>
      </trkpt>
      <trkpt lat="45.93678" lon="4.72058">
        <ele>172</ele>
        <time>2018-01-24T09:49:17Z</time>
      </trkpt>
      <trkpt lat="45.93682" lon="4.72052">
        <ele>172</ele>
        <time>2018-01-24T09:49:18Z</time>
      </trkpt>
      <trkpt lat="45.93684" lon="4.72044">
        <ele>172</ele>
        <time>2018-01-24T09:49:19Z</time>
      </trkpt>
      <trkpt lat="45.93686" lon="4.72038">
        <ele>173</ele>
        <time>2018-01-24T09:49:20Z</time>
      </trkpt>
      <trkpt lat="45.93686" lon="4.7203">
        <ele>173</ele>
        <time>2018-01-24T09:49:21Z</time>
      </trkpt>
      <trkpt lat="45.93684" lon="4.72021">
        <ele>173</ele>
        <time>2018-01-24T09:49:22Z</time>
      </trkpt>
      <trkpt lat="45.93681" lon="4.72014">
        <ele>173</ele>
        <time>2018-01-24T09:49:23Z</time>
      </trkpt>
      <trkpt lat="45.93679" lon="4.72007">
        <ele>173</ele>
        <time>2018-01-24T09:49:24Z</time>
      </trkpt>
      <trkpt lat="45.93676" lon="4.71999">
        <ele>173</ele>
        <time>2018-01-24T09:49:25Z</time>
      </trkpt>
      <trkpt lat="45.93673" lon="4.7199">
        <ele>173</ele>
        <time>2018-01-24T09:49:26Z</time>
      </trkpt>
      <trkpt lat="45.93671" lon="4.71983">
        <ele>173</ele>
        <time>2018-01-24T09:49:27Z</time>
      </trkpt>
      <trkpt lat="45.93668" lon="4.71975">
        <ele>173</ele>
        <time>2018-01-24T09:49:28Z</time>
      </trkpt>
      <trkpt lat="45.93665" lon="4.71968">
        <ele>175</ele>
        <time>2018-01-24T09:49:29Z</time>
      </trkpt>
      <trkpt lat="45.93662" lon="4.71963">
        <ele>175</ele>
        <time>2018-01-24T09:49:30Z</time>
      </trkpt>
      <trkpt lat="45.9366" lon="4.71958">
        <ele>175</ele>
        <time>2018-01-24T09:49:31Z</time>
      </trkpt>
      <trkpt lat="45.93658" lon="4.71951">
        <ele>175</ele>
        <time>2018-01-24T09:49:32Z</time>
      </trkpt>
      <trkpt lat="45.93656" lon="4.71944">
        <ele>175</ele>
        <time>2018-01-24T09:49:33Z</time>
      </trkpt>
      <trkpt lat="45.93653" lon="4.71937">
        <ele>175</ele>
        <time>2018-01-24T09:49:34Z</time>
      </trkpt>
      <trkpt lat="45.9365" lon="4.7193">
        <ele>175</ele>
        <time>2018-01-24T09:49:35Z</time>
      </trkpt>
      <trkpt lat="45.93647" lon="4.71923">
        <ele>175</ele>
        <time>2018-01-24T09:49:36Z</time>
      </trkpt>
      <trkpt lat="45.93645" lon="4.71917">
        <ele>176</ele>
        <time>2018-01-24T09:49:37Z</time>
      </trkpt>
      <trkpt lat="45.93641" lon="4.71909">
        <ele>177</ele>
        <time>2018-01-24T09:49:38Z</time>
      </trkpt>
      <trkpt lat="45.93638" lon="4.71903">
        <ele>177</ele>
        <time>2018-01-24T09:49:39Z</time>
      </trkpt>
      <trkpt lat="45.93635" lon="4.71896">
        <ele>177</ele>
        <time>2018-01-24T09:49:40Z</time>
      </trkpt>
      <trkpt lat="45.93633" lon="4.71889">
        <ele>177</ele>
        <time>2018-01-24T09:49:41Z</time>
      </trkpt>
      <trkpt lat="45.93631" lon="4.71883">
        <ele>177</ele>
        <time>2018-01-24T09:49:42Z</time>
      </trkpt>
      <trkpt lat="45.93628" lon="4.71877">
        <ele>177</ele>
        <time>2018-01-24T09:49:43Z</time>
      </trkpt>
      <trkpt lat="45.93626" lon="4.71871">
        <ele>178</ele>
        <time>2018-01-24T09:49:44Z</time>
      </trkpt>
      <trkpt lat="45.93625" lon="4.71861">
        <ele>178</ele>
        <time>2018-01-24T09:49:46Z</time>
      </trkpt>
      <trkpt lat="45.93625" lon="4.71856">
        <ele>178</ele>
        <time>2018-01-24T09:49:47Z</time>
      </trkpt>
      <trkpt lat="45.93623" lon="4.71844">
        <ele>178</ele>
        <time>2018-01-24T09:49:50Z</time>
      </trkpt>
      <trkpt lat="45.93622" lon="4.7184">
        <ele>178</ele>
        <time>2018-01-24T09:49:51Z</time>
      </trkpt>
      <trkpt lat="45.93618" lon="4.71829">
        <ele>179</ele>
        <time>2018-01-24T09:49:54Z</time>
      </trkpt>
      <trkpt lat="45.93617" lon="4.71825">
        <ele>179</ele>
        <time>2018-01-24T09:49:55Z</time>
      </trkpt>
      <trkpt lat="45.93614" lon="4.71817">
        <ele>179</ele>
        <time>2018-01-24T09:49:58Z</time>
      </trkpt>
      <trkpt lat="45.93611" lon="4.71815">
        <ele>179</ele>
        <time>2018-01-24T09:49:59Z</time>
      </trkpt>
      <trkpt lat="45.93605" lon="4.71818">
        <ele>179</ele>
        <time>2018-01-24T09:50:01Z</time>
      </trkpt>
      <trkpt lat="45.93601" lon="4.7182">
        <ele>179</ele>
        <time>2018-01-24T09:50:02Z</time>
      </trkpt>
      <trkpt lat="45.93597" lon="4.71824">
        <ele>179</ele>
        <time>2018-01-24T09:50:03Z</time>
      </trkpt>
      <trkpt lat="45.93591" lon="4.7183">
        <ele>180</ele>
        <time>2018-01-24T09:50:04Z</time>
      </trkpt>
      <trkpt lat="45.93587" lon="4.71834">
        <ele>180</ele>
        <time>2018-01-24T09:50:05Z</time>
      </trkpt>
      <trkpt lat="45.93581" lon="4.71831">
        <ele>180</ele>
        <time>2018-01-24T09:50:06Z</time>
      </trkpt>
      <trkpt lat="45.93573" lon="4.71833">
        <ele>180</ele>
        <time>2018-01-24T09:50:08Z</time>
      </trkpt>
      <trkpt lat="45.93569" lon="4.71834">
        <ele>179</ele>
        <time>2018-01-24T09:50:09Z</time>
      </trkpt>
      <trkpt lat="45.93564" lon="4.71834">
        <ele>179</ele>
        <time>2018-01-24T09:50:10Z</time>
      </trkpt>
      <trkpt lat="45.9356" lon="4.71835">
        <ele>179</ele>
        <time>2018-01-24T09:50:11Z</time>
      </trkpt>
      <trkpt lat="45.93555" lon="4.71835">
        <ele>179</ele>
        <time>2018-01-24T09:50:12Z</time>
      </trkpt>
      <trkpt lat="45.9355" lon="4.71836">
        <ele>179</ele>
        <time>2018-01-24T09:50:13Z</time>
      </trkpt>
      <trkpt lat="45.93546" lon="4.71836">
        <ele>179</ele>
        <time>2018-01-24T09:50:14Z</time>
      </trkpt>
      <trkpt lat="45.93541" lon="4.71836">
        <ele>179</ele>
        <time>2018-01-24T09:50:15Z</time>
      </trkpt>
      <trkpt lat="45.93536" lon="4.71836">
        <ele>179</ele>
        <time>2018-01-24T09:50:16Z</time>
      </trkpt>
      <trkpt lat="45.93531" lon="4.71837">
        <ele>179</ele>
        <time>2018-01-24T09:50:17Z</time>
      </trkpt>
      <trkpt lat="45.93524" lon="4.71839">
        <ele>179</ele>
        <time>2018-01-24T09:50:19Z</time>
      </trkpt>
      <trkpt lat="45.93518" lon="4.7184">
        <ele>179</ele>
        <time>2018-01-24T09:50:20Z</time>
      </trkpt>
      <trkpt lat="45.93509" lon="4.71842">
        <ele>179</ele>
        <time>2018-01-24T09:50:22Z</time>
      </trkpt>
      <trkpt lat="45.93505" lon="4.7184">
        <ele>179</ele>
        <time>2018-01-24T09:50:23Z</time>
      </trkpt>
      <trkpt lat="45.93497" lon="4.71842">
        <ele>179</ele>
        <time>2018-01-24T09:50:25Z</time>
      </trkpt>
      <trkpt lat="45.93494" lon="4.71842">
        <ele>179</ele>
        <time>2018-01-24T09:50:26Z</time>
      </trkpt>
      <trkpt lat="45.93487" lon="4.71843">
        <ele>180</ele>
        <time>2018-01-24T09:50:27Z</time>
      </trkpt>
      <trkpt lat="45.93483" lon="4.71846">
        <ele>180</ele>
        <time>2018-01-24T09:50:28Z</time>
      </trkpt>
      <trkpt lat="45.93474" lon="4.71847">
        <ele>180</ele>
        <time>2018-01-24T09:50:30Z</time>
      </trkpt>
      <trkpt lat="45.9347" lon="4.71847">
        <ele>180</ele>
        <time>2018-01-24T09:50:31Z</time>
      </trkpt>
      <trkpt lat="45.93461" lon="4.71848">
        <ele>181</ele>
        <time>2018-01-24T09:50:33Z</time>
      </trkpt>
      <trkpt lat="45.93457" lon="4.71844">
        <ele>181</ele>
        <time>2018-01-24T09:50:34Z</time>
      </trkpt>
      <trkpt lat="45.93451" lon="4.71837">
        <ele>181</ele>
        <time>2018-01-24T09:50:36Z</time>
      </trkpt>
      <trkpt lat="45.93449" lon="4.71832">
        <ele>182</ele>
        <time>2018-01-24T09:50:37Z</time>
      </trkpt>
      <trkpt lat="45.93445" lon="4.71823">
        <ele>182</ele>
        <time>2018-01-24T09:50:39Z</time>
      </trkpt>
      <trkpt lat="45.93443" lon="4.71818">
        <ele>182</ele>
        <time>2018-01-24T09:50:40Z</time>
      </trkpt>
      <trkpt lat="45.9344" lon="4.71809">
        <ele>182</ele>
        <time>2018-01-24T09:50:42Z</time>
      </trkpt>
      <trkpt lat="45.93438" lon="4.71805">
        <ele>182</ele>
        <time>2018-01-24T09:50:43Z</time>
      </trkpt>
      <trkpt lat="45.93435" lon="4.71796">
        <ele>182</ele>
        <time>2018-01-24T09:50:45Z</time>
      </trkpt>
      <trkpt lat="45.93433" lon="4.7179">
        <ele>182</ele>
        <time>2018-01-24T09:50:46Z</time>
      </trkpt>
      <trkpt lat="45.93429" lon="4.71779">
        <ele>182</ele>
        <time>2018-01-24T09:50:48Z</time>
      </trkpt>
      <trkpt lat="45.93427" lon="4.71774">
        <ele>182</ele>
        <time>2018-01-24T09:50:49Z</time>
      </trkpt>
      <trkpt lat="45.93423" lon="4.71764">
        <ele>182</ele>
        <time>2018-01-24T09:50:51Z</time>
      </trkpt>
      <trkpt lat="45.93421" lon="4.71759">
        <ele>182</ele>
        <time>2018-01-24T09:50:52Z</time>
      </trkpt>
      <trkpt lat="45.93417" lon="4.71748">
        <ele>183</ele>
        <time>2018-01-24T09:50:54Z</time>
      </trkpt>
      <trkpt lat="45.93415" lon="4.71743">
        <ele>183</ele>
        <time>2018-01-24T09:50:55Z</time>
      </trkpt>
      <trkpt lat="45.93411" lon="4.71733">
        <ele>184</ele>
        <time>2018-01-24T09:50:57Z</time>
      </trkpt>
      <trkpt lat="45.93409" lon="4.71728">
        <ele>184</ele>
        <time>2018-01-24T09:50:58Z</time>
      </trkpt>
      <trkpt lat="45.93405" lon="4.71718">
        <ele>184</ele>
        <time>2018-01-24T09:51:00Z</time>
      </trkpt>
      <trkpt lat="45.93403" lon="4.71713">
        <ele>184</ele>
        <time>2018-01-24T09:51:01Z</time>
      </trkpt>
      <trkpt lat="45.93399" lon="4.71705">
        <ele>184</ele>
        <time>2018-01-24T09:51:03Z</time>
      </trkpt>
      <trkpt lat="45.93397" lon="4.717">
        <ele>184</ele>
        <time>2018-01-24T09:51:04Z</time>
      </trkpt>
      <trkpt lat="45.93393" lon="4.71691">
        <ele>184</ele>
        <time>2018-01-24T09:51:06Z</time>
      </trkpt>
      <trkpt lat="45.93391" lon="4.71687">
        <ele>184</ele>
        <time>2018-01-24T09:51:07Z</time>
      </trkpt>
      <trkpt lat="45.93387" lon="4.71678">
        <ele>184</ele>
        <time>2018-01-24T09:51:09Z</time>
      </trkpt>
      <trkpt lat="45.93385" lon="4.71673">
        <ele>185</ele>
        <time>2018-01-24T09:51:10Z</time>
      </trkpt>
      <trkpt lat="45.93381" lon="4.71664">
        <ele>185</ele>
        <time>2018-01-24T09:51:12Z</time>
      </trkpt>
      <trkpt lat="45.93379" lon="4.7166">
        <ele>185</ele>
        <time>2018-01-24T09:51:13Z</time>
      </trkpt>
      <trkpt lat="45.93374" lon="4.71651">
        <ele>185</ele>
        <time>2018-01-24T09:51:15Z</time>
      </trkpt>
      <trkpt lat="45.93372" lon="4.71646">
        <ele>185</ele>
        <time>2018-01-24T09:51:16Z</time>
      </trkpt>
      <trkpt lat="45.93368" lon="4.71638">
        <ele>185</ele>
        <time>2018-01-24T09:51:18Z</time>
      </trkpt>
      <trkpt lat="45.93367" lon="4.71634">
        <ele>185</ele>
        <time>2018-01-24T09:51:19Z</time>
      </trkpt>
      <trkpt lat="45.93365" lon="4.71624">
        <ele>185</ele>
        <time>2018-01-24T09:51:21Z</time>
      </trkpt>
      <trkpt lat="45.93363" lon="4.71619">
        <ele>185</ele>
        <time>2018-01-24T09:51:22Z</time>
      </trkpt>
      <trkpt lat="45.93358" lon="4.71611">
        <ele>185</ele>
        <time>2018-01-24T09:51:24Z</time>
      </trkpt>
      <trkpt lat="45.93356" lon="4.71606">
        <ele>185</ele>
        <time>2018-01-24T09:51:25Z</time>
      </trkpt>
      <trkpt lat="45.93351" lon="4.71596">
        <ele>185</ele>
        <time>2018-01-24T09:51:27Z</time>
      </trkpt>
      <trkpt lat="45.93349" lon="4.71591">
        <ele>185</ele>
        <time>2018-01-24T09:51:28Z</time>
      </trkpt>
      <trkpt lat="45.93344" lon="4.71581">
        <ele>184</ele>
        <time>2018-01-24T09:51:30Z</time>
      </trkpt>
      <trkpt lat="45.93342" lon="4.71575">
        <ele>184</ele>
        <time>2018-01-24T09:51:31Z</time>
      </trkpt>
      <trkpt lat="45.93338" lon="4.71564">
        <ele>184</ele>
        <time>2018-01-24T09:51:33Z</time>
      </trkpt>
      <trkpt lat="45.93335" lon="4.7156">
        <ele>184</ele>
        <time>2018-01-24T09:51:34Z</time>
      </trkpt>
      <trkpt lat="45.93332" lon="4.71555">
        <ele>184</ele>
        <time>2018-01-24T09:51:35Z</time>
      </trkpt>
      <trkpt lat="45.9333" lon="4.71549">
        <ele>184</ele>
        <time>2018-01-24T09:51:36Z</time>
      </trkpt>
      <trkpt lat="45.93327" lon="4.71543">
        <ele>184</ele>
        <time>2018-01-24T09:51:37Z</time>
      </trkpt>
      <trkpt lat="45.93324" lon="4.71536">
        <ele>184</ele>
        <time>2018-01-24T09:51:38Z</time>
      </trkpt>
      <trkpt lat="45.9332" lon="4.71529">
        <ele>184</ele>
        <time>2018-01-24T09:51:39Z</time>
      </trkpt>
      <trkpt lat="45.93317" lon="4.71523">
        <ele>184</ele>
        <time>2018-01-24T09:51:40Z</time>
      </trkpt>
      <trkpt lat="45.93316" lon="4.71517">
        <ele>184</ele>
        <time>2018-01-24T09:51:41Z</time>
      </trkpt>
      <trkpt lat="45.93313" lon="4.7151">
        <ele>184</ele>
        <time>2018-01-24T09:51:42Z</time>
      </trkpt>
      <trkpt lat="45.9331" lon="4.71503">
        <ele>184</ele>
        <time>2018-01-24T09:51:43Z</time>
      </trkpt>
      <trkpt lat="45.93307" lon="4.71496">
        <ele>185</ele>
        <time>2018-01-24T09:51:44Z</time>
      </trkpt>
      <trkpt lat="45.93304" lon="4.71489">
        <ele>185</ele>
        <time>2018-01-24T09:51:45Z</time>
      </trkpt>
      <trkpt lat="45.93301" lon="4.71482">
        <ele>185</ele>
        <time>2018-01-24T09:51:46Z</time>
      </trkpt>
      <trkpt lat="45.93298" lon="4.71475">
        <ele>185</ele>
        <time>2018-01-24T09:51:47Z</time>
      </trkpt>
      <trkpt lat="45.93294" lon="4.71467">
        <ele>185</ele>
        <time>2018-01-24T09:51:48Z</time>
      </trkpt>
      <trkpt lat="45.93291" lon="4.7146">
        <ele>185</ele>
        <time>2018-01-24T09:51:49Z</time>
      </trkpt>
      <trkpt lat="45.93288" lon="4.71451">
        <ele>185</ele>
        <time>2018-01-24T09:51:50Z</time>
      </trkpt>
      <trkpt lat="45.93286" lon="4.71443">
        <ele>185</ele>
        <time>2018-01-24T09:51:51Z</time>
      </trkpt>
      <trkpt lat="45.93282" lon="4.71436">
        <ele>185</ele>
        <time>2018-01-24T09:51:52Z</time>
      </trkpt>
      <trkpt lat="45.9328" lon="4.71429">
        <ele>185</ele>
        <time>2018-01-24T09:51:53Z</time>
      </trkpt>
      <trkpt lat="45.93277" lon="4.71422">
        <ele>185</ele>
        <time>2018-01-24T09:51:54Z</time>
      </trkpt>
      <trkpt lat="45.93274" lon="4.71415">
        <ele>186</ele>
        <time>2018-01-24T09:51:55Z</time>
      </trkpt>
      <trkpt lat="45.93271" lon="4.71407">
        <ele>186</ele>
        <time>2018-01-24T09:51:56Z</time>
      </trkpt>
      <trkpt lat="45.93268" lon="4.714">
        <ele>186</ele>
        <time>2018-01-24T09:51:57Z</time>
      </trkpt>
      <trkpt lat="45.93265" lon="4.71394">
        <ele>186</ele>
        <time>2018-01-24T09:51:58Z</time>
      </trkpt>
      <trkpt lat="45.93262" lon="4.71388">
        <ele>186</ele>
        <time>2018-01-24T09:51:59Z</time>
      </trkpt>
      <trkpt lat="45.93258" lon="4.71382">
        <ele>186</ele>
        <time>2018-01-24T09:52:00Z</time>
      </trkpt>
      <trkpt lat="45.93255" lon="4.71375">
        <ele>186</ele>
        <time>2018-01-24T09:52:01Z</time>
      </trkpt>
      <trkpt lat="45.93252" lon="4.7137">
        <ele>186</ele>
        <time>2018-01-24T09:52:02Z</time>
      </trkpt>
      <trkpt lat="45.9325" lon="4.71363">
        <ele>186</ele>
        <time>2018-01-24T09:52:03Z</time>
      </trkpt>
      <trkpt lat="45.93247" lon="4.71357">
        <ele>186</ele>
        <time>2018-01-24T09:52:04Z</time>
      </trkpt>
      <trkpt lat="45.93244" lon="4.7135">
        <ele>186</ele>
        <time>2018-01-24T09:52:05Z</time>
      </trkpt>
      <trkpt lat="45.93241" lon="4.71344">
        <ele>186</ele>
        <time>2018-01-24T09:52:06Z</time>
      </trkpt>
      <trkpt lat="45.93238" lon="4.71338">
        <ele>186</ele>
        <time>2018-01-24T09:52:07Z</time>
      </trkpt>
      <trkpt lat="45.93235" lon="4.71331">
        <ele>187</ele>
        <time>2018-01-24T09:52:08Z</time>
      </trkpt>
      <trkpt lat="45.93232" lon="4.71324">
        <ele>187</ele>
        <time>2018-01-24T09:52:09Z</time>
      </trkpt>
      <trkpt lat="45.93228" lon="4.71318">
        <ele>187</ele>
        <time>2018-01-24T09:52:10Z</time>
      </trkpt>
      <trkpt lat="45.93225" lon="4.71312">
        <ele>187</ele>
        <time>2018-01-24T09:52:11Z</time>
      </trkpt>
      <trkpt lat="45.93222" lon="4.71306">
        <ele>188</ele>
        <time>2018-01-24T09:52:12Z</time>
      </trkpt>
      <trkpt lat="45.93219" lon="4.713">
        <ele>188</ele>
        <time>2018-01-24T09:52:13Z</time>
      </trkpt>
      <trkpt lat="45.93216" lon="4.71294">
        <ele>188</ele>
        <time>2018-01-24T09:52:14Z</time>
      </trkpt>
      <trkpt lat="45.93212" lon="4.71283">
        <ele>188</ele>
        <time>2018-01-24T09:52:16Z</time>
      </trkpt>
      <trkpt lat="45.9321" lon="4.71276">
        <ele>188</ele>
        <time>2018-01-24T09:52:17Z</time>
      </trkpt>
      <trkpt lat="45.93207" lon="4.7127">
        <ele>188</ele>
        <time>2018-01-24T09:52:18Z</time>
      </trkpt>
      <trkpt lat="45.93204" lon="4.71264">
        <ele>188</ele>
        <time>2018-01-24T09:52:19Z</time>
      </trkpt>
      <trkpt lat="45.93201" lon="4.71259">
        <ele>189</ele>
        <time>2018-01-24T09:52:20Z</time>
      </trkpt>
      <trkpt lat="45.93198" lon="4.71253">
        <ele>189</ele>
        <time>2018-01-24T09:52:21Z</time>
      </trkpt>
      <trkpt lat="45.93196" lon="4.71247">
        <ele>190</ele>
        <time>2018-01-24T09:52:22Z</time>
      </trkpt>
      <trkpt lat="45.93193" lon="4.71242">
        <ele>190</ele>
        <time>2018-01-24T09:52:23Z</time>
      </trkpt>
      <trkpt lat="45.9319" lon="4.71236">
        <ele>190</ele>
        <time>2018-01-24T09:52:24Z</time>
      </trkpt>
      <trkpt lat="45.93188" lon="4.7123">
        <ele>190</ele>
        <time>2018-01-24T09:52:25Z</time>
      </trkpt>
      <trkpt lat="45.93183" lon="4.7122">
        <ele>190</ele>
        <time>2018-01-24T09:52:27Z</time>
      </trkpt>
      <trkpt lat="45.93179" lon="4.71215">
        <ele>190</ele>
        <time>2018-01-24T09:52:28Z</time>
      </trkpt>
      <trkpt lat="45.93175" lon="4.71203">
        <ele>190</ele>
        <time>2018-01-24T09:52:30Z</time>
      </trkpt>
      <trkpt lat="45.93173" lon="4.71197">
        <ele>190</ele>
        <time>2018-01-24T09:52:31Z</time>
      </trkpt>
      <trkpt lat="45.93168" lon="4.71187">
        <ele>190</ele>
        <time>2018-01-24T09:52:33Z</time>
      </trkpt>
      <trkpt lat="45.93165" lon="4.71182">
        <ele>190</ele>
        <time>2018-01-24T09:52:34Z</time>
      </trkpt>
      <trkpt lat="45.93162" lon="4.71172">
        <ele>190</ele>
        <time>2018-01-24T09:52:36Z</time>
      </trkpt>
      <trkpt lat="45.93159" lon="4.71166">
        <ele>190</ele>
        <time>2018-01-24T09:52:37Z</time>
      </trkpt>
      <trkpt lat="45.93157" lon="4.71159">
        <ele>191</ele>
        <time>2018-01-24T09:52:38Z</time>
      </trkpt>
      <trkpt lat="45.93155" lon="4.71154">
        <ele>191</ele>
        <time>2018-01-24T09:52:39Z</time>
      </trkpt>
      <trkpt lat="45.9315" lon="4.71145">
        <ele>191</ele>
        <time>2018-01-24T09:52:41Z</time>
      </trkpt>
      <trkpt lat="45.93147" lon="4.71139">
        <ele>191</ele>
        <time>2018-01-24T09:52:42Z</time>
      </trkpt>
      <trkpt lat="45.93142" lon="4.71129">
        <ele>192</ele>
        <time>2018-01-24T09:52:44Z</time>
      </trkpt>
      <trkpt lat="45.9314" lon="4.71124">
        <ele>192</ele>
        <time>2018-01-24T09:52:45Z</time>
      </trkpt>
      <trkpt lat="45.93135" lon="4.71113">
        <ele>192</ele>
        <time>2018-01-24T09:52:47Z</time>
      </trkpt>
      <trkpt lat="45.93133" lon="4.71108">
        <ele>192</ele>
        <time>2018-01-24T09:52:48Z</time>
      </trkpt>
      <trkpt lat="45.93128" lon="4.71099">
        <ele>192</ele>
        <time>2018-01-24T09:52:50Z</time>
      </trkpt>
      <trkpt lat="45.93126" lon="4.71094">
        <ele>192</ele>
        <time>2018-01-24T09:52:51Z</time>
      </trkpt>
      <trkpt lat="45.93121" lon="4.71085">
        <ele>193</ele>
        <time>2018-01-24T09:52:53Z</time>
      </trkpt>
      <trkpt lat="45.93119" lon="4.71081">
        <ele>195</ele>
        <time>2018-01-24T09:52:54Z</time>
      </trkpt>
      <trkpt lat="45.93115" lon="4.71072">
        <ele>195</ele>
        <time>2018-01-24T09:52:56Z</time>
      </trkpt>
      <trkpt lat="45.93112" lon="4.71068">
        <ele>195</ele>
        <time>2018-01-24T09:52:57Z</time>
      </trkpt>
      <trkpt lat="45.93108" lon="4.7106">
        <ele>195</ele>
        <time>2018-01-24T09:52:59Z</time>
      </trkpt>
      <trkpt lat="45.93105" lon="4.71057">
        <ele>195</ele>
        <time>2018-01-24T09:53:00Z</time>
      </trkpt>
      <trkpt lat="45.93101" lon="4.71049">
        <ele>196</ele>
        <time>2018-01-24T09:53:02Z</time>
      </trkpt>
      <trkpt lat="45.93098" lon="4.71045">
        <ele>196</ele>
        <time>2018-01-24T09:53:03Z</time>
      </trkpt>
      <trkpt lat="45.93092" lon="4.71038">
        <ele>196</ele>
        <time>2018-01-24T09:53:05Z</time>
      </trkpt>
      <trkpt lat="45.93089" lon="4.71035">
        <ele>196</ele>
        <time>2018-01-24T09:53:06Z</time>
      </trkpt>
      <trkpt lat="45.93083" lon="4.71028">
        <ele>197</ele>
        <time>2018-01-24T09:53:08Z</time>
      </trkpt>
      <trkpt lat="45.9308" lon="4.71025">
        <ele>197</ele>
        <time>2018-01-24T09:53:09Z</time>
      </trkpt>
      <trkpt lat="45.93073" lon="4.71018">
        <ele>197</ele>
        <time>2018-01-24T09:53:11Z</time>
      </trkpt>
      <trkpt lat="45.9307" lon="4.71014">
        <ele>197</ele>
        <time>2018-01-24T09:53:12Z</time>
      </trkpt>
      <trkpt lat="45.93063" lon="4.71007">
        <ele>197</ele>
        <time>2018-01-24T09:53:14Z</time>
      </trkpt>
      <trkpt lat="45.9306" lon="4.71004">
        <ele>197</ele>
        <time>2018-01-24T09:53:15Z</time>
      </trkpt>
      <trkpt lat="45.93052" lon="4.70998">
        <ele>198</ele>
        <time>2018-01-24T09:53:17Z</time>
      </trkpt>
      <trkpt lat="45.93048" lon="4.70995">
        <ele>198</ele>
        <time>2018-01-24T09:53:18Z</time>
      </trkpt>
      <trkpt lat="45.9304" lon="4.7099">
        <ele>198</ele>
        <time>2018-01-24T09:53:20Z</time>
      </trkpt>
      <trkpt lat="45.93036" lon="4.70987">
        <ele>198</ele>
        <time>2018-01-24T09:53:21Z</time>
      </trkpt>
      <trkpt lat="45.93028" lon="4.70983">
        <ele>198</ele>
        <time>2018-01-24T09:53:23Z</time>
      </trkpt>
      <trkpt lat="45.93024" lon="4.7098">
        <ele>198</ele>
        <time>2018-01-24T09:53:24Z</time>
      </trkpt>
      <trkpt lat="45.93016" lon="4.70975">
        <ele>198</ele>
        <time>2018-01-24T09:53:26Z</time>
      </trkpt>
      <trkpt lat="45.93011" lon="4.70974">
        <ele>198</ele>
        <time>2018-01-24T09:53:27Z</time>
      </trkpt>
      <trkpt lat="45.93003" lon="4.70971">
        <ele>198</ele>
        <time>2018-01-24T09:53:29Z</time>
      </trkpt>
      <trkpt lat="45.92999" lon="4.70969">
        <ele>198</ele>
        <time>2018-01-24T09:53:30Z</time>
      </trkpt>
      <trkpt lat="45.92991" lon="4.70966">
        <ele>198</ele>
        <time>2018-01-24T09:53:32Z</time>
      </trkpt>
      <trkpt lat="45.92987" lon="4.70965">
        <ele>198</ele>
        <time>2018-01-24T09:53:33Z</time>
      </trkpt>
      <trkpt lat="45.92978" lon="4.70963">
        <ele>198</ele>
        <time>2018-01-24T09:53:35Z</time>
      </trkpt>
      <trkpt lat="45.92973" lon="4.70963">
        <ele>198</ele>
        <time>2018-01-24T09:53:36Z</time>
      </trkpt>
      <trkpt lat="45.92969" lon="4.70962">
        <ele>198</ele>
        <time>2018-01-24T09:53:37Z</time>
      </trkpt>
      <trkpt lat="45.92964" lon="4.70962">
        <ele>198</ele>
        <time>2018-01-24T09:53:38Z</time>
      </trkpt>
      <trkpt lat="45.92959" lon="4.7096">
        <ele>198</ele>
        <time>2018-01-24T09:53:39Z</time>
      </trkpt>
      <trkpt lat="45.92954" lon="4.70959">
        <ele>198</ele>
        <time>2018-01-24T09:53:40Z</time>
      </trkpt>
      <trkpt lat="45.92947" lon="4.70957">
        <ele>198</ele>
        <time>2018-01-24T09:53:42Z</time>
      </trkpt>
      <trkpt lat="45.92943" lon="4.70955">
        <ele>198</ele>
        <time>2018-01-24T09:53:43Z</time>
      </trkpt>
      <trkpt lat="45.92935" lon="4.70954">
        <ele>198</ele>
        <time>2018-01-24T09:53:45Z</time>
      </trkpt>
      <trkpt lat="45.9293" lon="4.70953">
        <ele>198</ele>
        <time>2018-01-24T09:53:46Z</time>
      </trkpt>
      <trkpt lat="45.92922" lon="4.70951">
        <ele>198</ele>
        <time>2018-01-24T09:53:48Z</time>
      </trkpt>
      <trkpt lat="45.92918" lon="4.70951">
        <ele>198</ele>
        <time>2018-01-24T09:53:49Z</time>
      </trkpt>
      <trkpt lat="45.9291" lon="4.7095">
        <ele>198</ele>
        <time>2018-01-24T09:53:51Z</time>
      </trkpt>
      <trkpt lat="45.92906" lon="4.70949">
        <ele>198</ele>
        <time>2018-01-24T09:53:52Z</time>
      </trkpt>
      <trkpt lat="45.92897" lon="4.70947">
        <ele>198</ele>
        <time>2018-01-24T09:53:54Z</time>
      </trkpt>
      <trkpt lat="45.92893" lon="4.70946">
        <ele>198</ele>
        <time>2018-01-24T09:53:55Z</time>
      </trkpt>
      <trkpt lat="45.92888" lon="4.70945">
        <ele>198</ele>
        <time>2018-01-24T09:53:56Z</time>
      </trkpt>
      <trkpt lat="45.92884" lon="4.70944">
        <ele>198</ele>
        <time>2018-01-24T09:53:57Z</time>
      </trkpt>
      <trkpt lat="45.92875" lon="4.70941">
        <ele>198</ele>
        <time>2018-01-24T09:53:59Z</time>
      </trkpt>
      <trkpt lat="45.92871" lon="4.7094">
        <ele>198</ele>
        <time>2018-01-24T09:54:00Z</time>
      </trkpt>
      <trkpt lat="45.92866" lon="4.70939">
        <ele>198</ele>
        <time>2018-01-24T09:54:01Z</time>
      </trkpt>
      <trkpt lat="45.92862" lon="4.70938">
        <ele>198</ele>
        <time>2018-01-24T09:54:02Z</time>
      </trkpt>
      <trkpt lat="45.92854" lon="4.70937">
        <ele>198</ele>
        <time>2018-01-24T09:54:04Z</time>
      </trkpt>
      <trkpt lat="45.92849" lon="4.70936">
        <ele>198</ele>
        <time>2018-01-24T09:54:05Z</time>
      </trkpt>
      <trkpt lat="45.92845" lon="4.70936">
        <ele>198</ele>
        <time>2018-01-24T09:54:06Z</time>
      </trkpt>
      <trkpt lat="45.9284" lon="4.70934">
        <ele>198</ele>
        <time>2018-01-24T09:54:07Z</time>
      </trkpt>
      <trkpt lat="45.92835" lon="4.70933">
        <ele>198</ele>
        <time>2018-01-24T09:54:08Z</time>
      </trkpt>
      <trkpt lat="45.92831" lon="4.70931">
        <ele>197</ele>
        <time>2018-01-24T09:54:09Z</time>
      </trkpt>
      <trkpt lat="45.92823" lon="4.70926">
        <ele>197</ele>
        <time>2018-01-24T09:54:11Z</time>
      </trkpt>
      <trkpt lat="45.9282" lon="4.70924">
        <ele>197</ele>
        <time>2018-01-24T09:54:12Z</time>
      </trkpt>
      <trkpt lat="45.92814" lon="4.70924">
        <ele>197</ele>
        <time>2018-01-24T09:54:13Z</time>
      </trkpt>
      <trkpt lat="45.9281" lon="4.70926">
        <ele>197</ele>
        <time>2018-01-24T09:54:14Z</time>
      </trkpt>
      <trkpt lat="45.92804" lon="4.70927">
        <ele>197</ele>
        <time>2018-01-24T09:54:15Z</time>
      </trkpt>
      <trkpt lat="45.92799" lon="4.70927">
        <ele>196</ele>
        <time>2018-01-24T09:54:16Z</time>
      </trkpt>
      <trkpt lat="45.92794" lon="4.70926">
        <ele>196</ele>
        <time>2018-01-24T09:54:17Z</time>
      </trkpt>
      <trkpt lat="45.92788" lon="4.70924">
        <ele>196</ele>
        <time>2018-01-24T09:54:18Z</time>
      </trkpt>
      <trkpt lat="45.92783" lon="4.70924">
        <ele>196</ele>
        <time>2018-01-24T09:54:19Z</time>
      </trkpt>
      <trkpt lat="45.92777" lon="4.70923">
        <ele>196</ele>
        <time>2018-01-24T09:54:20Z</time>
      </trkpt>
      <trkpt lat="45.9277" lon="4.70921">
        <ele>196</ele>
        <time>2018-01-24T09:54:21Z</time>
      </trkpt>
      <trkpt lat="45.92764" lon="4.70919">
        <ele>196</ele>
        <time>2018-01-24T09:54:22Z</time>
      </trkpt>
      <trkpt lat="45.92759" lon="4.70917">
        <ele>196</ele>
        <time>2018-01-24T09:54:23Z</time>
      </trkpt>
      <trkpt lat="45.92753" lon="4.70916">
        <ele>196</ele>
        <time>2018-01-24T09:54:24Z</time>
      </trkpt>
      <trkpt lat="45.92747" lon="4.70913">
        <ele>196</ele>
        <time>2018-01-24T09:54:25Z</time>
      </trkpt>
      <trkpt lat="45.92742" lon="4.70911">
        <ele>197</ele>
        <time>2018-01-24T09:54:26Z</time>
      </trkpt>
      <trkpt lat="45.92736" lon="4.7091">
        <ele>197</ele>
        <time>2018-01-24T09:54:27Z</time>
      </trkpt>
      <trkpt lat="45.92731" lon="4.70909">
        <ele>197</ele>
        <time>2018-01-24T09:54:28Z</time>
      </trkpt>
      <trkpt lat="45.92726" lon="4.70907">
        <ele>197</ele>
        <time>2018-01-24T09:54:29Z</time>
      </trkpt>
      <trkpt lat="45.9272" lon="4.70904">
        <ele>197</ele>
        <time>2018-01-24T09:54:30Z</time>
      </trkpt>
      <trkpt lat="45.92714" lon="4.70903">
        <ele>197</ele>
        <time>2018-01-24T09:54:31Z</time>
      </trkpt>
      <trkpt lat="45.92709" lon="4.70899">
        <ele>197</ele>
        <time>2018-01-24T09:54:32Z</time>
      </trkpt>
      <trkpt lat="45.92703" lon="4.70896">
        <ele>198</ele>
        <time>2018-01-24T09:54:33Z</time>
      </trkpt>
      <trkpt lat="45.92698" lon="4.70894">
        <ele>198</ele>
        <time>2018-01-24T09:54:34Z</time>
      </trkpt>
      <trkpt lat="45.92691" lon="4.70892">
        <ele>198</ele>
        <time>2018-01-24T09:54:35Z</time>
      </trkpt>
      <trkpt lat="45.92686" lon="4.70888">
        <ele>198</ele>
        <time>2018-01-24T09:54:36Z</time>
      </trkpt>
      <trkpt lat="45.92682" lon="4.70885">
        <ele>198</ele>
        <time>2018-01-24T09:54:37Z</time>
      </trkpt>
      <trkpt lat="45.92677" lon="4.7088">
        <ele>198</ele>
        <time>2018-01-24T09:54:38Z</time>
      </trkpt>
      <trkpt lat="45.92673" lon="4.70877">
        <ele>198</ele>
        <time>2018-01-24T09:54:39Z</time>
      </trkpt>
      <trkpt lat="45.92669" lon="4.70872">
        <ele>198</ele>
        <time>2018-01-24T09:54:40Z</time>
      </trkpt>
      <trkpt lat="45.92664" lon="4.70868">
        <ele>198</ele>
        <time>2018-01-24T09:54:41Z</time>
      </trkpt>
      <trkpt lat="45.92659" lon="4.70864">
        <ele>198</ele>
        <time>2018-01-24T09:54:42Z</time>
      </trkpt>
      <trkpt lat="45.92655" lon="4.70859">
        <ele>198</ele>
        <time>2018-01-24T09:54:43Z</time>
      </trkpt>
      <trkpt lat="45.9265" lon="4.70855">
        <ele>198</ele>
        <time>2018-01-24T09:54:44Z</time>
      </trkpt>
      <trkpt lat="45.92646" lon="4.7085">
        <ele>198</ele>
        <time>2018-01-24T09:54:45Z</time>
      </trkpt>
      <trkpt lat="45.92642" lon="4.70847">
        <ele>198</ele>
        <time>2018-01-24T09:54:46Z</time>
      </trkpt>
      <trkpt lat="45.92638" lon="4.70843">
        <ele>198</ele>
        <time>2018-01-24T09:54:47Z</time>
      </trkpt>
      <trkpt lat="45.92635" lon="4.70839">
        <ele>198</ele>
        <time>2018-01-24T09:54:48Z</time>
      </trkpt>
      <trkpt lat="45.92631" lon="4.70834">
        <ele>198</ele>
        <time>2018-01-24T09:54:49Z</time>
      </trkpt>
      <trkpt lat="45.92627" lon="4.7083">
        <ele>199</ele>
        <time>2018-01-24T09:54:50Z</time>
      </trkpt>
      <trkpt lat="45.92623" lon="4.70826">
        <ele>199</ele>
        <time>2018-01-24T09:54:51Z</time>
      </trkpt>
      <trkpt lat="45.92619" lon="4.70823">
        <ele>199</ele>
        <time>2018-01-24T09:54:52Z</time>
      </trkpt>
      <trkpt lat="45.92614" lon="4.70818">
        <ele>199</ele>
        <time>2018-01-24T09:54:53Z</time>
      </trkpt>
      <trkpt lat="45.92609" lon="4.70814">
        <ele>198</ele>
        <time>2018-01-24T09:54:54Z</time>
      </trkpt>
      <trkpt lat="45.92605" lon="4.70809">
        <ele>198</ele>
        <time>2018-01-24T09:54:55Z</time>
      </trkpt>
      <trkpt lat="45.926" lon="4.70805">
        <ele>198</ele>
        <time>2018-01-24T09:54:56Z</time>
      </trkpt>
      <trkpt lat="45.92595" lon="4.708">
        <ele>198</ele>
        <time>2018-01-24T09:54:57Z</time>
      </trkpt>
      <trkpt lat="45.92591" lon="4.70795">
        <ele>198</ele>
        <time>2018-01-24T09:54:58Z</time>
      </trkpt>
      <trkpt lat="45.92585" lon="4.70791">
        <ele>198</ele>
        <time>2018-01-24T09:54:59Z</time>
      </trkpt>
      <trkpt lat="45.9258" lon="4.70786">
        <ele>196</ele>
        <time>2018-01-24T09:55:00Z</time>
      </trkpt>
      <trkpt lat="45.92575" lon="4.70781">
        <ele>196</ele>
        <time>2018-01-24T09:55:01Z</time>
      </trkpt>
      <trkpt lat="45.9257" lon="4.70777">
        <ele>196</ele>
        <time>2018-01-24T09:55:02Z</time>
      </trkpt>
      <trkpt lat="45.92564" lon="4.70773">
        <ele>196</ele>
        <time>2018-01-24T09:55:03Z</time>
      </trkpt>
      <trkpt lat="45.92558" lon="4.70769">
        <ele>196</ele>
        <time>2018-01-24T09:55:04Z</time>
      </trkpt>
      <trkpt lat="45.92553" lon="4.70766">
        <ele>196</ele>
        <time>2018-01-24T09:55:05Z</time>
      </trkpt>
      <trkpt lat="45.92547" lon="4.70762">
        <ele>196</ele>
        <time>2018-01-24T09:55:06Z</time>
      </trkpt>
      <trkpt lat="45.92541" lon="4.70756">
        <ele>195</ele>
        <time>2018-01-24T09:55:07Z</time>
      </trkpt>
      <trkpt lat="45.92536" lon="4.70752">
        <ele>195</ele>
        <time>2018-01-24T09:55:08Z</time>
      </trkpt>
      <trkpt lat="45.9253" lon="4.7075">
        <ele>196</ele>
        <time>2018-01-24T09:55:09Z</time>
      </trkpt>
      <trkpt lat="45.92524" lon="4.70746">
        <ele>196</ele>
        <time>2018-01-24T09:55:10Z</time>
      </trkpt>
      <trkpt lat="45.92519" lon="4.70742">
        <ele>196</ele>
        <time>2018-01-24T09:55:11Z</time>
      </trkpt>
      <trkpt lat="45.92513" lon="4.70739">
        <ele>196</ele>
        <time>2018-01-24T09:55:12Z</time>
      </trkpt>
      <trkpt lat="45.92507" lon="4.70735">
        <ele>196</ele>
        <time>2018-01-24T09:55:13Z</time>
      </trkpt>
      <trkpt lat="45.92501" lon="4.70732">
        <ele>196</ele>
        <time>2018-01-24T09:55:14Z</time>
      </trkpt>
      <trkpt lat="45.92495" lon="4.70728">
        <ele>194</ele>
        <time>2018-01-24T09:55:15Z</time>
      </trkpt>
      <trkpt lat="45.92489" lon="4.70724">
        <ele>194</ele>
        <time>2018-01-24T09:55:16Z</time>
      </trkpt>
      <trkpt lat="45.92483" lon="4.7072">
        <ele>194</ele>
        <time>2018-01-24T09:55:17Z</time>
      </trkpt>
      <trkpt lat="45.92477" lon="4.70716">
        <ele>195</ele>
        <time>2018-01-24T09:55:18Z</time>
      </trkpt>
      <trkpt lat="45.92471" lon="4.70712">
        <ele>195</ele>
        <time>2018-01-24T09:55:19Z</time>
      </trkpt>
      <trkpt lat="45.92465" lon="4.70709">
        <ele>195</ele>
        <time>2018-01-24T09:55:20Z</time>
      </trkpt>
      <trkpt lat="45.9246" lon="4.70706">
        <ele>195</ele>
        <time>2018-01-24T09:55:21Z</time>
      </trkpt>
      <trkpt lat="45.92454" lon="4.70701">
        <ele>195</ele>
        <time>2018-01-24T09:55:22Z</time>
      </trkpt>
      <trkpt lat="45.92448" lon="4.70697">
        <ele>195</ele>
        <time>2018-01-24T09:55:23Z</time>
      </trkpt>
      <trkpt lat="45.92443" lon="4.70695">
        <ele>195</ele>
        <time>2018-01-24T09:55:24Z</time>
      </trkpt>
      <trkpt lat="45.92437" lon="4.70691">
        <ele>195</ele>
        <time>2018-01-24T09:55:25Z</time>
      </trkpt>
      <trkpt lat="45.92432" lon="4.70688">
        <ele>195</ele>
        <time>2018-01-24T09:55:26Z</time>
      </trkpt>
      <trkpt lat="45.92427" lon="4.70686">
        <ele>195</ele>
        <time>2018-01-24T09:55:27Z</time>
      </trkpt>
      <trkpt lat="45.92422" lon="4.70682">
        <ele>195</ele>
        <time>2018-01-24T09:55:28Z</time>
      </trkpt>
      <trkpt lat="45.92416" lon="4.7068">
        <ele>195</ele>
        <time>2018-01-24T09:55:29Z</time>
      </trkpt>
      <trkpt lat="45.92411" lon="4.70676">
        <ele>195</ele>
        <time>2018-01-24T09:55:30Z</time>
      </trkpt>
      <trkpt lat="45.92405" lon="4.70673">
        <ele>195</ele>
        <time>2018-01-24T09:55:31Z</time>
      </trkpt>
      <trkpt lat="45.92399" lon="4.7067">
        <ele>195</ele>
        <time>2018-01-24T09:55:32Z</time>
      </trkpt>
      <trkpt lat="45.92393" lon="4.70667">
        <ele>195</ele>
        <time>2018-01-24T09:55:33Z</time>
      </trkpt>
      <trkpt lat="45.92387" lon="4.70663">
        <ele>196</ele>
        <time>2018-01-24T09:55:34Z</time>
      </trkpt>
      <trkpt lat="45.92381" lon="4.70661">
        <ele>196</ele>
        <time>2018-01-24T09:55:35Z</time>
      </trkpt>
      <trkpt lat="45.92375" lon="4.70658">
        <ele>196</ele>
        <time>2018-01-24T09:55:36Z</time>
      </trkpt>
      <trkpt lat="45.9237" lon="4.70654">
        <ele>197</ele>
        <time>2018-01-24T09:55:37Z</time>
      </trkpt>
      <trkpt lat="45.92364" lon="4.70651">
        <ele>197</ele>
        <time>2018-01-24T09:55:38Z</time>
      </trkpt>
      <trkpt lat="45.92358" lon="4.70648">
        <ele>197</ele>
        <time>2018-01-24T09:55:39Z</time>
      </trkpt>
      <trkpt lat="45.92353" lon="4.70643">
        <ele>197</ele>
        <time>2018-01-24T09:55:40Z</time>
      </trkpt>
      <trkpt lat="45.92348" lon="4.7064">
        <ele>197</ele>
        <time>2018-01-24T09:55:41Z</time>
      </trkpt>
      <trkpt lat="45.92342" lon="4.70636">
        <ele>197</ele>
        <time>2018-01-24T09:55:42Z</time>
      </trkpt>
      <trkpt lat="45.92337" lon="4.70633">
        <ele>197</ele>
        <time>2018-01-24T09:55:43Z</time>
      </trkpt>
      <trkpt lat="45.92332" lon="4.70631">
        <ele>196</ele>
        <time>2018-01-24T09:55:44Z</time>
      </trkpt>
      <trkpt lat="45.92326" lon="4.70628">
        <ele>196</ele>
        <time>2018-01-24T09:55:45Z</time>
      </trkpt>
      <trkpt lat="45.92321" lon="4.70626">
        <ele>196</ele>
        <time>2018-01-24T09:55:46Z</time>
      </trkpt>
      <trkpt lat="45.92317" lon="4.70623">
        <ele>196</ele>
        <time>2018-01-24T09:55:47Z</time>
      </trkpt>
      <trkpt lat="45.92311" lon="4.7062">
        <ele>196</ele>
        <time>2018-01-24T09:55:48Z</time>
      </trkpt>
      <trkpt lat="45.92306" lon="4.70617">
        <ele>196</ele>
        <time>2018-01-24T09:55:49Z</time>
      </trkpt>
      <trkpt lat="45.92301" lon="4.70613">
        <ele>196</ele>
        <time>2018-01-24T09:55:50Z</time>
      </trkpt>
      <trkpt lat="45.92296" lon="4.7061">
        <ele>196</ele>
        <time>2018-01-24T09:55:51Z</time>
      </trkpt>
      <trkpt lat="45.9229" lon="4.70606">
        <ele>196</ele>
        <time>2018-01-24T09:55:52Z</time>
      </trkpt>
      <trkpt lat="45.92285" lon="4.70604">
        <ele>196</ele>
        <time>2018-01-24T09:55:53Z</time>
      </trkpt>
      <trkpt lat="45.92279" lon="4.70601">
        <ele>196</ele>
        <time>2018-01-24T09:55:54Z</time>
      </trkpt>
      <trkpt lat="45.92273" lon="4.70599">
        <ele>196</ele>
        <time>2018-01-24T09:55:55Z</time>
      </trkpt>
      <trkpt lat="45.92267" lon="4.70596">
        <ele>196</ele>
        <time>2018-01-24T09:55:56Z</time>
      </trkpt>
      <trkpt lat="45.92261" lon="4.70593">
        <ele>196</ele>
        <time>2018-01-24T09:55:57Z</time>
      </trkpt>
      <trkpt lat="45.92254" lon="4.70591">
        <ele>196</ele>
        <time>2018-01-24T09:55:58Z</time>
      </trkpt>
      <trkpt lat="45.92248" lon="4.70589">
        <ele>195</ele>
        <time>2018-01-24T09:55:59Z</time>
      </trkpt>
      <trkpt lat="45.92241" lon="4.70587">
        <ele>195</ele>
        <time>2018-01-24T09:56:00Z</time>
      </trkpt>
      <trkpt lat="45.92235" lon="4.70585">
        <ele>194</ele>
        <time>2018-01-24T09:56:01Z</time>
      </trkpt>
      <trkpt lat="45.92228" lon="4.70583">
        <ele>195</ele>
        <time>2018-01-24T09:56:02Z</time>
      </trkpt>
      <trkpt lat="45.92221" lon="4.70581">
        <ele>195</ele>
        <time>2018-01-24T09:56:03Z</time>
      </trkpt>
      <trkpt lat="45.92215" lon="4.7058">
        <ele>195</ele>
        <time>2018-01-24T09:56:04Z</time>
      </trkpt>
      <trkpt lat="45.92208" lon="4.70578">
        <ele>195</ele>
        <time>2018-01-24T09:56:05Z</time>
      </trkpt>
      <trkpt lat="45.92201" lon="4.70578">
        <ele>194</ele>
        <time>2018-01-24T09:56:06Z</time>
      </trkpt>
      <trkpt lat="45.92195" lon="4.70576">
        <ele>194</ele>
        <time>2018-01-24T09:56:07Z</time>
      </trkpt>
      <trkpt lat="45.92188" lon="4.70577">
        <ele>193</ele>
        <time>2018-01-24T09:56:08Z</time>
      </trkpt>
      <trkpt lat="45.92181" lon="4.70578">
        <ele>193</ele>
        <time>2018-01-24T09:56:09Z</time>
      </trkpt>
      <trkpt lat="45.92176" lon="4.70577">
        <ele>192</ele>
        <time>2018-01-24T09:56:10Z</time>
      </trkpt>
      <trkpt lat="45.92169" lon="4.70576">
        <ele>191</ele>
        <time>2018-01-24T09:56:11Z</time>
      </trkpt>
      <trkpt lat="45.92163" lon="4.70576">
        <ele>191</ele>
        <time>2018-01-24T09:56:12Z</time>
      </trkpt>
      <trkpt lat="45.92157" lon="4.70575">
        <ele>192</ele>
        <time>2018-01-24T09:56:13Z</time>
      </trkpt>
      <trkpt lat="45.9215" lon="4.70576">
        <ele>192</ele>
        <time>2018-01-24T09:56:14Z</time>
      </trkpt>
      <trkpt lat="45.92145" lon="4.70575">
        <ele>192</ele>
        <time>2018-01-24T09:56:15Z</time>
      </trkpt>
      <trkpt lat="45.92139" lon="4.70575">
        <ele>193</ele>
        <time>2018-01-24T09:56:16Z</time>
      </trkpt>
      <trkpt lat="45.92132" lon="4.70574">
        <ele>193</ele>
        <time>2018-01-24T09:56:17Z</time>
      </trkpt>
      <trkpt lat="45.92126" lon="4.70575">
        <ele>193</ele>
        <time>2018-01-24T09:56:18Z</time>
      </trkpt>
      <trkpt lat="45.9212" lon="4.70574">
        <ele>193</ele>
        <time>2018-01-24T09:56:19Z</time>
      </trkpt>
      <trkpt lat="45.92115" lon="4.70575">
        <ele>193</ele>
        <time>2018-01-24T09:56:20Z</time>
      </trkpt>
      <trkpt lat="45.92109" lon="4.70576">
        <ele>194</ele>
        <time>2018-01-24T09:56:21Z</time>
      </trkpt>
      <trkpt lat="45.92103" lon="4.70577">
        <ele>194</ele>
        <time>2018-01-24T09:56:22Z</time>
      </trkpt>
      <trkpt lat="45.92097" lon="4.70578">
        <ele>194</ele>
        <time>2018-01-24T09:56:23Z</time>
      </trkpt>
      <trkpt lat="45.92091" lon="4.70579">
        <ele>194</ele>
        <time>2018-01-24T09:56:24Z</time>
      </trkpt>
      <trkpt lat="45.92084" lon="4.70579">
        <ele>194</ele>
        <time>2018-01-24T09:56:25Z</time>
      </trkpt>
      <trkpt lat="45.92077" lon="4.70581">
        <ele>194</ele>
        <time>2018-01-24T09:56:26Z</time>
      </trkpt>
      <trkpt lat="45.92071" lon="4.70582">
        <ele>194</ele>
        <time>2018-01-24T09:56:27Z</time>
      </trkpt>
      <trkpt lat="45.92064" lon="4.70584">
        <ele>194</ele>
        <time>2018-01-24T09:56:28Z</time>
      </trkpt>
      <trkpt lat="45.92059" lon="4.70584">
        <ele>194</ele>
        <time>2018-01-24T09:56:29Z</time>
      </trkpt>
      <trkpt lat="45.92053" lon="4.70585">
        <ele>194</ele>
        <time>2018-01-24T09:56:30Z</time>
      </trkpt>
      <trkpt lat="45.92047" lon="4.70587">
        <ele>194</ele>
        <time>2018-01-24T09:56:31Z</time>
      </trkpt>
      <trkpt lat="45.92041" lon="4.70588">
        <ele>194</ele>
        <time>2018-01-24T09:56:32Z</time>
      </trkpt>
      <trkpt lat="45.92035" lon="4.7059">
        <ele>194</ele>
        <time>2018-01-24T09:56:33Z</time>
      </trkpt>
      <trkpt lat="45.92029" lon="4.7059">
        <ele>194</ele>
        <time>2018-01-24T09:56:34Z</time>
      </trkpt>
      <trkpt lat="45.92023" lon="4.70591">
        <ele>194</ele>
        <time>2018-01-24T09:56:35Z</time>
      </trkpt>
      <trkpt lat="45.92017" lon="4.70592">
        <ele>194</ele>
        <time>2018-01-24T09:56:36Z</time>
      </trkpt>
      <trkpt lat="45.92011" lon="4.70594">
        <ele>194</ele>
        <time>2018-01-24T09:56:37Z</time>
      </trkpt>
      <trkpt lat="45.92005" lon="4.70595">
        <ele>194</ele>
        <time>2018-01-24T09:56:38Z</time>
      </trkpt>
      <trkpt lat="45.91999" lon="4.70596">
        <ele>195</ele>
        <time>2018-01-24T09:56:39Z</time>
      </trkpt>
      <trkpt lat="45.91993" lon="4.70598">
        <ele>194</ele>
        <time>2018-01-24T09:56:40Z</time>
      </trkpt>
      <trkpt lat="45.91987" lon="4.70599">
        <ele>194</ele>
        <time>2018-01-24T09:56:41Z</time>
      </trkpt>
      <trkpt lat="45.91981" lon="4.706">
        <ele>194</ele>
        <time>2018-01-24T09:56:42Z</time>
      </trkpt>
      <trkpt lat="45.91976" lon="4.70601">
        <ele>194</ele>
        <time>2018-01-24T09:56:43Z</time>
      </trkpt>
      <trkpt lat="45.9197" lon="4.70601">
        <ele>194</ele>
        <time>2018-01-24T09:56:44Z</time>
      </trkpt>
      <trkpt lat="45.91965" lon="4.70602">
        <ele>194</ele>
        <time>2018-01-24T09:56:45Z</time>
      </trkpt>
      <trkpt lat="45.9196" lon="4.70603">
        <ele>194</ele>
        <time>2018-01-24T09:56:46Z</time>
      </trkpt>
      <trkpt lat="45.91951" lon="4.70604">
        <ele>194</ele>
        <time>2018-01-24T09:56:48Z</time>
      </trkpt>
      <trkpt lat="45.91946" lon="4.70604">
        <ele>194</ele>
        <time>2018-01-24T09:56:49Z</time>
      </trkpt>
      <trkpt lat="45.91941" lon="4.70604">
        <ele>195</ele>
        <time>2018-01-24T09:56:50Z</time>
      </trkpt>
      <trkpt lat="45.91936" lon="4.70603">
        <ele>195</ele>
        <time>2018-01-24T09:56:51Z</time>
      </trkpt>
      <trkpt lat="45.9193" lon="4.70604">
        <ele>195</ele>
        <time>2018-01-24T09:56:52Z</time>
      </trkpt>
      <trkpt lat="45.91925" lon="4.70604">
        <ele>195</ele>
        <time>2018-01-24T09:56:53Z</time>
      </trkpt>
      <trkpt lat="45.9192" lon="4.70604">
        <ele>195</ele>
        <time>2018-01-24T09:56:54Z</time>
      </trkpt>
      <trkpt lat="45.91916" lon="4.70603">
        <ele>195</ele>
        <time>2018-01-24T09:56:55Z</time>
      </trkpt>
      <trkpt lat="45.91911" lon="4.70603">
        <ele>195</ele>
        <time>2018-01-24T09:56:56Z</time>
      </trkpt>
      <trkpt lat="45.91906" lon="4.70604">
        <ele>195</ele>
        <time>2018-01-24T09:56:57Z</time>
      </trkpt>
      <trkpt lat="45.91901" lon="4.70604">
        <ele>195</ele>
        <time>2018-01-24T09:56:58Z</time>
      </trkpt>
      <trkpt lat="45.91895" lon="4.70604">
        <ele>195</ele>
        <time>2018-01-24T09:56:59Z</time>
      </trkpt>
      <trkpt lat="45.9189" lon="4.70604">
        <ele>194</ele>
        <time>2018-01-24T09:57:00Z</time>
      </trkpt>
      <trkpt lat="45.91885" lon="4.70605">
        <ele>194</ele>
        <time>2018-01-24T09:57:01Z</time>
      </trkpt>
      <trkpt lat="45.91878" lon="4.70606">
        <ele>194</ele>
        <time>2018-01-24T09:57:02Z</time>
      </trkpt>
      <trkpt lat="45.91872" lon="4.70606">
        <ele>194</ele>
        <time>2018-01-24T09:57:03Z</time>
      </trkpt>
      <trkpt lat="45.91866" lon="4.70606">
        <ele>194</ele>
        <time>2018-01-24T09:57:04Z</time>
      </trkpt>
      <trkpt lat="45.9186" lon="4.70607">
        <ele>194</ele>
        <time>2018-01-24T09:57:05Z</time>
      </trkpt>
      <trkpt lat="45.91854" lon="4.70605">
        <ele>194</ele>
        <time>2018-01-24T09:57:06Z</time>
      </trkpt>
      <trkpt lat="45.91849" lon="4.70606">
        <ele>194</ele>
        <time>2018-01-24T09:57:07Z</time>
      </trkpt>
      <trkpt lat="45.91843" lon="4.70606">
        <ele>194</ele>
        <time>2018-01-24T09:57:08Z</time>
      </trkpt>
      <trkpt lat="45.91837" lon="4.70605">
        <ele>194</ele>
        <time>2018-01-24T09:57:09Z</time>
      </trkpt>
      <trkpt lat="45.91832" lon="4.70605">
        <ele>194</ele>
        <time>2018-01-24T09:57:10Z</time>
      </trkpt>
      <trkpt lat="45.91826" lon="4.70606">
        <ele>194</ele>
        <time>2018-01-24T09:57:11Z</time>
      </trkpt>
      <trkpt lat="45.9182" lon="4.70605">
        <ele>194</ele>
        <time>2018-01-24T09:57:12Z</time>
      </trkpt>
      <trkpt lat="45.91814" lon="4.70606">
        <ele>194</ele>
        <time>2018-01-24T09:57:13Z</time>
      </trkpt>
      <trkpt lat="45.91808" lon="4.70604">
        <ele>194</ele>
        <time>2018-01-24T09:57:14Z</time>
      </trkpt>
      <trkpt lat="45.91802" lon="4.70604">
        <ele>194</ele>
        <time>2018-01-24T09:57:15Z</time>
      </trkpt>
      <trkpt lat="45.91797" lon="4.70604">
        <ele>194</ele>
        <time>2018-01-24T09:57:16Z</time>
      </trkpt>
      <trkpt lat="45.91792" lon="4.70604">
        <ele>194</ele>
        <time>2018-01-24T09:57:17Z</time>
      </trkpt>
      <trkpt lat="45.91783" lon="4.70603">
        <ele>195</ele>
        <time>2018-01-24T09:57:19Z</time>
      </trkpt>
      <trkpt lat="45.91778" lon="4.70602">
        <ele>195</ele>
        <time>2018-01-24T09:57:20Z</time>
      </trkpt>
      <trkpt lat="45.91774" lon="4.70599">
        <ele>195</ele>
        <time>2018-01-24T09:57:21Z</time>
      </trkpt>
      <trkpt lat="45.91769" lon="4.70598">
        <ele>195</ele>
        <time>2018-01-24T09:57:22Z</time>
      </trkpt>
      <trkpt lat="45.91763" lon="4.70596">
        <ele>195</ele>
        <time>2018-01-24T09:57:23Z</time>
      </trkpt>
      <trkpt lat="45.91759" lon="4.70595">
        <ele>195</ele>
        <time>2018-01-24T09:57:24Z</time>
      </trkpt>
      <trkpt lat="45.91755" lon="4.70592">
        <ele>195</ele>
        <time>2018-01-24T09:57:25Z</time>
      </trkpt>
      <trkpt lat="45.9175" lon="4.7059">
        <ele>196</ele>
        <time>2018-01-24T09:57:26Z</time>
      </trkpt>
      <trkpt lat="45.91746" lon="4.70588">
        <ele>196</ele>
        <time>2018-01-24T09:57:27Z</time>
      </trkpt>
      <trkpt lat="45.91741" lon="4.70585">
        <ele>196</ele>
        <time>2018-01-24T09:57:28Z</time>
      </trkpt>
      <trkpt lat="45.91733" lon="4.70581">
        <ele>197</ele>
        <time>2018-01-24T09:57:30Z</time>
      </trkpt>
      <trkpt lat="45.91731" lon="4.70578">
        <ele>197</ele>
        <time>2018-01-24T09:57:31Z</time>
      </trkpt>
      <trkpt lat="45.91725" lon="4.70571">
        <ele>197</ele>
        <time>2018-01-24T09:57:33Z</time>
      </trkpt>
      <trkpt lat="45.91721" lon="4.70569">
        <ele>197</ele>
        <time>2018-01-24T09:57:34Z</time>
      </trkpt>
      <trkpt lat="45.91714" lon="4.70562">
        <ele>197</ele>
        <time>2018-01-24T09:57:36Z</time>
      </trkpt>
      <trkpt lat="45.9171" lon="4.70561">
        <ele>197</ele>
        <time>2018-01-24T09:57:37Z</time>
      </trkpt>
      <trkpt lat="45.91705" lon="4.70559">
        <ele>198</ele>
        <time>2018-01-24T09:57:38Z</time>
      </trkpt>
      <trkpt lat="45.917" lon="4.70558">
        <ele>198</ele>
        <time>2018-01-24T09:57:39Z</time>
      </trkpt>
      <trkpt lat="45.91696" lon="4.70553">
        <ele>198</ele>
        <time>2018-01-24T09:57:40Z</time>
      </trkpt>
      <trkpt lat="45.91692" lon="4.70551">
        <ele>198</ele>
        <time>2018-01-24T09:57:41Z</time>
      </trkpt>
      <trkpt lat="45.91688" lon="4.70547">
        <ele>198</ele>
        <time>2018-01-24T09:57:42Z</time>
      </trkpt>
      <trkpt lat="45.91684" lon="4.70545">
        <ele>198</ele>
        <time>2018-01-24T09:57:43Z</time>
      </trkpt>
      <trkpt lat="45.91677" lon="4.70539">
        <ele>198</ele>
        <time>2018-01-24T09:57:45Z</time>
      </trkpt>
      <trkpt lat="45.91673" lon="4.70536">
        <ele>198</ele>
        <time>2018-01-24T09:57:46Z</time>
      </trkpt>
      <trkpt lat="45.91666" lon="4.7053">
        <ele>198</ele>
        <time>2018-01-24T09:57:48Z</time>
      </trkpt>
      <trkpt lat="45.91662" lon="4.70529">
        <ele>198</ele>
        <time>2018-01-24T09:57:49Z</time>
      </trkpt>
      <trkpt lat="45.91655" lon="4.70523">
        <ele>199</ele>
        <time>2018-01-24T09:57:51Z</time>
      </trkpt>
      <trkpt lat="45.91651" lon="4.70519">
        <ele>199</ele>
        <time>2018-01-24T09:57:52Z</time>
      </trkpt>
      <trkpt lat="45.91644" lon="4.70513">
        <ele>199</ele>
        <time>2018-01-24T09:57:54Z</time>
      </trkpt>
      <trkpt lat="45.91641" lon="4.7051">
        <ele>199</ele>
        <time>2018-01-24T09:57:55Z</time>
      </trkpt>
      <trkpt lat="45.91634" lon="4.70503">
        <ele>199</ele>
        <time>2018-01-24T09:57:57Z</time>
      </trkpt>
      <trkpt lat="45.9163" lon="4.705">
        <ele>201</ele>
        <time>2018-01-24T09:57:58Z</time>
      </trkpt>
      <trkpt lat="45.91623" lon="4.70494">
        <ele>202</ele>
        <time>2018-01-24T09:58:00Z</time>
      </trkpt>
      <trkpt lat="45.91619" lon="4.70491">
        <ele>202</ele>
        <time>2018-01-24T09:58:01Z</time>
      </trkpt>
      <trkpt lat="45.91612" lon="4.70484">
        <ele>202</ele>
        <time>2018-01-24T09:58:03Z</time>
      </trkpt>
      <trkpt lat="45.91608" lon="4.70482">
        <ele>202</ele>
        <time>2018-01-24T09:58:04Z</time>
      </trkpt>
      <trkpt lat="45.916" lon="4.70476">
        <ele>202</ele>
        <time>2018-01-24T09:58:06Z</time>
      </trkpt>
      <trkpt lat="45.91597" lon="4.70474">
        <ele>202</ele>
        <time>2018-01-24T09:58:07Z</time>
      </trkpt>
      <trkpt lat="45.91589" lon="4.70469">
        <ele>203</ele>
        <time>2018-01-24T09:58:09Z</time>
      </trkpt>
      <trkpt lat="45.91585" lon="4.70466">
        <ele>203</ele>
        <time>2018-01-24T09:58:10Z</time>
      </trkpt>
      <trkpt lat="45.91579" lon="4.70461">
        <ele>203</ele>
        <time>2018-01-24T09:58:12Z</time>
      </trkpt>
      <trkpt lat="45.91576" lon="4.70458">
        <ele>203</ele>
        <time>2018-01-24T09:58:13Z</time>
      </trkpt>
      <trkpt lat="45.9157" lon="4.70452">
        <ele>203</ele>
        <time>2018-01-24T09:58:15Z</time>
      </trkpt>
      <trkpt lat="45.91566" lon="4.70449">
        <ele>203</ele>
        <time>2018-01-24T09:58:16Z</time>
      </trkpt>
      <trkpt lat="45.9156" lon="4.70443">
        <ele>203</ele>
        <time>2018-01-24T09:58:18Z</time>
      </trkpt>
      <trkpt lat="45.91556" lon="4.70441">
        <ele>203</ele>
        <time>2018-01-24T09:58:19Z</time>
      </trkpt>
      <trkpt lat="45.91549" lon="4.70434">
        <ele>203</ele>
        <time>2018-01-24T09:58:21Z</time>
      </trkpt>
      <trkpt lat="45.91546" lon="4.70431">
        <ele>203</ele>
        <time>2018-01-24T09:58:22Z</time>
      </trkpt>
      <trkpt lat="45.91539" lon="4.70425">
        <ele>203</ele>
        <time>2018-01-24T09:58:24Z</time>
      </trkpt>
      <trkpt lat="45.91535" lon="4.70422">
        <ele>203</ele>
        <time>2018-01-24T09:58:25Z</time>
      </trkpt>
      <trkpt lat="45.91528" lon="4.70417">
        <ele>206</ele>
        <time>2018-01-24T09:58:27Z</time>
      </trkpt>
      <trkpt lat="45.91524" lon="4.70414">
        <ele>205</ele>
        <time>2018-01-24T09:58:28Z</time>
      </trkpt>
      <trkpt lat="45.91517" lon="4.70408">
        <ele>205</ele>
        <time>2018-01-24T09:58:30Z</time>
      </trkpt>
      <trkpt lat="45.91513" lon="4.70406">
        <ele>205</ele>
        <time>2018-01-24T09:58:31Z</time>
      </trkpt>
      <trkpt lat="45.91507" lon="4.704">
        <ele>205</ele>
        <time>2018-01-24T09:58:33Z</time>
      </trkpt>
      <trkpt lat="45.91503" lon="4.70397">
        <ele>205</ele>
        <time>2018-01-24T09:58:34Z</time>
      </trkpt>
      <trkpt lat="45.91496" lon="4.70391">
        <ele>205</ele>
        <time>2018-01-24T09:58:36Z</time>
      </trkpt>
      <trkpt lat="45.91493" lon="4.70388">
        <ele>205</ele>
        <time>2018-01-24T09:58:37Z</time>
      </trkpt>
      <trkpt lat="45.91485" lon="4.70382">
        <ele>206</ele>
        <time>2018-01-24T09:58:39Z</time>
      </trkpt>
      <trkpt lat="45.91482" lon="4.70379">
        <ele>206</ele>
        <time>2018-01-24T09:58:40Z</time>
      </trkpt>
      <trkpt lat="45.91475" lon="4.70374">
        <ele>206</ele>
        <time>2018-01-24T09:58:42Z</time>
      </trkpt>
      <trkpt lat="45.91471" lon="4.70371">
        <ele>206</ele>
        <time>2018-01-24T09:58:43Z</time>
      </trkpt>
      <trkpt lat="45.91464" lon="4.70365">
        <ele>206</ele>
        <time>2018-01-24T09:58:45Z</time>
      </trkpt>
      <trkpt lat="45.91461" lon="4.70362">
        <ele>206</ele>
        <time>2018-01-24T09:58:46Z</time>
      </trkpt>
      <trkpt lat="45.91453" lon="4.70357">
        <ele>207</ele>
        <time>2018-01-24T09:58:48Z</time>
      </trkpt>
      <trkpt lat="45.9145" lon="4.70355">
        <ele>207</ele>
        <time>2018-01-24T09:58:49Z</time>
      </trkpt>
      <trkpt lat="45.91442" lon="4.7035">
        <ele>207</ele>
        <time>2018-01-24T09:58:51Z</time>
      </trkpt>
      <trkpt lat="45.91439" lon="4.70347">
        <ele>207</ele>
        <time>2018-01-24T09:58:52Z</time>
      </trkpt>
      <trkpt lat="45.91432" lon="4.70341">
        <ele>207</ele>
        <time>2018-01-24T09:58:54Z</time>
      </trkpt>
      <trkpt lat="45.91428" lon="4.70339">
        <ele>207</ele>
        <time>2018-01-24T09:58:55Z</time>
      </trkpt>
      <trkpt lat="45.91421" lon="4.70334">
        <ele>208</ele>
        <time>2018-01-24T09:58:57Z</time>
      </trkpt>
      <trkpt lat="45.91417" lon="4.70331">
        <ele>208</ele>
        <time>2018-01-24T09:58:58Z</time>
      </trkpt>
      <trkpt lat="45.91411" lon="4.70326">
        <ele>208</ele>
        <time>2018-01-24T09:59:00Z</time>
      </trkpt>
      <trkpt lat="45.91407" lon="4.70323">
        <ele>209</ele>
        <time>2018-01-24T09:59:01Z</time>
      </trkpt>
      <trkpt lat="45.91401" lon="4.70316">
        <ele>209</ele>
        <time>2018-01-24T09:59:03Z</time>
      </trkpt>
      <trkpt lat="45.91397" lon="4.70313">
        <ele>209</ele>
        <time>2018-01-24T09:59:04Z</time>
      </trkpt>
      <trkpt lat="45.9139" lon="4.70308">
        <ele>209</ele>
        <time>2018-01-24T09:59:06Z</time>
      </trkpt>
      <trkpt lat="45.91387" lon="4.70305">
        <ele>209</ele>
        <time>2018-01-24T09:59:07Z</time>
      </trkpt>
      <trkpt lat="45.9138" lon="4.70299">
        <ele>209</ele>
        <time>2018-01-24T09:59:09Z</time>
      </trkpt>
      <trkpt lat="45.91377" lon="4.70296">
        <ele>209</ele>
        <time>2018-01-24T09:59:10Z</time>
      </trkpt>
      <trkpt lat="45.9137" lon="4.7029">
        <ele>210</ele>
        <time>2018-01-24T09:59:12Z</time>
      </trkpt>
      <trkpt lat="45.91367" lon="4.70287">
        <ele>210</ele>
        <time>2018-01-24T09:59:13Z</time>
      </trkpt>
      <trkpt lat="45.9136" lon="4.70281">
        <ele>210</ele>
        <time>2018-01-24T09:59:15Z</time>
      </trkpt>
      <trkpt lat="45.91356" lon="4.70278">
        <ele>210</ele>
        <time>2018-01-24T09:59:16Z</time>
      </trkpt>
      <trkpt lat="45.91349" lon="4.70273">
        <ele>210</ele>
        <time>2018-01-24T09:59:18Z</time>
      </trkpt>
      <trkpt lat="45.91345" lon="4.7027">
        <ele>210</ele>
        <time>2018-01-24T09:59:19Z</time>
      </trkpt>
      <trkpt lat="45.91337" lon="4.70264">
        <ele>211</ele>
        <time>2018-01-24T09:59:21Z</time>
      </trkpt>
      <trkpt lat="45.91334" lon="4.70262">
        <ele>211</ele>
        <time>2018-01-24T09:59:22Z</time>
      </trkpt>
      <trkpt lat="45.91325" lon="4.70257">
        <ele>211</ele>
        <time>2018-01-24T09:59:24Z</time>
      </trkpt>
      <trkpt lat="45.91321" lon="4.70254">
        <ele>211</ele>
        <time>2018-01-24T09:59:25Z</time>
      </trkpt>
      <trkpt lat="45.91317" lon="4.7025">
        <ele>211</ele>
        <time>2018-01-24T09:59:26Z</time>
      </trkpt>
      <trkpt lat="45.91313" lon="4.70248">
        <ele>213</ele>
        <time>2018-01-24T09:59:27Z</time>
      </trkpt>
      <trkpt lat="45.91309" lon="4.70246">
        <ele>213</ele>
        <time>2018-01-24T09:59:28Z</time>
      </trkpt>
      <trkpt lat="45.91304" lon="4.70244">
        <ele>214</ele>
        <time>2018-01-24T09:59:29Z</time>
      </trkpt>
      <trkpt lat="45.913" lon="4.70242">
        <ele>214</ele>
        <time>2018-01-24T09:59:30Z</time>
      </trkpt>
      <trkpt lat="45.91296" lon="4.70241">
        <ele>214</ele>
        <time>2018-01-24T09:59:31Z</time>
      </trkpt>
      <trkpt lat="45.91291" lon="4.70239">
        <ele>214</ele>
        <time>2018-01-24T09:59:32Z</time>
      </trkpt>
      <trkpt lat="45.91286" lon="4.70237">
        <ele>214</ele>
        <time>2018-01-24T09:59:33Z</time>
      </trkpt>
      <trkpt lat="45.91278" lon="4.70234">
        <ele>214</ele>
        <time>2018-01-24T09:59:35Z</time>
      </trkpt>
      <trkpt lat="45.91274" lon="4.70232">
        <ele>214</ele>
        <time>2018-01-24T09:59:36Z</time>
      </trkpt>
      <trkpt lat="45.91265" lon="4.7023">
        <ele>213</ele>
        <time>2018-01-24T09:59:38Z</time>
      </trkpt>
      <trkpt lat="45.91261" lon="4.70229">
        <ele>213</ele>
        <time>2018-01-24T09:59:39Z</time>
      </trkpt>
      <trkpt lat="45.91252" lon="4.70226">
        <ele>213</ele>
        <time>2018-01-24T09:59:41Z</time>
      </trkpt>
      <trkpt lat="45.91248" lon="4.70225">
        <ele>213</ele>
        <time>2018-01-24T09:59:42Z</time>
      </trkpt>
      <trkpt lat="45.91243" lon="4.70224">
        <ele>213</ele>
        <time>2018-01-24T09:59:43Z</time>
      </trkpt>
      <trkpt lat="45.91239" lon="4.70221">
        <ele>213</ele>
        <time>2018-01-24T09:59:44Z</time>
      </trkpt>
      <trkpt lat="45.91231" lon="4.70217">
        <ele>214</ele>
        <time>2018-01-24T09:59:46Z</time>
      </trkpt>
      <trkpt lat="45.91227" lon="4.70216">
        <ele>214</ele>
        <time>2018-01-24T09:59:47Z</time>
      </trkpt>
      <trkpt lat="45.91223" lon="4.70214">
        <ele>214</ele>
        <time>2018-01-24T09:59:48Z</time>
      </trkpt>
      <trkpt lat="45.91218" lon="4.70213">
        <ele>214</ele>
        <time>2018-01-24T09:59:49Z</time>
      </trkpt>
      <trkpt lat="45.9121" lon="4.70211">
        <ele>214</ele>
        <time>2018-01-24T09:59:51Z</time>
      </trkpt>
      <trkpt lat="45.91206" lon="4.70211">
        <ele>214</ele>
        <time>2018-01-24T09:59:52Z</time>
      </trkpt>
      <trkpt lat="45.91198" lon="4.70208">
        <ele>214</ele>
        <time>2018-01-24T09:59:54Z</time>
      </trkpt>
      <trkpt lat="45.91194" lon="4.70207">
        <ele>214</ele>
        <time>2018-01-24T09:59:55Z</time>
      </trkpt>
      <trkpt lat="45.91186" lon="4.70204">
        <ele>214</ele>
        <time>2018-01-24T09:59:57Z</time>
      </trkpt>
      <trkpt lat="45.91182" lon="4.70203">
        <ele>214</ele>
        <time>2018-01-24T09:59:58Z</time>
      </trkpt>
      <trkpt lat="45.91174" lon="4.70201">
        <ele>214</ele>
        <time>2018-01-24T10:00:00Z</time>
      </trkpt>
      <trkpt lat="45.9117" lon="4.702">
        <ele>214</ele>
        <time>2018-01-24T10:00:01Z</time>
      </trkpt>
      <trkpt lat="45.91163" lon="4.70197">
        <ele>215</ele>
        <time>2018-01-24T10:00:03Z</time>
      </trkpt>
      <trkpt lat="45.91159" lon="4.70196">
        <ele>215</ele>
        <time>2018-01-24T10:00:04Z</time>
      </trkpt>
      <trkpt lat="45.91151" lon="4.70195">
        <ele>215</ele>
        <time>2018-01-24T10:00:06Z</time>
      </trkpt>
      <trkpt lat="45.91147" lon="4.70194">
        <ele>215</ele>
        <time>2018-01-24T10:00:07Z</time>
      </trkpt>
      <trkpt lat="45.91139" lon="4.70192">
        <ele>215</ele>
        <time>2018-01-24T10:00:09Z</time>
      </trkpt>
      <trkpt lat="45.91134" lon="4.7019">
        <ele>215</ele>
        <time>2018-01-24T10:00:10Z</time>
      </trkpt>
      <trkpt lat="45.91126" lon="4.70188">
        <ele>215</ele>
        <time>2018-01-24T10:00:12Z</time>
      </trkpt>
      <trkpt lat="45.91122" lon="4.70186">
        <ele>215</ele>
        <time>2018-01-24T10:00:13Z</time>
      </trkpt>
      <trkpt lat="45.91114" lon="4.70184">
        <ele>215</ele>
        <time>2018-01-24T10:00:15Z</time>
      </trkpt>
      <trkpt lat="45.9111" lon="4.70183">
        <ele>215</ele>
        <time>2018-01-24T10:00:16Z</time>
      </trkpt>
      <trkpt lat="45.91101" lon="4.7018">
        <ele>216</ele>
        <time>2018-01-24T10:00:18Z</time>
      </trkpt>
      <trkpt lat="45.91097" lon="4.70179">
        <ele>216</ele>
        <time>2018-01-24T10:00:19Z</time>
      </trkpt>
      <trkpt lat="45.91089" lon="4.70177">
        <ele>216</ele>
        <time>2018-01-24T10:00:21Z</time>
      </trkpt>
      <trkpt lat="45.91086" lon="4.70176">
        <ele>216</ele>
        <time>2018-01-24T10:00:22Z</time>
      </trkpt>
      <trkpt lat="45.91077" lon="4.70174">
        <ele>216</ele>
        <time>2018-01-24T10:00:24Z</time>
      </trkpt>
      <trkpt lat="45.91073" lon="4.70173">
        <ele>216</ele>
        <time>2018-01-24T10:00:25Z</time>
      </trkpt>
      <trkpt lat="45.91065" lon="4.7017">
        <ele>216</ele>
        <time>2018-01-24T10:00:27Z</time>
      </trkpt>
      <trkpt lat="45.91061" lon="4.70169">
        <ele>216</ele>
        <time>2018-01-24T10:00:28Z</time>
      </trkpt>
      <trkpt lat="45.91053" lon="4.70167">
        <ele>218</ele>
        <time>2018-01-24T10:00:30Z</time>
      </trkpt>
      <trkpt lat="45.9105" lon="4.70165">
        <ele>218</ele>
        <time>2018-01-24T10:00:31Z</time>
      </trkpt>
      <trkpt lat="45.91042" lon="4.70163">
        <ele>218</ele>
        <time>2018-01-24T10:00:33Z</time>
      </trkpt>
      <trkpt lat="45.91038" lon="4.70162">
        <ele>218</ele>
        <time>2018-01-24T10:00:34Z</time>
      </trkpt>
      <trkpt lat="45.9103" lon="4.70159">
        <ele>218</ele>
        <time>2018-01-24T10:00:36Z</time>
      </trkpt>
      <trkpt lat="45.91026" lon="4.70157">
        <ele>218</ele>
        <time>2018-01-24T10:00:37Z</time>
      </trkpt>
      <trkpt lat="45.91018" lon="4.70154">
        <ele>218</ele>
        <time>2018-01-24T10:00:39Z</time>
      </trkpt>
      <trkpt lat="45.91014" lon="4.70153">
        <ele>218</ele>
        <time>2018-01-24T10:00:40Z</time>
      </trkpt>
      <trkpt lat="45.91007" lon="4.70149">
        <ele>218</ele>
        <time>2018-01-24T10:00:42Z</time>
      </trkpt>
      <trkpt lat="45.91003" lon="4.70148">
        <ele>218</ele>
        <time>2018-01-24T10:00:43Z</time>
      </trkpt>
      <trkpt lat="45.90995" lon="4.70145">
        <ele>218</ele>
        <time>2018-01-24T10:00:45Z</time>
      </trkpt>
      <trkpt lat="45.90991" lon="4.70143">
        <ele>218</ele>
        <time>2018-01-24T10:00:46Z</time>
      </trkpt>
      <trkpt lat="45.90982" lon="4.7014">
        <ele>218</ele>
        <time>2018-01-24T10:00:48Z</time>
      </trkpt>
      <trkpt lat="45.90978" lon="4.70139">
        <ele>218</ele>
        <time>2018-01-24T10:00:49Z</time>
      </trkpt>
      <trkpt lat="45.9097" lon="4.70136">
        <ele>219</ele>
        <time>2018-01-24T10:00:51Z</time>
      </trkpt>
      <trkpt lat="45.90966" lon="4.70135">
        <ele>219</ele>
        <time>2018-01-24T10:00:52Z</time>
      </trkpt>
      <trkpt lat="45.90959" lon="4.70132">
        <ele>219</ele>
        <time>2018-01-24T10:00:54Z</time>
      </trkpt>
      <trkpt lat="45.90954" lon="4.70131">
        <ele>219</ele>
        <time>2018-01-24T10:00:55Z</time>
      </trkpt>
      <trkpt lat="45.90947" lon="4.70128">
        <ele>219</ele>
        <time>2018-01-24T10:00:57Z</time>
      </trkpt>
      <trkpt lat="45.90943" lon="4.70127">
        <ele>219</ele>
        <time>2018-01-24T10:00:58Z</time>
      </trkpt>
      <trkpt lat="45.90934" lon="4.70127">
        <ele>219</ele>
        <time>2018-01-24T10:01:00Z</time>
      </trkpt>
      <trkpt lat="45.90929" lon="4.70126">
        <ele>219</ele>
        <time>2018-01-24T10:01:01Z</time>
      </trkpt>
      <trkpt lat="45.90921" lon="4.70128">
        <ele>219</ele>
        <time>2018-01-24T10:01:03Z</time>
      </trkpt>
      <trkpt lat="45.90916" lon="4.7013">
        <ele>219</ele>
        <time>2018-01-24T10:01:04Z</time>
      </trkpt>
      <trkpt lat="45.90911" lon="4.70131">
        <ele>219</ele>
        <time>2018-01-24T10:01:05Z</time>
      </trkpt>
      <trkpt lat="45.90907" lon="4.70131">
        <ele>219</ele>
        <time>2018-01-24T10:01:06Z</time>
      </trkpt>
      <trkpt lat="45.90898" lon="4.70131">
        <ele>219</ele>
        <time>2018-01-24T10:01:08Z</time>
      </trkpt>
      <trkpt lat="45.90894" lon="4.70132">
        <ele>219</ele>
        <time>2018-01-24T10:01:09Z</time>
      </trkpt>
      <trkpt lat="45.90888" lon="4.70132">
        <ele>219</ele>
        <time>2018-01-24T10:01:10Z</time>
      </trkpt>
      <trkpt lat="45.90884" lon="4.70133">
        <ele>219</ele>
        <time>2018-01-24T10:01:11Z</time>
      </trkpt>
      <trkpt lat="45.90879" lon="4.70134">
        <ele>218</ele>
        <time>2018-01-24T10:01:12Z</time>
      </trkpt>
      <trkpt lat="45.90874" lon="4.70134">
        <ele>218</ele>
        <time>2018-01-24T10:01:13Z</time>
      </trkpt>
      <trkpt lat="45.90869" lon="4.70134">
        <ele>218</ele>
        <time>2018-01-24T10:01:14Z</time>
      </trkpt>
      <trkpt lat="45.90864" lon="4.70134">
        <ele>218</ele>
        <time>2018-01-24T10:01:15Z</time>
      </trkpt>
      <trkpt lat="45.90858" lon="4.70134">
        <ele>218</ele>
        <time>2018-01-24T10:01:16Z</time>
      </trkpt>
      <trkpt lat="45.90853" lon="4.70134">
        <ele>218</ele>
        <time>2018-01-24T10:01:17Z</time>
      </trkpt>
      <trkpt lat="45.90848" lon="4.70134">
        <ele>218</ele>
        <time>2018-01-24T10:01:18Z</time>
      </trkpt>
      <trkpt lat="45.90843" lon="4.70135">
        <ele>218</ele>
        <time>2018-01-24T10:01:19Z</time>
      </trkpt>
      <trkpt lat="45.90838" lon="4.70135">
        <ele>218</ele>
        <time>2018-01-24T10:01:20Z</time>
      </trkpt>
      <trkpt lat="45.90833" lon="4.70135">
        <ele>219</ele>
        <time>2018-01-24T10:01:21Z</time>
      </trkpt>
      <trkpt lat="45.90828" lon="4.70134">
        <ele>219</ele>
        <time>2018-01-24T10:01:22Z</time>
      </trkpt>
      <trkpt lat="45.90824" lon="4.70135">
        <ele>219</ele>
        <time>2018-01-24T10:01:23Z</time>
      </trkpt>
      <trkpt lat="45.90815" lon="4.70136">
        <ele>219</ele>
        <time>2018-01-24T10:01:25Z</time>
      </trkpt>
      <trkpt lat="45.90811" lon="4.70136">
        <ele>219</ele>
        <time>2018-01-24T10:01:26Z</time>
      </trkpt>
      <trkpt lat="45.90802" lon="4.70136">
        <ele>219</ele>
        <time>2018-01-24T10:01:28Z</time>
      </trkpt>
      <trkpt lat="45.90798" lon="4.70136">
        <ele>219</ele>
        <time>2018-01-24T10:01:29Z</time>
      </trkpt>
      <trkpt lat="45.90789" lon="4.70137">
        <ele>219</ele>
        <time>2018-01-24T10:01:31Z</time>
      </trkpt>
      <trkpt lat="45.90785" lon="4.70137">
        <ele>219</ele>
        <time>2018-01-24T10:01:32Z</time>
      </trkpt>
      <trkpt lat="45.90777" lon="4.70138">
        <ele>219</ele>
        <time>2018-01-24T10:01:34Z</time>
      </trkpt>
      <trkpt lat="45.90773" lon="4.70138">
        <ele>219</ele>
        <time>2018-01-24T10:01:35Z</time>
      </trkpt>
      <trkpt lat="45.90765" lon="4.70138">
        <ele>219</ele>
        <time>2018-01-24T10:01:37Z</time>
      </trkpt>
      <trkpt lat="45.90761" lon="4.70138">
        <ele>219</ele>
        <time>2018-01-24T10:01:38Z</time>
      </trkpt>
      <trkpt lat="45.90754" lon="4.70139">
        <ele>219</ele>
        <time>2018-01-24T10:01:40Z</time>
      </trkpt>
      <trkpt lat="45.90749" lon="4.70139">
        <ele>220</ele>
        <time>2018-01-24T10:01:41Z</time>
      </trkpt>
      <trkpt lat="45.90742" lon="4.70139">
        <ele>220</ele>
        <time>2018-01-24T10:01:43Z</time>
      </trkpt>
      <trkpt lat="45.90738" lon="4.70139">
        <ele>220</ele>
        <time>2018-01-24T10:01:44Z</time>
      </trkpt>
      <trkpt lat="45.9073" lon="4.70138">
        <ele>220</ele>
        <time>2018-01-24T10:01:46Z</time>
      </trkpt>
      <trkpt lat="45.90727" lon="4.70137">
        <ele>220</ele>
        <time>2018-01-24T10:01:47Z</time>
      </trkpt>
      <trkpt lat="45.90719" lon="4.70134">
        <ele>221</ele>
        <time>2018-01-24T10:01:49Z</time>
      </trkpt>
      <trkpt lat="45.90716" lon="4.70132">
        <ele>221</ele>
        <time>2018-01-24T10:01:50Z</time>
      </trkpt>
      <trkpt lat="45.9071" lon="4.70127">
        <ele>221</ele>
        <time>2018-01-24T10:01:52Z</time>
      </trkpt>
      <trkpt lat="45.90707" lon="4.70124">
        <ele>221</ele>
        <time>2018-01-24T10:01:53Z</time>
      </trkpt>
      <trkpt lat="45.90702" lon="4.70119">
        <ele>221</ele>
        <time>2018-01-24T10:01:55Z</time>
      </trkpt>
      <trkpt lat="45.90699" lon="4.70118">
        <ele>221</ele>
        <time>2018-01-24T10:01:56Z</time>
      </trkpt>
      <trkpt lat="45.90691" lon="4.70117">
        <ele>221</ele>
        <time>2018-01-24T10:01:58Z</time>
      </trkpt>
      <trkpt lat="45.90687" lon="4.70118">
        <ele>221</ele>
        <time>2018-01-24T10:01:59Z</time>
      </trkpt>
      <trkpt lat="45.90682" lon="4.70117">
        <ele>221</ele>
        <time>2018-01-24T10:02:00Z</time>
      </trkpt>
      <trkpt lat="45.90677" lon="4.70116">
        <ele>222</ele>
        <time>2018-01-24T10:02:01Z</time>
      </trkpt>
      <trkpt lat="45.90669" lon="4.70111">
        <ele>222</ele>
        <time>2018-01-24T10:02:03Z</time>
      </trkpt>
      <trkpt lat="45.90666" lon="4.70108">
        <ele>221</ele>
        <time>2018-01-24T10:02:04Z</time>
      </trkpt>
      <trkpt lat="45.90658" lon="4.70103">
        <ele>222</ele>
        <time>2018-01-24T10:02:06Z</time>
      </trkpt>
      <trkpt lat="45.90654" lon="4.70101">
        <ele>222</ele>
        <time>2018-01-24T10:02:07Z</time>
      </trkpt>
      <trkpt lat="45.90646" lon="4.70097">
        <ele>221</ele>
        <time>2018-01-24T10:02:09Z</time>
      </trkpt>
      <trkpt lat="45.90642" lon="4.70094">
        <ele>221</ele>
        <time>2018-01-24T10:02:10Z</time>
      </trkpt>
      <trkpt lat="45.90634" lon="4.70089">
        <ele>221</ele>
        <time>2018-01-24T10:02:12Z</time>
      </trkpt>
      <trkpt lat="45.9063" lon="4.70086">
        <ele>221</ele>
        <time>2018-01-24T10:02:13Z</time>
      </trkpt>
      <trkpt lat="45.90626" lon="4.70084">
        <ele>221</ele>
        <time>2018-01-24T10:02:14Z</time>
      </trkpt>
      <trkpt lat="45.90622" lon="4.70081">
        <ele>224</ele>
        <time>2018-01-24T10:02:15Z</time>
      </trkpt>
      <trkpt lat="45.90613" lon="4.70078">
        <ele>224</ele>
        <time>2018-01-24T10:02:17Z</time>
      </trkpt>
      <trkpt lat="45.90609" lon="4.70074">
        <ele>223</ele>
        <time>2018-01-24T10:02:18Z</time>
      </trkpt>
      <trkpt lat="45.90601" lon="4.70069">
        <ele>223</ele>
        <time>2018-01-24T10:02:20Z</time>
      </trkpt>
      <trkpt lat="45.90597" lon="4.70067">
        <ele>223</ele>
        <time>2018-01-24T10:02:21Z</time>
      </trkpt>
      <trkpt lat="45.90589" lon="4.70063">
        <ele>223</ele>
        <time>2018-01-24T10:02:23Z</time>
      </trkpt>
      <trkpt lat="45.90585" lon="4.70061">
        <ele>223</ele>
        <time>2018-01-24T10:02:24Z</time>
      </trkpt>
      <trkpt lat="45.90581" lon="4.70059">
        <ele>223</ele>
        <time>2018-01-24T10:02:25Z</time>
      </trkpt>
      <trkpt lat="45.90576" lon="4.70058">
        <ele>223</ele>
        <time>2018-01-24T10:02:26Z</time>
      </trkpt>
      <trkpt lat="45.90568" lon="4.70053">
        <ele>223</ele>
        <time>2018-01-24T10:02:28Z</time>
      </trkpt>
      <trkpt lat="45.90564" lon="4.70052">
        <ele>224</ele>
        <time>2018-01-24T10:02:29Z</time>
      </trkpt>
      <trkpt lat="45.90556" lon="4.70048">
        <ele>224</ele>
        <time>2018-01-24T10:02:31Z</time>
      </trkpt>
      <trkpt lat="45.90552" lon="4.70045">
        <ele>224</ele>
        <time>2018-01-24T10:02:32Z</time>
      </trkpt>
      <trkpt lat="45.90544" lon="4.70041">
        <ele>224</ele>
        <time>2018-01-24T10:02:34Z</time>
      </trkpt>
      <trkpt lat="45.9054" lon="4.7004">
        <ele>224</ele>
        <time>2018-01-24T10:02:35Z</time>
      </trkpt>
      <trkpt lat="45.90531" lon="4.70037">
        <ele>224</ele>
        <time>2018-01-24T10:02:37Z</time>
      </trkpt>
      <trkpt lat="45.90527" lon="4.70036">
        <ele>224</ele>
        <time>2018-01-24T10:02:38Z</time>
      </trkpt>
      <trkpt lat="45.90518" lon="4.70034">
        <ele>224</ele>
        <time>2018-01-24T10:02:40Z</time>
      </trkpt>
      <trkpt lat="45.90514" lon="4.70034">
        <ele>224</ele>
        <time>2018-01-24T10:02:41Z</time>
      </trkpt>
      <trkpt lat="45.90506" lon="4.70032">
        <ele>225</ele>
        <time>2018-01-24T10:02:43Z</time>
      </trkpt>
      <trkpt lat="45.90502" lon="4.70031">
        <ele>225</ele>
        <time>2018-01-24T10:02:44Z</time>
      </trkpt>
      <trkpt lat="45.90493" lon="4.7003">
        <ele>225</ele>
        <time>2018-01-24T10:02:46Z</time>
      </trkpt>
      <trkpt lat="45.90489" lon="4.7003">
        <ele>225</ele>
        <time>2018-01-24T10:02:47Z</time>
      </trkpt>
      <trkpt lat="45.9048" lon="4.7003">
        <ele>225</ele>
        <time>2018-01-24T10:02:49Z</time>
      </trkpt>
      <trkpt lat="45.90476" lon="4.70029">
        <ele>225</ele>
        <time>2018-01-24T10:02:50Z</time>
      </trkpt>
      <trkpt lat="45.90467" lon="4.70027">
        <ele>225</ele>
        <time>2018-01-24T10:02:52Z</time>
      </trkpt>
      <trkpt lat="45.90463" lon="4.70027">
        <ele>225</ele>
        <time>2018-01-24T10:02:53Z</time>
      </trkpt>
      <trkpt lat="45.90455" lon="4.70027">
        <ele>225</ele>
        <time>2018-01-24T10:02:55Z</time>
      </trkpt>
      <trkpt lat="45.90451" lon="4.70027">
        <ele>225</ele>
        <time>2018-01-24T10:02:56Z</time>
      </trkpt>
      <trkpt lat="45.90446" lon="4.70027">
        <ele>225</ele>
        <time>2018-01-24T10:02:57Z</time>
      </trkpt>
      <trkpt lat="45.90441" lon="4.70027">
        <ele>225</ele>
        <time>2018-01-24T10:02:58Z</time>
      </trkpt>
      <trkpt lat="45.90437" lon="4.70026">
        <ele>225</ele>
        <time>2018-01-24T10:02:59Z</time>
      </trkpt>
      <trkpt lat="45.90432" lon="4.70026">
        <ele>225</ele>
        <time>2018-01-24T10:03:00Z</time>
      </trkpt>
      <trkpt lat="45.90427" lon="4.70026">
        <ele>225</ele>
        <time>2018-01-24T10:03:01Z</time>
      </trkpt>
      <trkpt lat="45.90422" lon="4.70026">
        <ele>226</ele>
        <time>2018-01-24T10:03:02Z</time>
      </trkpt>
      <trkpt lat="45.90418" lon="4.70026">
        <ele>226</ele>
        <time>2018-01-24T10:03:03Z</time>
      </trkpt>
      <trkpt lat="45.90413" lon="4.70027">
        <ele>225</ele>
        <time>2018-01-24T10:03:04Z</time>
      </trkpt>
      <trkpt lat="45.90409" lon="4.70028">
        <ele>225</ele>
        <time>2018-01-24T10:03:05Z</time>
      </trkpt>
      <trkpt lat="45.90403" lon="4.70027">
        <ele>225</ele>
        <time>2018-01-24T10:03:06Z</time>
      </trkpt>
      <trkpt lat="45.90395" lon="4.70029">
        <ele>225</ele>
        <time>2018-01-24T10:03:08Z</time>
      </trkpt>
      <trkpt lat="45.90391" lon="4.70029">
        <ele>225</ele>
        <time>2018-01-24T10:03:09Z</time>
      </trkpt>
      <trkpt lat="45.90382" lon="4.7003">
        <ele>225</ele>
        <time>2018-01-24T10:03:11Z</time>
      </trkpt>
      <trkpt lat="45.90378" lon="4.70031">
        <ele>225</ele>
        <time>2018-01-24T10:03:12Z</time>
      </trkpt>
      <trkpt lat="45.9037" lon="4.70033">
        <ele>224</ele>
        <time>2018-01-24T10:03:14Z</time>
      </trkpt>
      <trkpt lat="45.90365" lon="4.70033">
        <ele>224</ele>
        <time>2018-01-24T10:03:15Z</time>
      </trkpt>
      <trkpt lat="45.9036" lon="4.70034">
        <ele>224</ele>
        <time>2018-01-24T10:03:16Z</time>
      </trkpt>
      <trkpt lat="45.90356" lon="4.70036">
        <ele>224</ele>
        <time>2018-01-24T10:03:17Z</time>
      </trkpt>
      <trkpt lat="45.90351" lon="4.70036">
        <ele>224</ele>
        <time>2018-01-24T10:03:18Z</time>
      </trkpt>
      <trkpt lat="45.90347" lon="4.70036">
        <ele>224</ele>
        <time>2018-01-24T10:03:19Z</time>
      </trkpt>
      <trkpt lat="45.90341" lon="4.70038">
        <ele>224</ele>
        <time>2018-01-24T10:03:20Z</time>
      </trkpt>
      <trkpt lat="45.90336" lon="4.70039">
        <ele>224</ele>
        <time>2018-01-24T10:03:21Z</time>
      </trkpt>
      <trkpt lat="45.90331" lon="4.7004">
        <ele>224</ele>
        <time>2018-01-24T10:03:22Z</time>
      </trkpt>
      <trkpt lat="45.90326" lon="4.7004">
        <ele>224</ele>
        <time>2018-01-24T10:03:23Z</time>
      </trkpt>
      <trkpt lat="45.90318" lon="4.7004">
        <ele>224</ele>
        <time>2018-01-24T10:03:25Z</time>
      </trkpt>
      <trkpt lat="45.90314" lon="4.70041">
        <ele>224</ele>
        <time>2018-01-24T10:03:26Z</time>
      </trkpt>
      <trkpt lat="45.9031" lon="4.70043">
        <ele>224</ele>
        <time>2018-01-24T10:03:27Z</time>
      </trkpt>
      <trkpt lat="45.90304" lon="4.70044">
        <ele>224</ele>
        <time>2018-01-24T10:03:28Z</time>
      </trkpt>
      <trkpt lat="45.90299" lon="4.70045">
        <ele>224</ele>
        <time>2018-01-24T10:03:29Z</time>
      </trkpt>
      <trkpt lat="45.90295" lon="4.70046">
        <ele>224</ele>
        <time>2018-01-24T10:03:30Z</time>
      </trkpt>
      <trkpt lat="45.90288" lon="4.70048">
        <ele>224</ele>
        <time>2018-01-24T10:03:31Z</time>
      </trkpt>
      <trkpt lat="45.90283" lon="4.70049">
        <ele>224</ele>
        <time>2018-01-24T10:03:32Z</time>
      </trkpt>
      <trkpt lat="45.90278" lon="4.7005">
        <ele>224</ele>
        <time>2018-01-24T10:03:33Z</time>
      </trkpt>
      <trkpt lat="45.90273" lon="4.7005">
        <ele>224</ele>
        <time>2018-01-24T10:03:34Z</time>
      </trkpt>
      <trkpt lat="45.90269" lon="4.70051">
        <ele>224</ele>
        <time>2018-01-24T10:03:35Z</time>
      </trkpt>
      <trkpt lat="45.90264" lon="4.70052">
        <ele>224</ele>
        <time>2018-01-24T10:03:36Z</time>
      </trkpt>
      <trkpt lat="45.90256" lon="4.70052">
        <ele>224</ele>
        <time>2018-01-24T10:03:38Z</time>
      </trkpt>
      <trkpt lat="45.90251" lon="4.70053">
        <ele>224</ele>
        <time>2018-01-24T10:03:39Z</time>
      </trkpt>
      <trkpt lat="45.90247" lon="4.70053">
        <ele>225</ele>
        <time>2018-01-24T10:03:40Z</time>
      </trkpt>
      <trkpt lat="45.90242" lon="4.70054">
        <ele>225</ele>
        <time>2018-01-24T10:03:41Z</time>
      </trkpt>
      <trkpt lat="45.90237" lon="4.70055">
        <ele>225</ele>
        <time>2018-01-24T10:03:42Z</time>
      </trkpt>
      <trkpt lat="45.90232" lon="4.70057">
        <ele>225</ele>
        <time>2018-01-24T10:03:43Z</time>
      </trkpt>
      <trkpt lat="45.90227" lon="4.70057">
        <ele>226</ele>
        <time>2018-01-24T10:03:44Z</time>
      </trkpt>
      <trkpt lat="45.90222" lon="4.70058">
        <ele>226</ele>
        <time>2018-01-24T10:03:45Z</time>
      </trkpt>
      <trkpt lat="45.90217" lon="4.70059">
        <ele>226</ele>
        <time>2018-01-24T10:03:46Z</time>
      </trkpt>
      <trkpt lat="45.90212" lon="4.70061">
        <ele>226</ele>
        <time>2018-01-24T10:03:47Z</time>
      </trkpt>
      <trkpt lat="45.90207" lon="4.70061">
        <ele>226</ele>
        <time>2018-01-24T10:03:48Z</time>
      </trkpt>
      <trkpt lat="45.90203" lon="4.70061">
        <ele>226</ele>
        <time>2018-01-24T10:03:49Z</time>
      </trkpt>
      <trkpt lat="45.90198" lon="4.70062">
        <ele>226</ele>
        <time>2018-01-24T10:03:50Z</time>
      </trkpt>
      <trkpt lat="45.90193" lon="4.70063">
        <ele>226</ele>
        <time>2018-01-24T10:03:51Z</time>
      </trkpt>
      <trkpt lat="45.90189" lon="4.70064">
        <ele>226</ele>
        <time>2018-01-24T10:03:52Z</time>
      </trkpt>
      <trkpt lat="45.90184" lon="4.70064">
        <ele>226</ele>
        <time>2018-01-24T10:03:53Z</time>
      </trkpt>
      <trkpt lat="45.90178" lon="4.70066">
        <ele>226</ele>
        <time>2018-01-24T10:03:54Z</time>
      </trkpt>
      <trkpt lat="45.90172" lon="4.70067">
        <ele>226</ele>
        <time>2018-01-24T10:03:55Z</time>
      </trkpt>
      <trkpt lat="45.90167" lon="4.70068">
        <ele>226</ele>
        <time>2018-01-24T10:03:56Z</time>
      </trkpt>
      <trkpt lat="45.90161" lon="4.70069">
        <ele>226</ele>
        <time>2018-01-24T10:03:57Z</time>
      </trkpt>
      <trkpt lat="45.90155" lon="4.7007">
        <ele>226</ele>
        <time>2018-01-24T10:03:58Z</time>
      </trkpt>
      <trkpt lat="45.90149" lon="4.70072">
        <ele>226</ele>
        <time>2018-01-24T10:03:59Z</time>
      </trkpt>
      <trkpt lat="45.90143" lon="4.70073">
        <ele>226</ele>
        <time>2018-01-24T10:04:00Z</time>
      </trkpt>
      <trkpt lat="45.90137" lon="4.70074">
        <ele>226</ele>
        <time>2018-01-24T10:04:01Z</time>
      </trkpt>
      <trkpt lat="45.90132" lon="4.70074">
        <ele>226</ele>
        <time>2018-01-24T10:04:02Z</time>
      </trkpt>
      <trkpt lat="45.90126" lon="4.70074">
        <ele>226</ele>
        <time>2018-01-24T10:04:03Z</time>
      </trkpt>
      <trkpt lat="45.90121" lon="4.70075">
        <ele>226</ele>
        <time>2018-01-24T10:04:04Z</time>
      </trkpt>
      <trkpt lat="45.90116" lon="4.70075">
        <ele>226</ele>
        <time>2018-01-24T10:04:05Z</time>
      </trkpt>
      <trkpt lat="45.90111" lon="4.70076">
        <ele>226</ele>
        <time>2018-01-24T10:04:06Z</time>
      </trkpt>
      <trkpt lat="45.90106" lon="4.70077">
        <ele>226</ele>
        <time>2018-01-24T10:04:07Z</time>
      </trkpt>
      <trkpt lat="45.90102" lon="4.70078">
        <ele>226</ele>
        <time>2018-01-24T10:04:08Z</time>
      </trkpt>
      <trkpt lat="45.90097" lon="4.70079">
        <ele>225</ele>
        <time>2018-01-24T10:04:09Z</time>
      </trkpt>
      <trkpt lat="45.90092" lon="4.70079">
        <ele>225</ele>
        <time>2018-01-24T10:04:10Z</time>
      </trkpt>
      <trkpt lat="45.90087" lon="4.70081">
        <ele>224</ele>
        <time>2018-01-24T10:04:11Z</time>
      </trkpt>
      <trkpt lat="45.90082" lon="4.70081">
        <ele>224</ele>
        <time>2018-01-24T10:04:12Z</time>
      </trkpt>
      <trkpt lat="45.90077" lon="4.70082">
        <ele>224</ele>
        <time>2018-01-24T10:04:13Z</time>
      </trkpt>
      <trkpt lat="45.90071" lon="4.70083">
        <ele>225</ele>
        <time>2018-01-24T10:04:14Z</time>
      </trkpt>
      <trkpt lat="45.90066" lon="4.70083">
        <ele>225</ele>
        <time>2018-01-24T10:04:15Z</time>
      </trkpt>
      <trkpt lat="45.9006" lon="4.70083">
        <ele>223</ele>
        <time>2018-01-24T10:04:16Z</time>
      </trkpt>
      <trkpt lat="45.90055" lon="4.70083">
        <ele>225</ele>
        <time>2018-01-24T10:04:17Z</time>
      </trkpt>
      <trkpt lat="45.9005" lon="4.70083">
        <ele>225</ele>
        <time>2018-01-24T10:04:18Z</time>
      </trkpt>
      <trkpt lat="45.90044" lon="4.70084">
        <ele>222</ele>
        <time>2018-01-24T10:04:19Z</time>
      </trkpt>
      <trkpt lat="45.90038" lon="4.70084">
        <ele>222</ele>
        <time>2018-01-24T10:04:20Z</time>
      </trkpt>
      <trkpt lat="45.90033" lon="4.70083">
        <ele>224</ele>
        <time>2018-01-24T10:04:21Z</time>
      </trkpt>
      <trkpt lat="45.90028" lon="4.70082">
        <ele>224</ele>
        <time>2018-01-24T10:04:22Z</time>
      </trkpt>
      <trkpt lat="45.90022" lon="4.70082">
        <ele>224</ele>
        <time>2018-01-24T10:04:23Z</time>
      </trkpt>
      <trkpt lat="45.90017" lon="4.70082">
        <ele>224</ele>
        <time>2018-01-24T10:04:24Z</time>
      </trkpt>
      <trkpt lat="45.90012" lon="4.70081">
        <ele>223</ele>
        <time>2018-01-24T10:04:25Z</time>
      </trkpt>
      <trkpt lat="45.90007" lon="4.70081">
        <ele>223</ele>
        <time>2018-01-24T10:04:26Z</time>
      </trkpt>
      <trkpt lat="45.90002" lon="4.7008">
        <ele>223</ele>
        <time>2018-01-24T10:04:27Z</time>
      </trkpt>
      <trkpt lat="45.89996" lon="4.7008">
        <ele>222</ele>
        <time>2018-01-24T10:04:28Z</time>
      </trkpt>
      <trkpt lat="45.89989" lon="4.7008">
        <ele>222</ele>
        <time>2018-01-24T10:04:29Z</time>
      </trkpt>
      <trkpt lat="45.89984" lon="4.70079">
        <ele>223</ele>
        <time>2018-01-24T10:04:30Z</time>
      </trkpt>
      <trkpt lat="45.89978" lon="4.70079">
        <ele>223</ele>
        <time>2018-01-24T10:04:31Z</time>
      </trkpt>
      <trkpt lat="45.89973" lon="4.70078">
        <ele>223</ele>
        <time>2018-01-24T10:04:32Z</time>
      </trkpt>
      <trkpt lat="45.89967" lon="4.70077">
        <ele>223</ele>
        <time>2018-01-24T10:04:33Z</time>
      </trkpt>
      <trkpt lat="45.8996" lon="4.70077">
        <ele>223</ele>
        <time>2018-01-24T10:04:34Z</time>
      </trkpt>
      <trkpt lat="45.89953" lon="4.70077">
        <ele>223</ele>
        <time>2018-01-24T10:04:35Z</time>
      </trkpt>
      <trkpt lat="45.89947" lon="4.70076">
        <ele>222</ele>
        <time>2018-01-24T10:04:36Z</time>
      </trkpt>
      <trkpt lat="45.89942" lon="4.70075">
        <ele>222</ele>
        <time>2018-01-24T10:04:37Z</time>
      </trkpt>
      <trkpt lat="45.89936" lon="4.70075">
        <ele>222</ele>
        <time>2018-01-24T10:04:38Z</time>
      </trkpt>
      <trkpt lat="45.8993" lon="4.70074">
        <ele>222</ele>
        <time>2018-01-24T10:04:39Z</time>
      </trkpt>
      <trkpt lat="45.89924" lon="4.70073">
        <ele>222</ele>
        <time>2018-01-24T10:04:40Z</time>
      </trkpt>
      <trkpt lat="45.89918" lon="4.70075">
        <ele>222</ele>
        <time>2018-01-24T10:04:41Z</time>
      </trkpt>
      <trkpt lat="45.89912" lon="4.70074">
        <ele>221</ele>
        <time>2018-01-24T10:04:42Z</time>
      </trkpt>
      <trkpt lat="45.89906" lon="4.70074">
        <ele>221</ele>
        <time>2018-01-24T10:04:43Z</time>
      </trkpt>
      <trkpt lat="45.89901" lon="4.70074">
        <ele>221</ele>
        <time>2018-01-24T10:04:44Z</time>
      </trkpt>
      <trkpt lat="45.89896" lon="4.70073">
        <ele>221</ele>
        <time>2018-01-24T10:04:45Z</time>
      </trkpt>
      <trkpt lat="45.8989" lon="4.70072">
        <ele>221</ele>
        <time>2018-01-24T10:04:46Z</time>
      </trkpt>
      <trkpt lat="45.89886" lon="4.70072">
        <ele>221</ele>
        <time>2018-01-24T10:04:47Z</time>
      </trkpt>
      <trkpt lat="45.89881" lon="4.70072">
        <ele>221</ele>
        <time>2018-01-24T10:04:48Z</time>
      </trkpt>
      <trkpt lat="45.89876" lon="4.70071">
        <ele>221</ele>
        <time>2018-01-24T10:04:49Z</time>
      </trkpt>
      <trkpt lat="45.89869" lon="4.7007">
        <ele>221</ele>
        <time>2018-01-24T10:04:51Z</time>
      </trkpt>
      <trkpt lat="45.89866" lon="4.7007">
        <ele>221</ele>
        <time>2018-01-24T10:04:52Z</time>
      </trkpt>
      <trkpt lat="45.89858" lon="4.70071">
        <ele>221</ele>
        <time>2018-01-24T10:04:58Z</time>
      </trkpt>
      <trkpt lat="45.89856" lon="4.70071">
        <ele>221</ele>
        <time>2018-01-24T10:04:59Z</time>
      </trkpt>
      <trkpt lat="45.89849" lon="4.7007">
        <ele>221</ele>
        <time>2018-01-24T10:05:02Z</time>
      </trkpt>
      <trkpt lat="45.89846" lon="4.7007">
        <ele>221</ele>
        <time>2018-01-24T10:05:03Z</time>
      </trkpt>
      <trkpt lat="45.8984" lon="4.7007">
        <ele>221</ele>
        <time>2018-01-24T10:05:05Z</time>
      </trkpt>
      <trkpt lat="45.89836" lon="4.70069">
        <ele>221</ele>
        <time>2018-01-24T10:05:06Z</time>
      </trkpt>
      <trkpt lat="45.89827" lon="4.70069">
        <ele>221</ele>
        <time>2018-01-24T10:05:08Z</time>
      </trkpt>
      <trkpt lat="45.89823" lon="4.70069">
        <ele>221</ele>
        <time>2018-01-24T10:05:09Z</time>
      </trkpt>
      <trkpt lat="45.89818" lon="4.70068">
        <ele>221</ele>
        <time>2018-01-24T10:05:10Z</time>
      </trkpt>
      <trkpt lat="45.89814" lon="4.70068">
        <ele>221</ele>
        <time>2018-01-24T10:05:11Z</time>
      </trkpt>
      <trkpt lat="45.89808" lon="4.70067">
        <ele>221</ele>
        <time>2018-01-24T10:05:12Z</time>
      </trkpt>
      <trkpt lat="45.89804" lon="4.70066">
        <ele>221</ele>
        <time>2018-01-24T10:05:13Z</time>
      </trkpt>
      <trkpt lat="45.89795" lon="4.70065">
        <ele>221</ele>
        <time>2018-01-24T10:05:15Z</time>
      </trkpt>
      <trkpt lat="45.8979" lon="4.70066">
        <ele>221</ele>
        <time>2018-01-24T10:05:16Z</time>
      </trkpt>
      <trkpt lat="45.89781" lon="4.70065">
        <ele>221</ele>
        <time>2018-01-24T10:05:18Z</time>
      </trkpt>
      <trkpt lat="45.89777" lon="4.70064">
        <ele>221</ele>
        <time>2018-01-24T10:05:19Z</time>
      </trkpt>
      <trkpt lat="45.89768" lon="4.70064">
        <ele>221</ele>
        <time>2018-01-24T10:05:21Z</time>
      </trkpt>
      <trkpt lat="45.89763" lon="4.70063">
        <ele>220</ele>
        <time>2018-01-24T10:05:22Z</time>
      </trkpt>
      <trkpt lat="45.89759" lon="4.70062">
        <ele>220</ele>
        <time>2018-01-24T10:05:23Z</time>
      </trkpt>
      <trkpt lat="45.89754" lon="4.70061">
        <ele>220</ele>
        <time>2018-01-24T10:05:24Z</time>
      </trkpt>
      <trkpt lat="45.8975" lon="4.70061">
        <ele>221</ele>
        <time>2018-01-24T10:05:25Z</time>
      </trkpt>
      <trkpt lat="45.89745" lon="4.70061">
        <ele>221</ele>
        <time>2018-01-24T10:05:26Z</time>
      </trkpt>
      <trkpt lat="45.89736" lon="4.7006">
        <ele>221</ele>
        <time>2018-01-24T10:05:28Z</time>
      </trkpt>
      <trkpt lat="45.89732" lon="4.70059">
        <ele>221</ele>
        <time>2018-01-24T10:05:29Z</time>
      </trkpt>
      <trkpt lat="45.89727" lon="4.70058">
        <ele>221</ele>
        <time>2018-01-24T10:05:30Z</time>
      </trkpt>
      <trkpt lat="45.89723" lon="4.70057">
        <ele>221</ele>
        <time>2018-01-24T10:05:31Z</time>
      </trkpt>
      <trkpt lat="45.89715" lon="4.70054">
        <ele>221</ele>
        <time>2018-01-24T10:05:33Z</time>
      </trkpt>
      <trkpt lat="45.8971" lon="4.70052">
        <ele>222</ele>
        <time>2018-01-24T10:05:34Z</time>
      </trkpt>
      <trkpt lat="45.89702" lon="4.70052">
        <ele>222</ele>
        <time>2018-01-24T10:05:36Z</time>
      </trkpt>
      <trkpt lat="45.89698" lon="4.70052">
        <ele>222</ele>
        <time>2018-01-24T10:05:37Z</time>
      </trkpt>
      <trkpt lat="45.89693" lon="4.7005">
        <ele>222</ele>
        <time>2018-01-24T10:05:38Z</time>
      </trkpt>
      <trkpt lat="45.89688" lon="4.70048">
        <ele>222</ele>
        <time>2018-01-24T10:05:39Z</time>
      </trkpt>
      <trkpt lat="45.89683" lon="4.70047">
        <ele>222</ele>
        <time>2018-01-24T10:05:40Z</time>
      </trkpt>
      <trkpt lat="45.89679" lon="4.70045">
        <ele>222</ele>
        <time>2018-01-24T10:05:41Z</time>
      </trkpt>
      <trkpt lat="45.89675" lon="4.70043">
        <ele>222</ele>
        <time>2018-01-24T10:05:42Z</time>
      </trkpt>
      <trkpt lat="45.8967" lon="4.70043">
        <ele>222</ele>
        <time>2018-01-24T10:05:43Z</time>
      </trkpt>
      <trkpt lat="45.89666" lon="4.70041">
        <ele>222</ele>
        <time>2018-01-24T10:05:44Z</time>
      </trkpt>
      <trkpt lat="45.89661" lon="4.7004">
        <ele>222</ele>
        <time>2018-01-24T10:05:45Z</time>
      </trkpt>
      <trkpt lat="45.89656" lon="4.70039">
        <ele>222</ele>
        <time>2018-01-24T10:05:46Z</time>
      </trkpt>
      <trkpt lat="45.8965" lon="4.70038">
        <ele>222</ele>
        <time>2018-01-24T10:05:47Z</time>
      </trkpt>
      <trkpt lat="45.89642" lon="4.70035">
        <ele>222</ele>
        <time>2018-01-24T10:05:49Z</time>
      </trkpt>
      <trkpt lat="45.89638" lon="4.70034">
        <ele>222</ele>
        <time>2018-01-24T10:05:50Z</time>
      </trkpt>
      <trkpt lat="45.8963" lon="4.70032">
        <ele>222</ele>
        <time>2018-01-24T10:05:52Z</time>
      </trkpt>
      <trkpt lat="45.89625" lon="4.70033">
        <ele>222</ele>
        <time>2018-01-24T10:05:53Z</time>
      </trkpt>
      <trkpt lat="45.8962" lon="4.70032">
        <ele>222</ele>
        <time>2018-01-24T10:05:54Z</time>
      </trkpt>
      <trkpt lat="45.89614" lon="4.70032">
        <ele>222</ele>
        <time>2018-01-24T10:05:55Z</time>
      </trkpt>
      <trkpt lat="45.89606" lon="4.7003">
        <ele>222</ele>
        <time>2018-01-24T10:05:57Z</time>
      </trkpt>
      <trkpt lat="45.89601" lon="4.70029">
        <ele>222</ele>
        <time>2018-01-24T10:05:58Z</time>
      </trkpt>
      <trkpt lat="45.89595" lon="4.70029">
        <ele>222</ele>
        <time>2018-01-24T10:05:59Z</time>
      </trkpt>
      <trkpt lat="45.89591" lon="4.70029">
        <ele>222</ele>
        <time>2018-01-24T10:06:00Z</time>
      </trkpt>
      <trkpt lat="45.89582" lon="4.70028">
        <ele>222</ele>
        <time>2018-01-24T10:06:02Z</time>
      </trkpt>
      <trkpt lat="45.89577" lon="4.70027">
        <ele>222</ele>
        <time>2018-01-24T10:06:03Z</time>
      </trkpt>
      <trkpt lat="45.89572" lon="4.70027">
        <ele>222</ele>
        <time>2018-01-24T10:06:04Z</time>
      </trkpt>
      <trkpt lat="45.89567" lon="4.70027">
        <ele>222</ele>
        <time>2018-01-24T10:06:05Z</time>
      </trkpt>
      <trkpt lat="45.89563" lon="4.70026">
        <ele>222</ele>
        <time>2018-01-24T10:06:06Z</time>
      </trkpt>
      <trkpt lat="45.89558" lon="4.70026">
        <ele>222</ele>
        <time>2018-01-24T10:06:07Z</time>
      </trkpt>
      <trkpt lat="45.89554" lon="4.70024">
        <ele>222</ele>
        <time>2018-01-24T10:06:08Z</time>
      </trkpt>
      <trkpt lat="45.89549" lon="4.70024">
        <ele>223</ele>
        <time>2018-01-24T10:06:09Z</time>
      </trkpt>
      <trkpt lat="45.8954" lon="4.70023">
        <ele>223</ele>
        <time>2018-01-24T10:06:11Z</time>
      </trkpt>
      <trkpt lat="45.89537" lon="4.70022">
        <ele>223</ele>
        <time>2018-01-24T10:06:12Z</time>
      </trkpt>
      <trkpt lat="45.89529" lon="4.70018">
        <ele>223</ele>
        <time>2018-01-24T10:06:14Z</time>
      </trkpt>
      <trkpt lat="45.89527" lon="4.70016">
        <ele>223</ele>
        <time>2018-01-24T10:06:15Z</time>
      </trkpt>
      <trkpt lat="45.89519" lon="4.70015">
        <ele>223</ele>
        <time>2018-01-24T10:06:17Z</time>
      </trkpt>
      <trkpt lat="45.89515" lon="4.70014">
        <ele>223</ele>
        <time>2018-01-24T10:06:18Z</time>
      </trkpt>
      <trkpt lat="45.89506" lon="4.70011">
        <ele>224</ele>
        <time>2018-01-24T10:06:20Z</time>
      </trkpt>
      <trkpt lat="45.89502" lon="4.70011">
        <ele>224</ele>
        <time>2018-01-24T10:06:21Z</time>
      </trkpt>
      <trkpt lat="45.89494" lon="4.7001">
        <ele>225</ele>
        <time>2018-01-24T10:06:23Z</time>
      </trkpt>
      <trkpt lat="45.8949" lon="4.70009">
        <ele>225</ele>
        <time>2018-01-24T10:06:24Z</time>
      </trkpt>
      <trkpt lat="45.89482" lon="4.70008">
        <ele>225</ele>
        <time>2018-01-24T10:06:26Z</time>
      </trkpt>
      <trkpt lat="45.89477" lon="4.70007">
        <ele>225</ele>
        <time>2018-01-24T10:06:27Z</time>
      </trkpt>
      <trkpt lat="45.89469" lon="4.70006">
        <ele>225</ele>
        <time>2018-01-24T10:06:29Z</time>
      </trkpt>
      <trkpt lat="45.89464" lon="4.70005">
        <ele>225</ele>
        <time>2018-01-24T10:06:30Z</time>
      </trkpt>
      <trkpt lat="45.89456" lon="4.70004">
        <ele>225</ele>
        <time>2018-01-24T10:06:32Z</time>
      </trkpt>
      <trkpt lat="45.89452" lon="4.70003">
        <ele>225</ele>
        <time>2018-01-24T10:06:33Z</time>
      </trkpt>
      <trkpt lat="45.89444" lon="4.70002">
        <ele>225</ele>
        <time>2018-01-24T10:06:35Z</time>
      </trkpt>
      <trkpt lat="45.8944" lon="4.70002">
        <ele>225</ele>
        <time>2018-01-24T10:06:36Z</time>
      </trkpt>
      <trkpt lat="45.89432" lon="4.70001">
        <ele>226</ele>
        <time>2018-01-24T10:06:38Z</time>
      </trkpt>
      <trkpt lat="45.89428" lon="4.70001">
        <ele>226</ele>
        <time>2018-01-24T10:06:39Z</time>
      </trkpt>
      <trkpt lat="45.89421" lon="4.7">
        <ele>227</ele>
        <time>2018-01-24T10:06:41Z</time>
      </trkpt>
      <trkpt lat="45.89416" lon="4.69999">
        <ele>227</ele>
        <time>2018-01-24T10:06:42Z</time>
      </trkpt>
      <trkpt lat="45.89408" lon="4.69998">
        <ele>227</ele>
        <time>2018-01-24T10:06:44Z</time>
      </trkpt>
      <trkpt lat="45.89404" lon="4.69998">
        <ele>227</ele>
        <time>2018-01-24T10:06:45Z</time>
      </trkpt>
      <trkpt lat="45.89396" lon="4.69996">
        <ele>227</ele>
        <time>2018-01-24T10:06:47Z</time>
      </trkpt>
      <trkpt lat="45.8939" lon="4.69995">
        <ele>227</ele>
        <time>2018-01-24T10:06:48Z</time>
      </trkpt>
      <trkpt lat="45.89382" lon="4.69994">
        <ele>227</ele>
        <time>2018-01-24T10:06:50Z</time>
      </trkpt>
      <trkpt lat="45.89377" lon="4.69994">
        <ele>227</ele>
        <time>2018-01-24T10:06:51Z</time>
      </trkpt>
      <trkpt lat="45.89368" lon="4.69992">
        <ele>227</ele>
        <time>2018-01-24T10:06:53Z</time>
      </trkpt>
      <trkpt lat="45.89365" lon="4.69991">
        <ele>227</ele>
        <time>2018-01-24T10:06:54Z</time>
      </trkpt>
      <trkpt lat="45.89356" lon="4.69989">
        <ele>227</ele>
        <time>2018-01-24T10:06:56Z</time>
      </trkpt>
      <trkpt lat="45.89352" lon="4.69988">
        <ele>227</ele>
        <time>2018-01-24T10:06:57Z</time>
      </trkpt>
      <trkpt lat="45.89345" lon="4.69989">
        <ele>227</ele>
        <time>2018-01-24T10:06:59Z</time>
      </trkpt>
      <trkpt lat="45.8934" lon="4.69989">
        <ele>227</ele>
        <time>2018-01-24T10:07:00Z</time>
      </trkpt>
      <trkpt lat="45.89332" lon="4.6999">
        <ele>227</ele>
        <time>2018-01-24T10:07:02Z</time>
      </trkpt>
      <trkpt lat="45.89328" lon="4.69991">
        <ele>227</ele>
        <time>2018-01-24T10:07:03Z</time>
      </trkpt>
      <trkpt lat="45.89319" lon="4.69994">
        <ele>228</ele>
        <time>2018-01-24T10:07:05Z</time>
      </trkpt>
      <trkpt lat="45.89315" lon="4.69995">
        <ele>228</ele>
        <time>2018-01-24T10:07:06Z</time>
      </trkpt>
      <trkpt lat="45.89306" lon="4.69997">
        <ele>229</ele>
        <time>2018-01-24T10:07:08Z</time>
      </trkpt>
      <trkpt lat="45.89303" lon="4.69998">
        <ele>229</ele>
        <time>2018-01-24T10:07:09Z</time>
      </trkpt>
      <trkpt lat="45.89294" lon="4.70001">
        <ele>226</ele>
        <time>2018-01-24T10:07:11Z</time>
      </trkpt>
      <trkpt lat="45.8929" lon="4.70003">
        <ele>226</ele>
        <time>2018-01-24T10:07:12Z</time>
      </trkpt>
      <trkpt lat="45.89282" lon="4.70006">
        <ele>226</ele>
        <time>2018-01-24T10:07:14Z</time>
      </trkpt>
      <trkpt lat="45.89277" lon="4.70007">
        <ele>227</ele>
        <time>2018-01-24T10:07:15Z</time>
      </trkpt>
      <trkpt lat="45.89269" lon="4.7001">
        <ele>227</ele>
        <time>2018-01-24T10:07:17Z</time>
      </trkpt>
      <trkpt lat="45.89265" lon="4.70011">
        <ele>227</ele>
        <time>2018-01-24T10:07:18Z</time>
      </trkpt>
      <trkpt lat="45.8926" lon="4.70013">
        <ele>227</ele>
        <time>2018-01-24T10:07:19Z</time>
      </trkpt>
      <trkpt lat="45.89255" lon="4.70015">
        <ele>227</ele>
        <time>2018-01-24T10:07:20Z</time>
      </trkpt>
      <trkpt lat="45.8925" lon="4.70017">
        <ele>227</ele>
        <time>2018-01-24T10:07:21Z</time>
      </trkpt>
      <trkpt lat="45.89246" lon="4.70018">
        <ele>229</ele>
        <time>2018-01-24T10:07:22Z</time>
      </trkpt>
      <trkpt lat="45.89237" lon="4.70021">
        <ele>229</ele>
        <time>2018-01-24T10:07:24Z</time>
      </trkpt>
      <trkpt lat="45.89233" lon="4.70022">
        <ele>229</ele>
        <time>2018-01-24T10:07:25Z</time>
      </trkpt>
      <trkpt lat="45.89225" lon="4.70025">
        <ele>229</ele>
        <time>2018-01-24T10:07:27Z</time>
      </trkpt>
      <trkpt lat="45.89221" lon="4.70026">
        <ele>229</ele>
        <time>2018-01-24T10:07:28Z</time>
      </trkpt>
      <trkpt lat="45.89212" lon="4.7003">
        <ele>229</ele>
        <time>2018-01-24T10:07:30Z</time>
      </trkpt>
      <trkpt lat="45.89207" lon="4.70032">
        <ele>229</ele>
        <time>2018-01-24T10:07:31Z</time>
      </trkpt>
      <trkpt lat="45.89203" lon="4.70033">
        <ele>229</ele>
        <time>2018-01-24T10:07:32Z</time>
      </trkpt>
      <trkpt lat="45.89198" lon="4.70035">
        <ele>229</ele>
        <time>2018-01-24T10:07:33Z</time>
      </trkpt>
      <trkpt lat="45.89193" lon="4.70037">
        <ele>229</ele>
        <time>2018-01-24T10:07:34Z</time>
      </trkpt>
      <trkpt lat="45.89189" lon="4.70039">
        <ele>229</ele>
        <time>2018-01-24T10:07:35Z</time>
      </trkpt>
      <trkpt lat="45.89184" lon="4.70042">
        <ele>229</ele>
        <time>2018-01-24T10:07:36Z</time>
      </trkpt>
      <trkpt lat="45.89179" lon="4.70045">
        <ele>229</ele>
        <time>2018-01-24T10:07:37Z</time>
      </trkpt>
      <trkpt lat="45.89174" lon="4.70047">
        <ele>229</ele>
        <time>2018-01-24T10:07:38Z</time>
      </trkpt>
      <trkpt lat="45.89169" lon="4.7005">
        <ele>229</ele>
        <time>2018-01-24T10:07:39Z</time>
      </trkpt>
      <trkpt lat="45.89165" lon="4.70052">
        <ele>231</ele>
        <time>2018-01-24T10:07:40Z</time>
      </trkpt>
      <trkpt lat="45.8916" lon="4.70054">
        <ele>231</ele>
        <time>2018-01-24T10:07:41Z</time>
      </trkpt>
      <trkpt lat="45.89152" lon="4.70059">
        <ele>231</ele>
        <time>2018-01-24T10:07:43Z</time>
      </trkpt>
      <trkpt lat="45.89146" lon="4.70061">
        <ele>231</ele>
        <time>2018-01-24T10:07:44Z</time>
      </trkpt>
      <trkpt lat="45.89142" lon="4.70064">
        <ele>231</ele>
        <time>2018-01-24T10:07:45Z</time>
      </trkpt>
      <trkpt lat="45.89136" lon="4.70067">
        <ele>231</ele>
        <time>2018-01-24T10:07:46Z</time>
      </trkpt>
      <trkpt lat="45.89132" lon="4.70069">
        <ele>231</ele>
        <time>2018-01-24T10:07:47Z</time>
      </trkpt>
      <trkpt lat="45.89128" lon="4.70071">
        <ele>231</ele>
        <time>2018-01-24T10:07:48Z</time>
      </trkpt>
      <trkpt lat="45.89119" lon="4.70075">
        <ele>231</ele>
        <time>2018-01-24T10:07:50Z</time>
      </trkpt>
      <trkpt lat="45.89115" lon="4.70077">
        <ele>231</ele>
        <time>2018-01-24T10:07:51Z</time>
      </trkpt>
      <trkpt lat="45.8911" lon="4.7008">
        <ele>231</ele>
        <time>2018-01-24T10:07:52Z</time>
      </trkpt>
      <trkpt lat="45.89106" lon="4.70083">
        <ele>231</ele>
        <time>2018-01-24T10:07:53Z</time>
      </trkpt>
      <trkpt lat="45.89102" lon="4.70086">
        <ele>228</ele>
        <time>2018-01-24T10:07:54Z</time>
      </trkpt>
      <trkpt lat="45.89098" lon="4.70089">
        <ele>229</ele>
        <time>2018-01-24T10:07:55Z</time>
      </trkpt>
      <trkpt lat="45.8909" lon="4.70094">
        <ele>229</ele>
        <time>2018-01-24T10:07:57Z</time>
      </trkpt>
      <trkpt lat="45.89085" lon="4.70096">
        <ele>229</ele>
        <time>2018-01-24T10:07:58Z</time>
      </trkpt>
      <trkpt lat="45.89078" lon="4.70102">
        <ele>230</ele>
        <time>2018-01-24T10:08:00Z</time>
      </trkpt>
      <trkpt lat="45.89073" lon="4.70105">
        <ele>230</ele>
        <time>2018-01-24T10:08:01Z</time>
      </trkpt>
      <trkpt lat="45.89065" lon="4.7011">
        <ele>231</ele>
        <time>2018-01-24T10:08:03Z</time>
      </trkpt>
      <trkpt lat="45.89061" lon="4.70113">
        <ele>231</ele>
        <time>2018-01-24T10:08:04Z</time>
      </trkpt>
      <trkpt lat="45.89057" lon="4.70115">
        <ele>231</ele>
        <time>2018-01-24T10:08:05Z</time>
      </trkpt>
      <trkpt lat="45.89052" lon="4.70117">
        <ele>231</ele>
        <time>2018-01-24T10:08:06Z</time>
      </trkpt>
      <trkpt lat="45.89047" lon="4.7012">
        <ele>231</ele>
        <time>2018-01-24T10:08:07Z</time>
      </trkpt>
      <trkpt lat="45.89043" lon="4.70124">
        <ele>231</ele>
        <time>2018-01-24T10:08:08Z</time>
      </trkpt>
      <trkpt lat="45.89039" lon="4.70125">
        <ele>231</ele>
        <time>2018-01-24T10:08:09Z</time>
      </trkpt>
      <trkpt lat="45.89034" lon="4.70129">
        <ele>231</ele>
        <time>2018-01-24T10:08:10Z</time>
      </trkpt>
      <trkpt lat="45.8903" lon="4.70132">
        <ele>231</ele>
        <time>2018-01-24T10:08:11Z</time>
      </trkpt>
      <trkpt lat="45.89025" lon="4.70136">
        <ele>231</ele>
        <time>2018-01-24T10:08:12Z</time>
      </trkpt>
      <trkpt lat="45.89017" lon="4.70139">
        <ele>232</ele>
        <time>2018-01-24T10:08:14Z</time>
      </trkpt>
      <trkpt lat="45.89013" lon="4.70143">
        <ele>232</ele>
        <time>2018-01-24T10:08:15Z</time>
      </trkpt>
      <trkpt lat="45.89008" lon="4.70146">
        <ele>232</ele>
        <time>2018-01-24T10:08:16Z</time>
      </trkpt>
      <trkpt lat="45.89004" lon="4.70149">
        <ele>232</ele>
        <time>2018-01-24T10:08:17Z</time>
      </trkpt>
      <trkpt lat="45.88999" lon="4.70151">
        <ele>235</ele>
        <time>2018-01-24T10:08:18Z</time>
      </trkpt>
      <trkpt lat="45.88995" lon="4.70153">
        <ele>235</ele>
        <time>2018-01-24T10:08:19Z</time>
      </trkpt>
      <trkpt lat="45.88991" lon="4.70156">
        <ele>235</ele>
        <time>2018-01-24T10:08:20Z</time>
      </trkpt>
      <trkpt lat="45.88987" lon="4.70158">
        <ele>235</ele>
        <time>2018-01-24T10:08:21Z</time>
      </trkpt>
      <trkpt lat="45.88982" lon="4.70161">
        <ele>235</ele>
        <time>2018-01-24T10:08:22Z</time>
      </trkpt>
      <trkpt lat="45.88978" lon="4.70164">
        <ele>236</ele>
        <time>2018-01-24T10:08:23Z</time>
      </trkpt>
      <trkpt lat="45.88973" lon="4.70167">
        <ele>233</ele>
        <time>2018-01-24T10:08:24Z</time>
      </trkpt>
      <trkpt lat="45.88968" lon="4.70169">
        <ele>234</ele>
        <time>2018-01-24T10:08:25Z</time>
      </trkpt>
      <trkpt lat="45.88964" lon="4.70171">
        <ele>234</ele>
        <time>2018-01-24T10:08:26Z</time>
      </trkpt>
      <trkpt lat="45.88959" lon="4.70172">
        <ele>234</ele>
        <time>2018-01-24T10:08:27Z</time>
      </trkpt>
      <trkpt lat="45.88955" lon="4.70175">
        <ele>235</ele>
        <time>2018-01-24T10:08:28Z</time>
      </trkpt>
      <trkpt lat="45.8895" lon="4.70177">
        <ele>235</ele>
        <time>2018-01-24T10:08:29Z</time>
      </trkpt>
      <trkpt lat="45.88945" lon="4.70179">
        <ele>235</ele>
        <time>2018-01-24T10:08:30Z</time>
      </trkpt>
      <trkpt lat="45.8894" lon="4.70181">
        <ele>236</ele>
        <time>2018-01-24T10:08:31Z</time>
      </trkpt>
      <trkpt lat="45.88935" lon="4.70184">
        <ele>236</ele>
        <time>2018-01-24T10:08:32Z</time>
      </trkpt>
      <trkpt lat="45.8893" lon="4.70186">
        <ele>236</ele>
        <time>2018-01-24T10:08:33Z</time>
      </trkpt>
      <trkpt lat="45.88925" lon="4.70188">
        <ele>236</ele>
        <time>2018-01-24T10:08:34Z</time>
      </trkpt>
      <trkpt lat="45.88921" lon="4.7019">
        <ele>236</ele>
        <time>2018-01-24T10:08:35Z</time>
      </trkpt>
      <trkpt lat="45.88913" lon="4.70194">
        <ele>240</ele>
        <time>2018-01-24T10:08:37Z</time>
      </trkpt>
      <trkpt lat="45.88908" lon="4.70197">
        <ele>239</ele>
        <time>2018-01-24T10:08:38Z</time>
      </trkpt>
      <trkpt lat="45.88903" lon="4.70198">
        <ele>239</ele>
        <time>2018-01-24T10:08:39Z</time>
      </trkpt>
      <trkpt lat="45.88898" lon="4.702">
        <ele>239</ele>
        <time>2018-01-24T10:08:40Z</time>
      </trkpt>
      <trkpt lat="45.88893" lon="4.70202">
        <ele>239</ele>
        <time>2018-01-24T10:08:41Z</time>
      </trkpt>
      <trkpt lat="45.88888" lon="4.70204">
        <ele>239</ele>
        <time>2018-01-24T10:08:42Z</time>
      </trkpt>
      <trkpt lat="45.88884" lon="4.70206">
        <ele>239</ele>
        <time>2018-01-24T10:08:43Z</time>
      </trkpt>
      <trkpt lat="45.8888" lon="4.70208">
        <ele>239</ele>
        <time>2018-01-24T10:08:44Z</time>
      </trkpt>
      <trkpt lat="45.88875" lon="4.7021">
        <ele>239</ele>
        <time>2018-01-24T10:08:45Z</time>
      </trkpt>
      <trkpt lat="45.8887" lon="4.70212">
        <ele>239</ele>
        <time>2018-01-24T10:08:46Z</time>
      </trkpt>
      <trkpt lat="45.88865" lon="4.70216">
        <ele>239</ele>
        <time>2018-01-24T10:08:47Z</time>
      </trkpt>
      <trkpt lat="45.88861" lon="4.70218">
        <ele>239</ele>
        <time>2018-01-24T10:08:48Z</time>
      </trkpt>
      <trkpt lat="45.88853" lon="4.70223">
        <ele>239</ele>
        <time>2018-01-24T10:08:50Z</time>
      </trkpt>
      <trkpt lat="45.88849" lon="4.70226">
        <ele>239</ele>
        <time>2018-01-24T10:08:51Z</time>
      </trkpt>
      <trkpt lat="45.88844" lon="4.70229">
        <ele>239</ele>
        <time>2018-01-24T10:08:52Z</time>
      </trkpt>
      <trkpt lat="45.88839" lon="4.70233">
        <ele>238</ele>
        <time>2018-01-24T10:08:53Z</time>
      </trkpt>
      <trkpt lat="45.88833" lon="4.70237">
        <ele>239</ele>
        <time>2018-01-24T10:08:54Z</time>
      </trkpt>
      <trkpt lat="45.88829" lon="4.70242">
        <ele>239</ele>
        <time>2018-01-24T10:08:55Z</time>
      </trkpt>
      <trkpt lat="45.88824" lon="4.70246">
        <ele>239</ele>
        <time>2018-01-24T10:08:56Z</time>
      </trkpt>
      <trkpt lat="45.88819" lon="4.7025">
        <ele>240</ele>
        <time>2018-01-24T10:08:57Z</time>
      </trkpt>
      <trkpt lat="45.88814" lon="4.70255">
        <ele>235</ele>
        <time>2018-01-24T10:08:58Z</time>
      </trkpt>
      <trkpt lat="45.88809" lon="4.70259">
        <ele>235</ele>
        <time>2018-01-24T10:08:59Z</time>
      </trkpt>
      <trkpt lat="45.88805" lon="4.70262">
        <ele>235</ele>
        <time>2018-01-24T10:09:00Z</time>
      </trkpt>
      <trkpt lat="45.888" lon="4.70266">
        <ele>235</ele>
        <time>2018-01-24T10:09:01Z</time>
      </trkpt>
      <trkpt lat="45.88794" lon="4.7027">
        <ele>235</ele>
        <time>2018-01-24T10:09:02Z</time>
      </trkpt>
      <trkpt lat="45.8879" lon="4.70275">
        <ele>235</ele>
        <time>2018-01-24T10:09:03Z</time>
      </trkpt>
      <trkpt lat="45.88786" lon="4.70279">
        <ele>234</ele>
        <time>2018-01-24T10:09:04Z</time>
      </trkpt>
      <trkpt lat="45.88782" lon="4.70282">
        <ele>234</ele>
        <time>2018-01-24T10:09:05Z</time>
      </trkpt>
      <trkpt lat="45.88777" lon="4.70286">
        <ele>234</ele>
        <time>2018-01-24T10:09:06Z</time>
      </trkpt>
      <trkpt lat="45.88773" lon="4.70289">
        <ele>234</ele>
        <time>2018-01-24T10:09:07Z</time>
      </trkpt>
      <trkpt lat="45.88768" lon="4.70293">
        <ele>234</ele>
        <time>2018-01-24T10:09:08Z</time>
      </trkpt>
      <trkpt lat="45.88763" lon="4.70298">
        <ele>233</ele>
        <time>2018-01-24T10:09:09Z</time>
      </trkpt>
      <trkpt lat="45.88758" lon="4.703">
        <ele>233</ele>
        <time>2018-01-24T10:09:10Z</time>
      </trkpt>
      <trkpt lat="45.88752" lon="4.70305">
        <ele>233</ele>
        <time>2018-01-24T10:09:11Z</time>
      </trkpt>
      <trkpt lat="45.88746" lon="4.7031">
        <ele>233</ele>
        <time>2018-01-24T10:09:12Z</time>
      </trkpt>
      <trkpt lat="45.88741" lon="4.70313">
        <ele>233</ele>
        <time>2018-01-24T10:09:13Z</time>
      </trkpt>
      <trkpt lat="45.88736" lon="4.70318">
        <ele>233</ele>
        <time>2018-01-24T10:09:14Z</time>
      </trkpt>
      <trkpt lat="45.88731" lon="4.70322">
        <ele>233</ele>
        <time>2018-01-24T10:09:15Z</time>
      </trkpt>
      <trkpt lat="45.88726" lon="4.70325">
        <ele>233</ele>
        <time>2018-01-24T10:09:16Z</time>
      </trkpt>
      <trkpt lat="45.88721" lon="4.7033">
        <ele>233</ele>
        <time>2018-01-24T10:09:17Z</time>
      </trkpt>
      <trkpt lat="45.88717" lon="4.70334">
        <ele>229</ele>
        <time>2018-01-24T10:09:18Z</time>
      </trkpt>
      <trkpt lat="45.88713" lon="4.70338">
        <ele>229</ele>
        <time>2018-01-24T10:09:19Z</time>
      </trkpt>
      <trkpt lat="45.88705" lon="4.70344">
        <ele>229</ele>
        <time>2018-01-24T10:09:21Z</time>
      </trkpt>
      <trkpt lat="45.88702" lon="4.70347">
        <ele>229</ele>
        <time>2018-01-24T10:09:22Z</time>
      </trkpt>
      <trkpt lat="45.88699" lon="4.7035">
        <ele>229</ele>
        <time>2018-01-24T10:09:23Z</time>
      </trkpt>
      <trkpt lat="45.88694" lon="4.70353">
        <ele>229</ele>
        <time>2018-01-24T10:09:24Z</time>
      </trkpt>
      <trkpt lat="45.8869" lon="4.70356">
        <ele>229</ele>
        <time>2018-01-24T10:09:25Z</time>
      </trkpt>
      <trkpt lat="45.88684" lon="4.70359">
        <ele>229</ele>
        <time>2018-01-24T10:09:26Z</time>
      </trkpt>
      <trkpt lat="45.8868" lon="4.70362">
        <ele>229</ele>
        <time>2018-01-24T10:09:27Z</time>
      </trkpt>
      <trkpt lat="45.88676" lon="4.70368">
        <ele>229</ele>
        <time>2018-01-24T10:09:28Z</time>
      </trkpt>
      <trkpt lat="45.88671" lon="4.70371">
        <ele>229</ele>
        <time>2018-01-24T10:09:29Z</time>
      </trkpt>
      <trkpt lat="45.88666" lon="4.70375">
        <ele>231</ele>
        <time>2018-01-24T10:09:30Z</time>
      </trkpt>
      <trkpt lat="45.88662" lon="4.70378">
        <ele>231</ele>
        <time>2018-01-24T10:09:31Z</time>
      </trkpt>
      <trkpt lat="45.88658" lon="4.70382">
        <ele>231</ele>
        <time>2018-01-24T10:09:32Z</time>
      </trkpt>
      <trkpt lat="45.88654" lon="4.70386">
        <ele>230</ele>
        <time>2018-01-24T10:09:33Z</time>
      </trkpt>
      <trkpt lat="45.88648" lon="4.70391">
        <ele>230</ele>
        <time>2018-01-24T10:09:34Z</time>
      </trkpt>
      <trkpt lat="45.88644" lon="4.70394">
        <ele>230</ele>
        <time>2018-01-24T10:09:35Z</time>
      </trkpt>
      <trkpt lat="45.88639" lon="4.70397">
        <ele>230</ele>
        <time>2018-01-24T10:09:36Z</time>
      </trkpt>
      <trkpt lat="45.88634" lon="4.70401">
        <ele>231</ele>
        <time>2018-01-24T10:09:37Z</time>
      </trkpt>
      <trkpt lat="45.8863" lon="4.70406">
        <ele>231</ele>
        <time>2018-01-24T10:09:38Z</time>
      </trkpt>
      <trkpt lat="45.88626" lon="4.7041">
        <ele>231</ele>
        <time>2018-01-24T10:09:39Z</time>
      </trkpt>
      <trkpt lat="45.88622" lon="4.70413">
        <ele>231</ele>
        <time>2018-01-24T10:09:40Z</time>
      </trkpt>
      <trkpt lat="45.88617" lon="4.70417">
        <ele>228</ele>
        <time>2018-01-24T10:09:41Z</time>
      </trkpt>
      <trkpt lat="45.88612" lon="4.70421">
        <ele>229</ele>
        <time>2018-01-24T10:09:42Z</time>
      </trkpt>
      <trkpt lat="45.88607" lon="4.70424">
        <ele>229</ele>
        <time>2018-01-24T10:09:43Z</time>
      </trkpt>
      <trkpt lat="45.88603" lon="4.70429">
        <ele>229</ele>
        <time>2018-01-24T10:09:44Z</time>
      </trkpt>
      <trkpt lat="45.88598" lon="4.70433">
        <ele>229</ele>
        <time>2018-01-24T10:09:45Z</time>
      </trkpt>
      <trkpt lat="45.88593" lon="4.70436">
        <ele>229</ele>
        <time>2018-01-24T10:09:46Z</time>
      </trkpt>
      <trkpt lat="45.88588" lon="4.7044">
        <ele>229</ele>
        <time>2018-01-24T10:09:47Z</time>
      </trkpt>
      <trkpt lat="45.88583" lon="4.70445">
        <ele>232</ele>
        <time>2018-01-24T10:09:48Z</time>
      </trkpt>
      <trkpt lat="45.88578" lon="4.70449">
        <ele>232</ele>
        <time>2018-01-24T10:09:49Z</time>
      </trkpt>
      <trkpt lat="45.88573" lon="4.70453">
        <ele>232</ele>
        <time>2018-01-24T10:09:50Z</time>
      </trkpt>
      <trkpt lat="45.88567" lon="4.70457">
        <ele>232</ele>
        <time>2018-01-24T10:09:51Z</time>
      </trkpt>
      <trkpt lat="45.88562" lon="4.7046">
        <ele>232</ele>
        <time>2018-01-24T10:09:52Z</time>
      </trkpt>
      <trkpt lat="45.88558" lon="4.70463">
        <ele>232</ele>
        <time>2018-01-24T10:09:53Z</time>
      </trkpt>
      <trkpt lat="45.88553" lon="4.70467">
        <ele>232</ele>
        <time>2018-01-24T10:09:54Z</time>
      </trkpt>
      <trkpt lat="45.88549" lon="4.7047">
        <ele>232</ele>
        <time>2018-01-24T10:09:55Z</time>
      </trkpt>
      <trkpt lat="45.88545" lon="4.70474">
        <ele>232</ele>
        <time>2018-01-24T10:09:56Z</time>
      </trkpt>
      <trkpt lat="45.8854" lon="4.70478">
        <ele>232</ele>
        <time>2018-01-24T10:09:57Z</time>
      </trkpt>
      <trkpt lat="45.88537" lon="4.70481">
        <ele>232</ele>
        <time>2018-01-24T10:09:58Z</time>
      </trkpt>
      <trkpt lat="45.88533" lon="4.70485">
        <ele>232</ele>
        <time>2018-01-24T10:09:59Z</time>
      </trkpt>
      <trkpt lat="45.88529" lon="4.70488">
        <ele>232</ele>
        <time>2018-01-24T10:10:00Z</time>
      </trkpt>
      <trkpt lat="45.88525" lon="4.70493">
        <ele>232</ele>
        <time>2018-01-24T10:10:01Z</time>
      </trkpt>
      <trkpt lat="45.88521" lon="4.70497">
        <ele>232</ele>
        <time>2018-01-24T10:10:02Z</time>
      </trkpt>
      <trkpt lat="45.88515" lon="4.70501">
        <ele>231</ele>
        <time>2018-01-24T10:10:03Z</time>
      </trkpt>
      <trkpt lat="45.8851" lon="4.70504">
        <ele>231</ele>
        <time>2018-01-24T10:10:04Z</time>
      </trkpt>
      <trkpt lat="45.88506" lon="4.70508">
        <ele>231</ele>
        <time>2018-01-24T10:10:05Z</time>
      </trkpt>
      <trkpt lat="45.88501" lon="4.70511">
        <ele>231</ele>
        <time>2018-01-24T10:10:06Z</time>
      </trkpt>
      <trkpt lat="45.88496" lon="4.70515">
        <ele>233</ele>
        <time>2018-01-24T10:10:07Z</time>
      </trkpt>
      <trkpt lat="45.88491" lon="4.70517">
        <ele>234</ele>
        <time>2018-01-24T10:10:08Z</time>
      </trkpt>
      <trkpt lat="45.88486" lon="4.7052">
        <ele>234</ele>
        <time>2018-01-24T10:10:09Z</time>
      </trkpt>
      <trkpt lat="45.88481" lon="4.70524">
        <ele>234</ele>
        <time>2018-01-24T10:10:10Z</time>
      </trkpt>
      <trkpt lat="45.88477" lon="4.70526">
        <ele>234</ele>
        <time>2018-01-24T10:10:11Z</time>
      </trkpt>
      <trkpt lat="45.88473" lon="4.7053">
        <ele>234</ele>
        <time>2018-01-24T10:10:12Z</time>
      </trkpt>
      <trkpt lat="45.88468" lon="4.70534">
        <ele>234</ele>
        <time>2018-01-24T10:10:13Z</time>
      </trkpt>
      <trkpt lat="45.88464" lon="4.70537">
        <ele>234</ele>
        <time>2018-01-24T10:10:14Z</time>
      </trkpt>
      <trkpt lat="45.8846" lon="4.7054">
        <ele>234</ele>
        <time>2018-01-24T10:10:15Z</time>
      </trkpt>
      <trkpt lat="45.88455" lon="4.70544">
        <ele>234</ele>
        <time>2018-01-24T10:10:16Z</time>
      </trkpt>
      <trkpt lat="45.8845" lon="4.70548">
        <ele>234</ele>
        <time>2018-01-24T10:10:17Z</time>
      </trkpt>
      <trkpt lat="45.88445" lon="4.70552">
        <ele>234</ele>
        <time>2018-01-24T10:10:18Z</time>
      </trkpt>
      <trkpt lat="45.88441" lon="4.70555">
        <ele>235</ele>
        <time>2018-01-24T10:10:19Z</time>
      </trkpt>
      <trkpt lat="45.88436" lon="4.70559">
        <ele>235</ele>
        <time>2018-01-24T10:10:20Z</time>
      </trkpt>
      <trkpt lat="45.88432" lon="4.70562">
        <ele>235</ele>
        <time>2018-01-24T10:10:21Z</time>
      </trkpt>
      <trkpt lat="45.88427" lon="4.70566">
        <ele>235</ele>
        <time>2018-01-24T10:10:22Z</time>
      </trkpt>
      <trkpt lat="45.88423" lon="4.70569">
        <ele>235</ele>
        <time>2018-01-24T10:10:23Z</time>
      </trkpt>
      <trkpt lat="45.88419" lon="4.70572">
        <ele>235</ele>
        <time>2018-01-24T10:10:24Z</time>
      </trkpt>
      <trkpt lat="45.88415" lon="4.70575">
        <ele>236</ele>
        <time>2018-01-24T10:10:25Z</time>
      </trkpt>
      <trkpt lat="45.88411" lon="4.70579">
        <ele>236</ele>
        <time>2018-01-24T10:10:26Z</time>
      </trkpt>
      <trkpt lat="45.88408" lon="4.70584">
        <ele>235</ele>
        <time>2018-01-24T10:10:27Z</time>
      </trkpt>
      <trkpt lat="45.88403" lon="4.70587">
        <ele>235</ele>
        <time>2018-01-24T10:10:28Z</time>
      </trkpt>
      <trkpt lat="45.88398" lon="4.70591">
        <ele>235</ele>
        <time>2018-01-24T10:10:29Z</time>
      </trkpt>
      <trkpt lat="45.88395" lon="4.70593">
        <ele>235</ele>
        <time>2018-01-24T10:10:30Z</time>
      </trkpt>
      <trkpt lat="45.8839" lon="4.70596">
        <ele>235</ele>
        <time>2018-01-24T10:10:31Z</time>
      </trkpt>
      <trkpt lat="45.88386" lon="4.706">
        <ele>235</ele>
        <time>2018-01-24T10:10:32Z</time>
      </trkpt>
      <trkpt lat="45.88382" lon="4.70603">
        <ele>235</ele>
        <time>2018-01-24T10:10:33Z</time>
      </trkpt>
      <trkpt lat="45.88377" lon="4.70607">
        <ele>235</ele>
        <time>2018-01-24T10:10:34Z</time>
      </trkpt>
      <trkpt lat="45.88374" lon="4.7061">
        <ele>235</ele>
        <time>2018-01-24T10:10:35Z</time>
      </trkpt>
      <trkpt lat="45.88369" lon="4.70613">
        <ele>235</ele>
        <time>2018-01-24T10:10:36Z</time>
      </trkpt>
      <trkpt lat="45.88361" lon="4.70619">
        <ele>235</ele>
        <time>2018-01-24T10:10:38Z</time>
      </trkpt>
      <trkpt lat="45.88357" lon="4.70622">
        <ele>235</ele>
        <time>2018-01-24T10:10:39Z</time>
      </trkpt>
      <trkpt lat="45.88354" lon="4.70628">
        <ele>235</ele>
        <time>2018-01-24T10:10:40Z</time>
      </trkpt>
      <trkpt lat="45.8835" lon="4.70632">
        <ele>235</ele>
        <time>2018-01-24T10:10:41Z</time>
      </trkpt>
      <trkpt lat="45.88343" lon="4.70637">
        <ele>235</ele>
        <time>2018-01-24T10:10:43Z</time>
      </trkpt>
      <trkpt lat="45.88338" lon="4.7064">
        <ele>235</ele>
        <time>2018-01-24T10:10:44Z</time>
      </trkpt>
      <trkpt lat="45.88334" lon="4.70642">
        <ele>235</ele>
        <time>2018-01-24T10:10:45Z</time>
      </trkpt>
      <trkpt lat="45.8833" lon="4.70645">
        <ele>238</ele>
        <time>2018-01-24T10:10:46Z</time>
      </trkpt>
      <trkpt lat="45.88325" lon="4.70648">
        <ele>238</ele>
        <time>2018-01-24T10:10:47Z</time>
      </trkpt>
      <trkpt lat="45.88321" lon="4.70653">
        <ele>238</ele>
        <time>2018-01-24T10:10:48Z</time>
      </trkpt>
      <trkpt lat="45.88316" lon="4.70655">
        <ele>238</ele>
        <time>2018-01-24T10:10:49Z</time>
      </trkpt>
      <trkpt lat="45.88312" lon="4.70659">
        <ele>238</ele>
        <time>2018-01-24T10:10:50Z</time>
      </trkpt>
      <trkpt lat="45.88307" lon="4.70664">
        <ele>238</ele>
        <time>2018-01-24T10:10:51Z</time>
      </trkpt>
      <trkpt lat="45.88303" lon="4.70668">
        <ele>235</ele>
        <time>2018-01-24T10:10:52Z</time>
      </trkpt>
      <trkpt lat="45.88298" lon="4.70672">
        <ele>235</ele>
        <time>2018-01-24T10:10:53Z</time>
      </trkpt>
      <trkpt lat="45.88293" lon="4.70676">
        <ele>235</ele>
        <time>2018-01-24T10:10:54Z</time>
      </trkpt>
      <trkpt lat="45.88288" lon="4.7068">
        <ele>235</ele>
        <time>2018-01-24T10:10:55Z</time>
      </trkpt>
      <trkpt lat="45.88284" lon="4.70683">
        <ele>235</ele>
        <time>2018-01-24T10:10:56Z</time>
      </trkpt>
      <trkpt lat="45.88279" lon="4.70687">
        <ele>235</ele>
        <time>2018-01-24T10:10:57Z</time>
      </trkpt>
      <trkpt lat="45.88274" lon="4.70691">
        <ele>235</ele>
        <time>2018-01-24T10:10:58Z</time>
      </trkpt>
      <trkpt lat="45.88269" lon="4.70694">
        <ele>235</ele>
        <time>2018-01-24T10:10:59Z</time>
      </trkpt>
      <trkpt lat="45.88264" lon="4.70697">
        <ele>235</ele>
        <time>2018-01-24T10:11:00Z</time>
      </trkpt>
      <trkpt lat="45.8826" lon="4.707">
        <ele>235</ele>
        <time>2018-01-24T10:11:01Z</time>
      </trkpt>
      <trkpt lat="45.88255" lon="4.70705">
        <ele>235</ele>
        <time>2018-01-24T10:11:02Z</time>
      </trkpt>
      <trkpt lat="45.8825" lon="4.70709">
        <ele>235</ele>
        <time>2018-01-24T10:11:03Z</time>
      </trkpt>
      <trkpt lat="45.88246" lon="4.70712">
        <ele>236</ele>
        <time>2018-01-24T10:11:04Z</time>
      </trkpt>
      <trkpt lat="45.88242" lon="4.70715">
        <ele>235</ele>
        <time>2018-01-24T10:11:05Z</time>
      </trkpt>
      <trkpt lat="45.88237" lon="4.70718">
        <ele>235</ele>
        <time>2018-01-24T10:11:06Z</time>
      </trkpt>
      <trkpt lat="45.8823" lon="4.70725">
        <ele>235</ele>
        <time>2018-01-24T10:11:08Z</time>
      </trkpt>
      <trkpt lat="45.88225" lon="4.70727">
        <ele>235</ele>
        <time>2018-01-24T10:11:09Z</time>
      </trkpt>
      <trkpt lat="45.88221" lon="4.70731">
        <ele>235</ele>
        <time>2018-01-24T10:11:10Z</time>
      </trkpt>
      <trkpt lat="45.88217" lon="4.70736">
        <ele>235</ele>
        <time>2018-01-24T10:11:11Z</time>
      </trkpt>
      <trkpt lat="45.88212" lon="4.70741">
        <ele>235</ele>
        <time>2018-01-24T10:11:12Z</time>
      </trkpt>
      <trkpt lat="45.88208" lon="4.70744">
        <ele>235</ele>
        <time>2018-01-24T10:11:13Z</time>
      </trkpt>
      <trkpt lat="45.88203" lon="4.70747">
        <ele>235</ele>
        <time>2018-01-24T10:11:14Z</time>
      </trkpt>
      <trkpt lat="45.88197" lon="4.70751">
        <ele>232</ele>
        <time>2018-01-24T10:11:15Z</time>
      </trkpt>
      <trkpt lat="45.88192" lon="4.70754">
        <ele>232</ele>
        <time>2018-01-24T10:11:16Z</time>
      </trkpt>
      <trkpt lat="45.88188" lon="4.70758">
        <ele>232</ele>
        <time>2018-01-24T10:11:17Z</time>
      </trkpt>
      <trkpt lat="45.88182" lon="4.7076">
        <ele>232</ele>
        <time>2018-01-24T10:11:18Z</time>
      </trkpt>
      <trkpt lat="45.88178" lon="4.70763">
        <ele>232</ele>
        <time>2018-01-24T10:11:19Z</time>
      </trkpt>
      <trkpt lat="45.88173" lon="4.70766">
        <ele>232</ele>
        <time>2018-01-24T10:11:20Z</time>
      </trkpt>
      <trkpt lat="45.88168" lon="4.70768">
        <ele>232</ele>
        <time>2018-01-24T10:11:21Z</time>
      </trkpt>
      <trkpt lat="45.88163" lon="4.70771">
        <ele>232</ele>
        <time>2018-01-24T10:11:22Z</time>
      </trkpt>
      <trkpt lat="45.88159" lon="4.70773">
        <ele>231</ele>
        <time>2018-01-24T10:11:23Z</time>
      </trkpt>
      <trkpt lat="45.88154" lon="4.70776">
        <ele>231</ele>
        <time>2018-01-24T10:11:24Z</time>
      </trkpt>
      <trkpt lat="45.88149" lon="4.70779">
        <ele>231</ele>
        <time>2018-01-24T10:11:25Z</time>
      </trkpt>
      <trkpt lat="45.88145" lon="4.70781">
        <ele>231</ele>
        <time>2018-01-24T10:11:26Z</time>
      </trkpt>
      <trkpt lat="45.88141" lon="4.70785">
        <ele>231</ele>
        <time>2018-01-24T10:11:27Z</time>
      </trkpt>
      <trkpt lat="45.88136" lon="4.7079">
        <ele>231</ele>
        <time>2018-01-24T10:11:28Z</time>
      </trkpt>
      <trkpt lat="45.88131" lon="4.70795">
        <ele>231</ele>
        <time>2018-01-24T10:11:29Z</time>
      </trkpt>
      <trkpt lat="45.88127" lon="4.708">
        <ele>230</ele>
        <time>2018-01-24T10:11:30Z</time>
      </trkpt>
      <trkpt lat="45.88122" lon="4.70805">
        <ele>230</ele>
        <time>2018-01-24T10:11:31Z</time>
      </trkpt>
      <trkpt lat="45.88118" lon="4.7081">
        <ele>230</ele>
        <time>2018-01-24T10:11:32Z</time>
      </trkpt>
      <trkpt lat="45.88113" lon="4.70813">
        <ele>230</ele>
        <time>2018-01-24T10:11:33Z</time>
      </trkpt>
      <trkpt lat="45.88105" lon="4.70816">
        <ele>230</ele>
        <time>2018-01-24T10:11:35Z</time>
      </trkpt>
      <trkpt lat="45.881" lon="4.70817">
        <ele>230</ele>
        <time>2018-01-24T10:11:36Z</time>
      </trkpt>
      <trkpt lat="45.88095" lon="4.70818">
        <ele>230</ele>
        <time>2018-01-24T10:11:37Z</time>
      </trkpt>
      <trkpt lat="45.8809" lon="4.7082">
        <ele>230</ele>
        <time>2018-01-24T10:11:38Z</time>
      </trkpt>
      <trkpt lat="45.88085" lon="4.70825">
        <ele>229</ele>
        <time>2018-01-24T10:11:39Z</time>
      </trkpt>
      <trkpt lat="45.88079" lon="4.7083">
        <ele>229</ele>
        <time>2018-01-24T10:11:40Z</time>
      </trkpt>
      <trkpt lat="45.88074" lon="4.70833">
        <ele>228</ele>
        <time>2018-01-24T10:11:41Z</time>
      </trkpt>
      <trkpt lat="45.88068" lon="4.70837">
        <ele>228</ele>
        <time>2018-01-24T10:11:42Z</time>
      </trkpt>
      <trkpt lat="45.88061" lon="4.70841">
        <ele>227</ele>
        <time>2018-01-24T10:11:43Z</time>
      </trkpt>
      <trkpt lat="45.88056" lon="4.70845">
        <ele>227</ele>
        <time>2018-01-24T10:11:44Z</time>
      </trkpt>
      <trkpt lat="45.8805" lon="4.70849">
        <ele>227</ele>
        <time>2018-01-24T10:11:45Z</time>
      </trkpt>
      <trkpt lat="45.88045" lon="4.70852">
        <ele>227</ele>
        <time>2018-01-24T10:11:46Z</time>
      </trkpt>
      <trkpt lat="45.88039" lon="4.70855">
        <ele>227</ele>
        <time>2018-01-24T10:11:47Z</time>
      </trkpt>
      <trkpt lat="45.88033" lon="4.70859">
        <ele>226</ele>
        <time>2018-01-24T10:11:48Z</time>
      </trkpt>
      <trkpt lat="45.88028" lon="4.70863">
        <ele>226</ele>
        <time>2018-01-24T10:11:49Z</time>
      </trkpt>
      <trkpt lat="45.88023" lon="4.70867">
        <ele>226</ele>
        <time>2018-01-24T10:11:50Z</time>
      </trkpt>
      <trkpt lat="45.88016" lon="4.70871">
        <ele>226</ele>
        <time>2018-01-24T10:11:51Z</time>
      </trkpt>
      <trkpt lat="45.88011" lon="4.70874">
        <ele>226</ele>
        <time>2018-01-24T10:11:52Z</time>
      </trkpt>
      <trkpt lat="45.88005" lon="4.70877">
        <ele>226</ele>
        <time>2018-01-24T10:11:53Z</time>
      </trkpt>
      <trkpt lat="45.87999" lon="4.70881">
        <ele>225</ele>
        <time>2018-01-24T10:11:54Z</time>
      </trkpt>
      <trkpt lat="45.87994" lon="4.70884">
        <ele>225</ele>
        <time>2018-01-24T10:11:55Z</time>
      </trkpt>
      <trkpt lat="45.87988" lon="4.70887">
        <ele>225</ele>
        <time>2018-01-24T10:11:56Z</time>
      </trkpt>
      <trkpt lat="45.87983" lon="4.70891">
        <ele>225</ele>
        <time>2018-01-24T10:11:57Z</time>
      </trkpt>
      <trkpt lat="45.87978" lon="4.70895">
        <ele>225</ele>
        <time>2018-01-24T10:11:58Z</time>
      </trkpt>
      <trkpt lat="45.87973" lon="4.70898">
        <ele>225</ele>
        <time>2018-01-24T10:11:59Z</time>
      </trkpt>
      <trkpt lat="45.87968" lon="4.70902">
        <ele>225</ele>
        <time>2018-01-24T10:12:00Z</time>
      </trkpt>
      <trkpt lat="45.87963" lon="4.70905">
        <ele>225</ele>
        <time>2018-01-24T10:12:01Z</time>
      </trkpt>
      <trkpt lat="45.87957" lon="4.70909">
        <ele>224</ele>
        <time>2018-01-24T10:12:02Z</time>
      </trkpt>
      <trkpt lat="45.87952" lon="4.70912">
        <ele>224</ele>
        <time>2018-01-24T10:12:03Z</time>
      </trkpt>
      <trkpt lat="45.87947" lon="4.70916">
        <ele>224</ele>
        <time>2018-01-24T10:12:04Z</time>
      </trkpt>
      <trkpt lat="45.8794" lon="4.70919">
        <ele>225</ele>
        <time>2018-01-24T10:12:05Z</time>
      </trkpt>
      <trkpt lat="45.87934" lon="4.70922">
        <ele>225</ele>
        <time>2018-01-24T10:12:06Z</time>
      </trkpt>
      <trkpt lat="45.87929" lon="4.70926">
        <ele>225</ele>
        <time>2018-01-24T10:12:07Z</time>
      </trkpt>
      <trkpt lat="45.87925" lon="4.7093">
        <ele>225</ele>
        <time>2018-01-24T10:12:08Z</time>
      </trkpt>
      <trkpt lat="45.8792" lon="4.70934">
        <ele>225</ele>
        <time>2018-01-24T10:12:09Z</time>
      </trkpt>
      <trkpt lat="45.87914" lon="4.70939">
        <ele>224</ele>
        <time>2018-01-24T10:12:10Z</time>
      </trkpt>
      <trkpt lat="45.87908" lon="4.70944">
        <ele>224</ele>
        <time>2018-01-24T10:12:11Z</time>
      </trkpt>
      <trkpt lat="45.87904" lon="4.70947">
        <ele>225</ele>
        <time>2018-01-24T10:12:12Z</time>
      </trkpt>
      <trkpt lat="45.87898" lon="4.70951">
        <ele>225</ele>
        <time>2018-01-24T10:12:13Z</time>
      </trkpt>
      <trkpt lat="45.87892" lon="4.70956">
        <ele>225</ele>
        <time>2018-01-24T10:12:14Z</time>
      </trkpt>
      <trkpt lat="45.87886" lon="4.70959">
        <ele>225</ele>
        <time>2018-01-24T10:12:15Z</time>
      </trkpt>
      <trkpt lat="45.8788" lon="4.70963">
        <ele>225</ele>
        <time>2018-01-24T10:12:16Z</time>
      </trkpt>
      <trkpt lat="45.87873" lon="4.70967">
        <ele>225</ele>
        <time>2018-01-24T10:12:17Z</time>
      </trkpt>
      <trkpt lat="45.87867" lon="4.70971">
        <ele>225</ele>
        <time>2018-01-24T10:12:18Z</time>
      </trkpt>
      <trkpt lat="45.8786" lon="4.70975">
        <ele>224</ele>
        <time>2018-01-24T10:12:19Z</time>
      </trkpt>
      <trkpt lat="45.87855" lon="4.70978">
        <ele>224</ele>
        <time>2018-01-24T10:12:20Z</time>
      </trkpt>
      <trkpt lat="45.87849" lon="4.70982">
        <ele>224</ele>
        <time>2018-01-24T10:12:21Z</time>
      </trkpt>
      <trkpt lat="45.87842" lon="4.70985">
        <ele>224</ele>
        <time>2018-01-24T10:12:22Z</time>
      </trkpt>
      <trkpt lat="45.87834" lon="4.70989">
        <ele>224</ele>
        <time>2018-01-24T10:12:23Z</time>
      </trkpt>
      <trkpt lat="45.87828" lon="4.70991">
        <ele>223</ele>
        <time>2018-01-24T10:12:24Z</time>
      </trkpt>
      <trkpt lat="45.87822" lon="4.70994">
        <ele>223</ele>
        <time>2018-01-24T10:12:25Z</time>
      </trkpt>
      <trkpt lat="45.87816" lon="4.70996">
        <ele>223</ele>
        <time>2018-01-24T10:12:26Z</time>
      </trkpt>
      <trkpt lat="45.87811" lon="4.70997">
        <ele>223</ele>
        <time>2018-01-24T10:12:27Z</time>
      </trkpt>
      <trkpt lat="45.87805" lon="4.70999">
        <ele>222</ele>
        <time>2018-01-24T10:12:28Z</time>
      </trkpt>
      <trkpt lat="45.87799" lon="4.71001">
        <ele>223</ele>
        <time>2018-01-24T10:12:29Z</time>
      </trkpt>
      <trkpt lat="45.87793" lon="4.71006">
        <ele>223</ele>
        <time>2018-01-24T10:12:30Z</time>
      </trkpt>
      <trkpt lat="45.87788" lon="4.71008">
        <ele>223</ele>
        <time>2018-01-24T10:12:31Z</time>
      </trkpt>
      <trkpt lat="45.87783" lon="4.71009">
        <ele>222</ele>
        <time>2018-01-24T10:12:32Z</time>
      </trkpt>
      <trkpt lat="45.87777" lon="4.71011">
        <ele>222</ele>
        <time>2018-01-24T10:12:33Z</time>
      </trkpt>
      <trkpt lat="45.87772" lon="4.71014">
        <ele>222</ele>
        <time>2018-01-24T10:12:34Z</time>
      </trkpt>
      <trkpt lat="45.87766" lon="4.71016">
        <ele>222</ele>
        <time>2018-01-24T10:12:35Z</time>
      </trkpt>
      <trkpt lat="45.8776" lon="4.71018">
        <ele>222</ele>
        <time>2018-01-24T10:12:36Z</time>
      </trkpt>
      <trkpt lat="45.87754" lon="4.7102">
        <ele>222</ele>
        <time>2018-01-24T10:12:37Z</time>
      </trkpt>
      <trkpt lat="45.87748" lon="4.71023">
        <ele>220</ele>
        <time>2018-01-24T10:12:38Z</time>
      </trkpt>
      <trkpt lat="45.87742" lon="4.71025">
        <ele>220</ele>
        <time>2018-01-24T10:12:39Z</time>
      </trkpt>
      <trkpt lat="45.87736" lon="4.71028">
        <ele>220</ele>
        <time>2018-01-24T10:12:40Z</time>
      </trkpt>
      <trkpt lat="45.87729" lon="4.7103">
        <ele>220</ele>
        <time>2018-01-24T10:12:41Z</time>
      </trkpt>
      <trkpt lat="45.87724" lon="4.71031">
        <ele>220</ele>
        <time>2018-01-24T10:12:42Z</time>
      </trkpt>
      <trkpt lat="45.87718" lon="4.71034">
        <ele>220</ele>
        <time>2018-01-24T10:12:43Z</time>
      </trkpt>
      <trkpt lat="45.87713" lon="4.71036">
        <ele>220</ele>
        <time>2018-01-24T10:12:44Z</time>
      </trkpt>
      <trkpt lat="45.87706" lon="4.71039">
        <ele>220</ele>
        <time>2018-01-24T10:12:46Z</time>
      </trkpt>
      <trkpt lat="45.87703" lon="4.7104">
        <ele>220</ele>
        <time>2018-01-24T10:12:47Z</time>
      </trkpt>
      <trkpt lat="45.87697" lon="4.71042">
        <ele>220</ele>
        <time>2018-01-24T10:12:49Z</time>
      </trkpt>
      <trkpt lat="45.87694" lon="4.71043">
        <ele>220</ele>
        <time>2018-01-24T10:12:50Z</time>
      </trkpt>
      <trkpt lat="45.87688" lon="4.71044">
        <ele>220</ele>
        <time>2018-01-24T10:12:52Z</time>
      </trkpt>
      <trkpt lat="45.87685" lon="4.71045">
        <ele>220</ele>
        <time>2018-01-24T10:12:53Z</time>
      </trkpt>
      <trkpt lat="45.87677" lon="4.71047">
        <ele>220</ele>
        <time>2018-01-24T10:12:55Z</time>
      </trkpt>
      <trkpt lat="45.87674" lon="4.7105">
        <ele>220</ele>
        <time>2018-01-24T10:12:56Z</time>
      </trkpt>
      <trkpt lat="45.87667" lon="4.71055">
        <ele>220</ele>
        <time>2018-01-24T10:12:58Z</time>
      </trkpt>
      <trkpt lat="45.87663" lon="4.71056">
        <ele>218</ele>
        <time>2018-01-24T10:12:59Z</time>
      </trkpt>
      <trkpt lat="45.87655" lon="4.71058">
        <ele>218</ele>
        <time>2018-01-24T10:13:01Z</time>
      </trkpt>
      <trkpt lat="45.8765" lon="4.7106">
        <ele>218</ele>
        <time>2018-01-24T10:13:02Z</time>
      </trkpt>
      <trkpt lat="45.87644" lon="4.71061">
        <ele>218</ele>
        <time>2018-01-24T10:13:03Z</time>
      </trkpt>
      <trkpt lat="45.8764" lon="4.71062">
        <ele>218</ele>
        <time>2018-01-24T10:13:04Z</time>
      </trkpt>
      <trkpt lat="45.87635" lon="4.71065">
        <ele>218</ele>
        <time>2018-01-24T10:13:05Z</time>
      </trkpt>
      <trkpt lat="45.8763" lon="4.71066">
        <ele>218</ele>
        <time>2018-01-24T10:13:06Z</time>
      </trkpt>
      <trkpt lat="45.87626" lon="4.71067">
        <ele>217</ele>
        <time>2018-01-24T10:13:07Z</time>
      </trkpt>
      <trkpt lat="45.87621" lon="4.71069">
        <ele>217</ele>
        <time>2018-01-24T10:13:08Z</time>
      </trkpt>
      <trkpt lat="45.87615" lon="4.7107">
        <ele>217</ele>
        <time>2018-01-24T10:13:09Z</time>
      </trkpt>
      <trkpt lat="45.87611" lon="4.71073">
        <ele>217</ele>
        <time>2018-01-24T10:13:10Z</time>
      </trkpt>
      <trkpt lat="45.87607" lon="4.71075">
        <ele>217</ele>
        <time>2018-01-24T10:13:11Z</time>
      </trkpt>
      <trkpt lat="45.87602" lon="4.71076">
        <ele>217</ele>
        <time>2018-01-24T10:13:12Z</time>
      </trkpt>
      <trkpt lat="45.87595" lon="4.71078">
        <ele>217</ele>
        <time>2018-01-24T10:13:23Z</time>
      </trkpt>
      <trkpt lat="45.87592" lon="4.71079">
        <ele>217</ele>
        <time>2018-01-24T10:13:24Z</time>
      </trkpt>
      <trkpt lat="45.87583" lon="4.71081">
        <ele>217</ele>
        <time>2018-01-24T10:13:27Z</time>
      </trkpt>
      <trkpt lat="45.87579" lon="4.71082">
        <ele>217</ele>
        <time>2018-01-24T10:13:28Z</time>
      </trkpt>
      <trkpt lat="45.87575" lon="4.71086">
        <ele>217</ele>
        <time>2018-01-24T10:13:29Z</time>
      </trkpt>
      <trkpt lat="45.8757" lon="4.71088">
        <ele>218</ele>
        <time>2018-01-24T10:13:30Z</time>
      </trkpt>
      <trkpt lat="45.87566" lon="4.71089">
        <ele>218</ele>
        <time>2018-01-24T10:13:31Z</time>
      </trkpt>
      <trkpt lat="45.8756" lon="4.71091">
        <ele>218</ele>
        <time>2018-01-24T10:13:32Z</time>
      </trkpt>
      <trkpt lat="45.87555" lon="4.71093">
        <ele>218</ele>
        <time>2018-01-24T10:13:33Z</time>
      </trkpt>
      <trkpt lat="45.87549" lon="4.71095">
        <ele>218</ele>
        <time>2018-01-24T10:13:34Z</time>
      </trkpt>
      <trkpt lat="45.87543" lon="4.71097">
        <ele>218</ele>
        <time>2018-01-24T10:13:35Z</time>
      </trkpt>
      <trkpt lat="45.87537" lon="4.71099">
        <ele>218</ele>
        <time>2018-01-24T10:13:36Z</time>
      </trkpt>
      <trkpt lat="45.87531" lon="4.71102">
        <ele>218</ele>
        <time>2018-01-24T10:13:37Z</time>
      </trkpt>
      <trkpt lat="45.87523" lon="4.71105">
        <ele>218</ele>
        <time>2018-01-24T10:13:38Z</time>
      </trkpt>
      <trkpt lat="45.87516" lon="4.71108">
        <ele>218</ele>
        <time>2018-01-24T10:13:39Z</time>
      </trkpt>
      <trkpt lat="45.8751" lon="4.71112">
        <ele>218</ele>
        <time>2018-01-24T10:13:40Z</time>
      </trkpt>
      <trkpt lat="45.87503" lon="4.71114">
        <ele>218</ele>
        <time>2018-01-24T10:13:41Z</time>
      </trkpt>
      <trkpt lat="45.87497" lon="4.71116">
        <ele>217</ele>
        <time>2018-01-24T10:13:42Z</time>
      </trkpt>
      <trkpt lat="45.87492" lon="4.71119">
        <ele>217</ele>
        <time>2018-01-24T10:13:43Z</time>
      </trkpt>
      <trkpt lat="45.87486" lon="4.71122">
        <ele>217</ele>
        <time>2018-01-24T10:13:44Z</time>
      </trkpt>
      <trkpt lat="45.8748" lon="4.71124">
        <ele>217</ele>
        <time>2018-01-24T10:13:45Z</time>
      </trkpt>
      <trkpt lat="45.87474" lon="4.71127">
        <ele>217</ele>
        <time>2018-01-24T10:13:46Z</time>
      </trkpt>
      <trkpt lat="45.87467" lon="4.71129">
        <ele>217</ele>
        <time>2018-01-24T10:13:47Z</time>
      </trkpt>
      <trkpt lat="45.87461" lon="4.7113">
        <ele>217</ele>
        <time>2018-01-24T10:13:48Z</time>
      </trkpt>
      <trkpt lat="45.87455" lon="4.71132">
        <ele>217</ele>
        <time>2018-01-24T10:13:49Z</time>
      </trkpt>
      <trkpt lat="45.87449" lon="4.71133">
        <ele>217</ele>
        <time>2018-01-24T10:13:50Z</time>
      </trkpt>
      <trkpt lat="45.87443" lon="4.71136">
        <ele>217</ele>
        <time>2018-01-24T10:13:51Z</time>
      </trkpt>
      <trkpt lat="45.87437" lon="4.71139">
        <ele>217</ele>
        <time>2018-01-24T10:13:52Z</time>
      </trkpt>
      <trkpt lat="45.8743" lon="4.71142">
        <ele>217</ele>
        <time>2018-01-24T10:13:53Z</time>
      </trkpt>
      <trkpt lat="45.87423" lon="4.71145">
        <ele>216</ele>
        <time>2018-01-24T10:13:54Z</time>
      </trkpt>
      <trkpt lat="45.87418" lon="4.71146">
        <ele>216</ele>
        <time>2018-01-24T10:13:55Z</time>
      </trkpt>
      <trkpt lat="45.87412" lon="4.71148">
        <ele>214</ele>
        <time>2018-01-24T10:13:56Z</time>
      </trkpt>
      <trkpt lat="45.87405" lon="4.71151">
        <ele>213</ele>
        <time>2018-01-24T10:13:57Z</time>
      </trkpt>
      <trkpt lat="45.87399" lon="4.71153">
        <ele>213</ele>
        <time>2018-01-24T10:13:58Z</time>
      </trkpt>
      <trkpt lat="45.87392" lon="4.71155">
        <ele>212</ele>
        <time>2018-01-24T10:13:59Z</time>
      </trkpt>
      <trkpt lat="45.87385" lon="4.71157">
        <ele>212</ele>
        <time>2018-01-24T10:14:00Z</time>
      </trkpt>
      <trkpt lat="45.87379" lon="4.7116">
        <ele>211</ele>
        <time>2018-01-24T10:14:01Z</time>
      </trkpt>
      <trkpt lat="45.87372" lon="4.71163">
        <ele>211</ele>
        <time>2018-01-24T10:14:02Z</time>
      </trkpt>
      <trkpt lat="45.87365" lon="4.71165">
        <ele>210</ele>
        <time>2018-01-24T10:14:03Z</time>
      </trkpt>
      <trkpt lat="45.87358" lon="4.71166">
        <ele>209</ele>
        <time>2018-01-24T10:14:04Z</time>
      </trkpt>
      <trkpt lat="45.87351" lon="4.7117">
        <ele>209</ele>
        <time>2018-01-24T10:14:05Z</time>
      </trkpt>
      <trkpt lat="45.87345" lon="4.71172">
        <ele>208</ele>
        <time>2018-01-24T10:14:06Z</time>
      </trkpt>
      <trkpt lat="45.87338" lon="4.71176">
        <ele>208</ele>
        <time>2018-01-24T10:14:07Z</time>
      </trkpt>
      <trkpt lat="45.87331" lon="4.71179">
        <ele>204</ele>
        <time>2018-01-24T10:14:08Z</time>
      </trkpt>
      <trkpt lat="45.87323" lon="4.71183">
        <ele>204</ele>
        <time>2018-01-24T10:14:09Z</time>
      </trkpt>
      <trkpt lat="45.87315" lon="4.71185">
        <ele>203</ele>
        <time>2018-01-24T10:14:10Z</time>
      </trkpt>
      <trkpt lat="45.87308" lon="4.71187">
        <ele>203</ele>
        <time>2018-01-24T10:14:11Z</time>
      </trkpt>
      <trkpt lat="45.87301" lon="4.7119">
        <ele>202</ele>
        <time>2018-01-24T10:14:12Z</time>
      </trkpt>
      <trkpt lat="45.87293" lon="4.71193">
        <ele>202</ele>
        <time>2018-01-24T10:14:13Z</time>
      </trkpt>
      <trkpt lat="45.87285" lon="4.71196">
        <ele>202</ele>
        <time>2018-01-24T10:14:14Z</time>
      </trkpt>
      <trkpt lat="45.87278" lon="4.71199">
        <ele>201</ele>
        <time>2018-01-24T10:14:15Z</time>
      </trkpt>
      <trkpt lat="45.87271" lon="4.71201">
        <ele>201</ele>
        <time>2018-01-24T10:14:16Z</time>
      </trkpt>
      <trkpt lat="45.87263" lon="4.71206">
        <ele>201</ele>
        <time>2018-01-24T10:14:17Z</time>
      </trkpt>
      <trkpt lat="45.87256" lon="4.71208">
        <ele>200</ele>
        <time>2018-01-24T10:14:18Z</time>
      </trkpt>
      <trkpt lat="45.87249" lon="4.7121">
        <ele>197</ele>
        <time>2018-01-24T10:14:19Z</time>
      </trkpt>
      <trkpt lat="45.87241" lon="4.71214">
        <ele>197</ele>
        <time>2018-01-24T10:14:20Z</time>
      </trkpt>
      <trkpt lat="45.87233" lon="4.71216">
        <ele>196</ele>
        <time>2018-01-24T10:14:21Z</time>
      </trkpt>
      <trkpt lat="45.87225" lon="4.71218">
        <ele>196</ele>
        <time>2018-01-24T10:14:22Z</time>
      </trkpt>
      <trkpt lat="45.87218" lon="4.71221">
        <ele>196</ele>
        <time>2018-01-24T10:14:23Z</time>
      </trkpt>
      <trkpt lat="45.8721" lon="4.71223">
        <ele>196</ele>
        <time>2018-01-24T10:14:24Z</time>
      </trkpt>
      <trkpt lat="45.87201" lon="4.71226">
        <ele>196</ele>
        <time>2018-01-24T10:14:25Z</time>
      </trkpt>
      <trkpt lat="45.87194" lon="4.7123">
        <ele>196</ele>
        <time>2018-01-24T10:14:26Z</time>
      </trkpt>
      <trkpt lat="45.87186" lon="4.71232">
        <ele>195</ele>
        <time>2018-01-24T10:14:27Z</time>
      </trkpt>
      <trkpt lat="45.87179" lon="4.71235">
        <ele>195</ele>
        <time>2018-01-24T10:14:28Z</time>
      </trkpt>
      <trkpt lat="45.87169" lon="4.71238">
        <ele>195</ele>
        <time>2018-01-24T10:14:29Z</time>
      </trkpt>
      <trkpt lat="45.87162" lon="4.71242">
        <ele>194</ele>
        <time>2018-01-24T10:14:30Z</time>
      </trkpt>
      <trkpt lat="45.87153" lon="4.71244">
        <ele>194</ele>
        <time>2018-01-24T10:14:31Z</time>
      </trkpt>
      <trkpt lat="45.87145" lon="4.71247">
        <ele>194</ele>
        <time>2018-01-24T10:14:32Z</time>
      </trkpt>
      <trkpt lat="45.87136" lon="4.7125">
        <ele>194</ele>
        <time>2018-01-24T10:14:33Z</time>
      </trkpt>
      <trkpt lat="45.87128" lon="4.71252">
        <ele>193</ele>
        <time>2018-01-24T10:14:34Z</time>
      </trkpt>
      <trkpt lat="45.87119" lon="4.71255">
        <ele>193</ele>
        <time>2018-01-24T10:14:35Z</time>
      </trkpt>
      <trkpt lat="45.8711" lon="4.71259">
        <ele>193</ele>
        <time>2018-01-24T10:14:36Z</time>
      </trkpt>
      <trkpt lat="45.87102" lon="4.71262">
        <ele>193</ele>
        <time>2018-01-24T10:14:37Z</time>
      </trkpt>
      <trkpt lat="45.87094" lon="4.71266">
        <ele>193</ele>
        <time>2018-01-24T10:14:38Z</time>
      </trkpt>
      <trkpt lat="45.87085" lon="4.71269">
        <ele>193</ele>
        <time>2018-01-24T10:14:39Z</time>
      </trkpt>
      <trkpt lat="45.87078" lon="4.71274">
        <ele>193</ele>
        <time>2018-01-24T10:14:40Z</time>
      </trkpt>
      <trkpt lat="45.8707" lon="4.71277">
        <ele>193</ele>
        <time>2018-01-24T10:14:41Z</time>
      </trkpt>
      <trkpt lat="45.87062" lon="4.7128">
        <ele>193</ele>
        <time>2018-01-24T10:14:42Z</time>
      </trkpt>
      <trkpt lat="45.87053" lon="4.71282">
        <ele>193</ele>
        <time>2018-01-24T10:14:43Z</time>
      </trkpt>
      <trkpt lat="45.87046" lon="4.71285">
        <ele>193</ele>
        <time>2018-01-24T10:14:44Z</time>
      </trkpt>
      <trkpt lat="45.87038" lon="4.71288">
        <ele>193</ele>
        <time>2018-01-24T10:14:45Z</time>
      </trkpt>
      <trkpt lat="45.87031" lon="4.7129">
        <ele>193</ele>
        <time>2018-01-24T10:14:46Z</time>
      </trkpt>
      <trkpt lat="45.87024" lon="4.71292">
        <ele>193</ele>
        <time>2018-01-24T10:14:47Z</time>
      </trkpt>
      <trkpt lat="45.87017" lon="4.71295">
        <ele>193</ele>
        <time>2018-01-24T10:14:48Z</time>
      </trkpt>
      <trkpt lat="45.87009" lon="4.71297">
        <ele>193</ele>
        <time>2018-01-24T10:14:49Z</time>
      </trkpt>
      <trkpt lat="45.87002" lon="4.713">
        <ele>193</ele>
        <time>2018-01-24T10:14:50Z</time>
      </trkpt>
      <trkpt lat="45.86996" lon="4.71303">
        <ele>193</ele>
        <time>2018-01-24T10:14:51Z</time>
      </trkpt>
      <trkpt lat="45.8699" lon="4.71304">
        <ele>193</ele>
        <time>2018-01-24T10:14:52Z</time>
      </trkpt>
      <trkpt lat="45.86984" lon="4.71306">
        <ele>193</ele>
        <time>2018-01-24T10:14:53Z</time>
      </trkpt>
      <trkpt lat="45.86977" lon="4.71308">
        <ele>193</ele>
        <time>2018-01-24T10:14:54Z</time>
      </trkpt>
      <trkpt lat="45.86972" lon="4.71311">
        <ele>193</ele>
        <time>2018-01-24T10:14:55Z</time>
      </trkpt>
      <trkpt lat="45.86966" lon="4.71313">
        <ele>193</ele>
        <time>2018-01-24T10:14:56Z</time>
      </trkpt>
      <trkpt lat="45.8696" lon="4.71316">
        <ele>193</ele>
        <time>2018-01-24T10:14:57Z</time>
      </trkpt>
      <trkpt lat="45.86955" lon="4.71317">
        <ele>193</ele>
        <time>2018-01-24T10:14:58Z</time>
      </trkpt>
      <trkpt lat="45.86949" lon="4.7132">
        <ele>193</ele>
        <time>2018-01-24T10:14:59Z</time>
      </trkpt>
      <trkpt lat="45.86943" lon="4.71322">
        <ele>193</ele>
        <time>2018-01-24T10:15:00Z</time>
      </trkpt>
      <trkpt lat="45.86937" lon="4.71324">
        <ele>193</ele>
        <time>2018-01-24T10:15:01Z</time>
      </trkpt>
      <trkpt lat="45.86931" lon="4.71326">
        <ele>193</ele>
        <time>2018-01-24T10:15:02Z</time>
      </trkpt>
      <trkpt lat="45.86925" lon="4.71328">
        <ele>193</ele>
        <time>2018-01-24T10:15:03Z</time>
      </trkpt>
      <trkpt lat="45.86918" lon="4.71332">
        <ele>193</ele>
        <time>2018-01-24T10:15:04Z</time>
      </trkpt>
      <trkpt lat="45.86912" lon="4.71334">
        <ele>193</ele>
        <time>2018-01-24T10:15:05Z</time>
      </trkpt>
      <trkpt lat="45.86905" lon="4.71336">
        <ele>192</ele>
        <time>2018-01-24T10:15:06Z</time>
      </trkpt>
      <trkpt lat="45.86899" lon="4.71339">
        <ele>192</ele>
        <time>2018-01-24T10:15:07Z</time>
      </trkpt>
      <trkpt lat="45.86893" lon="4.71342">
        <ele>192</ele>
        <time>2018-01-24T10:15:08Z</time>
      </trkpt>
      <trkpt lat="45.86887" lon="4.71344">
        <ele>192</ele>
        <time>2018-01-24T10:15:09Z</time>
      </trkpt>
      <trkpt lat="45.86882" lon="4.71346">
        <ele>192</ele>
        <time>2018-01-24T10:15:10Z</time>
      </trkpt>
      <trkpt lat="45.86876" lon="4.71349">
        <ele>192</ele>
        <time>2018-01-24T10:15:11Z</time>
      </trkpt>
      <trkpt lat="45.8687" lon="4.71351">
        <ele>192</ele>
        <time>2018-01-24T10:15:12Z</time>
      </trkpt>
      <trkpt lat="45.86863" lon="4.71353">
        <ele>192</ele>
        <time>2018-01-24T10:15:13Z</time>
      </trkpt>
      <trkpt lat="45.86858" lon="4.71355">
        <ele>191</ele>
        <time>2018-01-24T10:15:14Z</time>
      </trkpt>
      <trkpt lat="45.86851" lon="4.71358">
        <ele>191</ele>
        <time>2018-01-24T10:15:15Z</time>
      </trkpt>
      <trkpt lat="45.86845" lon="4.7136">
        <ele>191</ele>
        <time>2018-01-24T10:15:16Z</time>
      </trkpt>
      <trkpt lat="45.86838" lon="4.71362">
        <ele>191</ele>
        <time>2018-01-24T10:15:17Z</time>
      </trkpt>
      <trkpt lat="45.86833" lon="4.71363">
        <ele>192</ele>
        <time>2018-01-24T10:15:18Z</time>
      </trkpt>
      <trkpt lat="45.86828" lon="4.71365">
        <ele>192</ele>
        <time>2018-01-24T10:15:19Z</time>
      </trkpt>
      <trkpt lat="45.86823" lon="4.71366">
        <ele>192</ele>
        <time>2018-01-24T10:15:20Z</time>
      </trkpt>
      <trkpt lat="45.86817" lon="4.71368">
        <ele>192</ele>
        <time>2018-01-24T10:15:21Z</time>
      </trkpt>
      <trkpt lat="45.86813" lon="4.71368">
        <ele>192</ele>
        <time>2018-01-24T10:15:22Z</time>
      </trkpt>
      <trkpt lat="45.86807" lon="4.71371">
        <ele>192</ele>
        <time>2018-01-24T10:15:23Z</time>
      </trkpt>
      <trkpt lat="45.86802" lon="4.71373">
        <ele>192</ele>
        <time>2018-01-24T10:15:24Z</time>
      </trkpt>
      <trkpt lat="45.86798" lon="4.71375">
        <ele>192</ele>
        <time>2018-01-24T10:15:25Z</time>
      </trkpt>
      <trkpt lat="45.86791" lon="4.71379">
        <ele>192</ele>
        <time>2018-01-24T10:15:26Z</time>
      </trkpt>
      <trkpt lat="45.86785" lon="4.71381">
        <ele>192</ele>
        <time>2018-01-24T10:15:27Z</time>
      </trkpt>
      <trkpt lat="45.86778" lon="4.71383">
        <ele>192</ele>
        <time>2018-01-24T10:15:28Z</time>
      </trkpt>
      <trkpt lat="45.86773" lon="4.71386">
        <ele>192</ele>
        <time>2018-01-24T10:15:29Z</time>
      </trkpt>
      <trkpt lat="45.86768" lon="4.71388">
        <ele>192</ele>
        <time>2018-01-24T10:15:30Z</time>
      </trkpt>
      <trkpt lat="45.86762" lon="4.71392">
        <ele>192</ele>
        <time>2018-01-24T10:15:31Z</time>
      </trkpt>
      <trkpt lat="45.86757" lon="4.71394">
        <ele>192</ele>
        <time>2018-01-24T10:15:32Z</time>
      </trkpt>
      <trkpt lat="45.86751" lon="4.71396">
        <ele>192</ele>
        <time>2018-01-24T10:15:33Z</time>
      </trkpt>
      <trkpt lat="45.86745" lon="4.71398">
        <ele>193</ele>
        <time>2018-01-24T10:15:34Z</time>
      </trkpt>
      <trkpt lat="45.86739" lon="4.714">
        <ele>193</ele>
        <time>2018-01-24T10:15:35Z</time>
      </trkpt>
      <trkpt lat="45.86733" lon="4.71402">
        <ele>193</ele>
        <time>2018-01-24T10:15:36Z</time>
      </trkpt>
      <trkpt lat="45.86726" lon="4.71404">
        <ele>193</ele>
        <time>2018-01-24T10:15:37Z</time>
      </trkpt>
      <trkpt lat="45.8672" lon="4.71406">
        <ele>193</ele>
        <time>2018-01-24T10:15:38Z</time>
      </trkpt>
      <trkpt lat="45.86714" lon="4.71407">
        <ele>193</ele>
        <time>2018-01-24T10:15:39Z</time>
      </trkpt>
      <trkpt lat="45.86706" lon="4.71409">
        <ele>193</ele>
        <time>2018-01-24T10:15:40Z</time>
      </trkpt>
      <trkpt lat="45.867" lon="4.71411">
        <ele>193</ele>
        <time>2018-01-24T10:15:41Z</time>
      </trkpt>
      <trkpt lat="45.86693" lon="4.71412">
        <ele>193</ele>
        <time>2018-01-24T10:15:42Z</time>
      </trkpt>
      <trkpt lat="45.86686" lon="4.71415">
        <ele>193</ele>
        <time>2018-01-24T10:15:43Z</time>
      </trkpt>
      <trkpt lat="45.8668" lon="4.71418">
        <ele>193</ele>
        <time>2018-01-24T10:15:44Z</time>
      </trkpt>
      <trkpt lat="45.86675" lon="4.71421">
        <ele>194</ele>
        <time>2018-01-24T10:15:45Z</time>
      </trkpt>
      <trkpt lat="45.86669" lon="4.71423">
        <ele>194</ele>
        <time>2018-01-24T10:15:46Z</time>
      </trkpt>
      <trkpt lat="45.86663" lon="4.71425">
        <ele>194</ele>
        <time>2018-01-24T10:15:47Z</time>
      </trkpt>
      <trkpt lat="45.86657" lon="4.71427">
        <ele>193</ele>
        <time>2018-01-24T10:15:48Z</time>
      </trkpt>
      <trkpt lat="45.86651" lon="4.71429">
        <ele>193</ele>
        <time>2018-01-24T10:15:49Z</time>
      </trkpt>
      <trkpt lat="45.86645" lon="4.71432">
        <ele>193</ele>
        <time>2018-01-24T10:15:50Z</time>
      </trkpt>
      <trkpt lat="45.86639" lon="4.71434">
        <ele>193</ele>
        <time>2018-01-24T10:15:51Z</time>
      </trkpt>
      <trkpt lat="45.86633" lon="4.71436">
        <ele>193</ele>
        <time>2018-01-24T10:15:52Z</time>
      </trkpt>
      <trkpt lat="45.86626" lon="4.71438">
        <ele>193</ele>
        <time>2018-01-24T10:15:53Z</time>
      </trkpt>
      <trkpt lat="45.8662" lon="4.71442">
        <ele>193</ele>
        <time>2018-01-24T10:15:54Z</time>
      </trkpt>
      <trkpt lat="45.86613" lon="4.71445">
        <ele>193</ele>
        <time>2018-01-24T10:15:55Z</time>
      </trkpt>
      <trkpt lat="45.86607" lon="4.71447">
        <ele>193</ele>
        <time>2018-01-24T10:15:56Z</time>
      </trkpt>
      <trkpt lat="45.86601" lon="4.71451">
        <ele>193</ele>
        <time>2018-01-24T10:15:57Z</time>
      </trkpt>
      <trkpt lat="45.86595" lon="4.71452">
        <ele>193</ele>
        <time>2018-01-24T10:15:58Z</time>
      </trkpt>
      <trkpt lat="45.86589" lon="4.71454">
        <ele>193</ele>
        <time>2018-01-24T10:15:59Z</time>
      </trkpt>
      <trkpt lat="45.86584" lon="4.71455">
        <ele>193</ele>
        <time>2018-01-24T10:16:00Z</time>
      </trkpt>
      <trkpt lat="45.86578" lon="4.71457">
        <ele>193</ele>
        <time>2018-01-24T10:16:01Z</time>
      </trkpt>
      <trkpt lat="45.86573" lon="4.71458">
        <ele>193</ele>
        <time>2018-01-24T10:16:02Z</time>
      </trkpt>
      <trkpt lat="45.86569" lon="4.71459">
        <ele>193</ele>
        <time>2018-01-24T10:16:03Z</time>
      </trkpt>
      <trkpt lat="45.86564" lon="4.71461">
        <ele>193</ele>
        <time>2018-01-24T10:16:04Z</time>
      </trkpt>
      <trkpt lat="45.8656" lon="4.71461">
        <ele>193</ele>
        <time>2018-01-24T10:16:05Z</time>
      </trkpt>
      <trkpt lat="45.86554" lon="4.71463">
        <ele>193</ele>
        <time>2018-01-24T10:16:06Z</time>
      </trkpt>
      <trkpt lat="45.8655" lon="4.71466">
        <ele>193</ele>
        <time>2018-01-24T10:16:07Z</time>
      </trkpt>
      <trkpt lat="45.86545" lon="4.71468">
        <ele>193</ele>
        <time>2018-01-24T10:16:08Z</time>
      </trkpt>
      <trkpt lat="45.8654" lon="4.71469">
        <ele>193</ele>
        <time>2018-01-24T10:16:09Z</time>
      </trkpt>
      <trkpt lat="45.86536" lon="4.71471">
        <ele>193</ele>
        <time>2018-01-24T10:16:10Z</time>
      </trkpt>
      <trkpt lat="45.86531" lon="4.71472">
        <ele>193</ele>
        <time>2018-01-24T10:16:11Z</time>
      </trkpt>
      <trkpt lat="45.86527" lon="4.71475">
        <ele>193</ele>
        <time>2018-01-24T10:16:12Z</time>
      </trkpt>
      <trkpt lat="45.86523" lon="4.71477">
        <ele>193</ele>
        <time>2018-01-24T10:16:13Z</time>
      </trkpt>
      <trkpt lat="45.86518" lon="4.71478">
        <ele>193</ele>
        <time>2018-01-24T10:16:14Z</time>
      </trkpt>
      <trkpt lat="45.86513" lon="4.7148">
        <ele>193</ele>
        <time>2018-01-24T10:16:15Z</time>
      </trkpt>
      <trkpt lat="45.86508" lon="4.71482">
        <ele>193</ele>
        <time>2018-01-24T10:16:16Z</time>
      </trkpt>
      <trkpt lat="45.86502" lon="4.71484">
        <ele>193</ele>
        <time>2018-01-24T10:16:17Z</time>
      </trkpt>
      <trkpt lat="45.86498" lon="4.71486">
        <ele>193</ele>
        <time>2018-01-24T10:16:18Z</time>
      </trkpt>
      <trkpt lat="45.86494" lon="4.71488">
        <ele>193</ele>
        <time>2018-01-24T10:16:19Z</time>
      </trkpt>
      <trkpt lat="45.86489" lon="4.71489">
        <ele>193</ele>
        <time>2018-01-24T10:16:20Z</time>
      </trkpt>
      <trkpt lat="45.86483" lon="4.7149">
        <ele>193</ele>
        <time>2018-01-24T10:16:21Z</time>
      </trkpt>
      <trkpt lat="45.86478" lon="4.71492">
        <ele>192</ele>
        <time>2018-01-24T10:16:22Z</time>
      </trkpt>
      <trkpt lat="45.86472" lon="4.71494">
        <ele>192</ele>
        <time>2018-01-24T10:16:23Z</time>
      </trkpt>
      <trkpt lat="45.86467" lon="4.71497">
        <ele>192</ele>
        <time>2018-01-24T10:16:24Z</time>
      </trkpt>
      <trkpt lat="45.86462" lon="4.71499">
        <ele>192</ele>
        <time>2018-01-24T10:16:25Z</time>
      </trkpt>
      <trkpt lat="45.86454" lon="4.71504">
        <ele>191</ele>
        <time>2018-01-24T10:16:27Z</time>
      </trkpt>
      <trkpt lat="45.86451" lon="4.71504">
        <ele>191</ele>
        <time>2018-01-24T10:16:28Z</time>
      </trkpt>
      <trkpt lat="45.86443" lon="4.71506">
        <ele>191</ele>
        <time>2018-01-24T10:16:30Z</time>
      </trkpt>
      <trkpt lat="45.86439" lon="4.71509">
        <ele>191</ele>
        <time>2018-01-24T10:16:31Z</time>
      </trkpt>
      <trkpt lat="45.86434" lon="4.71511">
        <ele>191</ele>
        <time>2018-01-24T10:16:32Z</time>
      </trkpt>
      <trkpt lat="45.86429" lon="4.71513">
        <ele>191</ele>
        <time>2018-01-24T10:16:33Z</time>
      </trkpt>
      <trkpt lat="45.86424" lon="4.71516">
        <ele>191</ele>
        <time>2018-01-24T10:16:34Z</time>
      </trkpt>
      <trkpt lat="45.8642" lon="4.71517">
        <ele>191</ele>
        <time>2018-01-24T10:16:35Z</time>
      </trkpt>
      <trkpt lat="45.86411" lon="4.71519">
        <ele>192</ele>
        <time>2018-01-24T10:16:37Z</time>
      </trkpt>
      <trkpt lat="45.86408" lon="4.71517">
        <ele>192</ele>
        <time>2018-01-24T10:16:38Z</time>
      </trkpt>
      <trkpt lat="45.86404" lon="4.71506">
        <ele>191</ele>
        <time>2018-01-24T10:16:40Z</time>
      </trkpt>
      <trkpt lat="45.86403" lon="4.71499">
        <ele>192</ele>
        <time>2018-01-24T10:16:41Z</time>
      </trkpt>
      <trkpt lat="45.864" lon="4.71493">
        <ele>192</ele>
        <time>2018-01-24T10:16:42Z</time>
      </trkpt>
      <trkpt lat="45.86397" lon="4.71489">
        <ele>192</ele>
        <time>2018-01-24T10:16:43Z</time>
      </trkpt>
      <trkpt lat="45.86394" lon="4.71485">
        <ele>192</ele>
        <time>2018-01-24T10:16:44Z</time>
      </trkpt>
      <trkpt lat="45.8639" lon="4.7148">
        <ele>192</ele>
        <time>2018-01-24T10:16:45Z</time>
      </trkpt>
      <trkpt lat="45.86385" lon="4.71476">
        <ele>192</ele>
        <time>2018-01-24T10:16:46Z</time>
      </trkpt>
      <trkpt lat="45.8638" lon="4.71474">
        <ele>192</ele>
        <time>2018-01-24T10:16:47Z</time>
      </trkpt>
      <trkpt lat="45.86374" lon="4.71471">
        <ele>193</ele>
        <time>2018-01-24T10:16:48Z</time>
      </trkpt>
      <trkpt lat="45.86368" lon="4.71471">
        <ele>193</ele>
        <time>2018-01-24T10:16:49Z</time>
      </trkpt>
      <trkpt lat="45.86363" lon="4.71469">
        <ele>193</ele>
        <time>2018-01-24T10:16:50Z</time>
      </trkpt>
      <trkpt lat="45.86357" lon="4.71466">
        <ele>193</ele>
        <time>2018-01-24T10:16:51Z</time>
      </trkpt>
      <trkpt lat="45.86351" lon="4.71463">
        <ele>193</ele>
        <time>2018-01-24T10:16:52Z</time>
      </trkpt>
      <trkpt lat="45.86346" lon="4.71461">
        <ele>193</ele>
        <time>2018-01-24T10:16:53Z</time>
      </trkpt>
      <trkpt lat="45.86342" lon="4.71458">
        <ele>193</ele>
        <time>2018-01-24T10:16:54Z</time>
      </trkpt>
      <trkpt lat="45.86337" lon="4.71457">
        <ele>193</ele>
        <time>2018-01-24T10:16:55Z</time>
      </trkpt>
      <trkpt lat="45.86332" lon="4.71456">
        <ele>194</ele>
        <time>2018-01-24T10:16:56Z</time>
      </trkpt>
      <trkpt lat="45.86327" lon="4.71453">
        <ele>194</ele>
        <time>2018-01-24T10:16:57Z</time>
      </trkpt>
      <trkpt lat="45.86322" lon="4.7145">
        <ele>194</ele>
        <time>2018-01-24T10:16:58Z</time>
      </trkpt>
      <trkpt lat="45.86318" lon="4.71449">
        <ele>194</ele>
        <time>2018-01-24T10:16:59Z</time>
      </trkpt>
      <trkpt lat="45.86313" lon="4.71447">
        <ele>194</ele>
        <time>2018-01-24T10:17:00Z</time>
      </trkpt>
      <trkpt lat="45.86309" lon="4.71444">
        <ele>194</ele>
        <time>2018-01-24T10:17:01Z</time>
      </trkpt>
      <trkpt lat="45.86305" lon="4.71442">
        <ele>194</ele>
        <time>2018-01-24T10:17:02Z</time>
      </trkpt>
      <trkpt lat="45.863" lon="4.71441">
        <ele>194</ele>
        <time>2018-01-24T10:17:03Z</time>
      </trkpt>
      <trkpt lat="45.86295" lon="4.71439">
        <ele>194</ele>
        <time>2018-01-24T10:17:04Z</time>
      </trkpt>
      <trkpt lat="45.86291" lon="4.71438">
        <ele>194</ele>
        <time>2018-01-24T10:17:05Z</time>
      </trkpt>
      <trkpt lat="45.86282" lon="4.71433">
        <ele>194</ele>
        <time>2018-01-24T10:17:07Z</time>
      </trkpt>
      <trkpt lat="45.86278" lon="4.71431">
        <ele>194</ele>
        <time>2018-01-24T10:17:08Z</time>
      </trkpt>
      <trkpt lat="45.8627" lon="4.71425">
        <ele>195</ele>
        <time>2018-01-24T10:17:10Z</time>
      </trkpt>
      <trkpt lat="45.86267" lon="4.71422">
        <ele>195</ele>
        <time>2018-01-24T10:17:11Z</time>
      </trkpt>
      <trkpt lat="45.86263" lon="4.71418">
        <ele>195</ele>
        <time>2018-01-24T10:17:12Z</time>
      </trkpt>
      <trkpt lat="45.86259" lon="4.71415">
        <ele>195</ele>
        <time>2018-01-24T10:17:13Z</time>
      </trkpt>
      <trkpt lat="45.8625" lon="4.71412">
        <ele>195</ele>
        <time>2018-01-24T10:17:15Z</time>
      </trkpt>
      <trkpt lat="45.86246" lon="4.71409">
        <ele>195</ele>
        <time>2018-01-24T10:17:16Z</time>
      </trkpt>
      <trkpt lat="45.86239" lon="4.71405">
        <ele>195</ele>
        <time>2018-01-24T10:17:18Z</time>
      </trkpt>
      <trkpt lat="45.86235" lon="4.71402">
        <ele>195</ele>
        <time>2018-01-24T10:17:19Z</time>
      </trkpt>
      <trkpt lat="45.86227" lon="4.71397">
        <ele>195</ele>
        <time>2018-01-24T10:17:21Z</time>
      </trkpt>
      <trkpt lat="45.86222" lon="4.71395">
        <ele>195</ele>
        <time>2018-01-24T10:17:22Z</time>
      </trkpt>
      <trkpt lat="45.86218" lon="4.71394">
        <ele>195</ele>
        <time>2018-01-24T10:17:23Z</time>
      </trkpt>
      <trkpt lat="45.86213" lon="4.71392">
        <ele>195</ele>
        <time>2018-01-24T10:17:24Z</time>
      </trkpt>
      <trkpt lat="45.86205" lon="4.71387">
        <ele>195</ele>
        <time>2018-01-24T10:17:26Z</time>
      </trkpt>
      <trkpt lat="45.86201" lon="4.71384">
        <ele>195</ele>
        <time>2018-01-24T10:17:27Z</time>
      </trkpt>
      <trkpt lat="45.86193" lon="4.7138">
        <ele>195</ele>
        <time>2018-01-24T10:17:29Z</time>
      </trkpt>
      <trkpt lat="45.8619" lon="4.71378">
        <ele>195</ele>
        <time>2018-01-24T10:17:30Z</time>
      </trkpt>
      <trkpt lat="45.86181" lon="4.71376">
        <ele>195</ele>
        <time>2018-01-24T10:17:32Z</time>
      </trkpt>
      <trkpt lat="45.86177" lon="4.71375">
        <ele>195</ele>
        <time>2018-01-24T10:17:33Z</time>
      </trkpt>
      <trkpt lat="45.86169" lon="4.71371">
        <ele>195</ele>
        <time>2018-01-24T10:17:35Z</time>
      </trkpt>
      <trkpt lat="45.86165" lon="4.7137">
        <ele>195</ele>
        <time>2018-01-24T10:17:36Z</time>
      </trkpt>
      <trkpt lat="45.86157" lon="4.71366">
        <ele>195</ele>
        <time>2018-01-24T10:17:38Z</time>
      </trkpt>
      <trkpt lat="45.86153" lon="4.71365">
        <ele>196</ele>
        <time>2018-01-24T10:17:39Z</time>
      </trkpt>
      <trkpt lat="45.86145" lon="4.71363">
        <ele>196</ele>
        <time>2018-01-24T10:17:41Z</time>
      </trkpt>
      <trkpt lat="45.8614" lon="4.71363">
        <ele>196</ele>
        <time>2018-01-24T10:17:42Z</time>
      </trkpt>
      <trkpt lat="45.86131" lon="4.71361">
        <ele>196</ele>
        <time>2018-01-24T10:17:44Z</time>
      </trkpt>
      <trkpt lat="45.86127" lon="4.7136">
        <ele>196</ele>
        <time>2018-01-24T10:17:45Z</time>
      </trkpt>
      <trkpt lat="45.8612" lon="4.71358">
        <ele>196</ele>
        <time>2018-01-24T10:17:47Z</time>
      </trkpt>
      <trkpt lat="45.86116" lon="4.71356">
        <ele>196</ele>
        <time>2018-01-24T10:17:48Z</time>
      </trkpt>
      <trkpt lat="45.8611" lon="4.71349">
        <ele>196</ele>
        <time>2018-01-24T10:17:50Z</time>
      </trkpt>
      <trkpt lat="45.86109" lon="4.71342">
        <ele>196</ele>
        <time>2018-01-24T10:17:51Z</time>
      </trkpt>
      <trkpt lat="45.86107" lon="4.71336">
        <ele>196</ele>
        <time>2018-01-24T10:17:52Z</time>
      </trkpt>
      <trkpt lat="45.86106" lon="4.71329">
        <ele>197</ele>
        <time>2018-01-24T10:17:53Z</time>
      </trkpt>
      <trkpt lat="45.86105" lon="4.71322">
        <ele>197</ele>
        <time>2018-01-24T10:17:54Z</time>
      </trkpt>
      <trkpt lat="45.86104" lon="4.71315">
        <ele>197</ele>
        <time>2018-01-24T10:17:55Z</time>
      </trkpt>
      <trkpt lat="45.86103" lon="4.71308">
        <ele>197</ele>
        <time>2018-01-24T10:17:56Z</time>
      </trkpt>
      <trkpt lat="45.86102" lon="4.71301">
        <ele>197</ele>
        <time>2018-01-24T10:17:57Z</time>
      </trkpt>
      <trkpt lat="45.861" lon="4.71289">
        <ele>197</ele>
        <time>2018-01-24T10:17:59Z</time>
      </trkpt>
      <trkpt lat="45.86098" lon="4.71283">
        <ele>197</ele>
        <time>2018-01-24T10:18:00Z</time>
      </trkpt>
      <trkpt lat="45.86094" lon="4.71273">
        <ele>197</ele>
        <time>2018-01-24T10:18:02Z</time>
      </trkpt>
      <trkpt lat="45.86091" lon="4.71268">
        <ele>197</ele>
        <time>2018-01-24T10:18:03Z</time>
      </trkpt>
      <trkpt lat="45.86086" lon="4.7126">
        <ele>197</ele>
        <time>2018-01-24T10:18:05Z</time>
      </trkpt>
      <trkpt lat="45.86084" lon="4.71255">
        <ele>198</ele>
        <time>2018-01-24T10:18:06Z</time>
      </trkpt>
      <trkpt lat="45.86081" lon="4.71244">
        <ele>198</ele>
        <time>2018-01-24T10:18:08Z</time>
      </trkpt>
      <trkpt lat="45.86081" lon="4.71237">
        <ele>198</ele>
        <time>2018-01-24T10:18:09Z</time>
      </trkpt>
      <trkpt lat="45.86082" lon="4.71225">
        <ele>198</ele>
        <time>2018-01-24T10:18:11Z</time>
      </trkpt>
      <trkpt lat="45.86082" lon="4.71219">
        <ele>198</ele>
        <time>2018-01-24T10:18:12Z</time>
      </trkpt>
      <trkpt lat="45.86084" lon="4.71207">
        <ele>197</ele>
        <time>2018-01-24T10:18:14Z</time>
      </trkpt>
      <trkpt lat="45.86086" lon="4.71201">
        <ele>197</ele>
        <time>2018-01-24T10:18:15Z</time>
      </trkpt>
      <trkpt lat="45.86086" lon="4.71194">
        <ele>197</ele>
        <time>2018-01-24T10:18:16Z</time>
      </trkpt>
      <trkpt lat="45.86087" lon="4.71187">
        <ele>197</ele>
        <time>2018-01-24T10:18:17Z</time>
      </trkpt>
      <trkpt lat="45.86088" lon="4.71179">
        <ele>197</ele>
        <time>2018-01-24T10:18:18Z</time>
      </trkpt>
      <trkpt lat="45.8609" lon="4.71167">
        <ele>198</ele>
        <time>2018-01-24T10:18:19Z</time>
      </trkpt>
      <trkpt lat="45.8609" lon="4.71161">
        <ele>197</ele>
        <time>2018-01-24T10:18:20Z</time>
      </trkpt>
      <trkpt lat="45.8609" lon="4.71154">
        <ele>197</ele>
        <time>2018-01-24T10:18:21Z</time>
      </trkpt>
      <trkpt lat="45.86087" lon="4.71148">
        <ele>197</ele>
        <time>2018-01-24T10:18:22Z</time>
      </trkpt>
      <trkpt lat="45.86085" lon="4.71142">
        <ele>197</ele>
        <time>2018-01-24T10:18:23Z</time>
      </trkpt>
      <trkpt lat="45.86079" lon="4.71135">
        <ele>197</ele>
        <time>2018-01-24T10:18:25Z</time>
      </trkpt>
      <trkpt lat="45.86075" lon="4.71132">
        <ele>197</ele>
        <time>2018-01-24T10:18:26Z</time>
      </trkpt>
      <trkpt lat="45.86069" lon="4.7113">
        <ele>197</ele>
        <time>2018-01-24T10:18:27Z</time>
      </trkpt>
      <trkpt lat="45.86064" lon="4.71129">
        <ele>197</ele>
        <time>2018-01-24T10:18:28Z</time>
      </trkpt>
      <trkpt lat="45.86062" lon="4.71123">
        <ele>197</ele>
        <time>2018-01-24T10:18:29Z</time>
      </trkpt>
      <trkpt lat="45.86058" lon="4.71118">
        <ele>197</ele>
        <time>2018-01-24T10:18:30Z</time>
      </trkpt>
      <trkpt lat="45.86056" lon="4.71113">
        <ele>197</ele>
        <time>2018-01-24T10:18:31Z</time>
      </trkpt>
      <trkpt lat="45.86052" lon="4.71108">
        <ele>197</ele>
        <time>2018-01-24T10:18:32Z</time>
      </trkpt>
      <trkpt lat="45.86048" lon="4.71103">
        <ele>197</ele>
        <time>2018-01-24T10:18:33Z</time>
      </trkpt>
      <trkpt lat="45.86046" lon="4.71097">
        <ele>197</ele>
        <time>2018-01-24T10:18:34Z</time>
      </trkpt>
      <trkpt lat="45.86044" lon="4.71092">
        <ele>197</ele>
        <time>2018-01-24T10:18:35Z</time>
      </trkpt>
      <trkpt lat="45.8604" lon="4.71085">
        <ele>197</ele>
        <time>2018-01-24T10:18:36Z</time>
      </trkpt>
      <trkpt lat="45.86038" lon="4.71079">
        <ele>197</ele>
        <time>2018-01-24T10:18:37Z</time>
      </trkpt>
      <trkpt lat="45.86037" lon="4.71072">
        <ele>197</ele>
        <time>2018-01-24T10:18:38Z</time>
      </trkpt>
      <trkpt lat="45.86036" lon="4.71064">
        <ele>197</ele>
        <time>2018-01-24T10:18:39Z</time>
      </trkpt>
      <trkpt lat="45.86035" lon="4.71055">
        <ele>197</ele>
        <time>2018-01-24T10:18:40Z</time>
      </trkpt>
      <trkpt lat="45.86034" lon="4.71048">
        <ele>197</ele>
        <time>2018-01-24T10:18:41Z</time>
      </trkpt>
      <trkpt lat="45.86033" lon="4.71041">
        <ele>197</ele>
        <time>2018-01-24T10:18:42Z</time>
      </trkpt>
      <trkpt lat="45.86032" lon="4.71034">
        <ele>197</ele>
        <time>2018-01-24T10:18:43Z</time>
      </trkpt>
      <trkpt lat="45.8603" lon="4.71027">
        <ele>197</ele>
        <time>2018-01-24T10:18:44Z</time>
      </trkpt>
      <trkpt lat="45.86025" lon="4.71016">
        <ele>197</ele>
        <time>2018-01-24T10:18:46Z</time>
      </trkpt>
      <trkpt lat="45.86021" lon="4.7101">
        <ele>197</ele>
        <time>2018-01-24T10:18:47Z</time>
      </trkpt>
      <trkpt lat="45.86016" lon="4.71">
        <ele>197</ele>
        <time>2018-01-24T10:18:49Z</time>
      </trkpt>
      <trkpt lat="45.86012" lon="4.70996">
        <ele>197</ele>
        <time>2018-01-24T10:18:50Z</time>
      </trkpt>
      <trkpt lat="45.86008" lon="4.70992">
        <ele>197</ele>
        <time>2018-01-24T10:18:51Z</time>
      </trkpt>
      <trkpt lat="45.86004" lon="4.70987">
        <ele>197</ele>
        <time>2018-01-24T10:18:52Z</time>
      </trkpt>
      <trkpt lat="45.85999" lon="4.70983">
        <ele>197</ele>
        <time>2018-01-24T10:18:53Z</time>
      </trkpt>
      <trkpt lat="45.85994" lon="4.7098">
        <ele>197</ele>
        <time>2018-01-24T10:18:54Z</time>
      </trkpt>
      <trkpt lat="45.85986" lon="4.70976">
        <ele>197</ele>
        <time>2018-01-24T10:18:56Z</time>
      </trkpt>
      <trkpt lat="45.85981" lon="4.70973">
        <ele>197</ele>
        <time>2018-01-24T10:18:57Z</time>
      </trkpt>
      <trkpt lat="45.85976" lon="4.7097">
        <ele>197</ele>
        <time>2018-01-24T10:18:58Z</time>
      </trkpt>
      <trkpt lat="45.85971" lon="4.70968">
        <ele>197</ele>
        <time>2018-01-24T10:18:59Z</time>
      </trkpt>
      <trkpt lat="45.85967" lon="4.70966">
        <ele>197</ele>
        <time>2018-01-24T10:19:00Z</time>
      </trkpt>
      <trkpt lat="45.85962" lon="4.70965">
        <ele>197</ele>
        <time>2018-01-24T10:19:01Z</time>
      </trkpt>
      <trkpt lat="45.85957" lon="4.70964">
        <ele>197</ele>
        <time>2018-01-24T10:19:02Z</time>
      </trkpt>
      <trkpt lat="45.85952" lon="4.70966">
        <ele>197</ele>
        <time>2018-01-24T10:19:03Z</time>
      </trkpt>
      <trkpt lat="45.85944" lon="4.70965">
        <ele>197</ele>
        <time>2018-01-24T10:19:05Z</time>
      </trkpt>
      <trkpt lat="45.85941" lon="4.70962">
        <ele>197</ele>
        <time>2018-01-24T10:19:06Z</time>
      </trkpt>
      <trkpt lat="45.85939" lon="4.70951">
        <ele>197</ele>
        <time>2018-01-24T10:19:08Z</time>
      </trkpt>
      <trkpt lat="45.8594" lon="4.70946">
        <ele>197</ele>
        <time>2018-01-24T10:19:09Z</time>
      </trkpt>
      <trkpt lat="45.8594" lon="4.7094">
        <ele>197</ele>
        <time>2018-01-24T10:19:10Z</time>
      </trkpt>
      <trkpt lat="45.85942" lon="4.70933">
        <ele>197</ele>
        <time>2018-01-24T10:19:11Z</time>
      </trkpt>
      <trkpt lat="45.85944" lon="4.70927">
        <ele>197</ele>
        <time>2018-01-24T10:19:12Z</time>
      </trkpt>
      <trkpt lat="45.85945" lon="4.7092">
        <ele>197</ele>
        <time>2018-01-24T10:19:13Z</time>
      </trkpt>
      <trkpt lat="45.85947" lon="4.70912">
        <ele>197</ele>
        <time>2018-01-24T10:19:14Z</time>
      </trkpt>
      <trkpt lat="45.85948" lon="4.70904">
        <ele>197</ele>
        <time>2018-01-24T10:19:15Z</time>
      </trkpt>
      <trkpt lat="45.8595" lon="4.70895">
        <ele>197</ele>
        <time>2018-01-24T10:19:16Z</time>
      </trkpt>
      <trkpt lat="45.85951" lon="4.70889">
        <ele>197</ele>
        <time>2018-01-24T10:19:17Z</time>
      </trkpt>
      <trkpt lat="45.85953" lon="4.70882">
        <ele>197</ele>
        <time>2018-01-24T10:19:18Z</time>
      </trkpt>
      <trkpt lat="45.85956" lon="4.70875">
        <ele>196</ele>
        <time>2018-01-24T10:19:19Z</time>
      </trkpt>
      <trkpt lat="45.85958" lon="4.70868">
        <ele>196</ele>
        <time>2018-01-24T10:19:20Z</time>
      </trkpt>
      <trkpt lat="45.85959" lon="4.70861">
        <ele>196</ele>
        <time>2018-01-24T10:19:21Z</time>
      </trkpt>
      <trkpt lat="45.85959" lon="4.70853">
        <ele>196</ele>
        <time>2018-01-24T10:19:22Z</time>
      </trkpt>
      <trkpt lat="45.8596" lon="4.70844">
        <ele>196</ele>
        <time>2018-01-24T10:19:23Z</time>
      </trkpt>
      <trkpt lat="45.85959" lon="4.70838">
        <ele>196</ele>
        <time>2018-01-24T10:19:24Z</time>
      </trkpt>
      <trkpt lat="45.85959" lon="4.70829">
        <ele>196</ele>
        <time>2018-01-24T10:19:25Z</time>
      </trkpt>
      <trkpt lat="45.85958" lon="4.70822">
        <ele>195</ele>
        <time>2018-01-24T10:19:26Z</time>
      </trkpt>
      <trkpt lat="45.85957" lon="4.70815">
        <ele>195</ele>
        <time>2018-01-24T10:19:27Z</time>
      </trkpt>
      <trkpt lat="45.85956" lon="4.70809">
        <ele>195</ele>
        <time>2018-01-24T10:19:28Z</time>
      </trkpt>
      <trkpt lat="45.85956" lon="4.70803">
        <ele>195</ele>
        <time>2018-01-24T10:19:29Z</time>
      </trkpt>
      <trkpt lat="45.85956" lon="4.70791">
        <ele>195</ele>
        <time>2018-01-24T10:19:31Z</time>
      </trkpt>
      <trkpt lat="45.85956" lon="4.70786">
        <ele>195</ele>
        <time>2018-01-24T10:19:32Z</time>
      </trkpt>
      <trkpt lat="45.85957" lon="4.70779">
        <ele>195</ele>
        <time>2018-01-24T10:19:33Z</time>
      </trkpt>
      <trkpt lat="45.85958" lon="4.70771">
        <ele>195</ele>
        <time>2018-01-24T10:19:34Z</time>
      </trkpt>
      <trkpt lat="45.85959" lon="4.70765">
        <ele>195</ele>
        <time>2018-01-24T10:19:35Z</time>
      </trkpt>
      <trkpt lat="45.85959" lon="4.70756">
        <ele>195</ele>
        <time>2018-01-24T10:19:36Z</time>
      </trkpt>
      <trkpt lat="45.85959" lon="4.70748">
        <ele>194</ele>
        <time>2018-01-24T10:19:37Z</time>
      </trkpt>
      <trkpt lat="45.8596" lon="4.7074">
        <ele>194</ele>
        <time>2018-01-24T10:19:38Z</time>
      </trkpt>
      <trkpt lat="45.8596" lon="4.70732">
        <ele>194</ele>
        <time>2018-01-24T10:19:39Z</time>
      </trkpt>
      <trkpt lat="45.85961" lon="4.70726">
        <ele>194</ele>
        <time>2018-01-24T10:19:40Z</time>
      </trkpt>
      <trkpt lat="45.85962" lon="4.70718">
        <ele>194</ele>
        <time>2018-01-24T10:19:41Z</time>
      </trkpt>
      <trkpt lat="45.85963" lon="4.70711">
        <ele>194</ele>
        <time>2018-01-24T10:19:42Z</time>
      </trkpt>
      <trkpt lat="45.85963" lon="4.70703">
        <ele>194</ele>
        <time>2018-01-24T10:19:43Z</time>
      </trkpt>
      <trkpt lat="45.85964" lon="4.70697">
        <ele>194</ele>
        <time>2018-01-24T10:19:44Z</time>
      </trkpt>
      <trkpt lat="45.85964" lon="4.70686">
        <ele>194</ele>
        <time>2018-01-24T10:19:46Z</time>
      </trkpt>
      <trkpt lat="45.85963" lon="4.70679">
        <ele>194</ele>
        <time>2018-01-24T10:19:47Z</time>
      </trkpt>
      <trkpt lat="45.85957" lon="4.7067">
        <ele>194</ele>
        <time>2018-01-24T10:19:49Z</time>
      </trkpt>
      <trkpt lat="45.85955" lon="4.70662">
        <ele>194</ele>
        <time>2018-01-24T10:19:50Z</time>
      </trkpt>
      <trkpt lat="45.8595" lon="4.70658">
        <ele>194</ele>
        <time>2018-01-24T10:19:51Z</time>
      </trkpt>
      <trkpt lat="45.85946" lon="4.70653">
        <ele>194</ele>
        <time>2018-01-24T10:19:52Z</time>
      </trkpt>
      <trkpt lat="45.85943" lon="4.70647">
        <ele>194</ele>
        <time>2018-01-24T10:19:53Z</time>
      </trkpt>
      <trkpt lat="45.85939" lon="4.7064">
        <ele>194</ele>
        <time>2018-01-24T10:19:54Z</time>
      </trkpt>
      <trkpt lat="45.85933" lon="4.70633">
        <ele>194</ele>
        <time>2018-01-24T10:19:55Z</time>
      </trkpt>
      <trkpt lat="45.85929" lon="4.70626">
        <ele>194</ele>
        <time>2018-01-24T10:19:56Z</time>
      </trkpt>
      <trkpt lat="45.85925" lon="4.7062">
        <ele>194</ele>
        <time>2018-01-24T10:19:57Z</time>
      </trkpt>
      <trkpt lat="45.85921" lon="4.70613">
        <ele>194</ele>
        <time>2018-01-24T10:19:58Z</time>
      </trkpt>
      <trkpt lat="45.85918" lon="4.70605">
        <ele>194</ele>
        <time>2018-01-24T10:19:59Z</time>
      </trkpt>
      <trkpt lat="45.85914" lon="4.70599">
        <ele>195</ele>
        <time>2018-01-24T10:20:00Z</time>
      </trkpt>
      <trkpt lat="45.8591" lon="4.70592">
        <ele>195</ele>
        <time>2018-01-24T10:20:01Z</time>
      </trkpt>
      <trkpt lat="45.85907" lon="4.70586">
        <ele>195</ele>
        <time>2018-01-24T10:20:02Z</time>
      </trkpt>
      <trkpt lat="45.85903" lon="4.70583">
        <ele>195</ele>
        <time>2018-01-24T10:20:03Z</time>
      </trkpt>
      <trkpt lat="45.85899" lon="4.70579">
        <ele>195</ele>
        <time>2018-01-24T10:20:04Z</time>
      </trkpt>
      <trkpt lat="45.85891" lon="4.70575">
        <ele>195</ele>
        <time>2018-01-24T10:20:06Z</time>
      </trkpt>
      <trkpt lat="45.85887" lon="4.70575">
        <ele>195</ele>
        <time>2018-01-24T10:20:07Z</time>
      </trkpt>
      <trkpt lat="45.85882" lon="4.70574">
        <ele>195</ele>
        <time>2018-01-24T10:20:08Z</time>
      </trkpt>
      <trkpt lat="45.85878" lon="4.70574">
        <ele>195</ele>
        <time>2018-01-24T10:20:09Z</time>
      </trkpt>
      <trkpt lat="45.85873" lon="4.70573">
        <ele>195</ele>
        <time>2018-01-24T10:20:10Z</time>
      </trkpt>
      <trkpt lat="45.85868" lon="4.70572">
        <ele>195</ele>
        <time>2018-01-24T10:20:11Z</time>
      </trkpt>
      <trkpt lat="45.85863" lon="4.70571">
        <ele>195</ele>
        <time>2018-01-24T10:20:12Z</time>
      </trkpt>
      <trkpt lat="45.85857" lon="4.70569">
        <ele>195</ele>
        <time>2018-01-24T10:20:13Z</time>
      </trkpt>
      <trkpt lat="45.85852" lon="4.70567">
        <ele>195</ele>
        <time>2018-01-24T10:20:14Z</time>
      </trkpt>
      <trkpt lat="45.85847" lon="4.70566">
        <ele>195</ele>
        <time>2018-01-24T10:20:15Z</time>
      </trkpt>
      <trkpt lat="45.85842" lon="4.70564">
        <ele>195</ele>
        <time>2018-01-24T10:20:16Z</time>
      </trkpt>
      <trkpt lat="45.85837" lon="4.70562">
        <ele>195</ele>
        <time>2018-01-24T10:20:17Z</time>
      </trkpt>
      <trkpt lat="45.85832" lon="4.70558">
        <ele>195</ele>
        <time>2018-01-24T10:20:18Z</time>
      </trkpt>
      <trkpt lat="45.85826" lon="4.70556">
        <ele>195</ele>
        <time>2018-01-24T10:20:19Z</time>
      </trkpt>
      <trkpt lat="45.85819" lon="4.70553">
        <ele>195</ele>
        <time>2018-01-24T10:20:20Z</time>
      </trkpt>
      <trkpt lat="45.85815" lon="4.70551">
        <ele>195</ele>
        <time>2018-01-24T10:20:21Z</time>
      </trkpt>
      <trkpt lat="45.8581" lon="4.70548">
        <ele>195</ele>
        <time>2018-01-24T10:20:22Z</time>
      </trkpt>
      <trkpt lat="45.85804" lon="4.70546">
        <ele>195</ele>
        <time>2018-01-24T10:20:23Z</time>
      </trkpt>
      <trkpt lat="45.85797" lon="4.70542">
        <ele>195</ele>
        <time>2018-01-24T10:20:25Z</time>
      </trkpt>
      <trkpt lat="45.85793" lon="4.70538">
        <ele>195</ele>
        <time>2018-01-24T10:20:26Z</time>
      </trkpt>
      <trkpt lat="45.85789" lon="4.70536">
        <ele>196</ele>
        <time>2018-01-24T10:20:27Z</time>
      </trkpt>
      <trkpt lat="45.85784" lon="4.70533">
        <ele>196</ele>
        <time>2018-01-24T10:20:28Z</time>
      </trkpt>
      <trkpt lat="45.85776" lon="4.70527">
        <ele>196</ele>
        <time>2018-01-24T10:20:30Z</time>
      </trkpt>
      <trkpt lat="45.85772" lon="4.70525">
        <ele>196</ele>
        <time>2018-01-24T10:20:31Z</time>
      </trkpt>
      <trkpt lat="45.85767" lon="4.70521">
        <ele>196</ele>
        <time>2018-01-24T10:20:32Z</time>
      </trkpt>
      <trkpt lat="45.85763" lon="4.70518">
        <ele>196</ele>
        <time>2018-01-24T10:20:33Z</time>
      </trkpt>
      <trkpt lat="45.85759" lon="4.70515">
        <ele>196</ele>
        <time>2018-01-24T10:20:34Z</time>
      </trkpt>
      <trkpt lat="45.85755" lon="4.70511">
        <ele>196</ele>
        <time>2018-01-24T10:20:35Z</time>
      </trkpt>
      <trkpt lat="45.85751" lon="4.70508">
        <ele>196</ele>
        <time>2018-01-24T10:20:36Z</time>
      </trkpt>
      <trkpt lat="45.85746" lon="4.70504">
        <ele>196</ele>
        <time>2018-01-24T10:20:37Z</time>
      </trkpt>
      <trkpt lat="45.85742" lon="4.70501">
        <ele>196</ele>
        <time>2018-01-24T10:20:38Z</time>
      </trkpt>
      <trkpt lat="45.85737" lon="4.70496">
        <ele>196</ele>
        <time>2018-01-24T10:20:39Z</time>
      </trkpt>
      <trkpt lat="45.85733" lon="4.7049">
        <ele>196</ele>
        <time>2018-01-24T10:20:40Z</time>
      </trkpt>
      <trkpt lat="45.85732" lon="4.70485">
        <ele>196</ele>
        <time>2018-01-24T10:20:41Z</time>
      </trkpt>
      <trkpt lat="45.85729" lon="4.70473">
        <ele>196</ele>
        <time>2018-01-24T10:20:43Z</time>
      </trkpt>
      <trkpt lat="45.85726" lon="4.70464">
        <ele>196</ele>
        <time>2018-01-24T10:20:44Z</time>
      </trkpt>
      <trkpt lat="45.85726" lon="4.70457">
        <ele>196</ele>
        <time>2018-01-24T10:20:45Z</time>
      </trkpt>
      <trkpt lat="45.85725" lon="4.7045">
        <ele>196</ele>
        <time>2018-01-24T10:20:46Z</time>
      </trkpt>
      <trkpt lat="45.85723" lon="4.70444">
        <ele>196</ele>
        <time>2018-01-24T10:20:47Z</time>
      </trkpt>
      <trkpt lat="45.85722" lon="4.70437">
        <ele>196</ele>
        <time>2018-01-24T10:20:48Z</time>
      </trkpt>
      <trkpt lat="45.8572" lon="4.7043">
        <ele>196</ele>
        <time>2018-01-24T10:20:49Z</time>
      </trkpt>
      <trkpt lat="45.85719" lon="4.70423">
        <ele>196</ele>
        <time>2018-01-24T10:20:50Z</time>
      </trkpt>
      <trkpt lat="45.85719" lon="4.70415">
        <ele>196</ele>
        <time>2018-01-24T10:20:51Z</time>
      </trkpt>
      <trkpt lat="45.85718" lon="4.70408">
        <ele>196</ele>
        <time>2018-01-24T10:20:52Z</time>
      </trkpt>
      <trkpt lat="45.85716" lon="4.704">
        <ele>196</ele>
        <time>2018-01-24T10:20:53Z</time>
      </trkpt>
      <trkpt lat="45.85715" lon="4.70393">
        <ele>196</ele>
        <time>2018-01-24T10:20:54Z</time>
      </trkpt>
      <trkpt lat="45.85714" lon="4.70387">
        <ele>196</ele>
        <time>2018-01-24T10:20:55Z</time>
      </trkpt>
      <trkpt lat="45.85713" lon="4.7038">
        <ele>196</ele>
        <time>2018-01-24T10:20:56Z</time>
      </trkpt>
      <trkpt lat="45.85712" lon="4.70373">
        <ele>196</ele>
        <time>2018-01-24T10:20:57Z</time>
      </trkpt>
      <trkpt lat="45.85712" lon="4.70366">
        <ele>196</ele>
        <time>2018-01-24T10:20:58Z</time>
      </trkpt>
      <trkpt lat="45.85711" lon="4.70359">
        <ele>196</ele>
        <time>2018-01-24T10:20:59Z</time>
      </trkpt>
      <trkpt lat="45.85709" lon="4.70351">
        <ele>196</ele>
        <time>2018-01-24T10:21:00Z</time>
      </trkpt>
      <trkpt lat="45.85709" lon="4.70344">
        <ele>196</ele>
        <time>2018-01-24T10:21:01Z</time>
      </trkpt>
      <trkpt lat="45.85709" lon="4.70338">
        <ele>196</ele>
        <time>2018-01-24T10:21:02Z</time>
      </trkpt>
      <trkpt lat="45.85709" lon="4.7033">
        <ele>197</ele>
        <time>2018-01-24T10:21:03Z</time>
      </trkpt>
      <trkpt lat="45.85708" lon="4.70321">
        <ele>197</ele>
        <time>2018-01-24T10:21:04Z</time>
      </trkpt>
      <trkpt lat="45.85707" lon="4.70314">
        <ele>197</ele>
        <time>2018-01-24T10:21:05Z</time>
      </trkpt>
      <trkpt lat="45.85706" lon="4.70308">
        <ele>197</ele>
        <time>2018-01-24T10:21:06Z</time>
      </trkpt>
      <trkpt lat="45.85706" lon="4.70298">
        <ele>197</ele>
        <time>2018-01-24T10:21:07Z</time>
      </trkpt>
      <trkpt lat="45.85705" lon="4.70289">
        <ele>197</ele>
        <time>2018-01-24T10:21:08Z</time>
      </trkpt>
      <trkpt lat="45.85704" lon="4.70283">
        <ele>197</ele>
        <time>2018-01-24T10:21:09Z</time>
      </trkpt>
      <trkpt lat="45.85702" lon="4.70275">
        <ele>197</ele>
        <time>2018-01-24T10:21:10Z</time>
      </trkpt>
      <trkpt lat="45.85701" lon="4.70268">
        <ele>197</ele>
        <time>2018-01-24T10:21:11Z</time>
      </trkpt>
      <trkpt lat="45.857" lon="4.7026">
        <ele>197</ele>
        <time>2018-01-24T10:21:12Z</time>
      </trkpt>
      <trkpt lat="45.85699" lon="4.70252">
        <ele>197</ele>
        <time>2018-01-24T10:21:13Z</time>
      </trkpt>
      <trkpt lat="45.85698" lon="4.70247">
        <ele>197</ele>
        <time>2018-01-24T10:21:14Z</time>
      </trkpt>
      <trkpt lat="45.85697" lon="4.70238">
        <ele>197</ele>
        <time>2018-01-24T10:21:15Z</time>
      </trkpt>
      <trkpt lat="45.85697" lon="4.70229">
        <ele>197</ele>
        <time>2018-01-24T10:21:16Z</time>
      </trkpt>
      <trkpt lat="45.85697" lon="4.70222">
        <ele>197</ele>
        <time>2018-01-24T10:21:17Z</time>
      </trkpt>
      <trkpt lat="45.85696" lon="4.70216">
        <ele>197</ele>
        <time>2018-01-24T10:21:18Z</time>
      </trkpt>
      <trkpt lat="45.85696" lon="4.7021">
        <ele>197</ele>
        <time>2018-01-24T10:21:19Z</time>
      </trkpt>
      <trkpt lat="45.85695" lon="4.70203">
        <ele>197</ele>
        <time>2018-01-24T10:21:20Z</time>
      </trkpt>
      <trkpt lat="45.85692" lon="4.70196">
        <ele>197</ele>
        <time>2018-01-24T10:21:21Z</time>
      </trkpt>
      <trkpt lat="45.85692" lon="4.70185">
        <ele>197</ele>
        <time>2018-01-24T10:21:22Z</time>
      </trkpt>
      <trkpt lat="45.85689" lon="4.70175">
        <ele>197</ele>
        <time>2018-01-24T10:21:24Z</time>
      </trkpt>
      <trkpt lat="45.85687" lon="4.7017">
        <ele>197</ele>
        <time>2018-01-24T10:21:25Z</time>
      </trkpt>
      <trkpt lat="45.85686" lon="4.70163">
        <ele>197</ele>
        <time>2018-01-24T10:21:26Z</time>
      </trkpt>
      <trkpt lat="45.85683" lon="4.70156">
        <ele>197</ele>
        <time>2018-01-24T10:21:27Z</time>
      </trkpt>
      <trkpt lat="45.85682" lon="4.70149">
        <ele>197</ele>
        <time>2018-01-24T10:21:28Z</time>
      </trkpt>
      <trkpt lat="45.85681" lon="4.70142">
        <ele>197</ele>
        <time>2018-01-24T10:21:29Z</time>
      </trkpt>
      <trkpt lat="45.85679" lon="4.70135">
        <ele>197</ele>
        <time>2018-01-24T10:21:30Z</time>
      </trkpt>
      <trkpt lat="45.85678" lon="4.70128">
        <ele>197</ele>
        <time>2018-01-24T10:21:31Z</time>
      </trkpt>
      <trkpt lat="45.85678" lon="4.70119">
        <ele>197</ele>
        <time>2018-01-24T10:21:32Z</time>
      </trkpt>
      <trkpt lat="45.85678" lon="4.70111">
        <ele>197</ele>
        <time>2018-01-24T10:21:33Z</time>
      </trkpt>
      <trkpt lat="45.85677" lon="4.70103">
        <ele>196</ele>
        <time>2018-01-24T10:21:34Z</time>
      </trkpt>
      <trkpt lat="45.85678" lon="4.70096">
        <ele>196</ele>
        <time>2018-01-24T10:21:35Z</time>
      </trkpt>
      <trkpt lat="45.85678" lon="4.70089">
        <ele>196</ele>
        <time>2018-01-24T10:21:36Z</time>
      </trkpt>
      <trkpt lat="45.85679" lon="4.70082">
        <ele>196</ele>
        <time>2018-01-24T10:21:37Z</time>
      </trkpt>
      <trkpt lat="45.85681" lon="4.7007">
        <ele>196</ele>
        <time>2018-01-24T10:21:39Z</time>
      </trkpt>
      <trkpt lat="45.85682" lon="4.70065">
        <ele>196</ele>
        <time>2018-01-24T10:21:40Z</time>
      </trkpt>
      <trkpt lat="45.85684" lon="4.70056">
        <ele>195</ele>
        <time>2018-01-24T10:21:42Z</time>
      </trkpt>
      <trkpt lat="45.85686" lon="4.70052">
        <ele>195</ele>
        <time>2018-01-24T10:21:43Z</time>
      </trkpt>
      <trkpt lat="45.85689" lon="4.70041">
        <ele>195</ele>
        <time>2018-01-24T10:21:45Z</time>
      </trkpt>
      <trkpt lat="45.8569" lon="4.70036">
        <ele>195</ele>
        <time>2018-01-24T10:21:46Z</time>
      </trkpt>
      <trkpt lat="45.85692" lon="4.70024">
        <ele>195</ele>
        <time>2018-01-24T10:21:48Z</time>
      </trkpt>
      <trkpt lat="45.85693" lon="4.70016">
        <ele>195</ele>
        <time>2018-01-24T10:21:49Z</time>
      </trkpt>
      <trkpt lat="45.85694" lon="4.70008">
        <ele>195</ele>
        <time>2018-01-24T10:21:50Z</time>
      </trkpt>
      <trkpt lat="45.85694" lon="4.70002">
        <ele>195</ele>
        <time>2018-01-24T10:21:51Z</time>
      </trkpt>
      <trkpt lat="45.85695" lon="4.69992">
        <ele>195</ele>
        <time>2018-01-24T10:21:52Z</time>
      </trkpt>
      <trkpt lat="45.85694" lon="4.69984">
        <ele>195</ele>
        <time>2018-01-24T10:21:53Z</time>
      </trkpt>
      <trkpt lat="45.85693" lon="4.69975">
        <ele>195</ele>
        <time>2018-01-24T10:21:54Z</time>
      </trkpt>
      <trkpt lat="45.85692" lon="4.69964">
        <ele>195</ele>
        <time>2018-01-24T10:21:55Z</time>
      </trkpt>
      <trkpt lat="45.85691" lon="4.69957">
        <ele>195</ele>
        <time>2018-01-24T10:21:56Z</time>
      </trkpt>
      <trkpt lat="45.85688" lon="4.6995">
        <ele>195</ele>
        <time>2018-01-24T10:21:57Z</time>
      </trkpt>
      <trkpt lat="45.85686" lon="4.69941">
        <ele>195</ele>
        <time>2018-01-24T10:21:58Z</time>
      </trkpt>
      <trkpt lat="45.85685" lon="4.69931">
        <ele>195</ele>
        <time>2018-01-24T10:21:59Z</time>
      </trkpt>
      <trkpt lat="45.85682" lon="4.69924">
        <ele>195</ele>
        <time>2018-01-24T10:22:00Z</time>
      </trkpt>
      <trkpt lat="45.85679" lon="4.69917">
        <ele>195</ele>
        <time>2018-01-24T10:22:01Z</time>
      </trkpt>
      <trkpt lat="45.85676" lon="4.69909">
        <ele>195</ele>
        <time>2018-01-24T10:22:02Z</time>
      </trkpt>
      <trkpt lat="45.85675" lon="4.69902">
        <ele>195</ele>
        <time>2018-01-24T10:22:03Z</time>
      </trkpt>
      <trkpt lat="45.85674" lon="4.69894">
        <ele>195</ele>
        <time>2018-01-24T10:22:04Z</time>
      </trkpt>
      <trkpt lat="45.85671" lon="4.69889">
        <ele>195</ele>
        <time>2018-01-24T10:22:05Z</time>
      </trkpt>
      <trkpt lat="45.85669" lon="4.69878">
        <ele>195</ele>
        <time>2018-01-24T10:22:07Z</time>
      </trkpt>
      <trkpt lat="45.85668" lon="4.6987">
        <ele>195</ele>
        <time>2018-01-24T10:22:08Z</time>
      </trkpt>
      <trkpt lat="45.85666" lon="4.69863">
        <ele>195</ele>
        <time>2018-01-24T10:22:09Z</time>
      </trkpt>
      <trkpt lat="45.85666" lon="4.69855">
        <ele>195</ele>
        <time>2018-01-24T10:22:10Z</time>
      </trkpt>
      <trkpt lat="45.85665" lon="4.69846">
        <ele>195</ele>
        <time>2018-01-24T10:22:11Z</time>
      </trkpt>
      <trkpt lat="45.85664" lon="4.69839">
        <ele>195</ele>
        <time>2018-01-24T10:22:12Z</time>
      </trkpt>
      <trkpt lat="45.85663" lon="4.69832">
        <ele>195</ele>
        <time>2018-01-24T10:22:13Z</time>
      </trkpt>
      <trkpt lat="45.85661" lon="4.69824">
        <ele>195</ele>
        <time>2018-01-24T10:22:14Z</time>
      </trkpt>
      <trkpt lat="45.8566" lon="4.69815">
        <ele>195</ele>
        <time>2018-01-24T10:22:15Z</time>
      </trkpt>
      <trkpt lat="45.85659" lon="4.69808">
        <ele>195</ele>
        <time>2018-01-24T10:22:16Z</time>
      </trkpt>
      <trkpt lat="45.85659" lon="4.698">
        <ele>195</ele>
        <time>2018-01-24T10:22:17Z</time>
      </trkpt>
      <trkpt lat="45.85657" lon="4.69791">
        <ele>195</ele>
        <time>2018-01-24T10:22:18Z</time>
      </trkpt>
      <trkpt lat="45.85657" lon="4.69783">
        <ele>195</ele>
        <time>2018-01-24T10:22:19Z</time>
      </trkpt>
      <trkpt lat="45.85656" lon="4.69774">
        <ele>195</ele>
        <time>2018-01-24T10:22:20Z</time>
      </trkpt>
      <trkpt lat="45.85656" lon="4.69767">
        <ele>195</ele>
        <time>2018-01-24T10:22:21Z</time>
      </trkpt>
      <trkpt lat="45.85655" lon="4.69759">
        <ele>195</ele>
        <time>2018-01-24T10:22:22Z</time>
      </trkpt>
      <trkpt lat="45.85655" lon="4.69751">
        <ele>195</ele>
        <time>2018-01-24T10:22:23Z</time>
      </trkpt>
      <trkpt lat="45.85655" lon="4.69742">
        <ele>195</ele>
        <time>2018-01-24T10:22:24Z</time>
      </trkpt>
      <trkpt lat="45.85654" lon="4.69735">
        <ele>195</ele>
        <time>2018-01-24T10:22:25Z</time>
      </trkpt>
      <trkpt lat="45.85654" lon="4.69725">
        <ele>195</ele>
        <time>2018-01-24T10:22:26Z</time>
      </trkpt>
      <trkpt lat="45.85653" lon="4.69718">
        <ele>196</ele>
        <time>2018-01-24T10:22:27Z</time>
      </trkpt>
      <trkpt lat="45.85652" lon="4.69711">
        <ele>196</ele>
        <time>2018-01-24T10:22:28Z</time>
      </trkpt>
      <trkpt lat="45.85651" lon="4.69705">
        <ele>196</ele>
        <time>2018-01-24T10:22:29Z</time>
      </trkpt>
      <trkpt lat="45.8565" lon="4.69698">
        <ele>196</ele>
        <time>2018-01-24T10:22:30Z</time>
      </trkpt>
      <trkpt lat="45.85648" lon="4.69685">
        <ele>196</ele>
        <time>2018-01-24T10:22:32Z</time>
      </trkpt>
      <trkpt lat="45.85648" lon="4.69678">
        <ele>196</ele>
        <time>2018-01-24T10:22:33Z</time>
      </trkpt>
      <trkpt lat="45.85647" lon="4.69671">
        <ele>196</ele>
        <time>2018-01-24T10:22:34Z</time>
      </trkpt>
      <trkpt lat="45.85646" lon="4.69665">
        <ele>197</ele>
        <time>2018-01-24T10:22:35Z</time>
      </trkpt>
      <trkpt lat="45.85646" lon="4.69657">
        <ele>197</ele>
        <time>2018-01-24T10:22:36Z</time>
      </trkpt>
      <trkpt lat="45.85644" lon="4.69649">
        <ele>197</ele>
        <time>2018-01-24T10:22:37Z</time>
      </trkpt>
      <trkpt lat="45.85643" lon="4.69641">
        <ele>197</ele>
        <time>2018-01-24T10:22:38Z</time>
      </trkpt>
      <trkpt lat="45.85642" lon="4.69635">
        <ele>197</ele>
        <time>2018-01-24T10:22:39Z</time>
      </trkpt>
      <trkpt lat="45.85642" lon="4.69628">
        <ele>197</ele>
        <time>2018-01-24T10:22:40Z</time>
      </trkpt>
      <trkpt lat="45.85641" lon="4.69621">
        <ele>197</ele>
        <time>2018-01-24T10:22:41Z</time>
      </trkpt>
      <trkpt lat="45.85641" lon="4.69615">
        <ele>197</ele>
        <time>2018-01-24T10:22:42Z</time>
      </trkpt>
      <trkpt lat="45.8564" lon="4.69608">
        <ele>197</ele>
        <time>2018-01-24T10:22:43Z</time>
      </trkpt>
      <trkpt lat="45.85639" lon="4.69601">
        <ele>197</ele>
        <time>2018-01-24T10:22:44Z</time>
      </trkpt>
      <trkpt lat="45.85638" lon="4.69593">
        <ele>197</ele>
        <time>2018-01-24T10:22:45Z</time>
      </trkpt>
      <trkpt lat="45.85638" lon="4.69586">
        <ele>197</ele>
        <time>2018-01-24T10:22:46Z</time>
      </trkpt>
      <trkpt lat="45.85638" lon="4.69578">
        <ele>198</ele>
        <time>2018-01-24T10:22:47Z</time>
      </trkpt>
      <trkpt lat="45.85637" lon="4.69569">
        <ele>198</ele>
        <time>2018-01-24T10:22:48Z</time>
      </trkpt>
      <trkpt lat="45.85637" lon="4.69562">
        <ele>198</ele>
        <time>2018-01-24T10:22:49Z</time>
      </trkpt>
      <trkpt lat="45.85637" lon="4.69553">
        <ele>198</ele>
        <time>2018-01-24T10:22:50Z</time>
      </trkpt>
      <trkpt lat="45.85636" lon="4.69546">
        <ele>198</ele>
        <time>2018-01-24T10:22:51Z</time>
      </trkpt>
      <trkpt lat="45.85636" lon="4.6954">
        <ele>198</ele>
        <time>2018-01-24T10:22:52Z</time>
      </trkpt>
      <trkpt lat="45.85635" lon="4.69533">
        <ele>198</ele>
        <time>2018-01-24T10:22:53Z</time>
      </trkpt>
      <trkpt lat="45.85635" lon="4.6952">
        <ele>198</ele>
        <time>2018-01-24T10:22:55Z</time>
      </trkpt>
      <trkpt lat="45.85634" lon="4.69514">
        <ele>198</ele>
        <time>2018-01-24T10:22:56Z</time>
      </trkpt>
      <trkpt lat="45.85632" lon="4.69502">
        <ele>198</ele>
        <time>2018-01-24T10:22:58Z</time>
      </trkpt>
      <trkpt lat="45.85631" lon="4.69494">
        <ele>198</ele>
        <time>2018-01-24T10:22:59Z</time>
      </trkpt>
      <trkpt lat="45.85631" lon="4.69485">
        <ele>198</ele>
        <time>2018-01-24T10:23:00Z</time>
      </trkpt>
      <trkpt lat="45.8563" lon="4.69477">
        <ele>198</ele>
        <time>2018-01-24T10:23:01Z</time>
      </trkpt>
      <trkpt lat="45.8563" lon="4.69467">
        <ele>198</ele>
        <time>2018-01-24T10:23:02Z</time>
      </trkpt>
      <trkpt lat="45.85629" lon="4.69459">
        <ele>198</ele>
        <time>2018-01-24T10:23:03Z</time>
      </trkpt>
      <trkpt lat="45.85628" lon="4.69451">
        <ele>198</ele>
        <time>2018-01-24T10:23:04Z</time>
      </trkpt>
      <trkpt lat="45.85626" lon="4.69444">
        <ele>198</ele>
        <time>2018-01-24T10:23:05Z</time>
      </trkpt>
      <trkpt lat="45.85626" lon="4.69438">
        <ele>198</ele>
        <time>2018-01-24T10:23:06Z</time>
      </trkpt>
      <trkpt lat="45.85624" lon="4.69431">
        <ele>198</ele>
        <time>2018-01-24T10:23:07Z</time>
      </trkpt>
      <trkpt lat="45.85624" lon="4.69425">
        <ele>198</ele>
        <time>2018-01-24T10:23:08Z</time>
      </trkpt>
      <trkpt lat="45.85622" lon="4.69418">
        <ele>198</ele>
        <time>2018-01-24T10:23:09Z</time>
      </trkpt>
      <trkpt lat="45.85622" lon="4.69411">
        <ele>198</ele>
        <time>2018-01-24T10:23:10Z</time>
      </trkpt>
      <trkpt lat="45.8562" lon="4.69404">
        <ele>198</ele>
        <time>2018-01-24T10:23:11Z</time>
      </trkpt>
      <trkpt lat="45.85618" lon="4.69397">
        <ele>198</ele>
        <time>2018-01-24T10:23:12Z</time>
      </trkpt>
      <trkpt lat="45.85617" lon="4.69389">
        <ele>198</ele>
        <time>2018-01-24T10:23:13Z</time>
      </trkpt>
      <trkpt lat="45.85617" lon="4.69382">
        <ele>198</ele>
        <time>2018-01-24T10:23:14Z</time>
      </trkpt>
      <trkpt lat="45.85616" lon="4.69375">
        <ele>198</ele>
        <time>2018-01-24T10:23:15Z</time>
      </trkpt>
      <trkpt lat="45.85615" lon="4.69362">
        <ele>198</ele>
        <time>2018-01-24T10:23:17Z</time>
      </trkpt>
      <trkpt lat="45.85614" lon="4.69357">
        <ele>198</ele>
        <time>2018-01-24T10:23:18Z</time>
      </trkpt>
      <trkpt lat="45.85614" lon="4.6935">
        <ele>198</ele>
        <time>2018-01-24T10:23:19Z</time>
      </trkpt>
      <trkpt lat="45.85613" lon="4.69343">
        <ele>198</ele>
        <time>2018-01-24T10:23:20Z</time>
      </trkpt>
      <trkpt lat="45.85612" lon="4.69337">
        <ele>198</ele>
        <time>2018-01-24T10:23:21Z</time>
      </trkpt>
      <trkpt lat="45.85611" lon="4.6933">
        <ele>198</ele>
        <time>2018-01-24T10:23:22Z</time>
      </trkpt>
      <trkpt lat="45.85611" lon="4.69322">
        <ele>198</ele>
        <time>2018-01-24T10:23:23Z</time>
      </trkpt>
      <trkpt lat="45.8561" lon="4.69314">
        <ele>198</ele>
        <time>2018-01-24T10:23:24Z</time>
      </trkpt>
      <trkpt lat="45.8561" lon="4.69308">
        <ele>198</ele>
        <time>2018-01-24T10:23:25Z</time>
      </trkpt>
      <trkpt lat="45.85608" lon="4.69301">
        <ele>198</ele>
        <time>2018-01-24T10:23:26Z</time>
      </trkpt>
      <trkpt lat="45.85608" lon="4.69295">
        <ele>198</ele>
        <time>2018-01-24T10:23:27Z</time>
      </trkpt>
      <trkpt lat="45.85608" lon="4.69287">
        <ele>198</ele>
        <time>2018-01-24T10:23:28Z</time>
      </trkpt>
      <trkpt lat="45.85608" lon="4.6928">
        <ele>198</ele>
        <time>2018-01-24T10:23:29Z</time>
      </trkpt>
      <trkpt lat="45.8561" lon="4.69273">
        <ele>198</ele>
        <time>2018-01-24T10:23:30Z</time>
      </trkpt>
      <trkpt lat="45.85611" lon="4.69261">
        <ele>198</ele>
        <time>2018-01-24T10:23:32Z</time>
      </trkpt>
      <trkpt lat="45.8561" lon="4.69255">
        <ele>198</ele>
        <time>2018-01-24T10:23:33Z</time>
      </trkpt>
      <trkpt lat="45.85608" lon="4.69248">
        <ele>199</ele>
        <time>2018-01-24T10:23:34Z</time>
      </trkpt>
      <trkpt lat="45.85607" lon="4.69242">
        <ele>199</ele>
        <time>2018-01-24T10:23:35Z</time>
      </trkpt>
      <trkpt lat="45.85605" lon="4.69235">
        <ele>199</ele>
        <time>2018-01-24T10:23:36Z</time>
      </trkpt>
      <trkpt lat="45.85603" lon="4.69229">
        <ele>199</ele>
        <time>2018-01-24T10:23:37Z</time>
      </trkpt>
      <trkpt lat="45.85601" lon="4.69221">
        <ele>199</ele>
        <time>2018-01-24T10:23:38Z</time>
      </trkpt>
      <trkpt lat="45.85601" lon="4.69214">
        <ele>199</ele>
        <time>2018-01-24T10:23:39Z</time>
      </trkpt>
      <trkpt lat="45.85601" lon="4.69205">
        <ele>199</ele>
        <time>2018-01-24T10:23:40Z</time>
      </trkpt>
      <trkpt lat="45.85601" lon="4.69197">
        <ele>199</ele>
        <time>2018-01-24T10:23:41Z</time>
      </trkpt>
      <trkpt lat="45.85601" lon="4.69188">
        <ele>199</ele>
        <time>2018-01-24T10:23:42Z</time>
      </trkpt>
      <trkpt lat="45.85599" lon="4.69179">
        <ele>199</ele>
        <time>2018-01-24T10:23:43Z</time>
      </trkpt>
      <trkpt lat="45.85598" lon="4.6917">
        <ele>199</ele>
        <time>2018-01-24T10:23:44Z</time>
      </trkpt>
      <trkpt lat="45.85596" lon="4.69161">
        <ele>199</ele>
        <time>2018-01-24T10:23:45Z</time>
      </trkpt>
      <trkpt lat="45.85595" lon="4.69151">
        <ele>199</ele>
        <time>2018-01-24T10:23:46Z</time>
      </trkpt>
      <trkpt lat="45.85594" lon="4.69142">
        <ele>199</ele>
        <time>2018-01-24T10:23:47Z</time>
      </trkpt>
      <trkpt lat="45.85592" lon="4.69133">
        <ele>199</ele>
        <time>2018-01-24T10:23:48Z</time>
      </trkpt>
      <trkpt lat="45.85591" lon="4.69124">
        <ele>199</ele>
        <time>2018-01-24T10:23:49Z</time>
      </trkpt>
      <trkpt lat="45.85591" lon="4.69116">
        <ele>199</ele>
        <time>2018-01-24T10:23:50Z</time>
      </trkpt>
      <trkpt lat="45.8559" lon="4.69108">
        <ele>199</ele>
        <time>2018-01-24T10:23:51Z</time>
      </trkpt>
      <trkpt lat="45.8559" lon="4.69099">
        <ele>199</ele>
        <time>2018-01-24T10:23:52Z</time>
      </trkpt>
      <trkpt lat="45.8559" lon="4.69092">
        <ele>199</ele>
        <time>2018-01-24T10:23:53Z</time>
      </trkpt>
      <trkpt lat="45.8559" lon="4.69083">
        <ele>199</ele>
        <time>2018-01-24T10:23:54Z</time>
      </trkpt>
      <trkpt lat="45.85589" lon="4.69076">
        <ele>199</ele>
        <time>2018-01-24T10:23:55Z</time>
      </trkpt>
      <trkpt lat="45.85588" lon="4.69068">
        <ele>199</ele>
        <time>2018-01-24T10:23:56Z</time>
      </trkpt>
      <trkpt lat="45.85587" lon="4.6906">
        <ele>199</ele>
        <time>2018-01-24T10:23:57Z</time>
      </trkpt>
      <trkpt lat="45.85587" lon="4.69052">
        <ele>199</ele>
        <time>2018-01-24T10:23:58Z</time>
      </trkpt>
      <trkpt lat="45.85586" lon="4.69045">
        <ele>199</ele>
        <time>2018-01-24T10:23:59Z</time>
      </trkpt>
      <trkpt lat="45.85586" lon="4.69038">
        <ele>199</ele>
        <time>2018-01-24T10:24:00Z</time>
      </trkpt>
      <trkpt lat="45.85585" lon="4.69028">
        <ele>199</ele>
        <time>2018-01-24T10:24:01Z</time>
      </trkpt>
      <trkpt lat="45.85583" lon="4.6902">
        <ele>200</ele>
        <time>2018-01-24T10:24:02Z</time>
      </trkpt>
      <trkpt lat="45.85582" lon="4.69012">
        <ele>200</ele>
        <time>2018-01-24T10:24:03Z</time>
      </trkpt>
      <trkpt lat="45.85582" lon="4.69004">
        <ele>200</ele>
        <time>2018-01-24T10:24:04Z</time>
      </trkpt>
      <trkpt lat="45.8558" lon="4.68996">
        <ele>200</ele>
        <time>2018-01-24T10:24:05Z</time>
      </trkpt>
      <trkpt lat="45.85579" lon="4.68988">
        <ele>200</ele>
        <time>2018-01-24T10:24:06Z</time>
      </trkpt>
      <trkpt lat="45.85579" lon="4.68978">
        <ele>200</ele>
        <time>2018-01-24T10:24:07Z</time>
      </trkpt>
      <trkpt lat="45.85579" lon="4.68969">
        <ele>200</ele>
        <time>2018-01-24T10:24:08Z</time>
      </trkpt>
      <trkpt lat="45.85578" lon="4.68961">
        <ele>200</ele>
        <time>2018-01-24T10:24:09Z</time>
      </trkpt>
      <trkpt lat="45.85577" lon="4.68952">
        <ele>200</ele>
        <time>2018-01-24T10:24:10Z</time>
      </trkpt>
      <trkpt lat="45.85577" lon="4.68944">
        <ele>200</ele>
        <time>2018-01-24T10:24:11Z</time>
      </trkpt>
      <trkpt lat="45.85576" lon="4.68936">
        <ele>200</ele>
        <time>2018-01-24T10:24:12Z</time>
      </trkpt>
      <trkpt lat="45.85575" lon="4.68927">
        <ele>200</ele>
        <time>2018-01-24T10:24:13Z</time>
      </trkpt>
      <trkpt lat="45.85575" lon="4.68918">
        <ele>200</ele>
        <time>2018-01-24T10:24:14Z</time>
      </trkpt>
      <trkpt lat="45.85574" lon="4.6891">
        <ele>200</ele>
        <time>2018-01-24T10:24:15Z</time>
      </trkpt>
      <trkpt lat="45.85575" lon="4.689">
        <ele>200</ele>
        <time>2018-01-24T10:24:16Z</time>
      </trkpt>
      <trkpt lat="45.85574" lon="4.68892">
        <ele>200</ele>
        <time>2018-01-24T10:24:17Z</time>
      </trkpt>
      <trkpt lat="45.85574" lon="4.68885">
        <ele>200</ele>
        <time>2018-01-24T10:24:18Z</time>
      </trkpt>
      <trkpt lat="45.85573" lon="4.68877">
        <ele>200</ele>
        <time>2018-01-24T10:24:19Z</time>
      </trkpt>
      <trkpt lat="45.85571" lon="4.68869">
        <ele>200</ele>
        <time>2018-01-24T10:24:20Z</time>
      </trkpt>
      <trkpt lat="45.8557" lon="4.68861">
        <ele>200</ele>
        <time>2018-01-24T10:24:21Z</time>
      </trkpt>
      <trkpt lat="45.8557" lon="4.68853">
        <ele>200</ele>
        <time>2018-01-24T10:24:22Z</time>
      </trkpt>
      <trkpt lat="45.85569" lon="4.68845">
        <ele>200</ele>
        <time>2018-01-24T10:24:23Z</time>
      </trkpt>
      <trkpt lat="45.85569" lon="4.68837">
        <ele>200</ele>
        <time>2018-01-24T10:24:24Z</time>
      </trkpt>
      <trkpt lat="45.85567" lon="4.68828">
        <ele>200</ele>
        <time>2018-01-24T10:24:25Z</time>
      </trkpt>
      <trkpt lat="45.85566" lon="4.6882">
        <ele>200</ele>
        <time>2018-01-24T10:24:26Z</time>
      </trkpt>
      <trkpt lat="45.85566" lon="4.68812">
        <ele>200</ele>
        <time>2018-01-24T10:24:27Z</time>
      </trkpt>
      <trkpt lat="45.85565" lon="4.68803">
        <ele>200</ele>
        <time>2018-01-24T10:24:28Z</time>
      </trkpt>
      <trkpt lat="45.85564" lon="4.68793">
        <ele>200</ele>
        <time>2018-01-24T10:24:29Z</time>
      </trkpt>
      <trkpt lat="45.85563" lon="4.68783">
        <ele>200</ele>
        <time>2018-01-24T10:24:30Z</time>
      </trkpt>
      <trkpt lat="45.85563" lon="4.68773">
        <ele>200</ele>
        <time>2018-01-24T10:24:31Z</time>
      </trkpt>
      <trkpt lat="45.85561" lon="4.68761">
        <ele>200</ele>
        <time>2018-01-24T10:24:32Z</time>
      </trkpt>
      <trkpt lat="45.8556" lon="4.68751">
        <ele>200</ele>
        <time>2018-01-24T10:24:33Z</time>
      </trkpt>
      <trkpt lat="45.8556" lon="4.68743">
        <ele>200</ele>
        <time>2018-01-24T10:24:34Z</time>
      </trkpt>
      <trkpt lat="45.85559" lon="4.68735">
        <ele>200</ele>
        <time>2018-01-24T10:24:35Z</time>
      </trkpt>
      <trkpt lat="45.85558" lon="4.68727">
        <ele>200</ele>
        <time>2018-01-24T10:24:36Z</time>
      </trkpt>
      <trkpt lat="45.85558" lon="4.68719">
        <ele>200</ele>
        <time>2018-01-24T10:24:37Z</time>
      </trkpt>
      <trkpt lat="45.85558" lon="4.68713">
        <ele>200</ele>
        <time>2018-01-24T10:24:38Z</time>
      </trkpt>
      <trkpt lat="45.85557" lon="4.68706">
        <ele>200</ele>
        <time>2018-01-24T10:24:39Z</time>
      </trkpt>
      <trkpt lat="45.85555" lon="4.68698">
        <ele>200</ele>
        <time>2018-01-24T10:24:40Z</time>
      </trkpt>
      <trkpt lat="45.85555" lon="4.68689">
        <ele>200</ele>
        <time>2018-01-24T10:24:41Z</time>
      </trkpt>
      <trkpt lat="45.85554" lon="4.68682">
        <ele>200</ele>
        <time>2018-01-24T10:24:42Z</time>
      </trkpt>
      <trkpt lat="45.85553" lon="4.68674">
        <ele>200</ele>
        <time>2018-01-24T10:24:43Z</time>
      </trkpt>
      <trkpt lat="45.85552" lon="4.68666">
        <ele>200</ele>
        <time>2018-01-24T10:24:44Z</time>
      </trkpt>
      <trkpt lat="45.85551" lon="4.68657">
        <ele>200</ele>
        <time>2018-01-24T10:24:45Z</time>
      </trkpt>
      <trkpt lat="45.8555" lon="4.68648">
        <ele>201</ele>
        <time>2018-01-24T10:24:46Z</time>
      </trkpt>
      <trkpt lat="45.85549" lon="4.6864">
        <ele>201</ele>
        <time>2018-01-24T10:24:47Z</time>
      </trkpt>
      <trkpt lat="45.85549" lon="4.68631">
        <ele>201</ele>
        <time>2018-01-24T10:24:48Z</time>
      </trkpt>
      <trkpt lat="45.85549" lon="4.68624">
        <ele>201</ele>
        <time>2018-01-24T10:24:49Z</time>
      </trkpt>
      <trkpt lat="45.85548" lon="4.68615">
        <ele>201</ele>
        <time>2018-01-24T10:24:50Z</time>
      </trkpt>
      <trkpt lat="45.85547" lon="4.68607">
        <ele>201</ele>
        <time>2018-01-24T10:24:51Z</time>
      </trkpt>
      <trkpt lat="45.85546" lon="4.686">
        <ele>201</ele>
        <time>2018-01-24T10:24:52Z</time>
      </trkpt>
      <trkpt lat="45.85546" lon="4.68594">
        <ele>201</ele>
        <time>2018-01-24T10:24:53Z</time>
      </trkpt>
      <trkpt lat="45.85545" lon="4.68587">
        <ele>201</ele>
        <time>2018-01-24T10:24:54Z</time>
      </trkpt>
      <trkpt lat="45.85544" lon="4.6858">
        <ele>201</ele>
        <time>2018-01-24T10:24:55Z</time>
      </trkpt>
      <trkpt lat="45.85543" lon="4.68567">
        <ele>201</ele>
        <time>2018-01-24T10:24:57Z</time>
      </trkpt>
      <trkpt lat="45.85543" lon="4.68558">
        <ele>201</ele>
        <time>2018-01-24T10:24:58Z</time>
      </trkpt>
      <trkpt lat="45.85542" lon="4.6855">
        <ele>201</ele>
        <time>2018-01-24T10:24:59Z</time>
      </trkpt>
      <trkpt lat="45.85542" lon="4.68542">
        <ele>201</ele>
        <time>2018-01-24T10:25:00Z</time>
      </trkpt>
      <trkpt lat="45.85541" lon="4.68535">
        <ele>201</ele>
        <time>2018-01-24T10:25:01Z</time>
      </trkpt>
      <trkpt lat="45.85539" lon="4.68526">
        <ele>201</ele>
        <time>2018-01-24T10:25:02Z</time>
      </trkpt>
      <trkpt lat="45.8554" lon="4.68515">
        <ele>201</ele>
        <time>2018-01-24T10:25:03Z</time>
      </trkpt>
      <trkpt lat="45.85539" lon="4.68507">
        <ele>201</ele>
        <time>2018-01-24T10:25:04Z</time>
      </trkpt>
      <trkpt lat="45.85539" lon="4.68499">
        <ele>200</ele>
        <time>2018-01-24T10:25:05Z</time>
      </trkpt>
      <trkpt lat="45.85538" lon="4.68492">
        <ele>200</ele>
        <time>2018-01-24T10:25:06Z</time>
      </trkpt>
      <trkpt lat="45.85537" lon="4.68484">
        <ele>200</ele>
        <time>2018-01-24T10:25:07Z</time>
      </trkpt>
      <trkpt lat="45.85536" lon="4.68478">
        <ele>200</ele>
        <time>2018-01-24T10:25:08Z</time>
      </trkpt>
      <trkpt lat="45.85535" lon="4.68467">
        <ele>200</ele>
        <time>2018-01-24T10:25:10Z</time>
      </trkpt>
      <trkpt lat="45.85535" lon="4.68461">
        <ele>200</ele>
        <time>2018-01-24T10:25:11Z</time>
      </trkpt>
      <trkpt lat="45.85534" lon="4.68455">
        <ele>200</ele>
        <time>2018-01-24T10:25:12Z</time>
      </trkpt>
      <trkpt lat="45.85534" lon="4.68447">
        <ele>200</ele>
        <time>2018-01-24T10:25:13Z</time>
      </trkpt>
      <trkpt lat="45.85533" lon="4.68435">
        <ele>200</ele>
        <time>2018-01-24T10:25:15Z</time>
      </trkpt>
      <trkpt lat="45.85532" lon="4.68428">
        <ele>200</ele>
        <time>2018-01-24T10:25:16Z</time>
      </trkpt>
      <trkpt lat="45.85532" lon="4.68421">
        <ele>200</ele>
        <time>2018-01-24T10:25:17Z</time>
      </trkpt>
      <trkpt lat="45.8553" lon="4.68414">
        <ele>200</ele>
        <time>2018-01-24T10:25:18Z</time>
      </trkpt>
      <trkpt lat="45.8553" lon="4.68404">
        <ele>200</ele>
        <time>2018-01-24T10:25:19Z</time>
      </trkpt>
      <trkpt lat="45.85528" lon="4.68396">
        <ele>200</ele>
        <time>2018-01-24T10:25:20Z</time>
      </trkpt>
      <trkpt lat="45.85528" lon="4.68389">
        <ele>200</ele>
        <time>2018-01-24T10:25:21Z</time>
      </trkpt>
      <trkpt lat="45.85527" lon="4.6838">
        <ele>201</ele>
        <time>2018-01-24T10:25:22Z</time>
      </trkpt>
      <trkpt lat="45.85527" lon="4.68372">
        <ele>201</ele>
        <time>2018-01-24T10:25:23Z</time>
      </trkpt>
      <trkpt lat="45.85526" lon="4.68364">
        <ele>201</ele>
        <time>2018-01-24T10:25:24Z</time>
      </trkpt>
      <trkpt lat="45.85526" lon="4.68356">
        <ele>201</ele>
        <time>2018-01-24T10:25:25Z</time>
      </trkpt>
      <trkpt lat="45.85525" lon="4.68349">
        <ele>201</ele>
        <time>2018-01-24T10:25:26Z</time>
      </trkpt>
      <trkpt lat="45.85524" lon="4.68343">
        <ele>201</ele>
        <time>2018-01-24T10:25:27Z</time>
      </trkpt>
      <trkpt lat="45.85523" lon="4.68336">
        <ele>201</ele>
        <time>2018-01-24T10:25:28Z</time>
      </trkpt>
      <trkpt lat="45.85523" lon="4.68329">
        <ele>202</ele>
        <time>2018-01-24T10:25:29Z</time>
      </trkpt>
      <trkpt lat="45.85523" lon="4.68323">
        <ele>202</ele>
        <time>2018-01-24T10:25:30Z</time>
      </trkpt>
      <trkpt lat="45.85523" lon="4.68315">
        <ele>202</ele>
        <time>2018-01-24T10:25:31Z</time>
      </trkpt>
      <trkpt lat="45.85523" lon="4.68308">
        <ele>202</ele>
        <time>2018-01-24T10:25:32Z</time>
      </trkpt>
      <trkpt lat="45.85523" lon="4.683">
        <ele>202</ele>
        <time>2018-01-24T10:25:33Z</time>
      </trkpt>
      <trkpt lat="45.85522" lon="4.68292">
        <ele>202</ele>
        <time>2018-01-24T10:25:34Z</time>
      </trkpt>
      <trkpt lat="45.85521" lon="4.68284">
        <ele>202</ele>
        <time>2018-01-24T10:25:35Z</time>
      </trkpt>
      <trkpt lat="45.85521" lon="4.68277">
        <ele>202</ele>
        <time>2018-01-24T10:25:36Z</time>
      </trkpt>
      <trkpt lat="45.85519" lon="4.6827">
        <ele>202</ele>
        <time>2018-01-24T10:25:37Z</time>
      </trkpt>
      <trkpt lat="45.85518" lon="4.68263">
        <ele>202</ele>
        <time>2018-01-24T10:25:38Z</time>
      </trkpt>
      <trkpt lat="45.85517" lon="4.68251">
        <ele>203</ele>
        <time>2018-01-24T10:25:40Z</time>
      </trkpt>
      <trkpt lat="45.85516" lon="4.68245">
        <ele>203</ele>
        <time>2018-01-24T10:25:41Z</time>
      </trkpt>
      <trkpt lat="45.85516" lon="4.68234">
        <ele>203</ele>
        <time>2018-01-24T10:25:43Z</time>
      </trkpt>
      <trkpt lat="45.85516" lon="4.68228">
        <ele>203</ele>
        <time>2018-01-24T10:25:44Z</time>
      </trkpt>
      <trkpt lat="45.85513" lon="4.68217">
        <ele>203</ele>
        <time>2018-01-24T10:25:46Z</time>
      </trkpt>
      <trkpt lat="45.85512" lon="4.68212">
        <ele>203</ele>
        <time>2018-01-24T10:25:47Z</time>
      </trkpt>
      <trkpt lat="45.85511" lon="4.68205">
        <ele>203</ele>
        <time>2018-01-24T10:25:48Z</time>
      </trkpt>
      <trkpt lat="45.8551" lon="4.68198">
        <ele>203</ele>
        <time>2018-01-24T10:25:49Z</time>
      </trkpt>
      <trkpt lat="45.85508" lon="4.68192">
        <ele>203</ele>
        <time>2018-01-24T10:25:50Z</time>
      </trkpt>
      <trkpt lat="45.8551" lon="4.6818">
        <ele>204</ele>
        <time>2018-01-24T10:25:51Z</time>
      </trkpt>
      <trkpt lat="45.85508" lon="4.68174">
        <ele>204</ele>
        <time>2018-01-24T10:25:52Z</time>
      </trkpt>
      <trkpt lat="45.85507" lon="4.68167">
        <ele>204</ele>
        <time>2018-01-24T10:25:53Z</time>
      </trkpt>
      <trkpt lat="45.85505" lon="4.68159">
        <ele>204</ele>
        <time>2018-01-24T10:25:54Z</time>
      </trkpt>
      <trkpt lat="45.85505" lon="4.68151">
        <ele>203</ele>
        <time>2018-01-24T10:25:55Z</time>
      </trkpt>
      <trkpt lat="45.85505" lon="4.68143">
        <ele>203</ele>
        <time>2018-01-24T10:25:56Z</time>
      </trkpt>
      <trkpt lat="45.85505" lon="4.68135">
        <ele>203</ele>
        <time>2018-01-24T10:25:57Z</time>
      </trkpt>
      <trkpt lat="45.85503" lon="4.68122">
        <ele>203</ele>
        <time>2018-01-24T10:25:59Z</time>
      </trkpt>
      <trkpt lat="45.85503" lon="4.68116">
        <ele>203</ele>
        <time>2018-01-24T10:26:00Z</time>
      </trkpt>
      <trkpt lat="45.85503" lon="4.68109">
        <ele>203</ele>
        <time>2018-01-24T10:26:01Z</time>
      </trkpt>
      <trkpt lat="45.85502" lon="4.68101">
        <ele>203</ele>
        <time>2018-01-24T10:26:02Z</time>
      </trkpt>
      <trkpt lat="45.85501" lon="4.68088">
        <ele>204</ele>
        <time>2018-01-24T10:26:04Z</time>
      </trkpt>
      <trkpt lat="45.855" lon="4.68085">
        <ele>204</ele>
        <time>2018-01-24T10:26:05Z</time>
      </trkpt>
      <trkpt lat="45.85499" lon="4.68075">
        <ele>205</ele>
        <time>2018-01-24T10:26:07Z</time>
      </trkpt>
      <trkpt lat="45.85499" lon="4.6807">
        <ele>205</ele>
        <time>2018-01-24T10:26:08Z</time>
      </trkpt>
      <trkpt lat="45.85499" lon="4.68059">
        <ele>206</ele>
        <time>2018-01-24T10:26:10Z</time>
      </trkpt>
      <trkpt lat="45.85498" lon="4.68052">
        <ele>206</ele>
        <time>2018-01-24T10:26:11Z</time>
      </trkpt>
      <trkpt lat="45.85496" lon="4.6804">
        <ele>206</ele>
        <time>2018-01-24T10:26:13Z</time>
      </trkpt>
      <trkpt lat="45.85496" lon="4.68034">
        <ele>207</ele>
        <time>2018-01-24T10:26:14Z</time>
      </trkpt>
      <trkpt lat="45.85494" lon="4.68023">
        <ele>207</ele>
        <time>2018-01-24T10:26:16Z</time>
      </trkpt>
      <trkpt lat="45.85495" lon="4.68017">
        <ele>207</ele>
        <time>2018-01-24T10:26:17Z</time>
      </trkpt>
      <trkpt lat="45.85499" lon="4.68006">
        <ele>206</ele>
        <time>2018-01-24T10:26:19Z</time>
      </trkpt>
      <trkpt lat="45.85502" lon="4.68">
        <ele>206</ele>
        <time>2018-01-24T10:26:20Z</time>
      </trkpt>
      <trkpt lat="45.85505" lon="4.67995">
        <ele>206</ele>
        <time>2018-01-24T10:26:21Z</time>
      </trkpt>
      <trkpt lat="45.85509" lon="4.6799">
        <ele>206</ele>
        <time>2018-01-24T10:26:22Z</time>
      </trkpt>
      <trkpt lat="45.85513" lon="4.67987">
        <ele>206</ele>
        <time>2018-01-24T10:26:23Z</time>
      </trkpt>
      <trkpt lat="45.85517" lon="4.67982">
        <ele>206</ele>
        <time>2018-01-24T10:26:24Z</time>
      </trkpt>
      <trkpt lat="45.85522" lon="4.67978">
        <ele>205</ele>
        <time>2018-01-24T10:26:25Z</time>
      </trkpt>
      <trkpt lat="45.85527" lon="4.67973">
        <ele>205</ele>
        <time>2018-01-24T10:26:26Z</time>
      </trkpt>
      <trkpt lat="45.85531" lon="4.67969">
        <ele>205</ele>
        <time>2018-01-24T10:26:27Z</time>
      </trkpt>
      <trkpt lat="45.85536" lon="4.67965">
        <ele>205</ele>
        <time>2018-01-24T10:26:28Z</time>
      </trkpt>
      <trkpt lat="45.8554" lon="4.67959">
        <ele>205</ele>
        <time>2018-01-24T10:26:29Z</time>
      </trkpt>
      <trkpt lat="45.85544" lon="4.67955">
        <ele>205</ele>
        <time>2018-01-24T10:26:30Z</time>
      </trkpt>
      <trkpt lat="45.85548" lon="4.67952">
        <ele>205</ele>
        <time>2018-01-24T10:26:31Z</time>
      </trkpt>
      <trkpt lat="45.85552" lon="4.6795">
        <ele>205</ele>
        <time>2018-01-24T10:26:32Z</time>
      </trkpt>
      <trkpt lat="45.85559" lon="4.67942">
        <ele>205</ele>
        <time>2018-01-24T10:26:34Z</time>
      </trkpt>
      <trkpt lat="45.85562" lon="4.67937">
        <ele>205</ele>
        <time>2018-01-24T10:26:35Z</time>
      </trkpt>
      <trkpt lat="45.85568" lon="4.67931">
        <ele>205</ele>
        <time>2018-01-24T10:26:37Z</time>
      </trkpt>
      <trkpt lat="45.85571" lon="4.6793">
        <ele>205</ele>
        <time>2018-01-24T10:26:38Z</time>
      </trkpt>
      <trkpt lat="45.85577" lon="4.67936">
        <ele>205</ele>
        <time>2018-01-24T10:26:40Z</time>
      </trkpt>
      <trkpt lat="45.8558" lon="4.6794">
        <ele>205</ele>
        <time>2018-01-24T10:26:41Z</time>
      </trkpt>
      <trkpt lat="45.85583" lon="4.67946">
        <ele>204</ele>
        <time>2018-01-24T10:26:42Z</time>
      </trkpt>
      <trkpt lat="45.85587" lon="4.67951">
        <ele>203</ele>
        <time>2018-01-24T10:26:43Z</time>
      </trkpt>
      <trkpt lat="45.8559" lon="4.67957">
        <ele>203</ele>
        <time>2018-01-24T10:26:44Z</time>
      </trkpt>
      <trkpt lat="45.85593" lon="4.67963">
        <ele>203</ele>
        <time>2018-01-24T10:26:45Z</time>
      </trkpt>
      <trkpt lat="45.85596" lon="4.67973">
        <ele>203</ele>
        <time>2018-01-24T10:26:47Z</time>
      </trkpt>
      <trkpt lat="45.85598" lon="4.67979">
        <ele>203</ele>
        <time>2018-01-24T10:26:48Z</time>
      </trkpt>
      <trkpt lat="45.85602" lon="4.67989">
        <ele>202</ele>
        <time>2018-01-24T10:26:50Z</time>
      </trkpt>
      <trkpt lat="45.85604" lon="4.67994">
        <ele>202</ele>
        <time>2018-01-24T10:26:51Z</time>
      </trkpt>
      <trkpt lat="45.85607" lon="4.68003">
        <ele>201</ele>
        <time>2018-01-24T10:26:53Z</time>
      </trkpt>
      <trkpt lat="45.85608" lon="4.68008">
        <ele>201</ele>
        <time>2018-01-24T10:26:54Z</time>
      </trkpt>
      <trkpt lat="45.85612" lon="4.68017">
        <ele>201</ele>
        <time>2018-01-24T10:26:57Z</time>
      </trkpt>
      <trkpt lat="45.85613" lon="4.6802">
        <ele>201</ele>
        <time>2018-01-24T10:26:58Z</time>
      </trkpt>
      <trkpt lat="45.85614" lon="4.68032">
        <ele>201</ele>
        <time>2018-01-24T10:27:18Z</time>
      </trkpt>
      <trkpt lat="45.85615" lon="4.68033">
        <ele>201</ele>
        <time>2018-01-24T10:27:19Z</time>
      </trkpt>
      <trkpt lat="45.85617" lon="4.68035">
        <ele>201</ele>
        <time>2018-01-24T10:28:43Z</time>
      </trkpt>
      <trkpt lat="45.85616" lon="4.68034">
        <ele>201</ele>
        <time>2018-01-24T10:28:44Z</time>
      </trkpt>
      <trkpt lat="45.85614" lon="4.68032">
        <ele>201</ele>
        <time>2018-01-24T10:31:34Z</time>
      </trkpt>
      <trkpt lat="45.85614" lon="4.68032">
        <ele>201</ele>
        <time>2018-01-24T10:31:35Z</time>
      </trkpt>
      <trkpt lat="45.85616" lon="4.68035">
        <ele>201</ele>
        <time>2018-01-24T10:34:06Z</time>
      </trkpt>
      <trkpt lat="45.85616" lon="4.68035">
        <ele>201</ele>
        <time>2018-01-24T10:34:07Z</time>
      </trkpt>
      <trkpt lat="45.85616" lon="4.68035">
        <ele>201</ele>
        <time>2018-01-24T10:34:08Z</time>
      </trkpt>
      <trkpt lat="45.85616" lon="4.68035">
        <ele>201</ele>
        <time>2018-01-24T10:34:09Z</time>
      </trkpt>
      <trkpt lat="45.85614" lon="4.68036">
        <ele>201</ele>
        <time>2018-01-24T10:34:13Z</time>
      </trkpt>
      <trkpt lat="45.85614" lon="4.68036">
        <ele>201</ele>
        <time>2018-01-24T10:34:14Z</time>
      </trkpt>
      <trkpt lat="45.85613" lon="4.68039">
        <ele>200</ele>
        <time>2018-01-24T10:34:19Z</time>
      </trkpt>
      <trkpt lat="45.85613" lon="4.68039">
        <ele>200</ele>
        <time>2018-01-24T10:34:20Z</time>
      </trkpt>
      <trkpt lat="45.85612" lon="4.68034">
        <ele>201</ele>
        <time>2018-01-24T10:38:19.216Z</time>
      </trkpt>
      <trkpt lat="45.85603" lon="4.68032">
        <ele>201</ele>
        <time>2018-01-24T10:38:25.755Z</time>
      </trkpt>
      <trkpt lat="45.85636" lon="4.68043">
        <ele>201</ele>
        <time>2018-01-24T10:38:26Z</time>
      </trkpt>
      <trkpt lat="45.8562" lon="4.68032">
        <ele>201</ele>
        <time>2018-01-24T10:38:27Z</time>
      </trkpt>
      <trkpt lat="45.85617" lon="4.6802">
        <ele>201</ele>
        <time>2018-01-24T10:41:42Z</time>
      </trkpt>
      <trkpt lat="45.85615" lon="4.68017">
        <ele>201</ele>
        <time>2018-01-24T10:41:43Z</time>
      </trkpt>
      <trkpt lat="45.85612" lon="4.68009">
        <ele>201</ele>
        <time>2018-01-24T10:41:46Z</time>
      </trkpt>
      <trkpt lat="45.85611" lon="4.68006">
        <ele>201</ele>
        <time>2018-01-24T10:41:47Z</time>
      </trkpt>
      <trkpt lat="45.85606" lon="4.67997">
        <ele>202</ele>
        <time>2018-01-24T10:41:50Z</time>
      </trkpt>
      <trkpt lat="45.85605" lon="4.67994">
        <ele>202</ele>
        <time>2018-01-24T10:41:51Z</time>
      </trkpt>
      <trkpt lat="45.856" lon="4.67983">
        <ele>203</ele>
        <time>2018-01-24T10:41:55Z</time>
      </trkpt>
      <trkpt lat="45.85599" lon="4.6798">
        <ele>203</ele>
        <time>2018-01-24T10:41:56Z</time>
      </trkpt>
      <trkpt lat="45.85597" lon="4.6797">
        <ele>203</ele>
        <time>2018-01-24T10:41:59Z</time>
      </trkpt>
      <trkpt lat="45.85595" lon="4.67966">
        <ele>203</ele>
        <time>2018-01-24T10:42:00Z</time>
      </trkpt>
      <trkpt lat="45.85592" lon="4.67958">
        <ele>203</ele>
        <time>2018-01-24T10:42:02Z</time>
      </trkpt>
      <trkpt lat="45.85591" lon="4.67953">
        <ele>203</ele>
        <time>2018-01-24T10:42:03Z</time>
      </trkpt>
      <trkpt lat="45.85589" lon="4.67944">
        <ele>204</ele>
        <time>2018-01-24T10:42:05Z</time>
      </trkpt>
      <trkpt lat="45.85588" lon="4.6794">
        <ele>204</ele>
        <time>2018-01-24T10:42:06Z</time>
      </trkpt>
      <trkpt lat="45.85585" lon="4.67928">
        <ele>204</ele>
        <time>2018-01-24T10:42:09Z</time>
      </trkpt>
      <trkpt lat="45.85584" lon="4.67924">
        <ele>204</ele>
        <time>2018-01-24T10:42:10Z</time>
      </trkpt>
      <trkpt lat="45.85579" lon="4.67916">
        <ele>205</ele>
        <time>2018-01-24T10:42:12Z</time>
      </trkpt>
      <trkpt lat="45.85576" lon="4.67914">
        <ele>205</ele>
        <time>2018-01-24T10:42:13Z</time>
      </trkpt>
      <trkpt lat="45.85569" lon="4.67919">
        <ele>205</ele>
        <time>2018-01-24T10:42:15Z</time>
      </trkpt>
      <trkpt lat="45.85566" lon="4.67924">
        <ele>205</ele>
        <time>2018-01-24T10:42:16Z</time>
      </trkpt>
      <trkpt lat="45.8556" lon="4.67933">
        <ele>205</ele>
        <time>2018-01-24T10:42:18Z</time>
      </trkpt>
      <trkpt lat="45.85557" lon="4.67937">
        <ele>205</ele>
        <time>2018-01-24T10:42:19Z</time>
      </trkpt>
      <trkpt lat="45.85553" lon="4.67941">
        <ele>205</ele>
        <time>2018-01-24T10:42:20Z</time>
      </trkpt>
      <trkpt lat="45.85549" lon="4.67945">
        <ele>205</ele>
        <time>2018-01-24T10:42:21Z</time>
      </trkpt>
      <trkpt lat="45.85545" lon="4.67949">
        <ele>205</ele>
        <time>2018-01-24T10:42:22Z</time>
      </trkpt>
      <trkpt lat="45.85542" lon="4.67953">
        <ele>205</ele>
        <time>2018-01-24T10:42:23Z</time>
      </trkpt>
      <trkpt lat="45.85535" lon="4.6796">
        <ele>205</ele>
        <time>2018-01-24T10:42:25Z</time>
      </trkpt>
      <trkpt lat="45.85532" lon="4.67963">
        <ele>205</ele>
        <time>2018-01-24T10:42:26Z</time>
      </trkpt>
      <trkpt lat="45.85526" lon="4.67968">
        <ele>206</ele>
        <time>2018-01-24T10:42:28Z</time>
      </trkpt>
      <trkpt lat="45.85522" lon="4.67973">
        <ele>206</ele>
        <time>2018-01-24T10:42:29Z</time>
      </trkpt>
      <trkpt lat="45.85516" lon="4.67979">
        <ele>206</ele>
        <time>2018-01-24T10:42:31Z</time>
      </trkpt>
      <trkpt lat="45.85512" lon="4.67982">
        <ele>206</ele>
        <time>2018-01-24T10:42:32Z</time>
      </trkpt>
      <trkpt lat="45.85506" lon="4.67989">
        <ele>206</ele>
        <time>2018-01-24T10:42:34Z</time>
      </trkpt>
      <trkpt lat="45.85503" lon="4.67993">
        <ele>206</ele>
        <time>2018-01-24T10:42:35Z</time>
      </trkpt>
      <trkpt lat="45.85497" lon="4.68">
        <ele>207</ele>
        <time>2018-01-24T10:42:37Z</time>
      </trkpt>
      <trkpt lat="45.85494" lon="4.68003">
        <ele>206</ele>
        <time>2018-01-24T10:42:38Z</time>
      </trkpt>
      <trkpt lat="45.85488" lon="4.68009">
        <ele>207</ele>
        <time>2018-01-24T10:42:40Z</time>
      </trkpt>
      <trkpt lat="45.85486" lon="4.68012">
        <ele>207</ele>
        <time>2018-01-24T10:42:41Z</time>
      </trkpt>
      <trkpt lat="45.85484" lon="4.68022">
        <ele>207</ele>
        <time>2018-01-24T10:42:43Z</time>
      </trkpt>
      <trkpt lat="45.85486" lon="4.68029">
        <ele>207</ele>
        <time>2018-01-24T10:42:44Z</time>
      </trkpt>
      <trkpt lat="45.8549" lon="4.68038">
        <ele>207</ele>
        <time>2018-01-24T10:42:45Z</time>
      </trkpt>
      <trkpt lat="45.85492" lon="4.68044">
        <ele>206</ele>
        <time>2018-01-24T10:42:46Z</time>
      </trkpt>
      <trkpt lat="45.85494" lon="4.6805">
        <ele>206</ele>
        <time>2018-01-24T10:42:47Z</time>
      </trkpt>
      <trkpt lat="45.85494" lon="4.68057">
        <ele>206</ele>
        <time>2018-01-24T10:42:48Z</time>
      </trkpt>
      <trkpt lat="45.85497" lon="4.68068">
        <ele>205</ele>
        <time>2018-01-24T10:42:50Z</time>
      </trkpt>
      <trkpt lat="45.85497" lon="4.68074">
        <ele>205</ele>
        <time>2018-01-24T10:42:51Z</time>
      </trkpt>
      <trkpt lat="45.85499" lon="4.68084">
        <ele>204</ele>
        <time>2018-01-24T10:42:53Z</time>
      </trkpt>
      <trkpt lat="45.85499" lon="4.68089">
        <ele>204</ele>
        <time>2018-01-24T10:42:54Z</time>
      </trkpt>
      <trkpt lat="45.85499" lon="4.68099">
        <ele>204</ele>
        <time>2018-01-24T10:42:56Z</time>
      </trkpt>
      <trkpt lat="45.855" lon="4.68106">
        <ele>204</ele>
        <time>2018-01-24T10:42:57Z</time>
      </trkpt>
      <trkpt lat="45.85498" lon="4.68113">
        <ele>204</ele>
        <time>2018-01-24T10:42:58Z</time>
      </trkpt>
      <trkpt lat="45.85499" lon="4.68121">
        <ele>204</ele>
        <time>2018-01-24T10:42:59Z</time>
      </trkpt>
      <trkpt lat="45.85499" lon="4.68129">
        <ele>204</ele>
        <time>2018-01-24T10:43:00Z</time>
      </trkpt>
      <trkpt lat="45.855" lon="4.68137">
        <ele>203</ele>
        <time>2018-01-24T10:43:01Z</time>
      </trkpt>
      <trkpt lat="45.85502" lon="4.68146">
        <ele>203</ele>
        <time>2018-01-24T10:43:02Z</time>
      </trkpt>
      <trkpt lat="45.85502" lon="4.68156">
        <ele>204</ele>
        <time>2018-01-24T10:43:03Z</time>
      </trkpt>
      <trkpt lat="45.85502" lon="4.68165">
        <ele>204</ele>
        <time>2018-01-24T10:43:04Z</time>
      </trkpt>
      <trkpt lat="45.85504" lon="4.68174">
        <ele>204</ele>
        <time>2018-01-24T10:43:05Z</time>
      </trkpt>
      <trkpt lat="45.85504" lon="4.68184">
        <ele>204</ele>
        <time>2018-01-24T10:43:06Z</time>
      </trkpt>
      <trkpt lat="45.85505" lon="4.68193">
        <ele>203</ele>
        <time>2018-01-24T10:43:07Z</time>
      </trkpt>
      <trkpt lat="45.85506" lon="4.68203">
        <ele>203</ele>
        <time>2018-01-24T10:43:08Z</time>
      </trkpt>
      <trkpt lat="45.85507" lon="4.68211">
        <ele>203</ele>
        <time>2018-01-24T10:43:09Z</time>
      </trkpt>
      <trkpt lat="45.85507" lon="4.68221">
        <ele>203</ele>
        <time>2018-01-24T10:43:10Z</time>
      </trkpt>
      <trkpt lat="45.85507" lon="4.68229">
        <ele>203</ele>
        <time>2018-01-24T10:43:11Z</time>
      </trkpt>
      <trkpt lat="45.85509" lon="4.68238">
        <ele>203</ele>
        <time>2018-01-24T10:43:12Z</time>
      </trkpt>
      <trkpt lat="45.8551" lon="4.68246">
        <ele>203</ele>
        <time>2018-01-24T10:43:13Z</time>
      </trkpt>
      <trkpt lat="45.85511" lon="4.68256">
        <ele>203</ele>
        <time>2018-01-24T10:43:14Z</time>
      </trkpt>
      <trkpt lat="45.85513" lon="4.68264">
        <ele>202</ele>
        <time>2018-01-24T10:43:15Z</time>
      </trkpt>
      <trkpt lat="45.85514" lon="4.68276">
        <ele>202</ele>
        <time>2018-01-24T10:43:16Z</time>
      </trkpt>
      <trkpt lat="45.85515" lon="4.68282">
        <ele>202</ele>
        <time>2018-01-24T10:43:17Z</time>
      </trkpt>
      <trkpt lat="45.85516" lon="4.68291">
        <ele>202</ele>
        <time>2018-01-24T10:43:18Z</time>
      </trkpt>
      <trkpt lat="45.85517" lon="4.68299">
        <ele>202</ele>
        <time>2018-01-24T10:43:19Z</time>
      </trkpt>
      <trkpt lat="45.85517" lon="4.68306">
        <ele>202</ele>
        <time>2018-01-24T10:43:20Z</time>
      </trkpt>
      <trkpt lat="45.85518" lon="4.68314">
        <ele>202</ele>
        <time>2018-01-24T10:43:21Z</time>
      </trkpt>
      <trkpt lat="45.85518" lon="4.68321">
        <ele>202</ele>
        <time>2018-01-24T10:43:22Z</time>
      </trkpt>
      <trkpt lat="45.85518" lon="4.68328">
        <ele>202</ele>
        <time>2018-01-24T10:43:23Z</time>
      </trkpt>
      <trkpt lat="45.85518" lon="4.68335">
        <ele>201</ele>
        <time>2018-01-24T10:43:24Z</time>
      </trkpt>
      <trkpt lat="45.85519" lon="4.68343">
        <ele>201</ele>
        <time>2018-01-24T10:43:25Z</time>
      </trkpt>
      <trkpt lat="45.8552" lon="4.68351">
        <ele>201</ele>
        <time>2018-01-24T10:43:26Z</time>
      </trkpt>
      <trkpt lat="45.85521" lon="4.68359">
        <ele>201</ele>
        <time>2018-01-24T10:43:27Z</time>
      </trkpt>
      <trkpt lat="45.85522" lon="4.68367">
        <ele>201</ele>
        <time>2018-01-24T10:43:28Z</time>
      </trkpt>
      <trkpt lat="45.85522" lon="4.68375">
        <ele>201</ele>
        <time>2018-01-24T10:43:29Z</time>
      </trkpt>
      <trkpt lat="45.85523" lon="4.68383">
        <ele>201</ele>
        <time>2018-01-24T10:43:30Z</time>
      </trkpt>
      <trkpt lat="45.85524" lon="4.68391">
        <ele>200</ele>
        <time>2018-01-24T10:43:31Z</time>
      </trkpt>
      <trkpt lat="45.85524" lon="4.68398">
        <ele>200</ele>
        <time>2018-01-24T10:43:32Z</time>
      </trkpt>
      <trkpt lat="45.85524" lon="4.68406">
        <ele>200</ele>
        <time>2018-01-24T10:43:33Z</time>
      </trkpt>
      <trkpt lat="45.85524" lon="4.68415">
        <ele>200</ele>
        <time>2018-01-24T10:43:34Z</time>
      </trkpt>
      <trkpt lat="45.85525" lon="4.68424">
        <ele>200</ele>
        <time>2018-01-24T10:43:35Z</time>
      </trkpt>
      <trkpt lat="45.85525" lon="4.68434">
        <ele>200</ele>
        <time>2018-01-24T10:43:36Z</time>
      </trkpt>
      <trkpt lat="45.85526" lon="4.68444">
        <ele>200</ele>
        <time>2018-01-24T10:43:37Z</time>
      </trkpt>
      <trkpt lat="45.85527" lon="4.68451">
        <ele>200</ele>
        <time>2018-01-24T10:43:38Z</time>
      </trkpt>
      <trkpt lat="45.85527" lon="4.68459">
        <ele>200</ele>
        <time>2018-01-24T10:43:39Z</time>
      </trkpt>
      <trkpt lat="45.85527" lon="4.68466">
        <ele>200</ele>
        <time>2018-01-24T10:43:40Z</time>
      </trkpt>
      <trkpt lat="45.85527" lon="4.68473">
        <ele>200</ele>
        <time>2018-01-24T10:43:41Z</time>
      </trkpt>
      <trkpt lat="45.85527" lon="4.6848">
        <ele>200</ele>
        <time>2018-01-24T10:43:42Z</time>
      </trkpt>
      <trkpt lat="45.85528" lon="4.68487">
        <ele>200</ele>
        <time>2018-01-24T10:43:43Z</time>
      </trkpt>
      <trkpt lat="45.85528" lon="4.68496">
        <ele>201</ele>
        <time>2018-01-24T10:43:44Z</time>
      </trkpt>
      <trkpt lat="45.85529" lon="4.68504">
        <ele>201</ele>
        <time>2018-01-24T10:43:45Z</time>
      </trkpt>
      <trkpt lat="45.85529" lon="4.68512">
        <ele>201</ele>
        <time>2018-01-24T10:43:46Z</time>
      </trkpt>
      <trkpt lat="45.8553" lon="4.6852">
        <ele>201</ele>
        <time>2018-01-24T10:43:47Z</time>
      </trkpt>
      <trkpt lat="45.85531" lon="4.68528">
        <ele>201</ele>
        <time>2018-01-24T10:43:48Z</time>
      </trkpt>
      <trkpt lat="45.85532" lon="4.68537">
        <ele>201</ele>
        <time>2018-01-24T10:43:49Z</time>
      </trkpt>
      <trkpt lat="45.85532" lon="4.68546">
        <ele>201</ele>
        <time>2018-01-24T10:43:50Z</time>
      </trkpt>
      <trkpt lat="45.85533" lon="4.68555">
        <ele>201</ele>
        <time>2018-01-24T10:43:51Z</time>
      </trkpt>
      <trkpt lat="45.85534" lon="4.68563">
        <ele>201</ele>
        <time>2018-01-24T10:43:52Z</time>
      </trkpt>
      <trkpt lat="45.85535" lon="4.68572">
        <ele>201</ele>
        <time>2018-01-24T10:43:53Z</time>
      </trkpt>
      <trkpt lat="45.85536" lon="4.6858">
        <ele>201</ele>
        <time>2018-01-24T10:43:54Z</time>
      </trkpt>
      <trkpt lat="45.85538" lon="4.68588">
        <ele>201</ele>
        <time>2018-01-24T10:43:55Z</time>
      </trkpt>
      <trkpt lat="45.85538" lon="4.68596">
        <ele>201</ele>
        <time>2018-01-24T10:43:56Z</time>
      </trkpt>
      <trkpt lat="45.85539" lon="4.68603">
        <ele>201</ele>
        <time>2018-01-24T10:43:57Z</time>
      </trkpt>
      <trkpt lat="45.85539" lon="4.68611">
        <ele>201</ele>
        <time>2018-01-24T10:43:58Z</time>
      </trkpt>
      <trkpt lat="45.8554" lon="4.68618">
        <ele>201</ele>
        <time>2018-01-24T10:43:59Z</time>
      </trkpt>
      <trkpt lat="45.85541" lon="4.68624">
        <ele>201</ele>
        <time>2018-01-24T10:44:00Z</time>
      </trkpt>
      <trkpt lat="45.85541" lon="4.68632">
        <ele>201</ele>
        <time>2018-01-24T10:44:01Z</time>
      </trkpt>
      <trkpt lat="45.85541" lon="4.68639">
        <ele>201</ele>
        <time>2018-01-24T10:44:02Z</time>
      </trkpt>
      <trkpt lat="45.85541" lon="4.68646">
        <ele>201</ele>
        <time>2018-01-24T10:44:03Z</time>
      </trkpt>
      <trkpt lat="45.85542" lon="4.68653">
        <ele>201</ele>
        <time>2018-01-24T10:44:04Z</time>
      </trkpt>
      <trkpt lat="45.85542" lon="4.68659">
        <ele>200</ele>
        <time>2018-01-24T10:44:05Z</time>
      </trkpt>
      <trkpt lat="45.85545" lon="4.6867">
        <ele>200</ele>
        <time>2018-01-24T10:44:07Z</time>
      </trkpt>
      <trkpt lat="45.85545" lon="4.68677">
        <ele>200</ele>
        <time>2018-01-24T10:44:08Z</time>
      </trkpt>
      <trkpt lat="45.85545" lon="4.68684">
        <ele>200</ele>
        <time>2018-01-24T10:44:09Z</time>
      </trkpt>
      <trkpt lat="45.85546" lon="4.6869">
        <ele>200</ele>
        <time>2018-01-24T10:44:10Z</time>
      </trkpt>
      <trkpt lat="45.85547" lon="4.68697">
        <ele>200</ele>
        <time>2018-01-24T10:44:11Z</time>
      </trkpt>
      <trkpt lat="45.85548" lon="4.68705">
        <ele>200</ele>
        <time>2018-01-24T10:44:12Z</time>
      </trkpt>
      <trkpt lat="45.85548" lon="4.68713">
        <ele>200</ele>
        <time>2018-01-24T10:44:13Z</time>
      </trkpt>
      <trkpt lat="45.85549" lon="4.68722">
        <ele>200</ele>
        <time>2018-01-24T10:44:14Z</time>
      </trkpt>
      <trkpt lat="45.8555" lon="4.68731">
        <ele>200</ele>
        <time>2018-01-24T10:44:15Z</time>
      </trkpt>
      <trkpt lat="45.85551" lon="4.6874">
        <ele>200</ele>
        <time>2018-01-24T10:44:16Z</time>
      </trkpt>
      <trkpt lat="45.85552" lon="4.68749">
        <ele>200</ele>
        <time>2018-01-24T10:44:17Z</time>
      </trkpt>
      <trkpt lat="45.85553" lon="4.68757">
        <ele>200</ele>
        <time>2018-01-24T10:44:18Z</time>
      </trkpt>
      <trkpt lat="45.85554" lon="4.68764">
        <ele>200</ele>
        <time>2018-01-24T10:44:19Z</time>
      </trkpt>
      <trkpt lat="45.85555" lon="4.68771">
        <ele>200</ele>
        <time>2018-01-24T10:44:20Z</time>
      </trkpt>
      <trkpt lat="45.85557" lon="4.6878">
        <ele>200</ele>
        <time>2018-01-24T10:44:21Z</time>
      </trkpt>
      <trkpt lat="45.85557" lon="4.68788">
        <ele>200</ele>
        <time>2018-01-24T10:44:22Z</time>
      </trkpt>
      <trkpt lat="45.85558" lon="4.68797">
        <ele>200</ele>
        <time>2018-01-24T10:44:23Z</time>
      </trkpt>
      <trkpt lat="45.85559" lon="4.68806">
        <ele>200</ele>
        <time>2018-01-24T10:44:24Z</time>
      </trkpt>
      <trkpt lat="45.8556" lon="4.68813">
        <ele>200</ele>
        <time>2018-01-24T10:44:25Z</time>
      </trkpt>
      <trkpt lat="45.8556" lon="4.6882">
        <ele>200</ele>
        <time>2018-01-24T10:44:26Z</time>
      </trkpt>
      <trkpt lat="45.8556" lon="4.68828">
        <ele>200</ele>
        <time>2018-01-24T10:44:27Z</time>
      </trkpt>
      <trkpt lat="45.85562" lon="4.68836">
        <ele>200</ele>
        <time>2018-01-24T10:44:28Z</time>
      </trkpt>
      <trkpt lat="45.85563" lon="4.68843">
        <ele>200</ele>
        <time>2018-01-24T10:44:29Z</time>
      </trkpt>
      <trkpt lat="45.85564" lon="4.68849">
        <ele>200</ele>
        <time>2018-01-24T10:44:30Z</time>
      </trkpt>
      <trkpt lat="45.85564" lon="4.68856">
        <ele>200</ele>
        <time>2018-01-24T10:44:31Z</time>
      </trkpt>
      <trkpt lat="45.85565" lon="4.68863">
        <ele>200</ele>
        <time>2018-01-24T10:44:32Z</time>
      </trkpt>
      <trkpt lat="45.85565" lon="4.6887">
        <ele>200</ele>
        <time>2018-01-24T10:44:33Z</time>
      </trkpt>
      <trkpt lat="45.85565" lon="4.68878">
        <ele>200</ele>
        <time>2018-01-24T10:44:34Z</time>
      </trkpt>
      <trkpt lat="45.85566" lon="4.68885">
        <ele>200</ele>
        <time>2018-01-24T10:44:35Z</time>
      </trkpt>
      <trkpt lat="45.85566" lon="4.68892">
        <ele>200</ele>
        <time>2018-01-24T10:44:36Z</time>
      </trkpt>
      <trkpt lat="45.85567" lon="4.68902">
        <ele>200</ele>
        <time>2018-01-24T10:44:37Z</time>
      </trkpt>
      <trkpt lat="45.85568" lon="4.6891">
        <ele>200</ele>
        <time>2018-01-24T10:44:38Z</time>
      </trkpt>
      <trkpt lat="45.85569" lon="4.6892">
        <ele>200</ele>
        <time>2018-01-24T10:44:39Z</time>
      </trkpt>
      <trkpt lat="45.85569" lon="4.68927">
        <ele>200</ele>
        <time>2018-01-24T10:44:40Z</time>
      </trkpt>
      <trkpt lat="45.8557" lon="4.68935">
        <ele>200</ele>
        <time>2018-01-24T10:44:41Z</time>
      </trkpt>
      <trkpt lat="45.85571" lon="4.68944">
        <ele>200</ele>
        <time>2018-01-24T10:44:42Z</time>
      </trkpt>
      <trkpt lat="45.85572" lon="4.68952">
        <ele>200</ele>
        <time>2018-01-24T10:44:43Z</time>
      </trkpt>
      <trkpt lat="45.85572" lon="4.68962">
        <ele>200</ele>
        <time>2018-01-24T10:44:44Z</time>
      </trkpt>
      <trkpt lat="45.85574" lon="4.6897">
        <ele>200</ele>
        <time>2018-01-24T10:44:45Z</time>
      </trkpt>
      <trkpt lat="45.85574" lon="4.68979">
        <ele>200</ele>
        <time>2018-01-24T10:44:46Z</time>
      </trkpt>
      <trkpt lat="45.85574" lon="4.68987">
        <ele>200</ele>
        <time>2018-01-24T10:44:47Z</time>
      </trkpt>
      <trkpt lat="45.85575" lon="4.68995">
        <ele>200</ele>
        <time>2018-01-24T10:44:48Z</time>
      </trkpt>
      <trkpt lat="45.85576" lon="4.69003">
        <ele>200</ele>
        <time>2018-01-24T10:44:49Z</time>
      </trkpt>
      <trkpt lat="45.85577" lon="4.69012">
        <ele>200</ele>
        <time>2018-01-24T10:44:50Z</time>
      </trkpt>
      <trkpt lat="45.85577" lon="4.69019">
        <ele>200</ele>
        <time>2018-01-24T10:44:51Z</time>
      </trkpt>
      <trkpt lat="45.85578" lon="4.69027">
        <ele>200</ele>
        <time>2018-01-24T10:44:52Z</time>
      </trkpt>
      <trkpt lat="45.85579" lon="4.69035">
        <ele>200</ele>
        <time>2018-01-24T10:44:53Z</time>
      </trkpt>
      <trkpt lat="45.85581" lon="4.69045">
        <ele>199</ele>
        <time>2018-01-24T10:44:54Z</time>
      </trkpt>
      <trkpt lat="45.85582" lon="4.69054">
        <ele>199</ele>
        <time>2018-01-24T10:44:55Z</time>
      </trkpt>
      <trkpt lat="45.85583" lon="4.69062">
        <ele>199</ele>
        <time>2018-01-24T10:44:56Z</time>
      </trkpt>
      <trkpt lat="45.85582" lon="4.69071">
        <ele>199</ele>
        <time>2018-01-24T10:44:57Z</time>
      </trkpt>
      <trkpt lat="45.85584" lon="4.69079">
        <ele>199</ele>
        <time>2018-01-24T10:44:58Z</time>
      </trkpt>
      <trkpt lat="45.85585" lon="4.69088">
        <ele>199</ele>
        <time>2018-01-24T10:44:59Z</time>
      </trkpt>
      <trkpt lat="45.85587" lon="4.69096">
        <ele>199</ele>
        <time>2018-01-24T10:45:00Z</time>
      </trkpt>
      <trkpt lat="45.85588" lon="4.69105">
        <ele>199</ele>
        <time>2018-01-24T10:45:01Z</time>
      </trkpt>
      <trkpt lat="45.85587" lon="4.69115">
        <ele>199</ele>
        <time>2018-01-24T10:45:02Z</time>
      </trkpt>
      <trkpt lat="45.85588" lon="4.69124">
        <ele>199</ele>
        <time>2018-01-24T10:45:03Z</time>
      </trkpt>
      <trkpt lat="45.85589" lon="4.69133">
        <ele>199</ele>
        <time>2018-01-24T10:45:04Z</time>
      </trkpt>
      <trkpt lat="45.85589" lon="4.69141">
        <ele>199</ele>
        <time>2018-01-24T10:45:05Z</time>
      </trkpt>
      <trkpt lat="45.8559" lon="4.69149">
        <ele>199</ele>
        <time>2018-01-24T10:45:06Z</time>
      </trkpt>
      <trkpt lat="45.85591" lon="4.69157">
        <ele>199</ele>
        <time>2018-01-24T10:45:07Z</time>
      </trkpt>
      <trkpt lat="45.85592" lon="4.69166">
        <ele>199</ele>
        <time>2018-01-24T10:45:08Z</time>
      </trkpt>
      <trkpt lat="45.85593" lon="4.69175">
        <ele>199</ele>
        <time>2018-01-24T10:45:09Z</time>
      </trkpt>
      <trkpt lat="45.85594" lon="4.69183">
        <ele>199</ele>
        <time>2018-01-24T10:45:10Z</time>
      </trkpt>
      <trkpt lat="45.85595" lon="4.69192">
        <ele>199</ele>
        <time>2018-01-24T10:45:11Z</time>
      </trkpt>
      <trkpt lat="45.85595" lon="4.692">
        <ele>199</ele>
        <time>2018-01-24T10:45:12Z</time>
      </trkpt>
      <trkpt lat="45.85597" lon="4.69207">
        <ele>199</ele>
        <time>2018-01-24T10:45:13Z</time>
      </trkpt>
      <trkpt lat="45.85598" lon="4.69214">
        <ele>199</ele>
        <time>2018-01-24T10:45:14Z</time>
      </trkpt>
      <trkpt lat="45.85598" lon="4.69221">
        <ele>199</ele>
        <time>2018-01-24T10:45:15Z</time>
      </trkpt>
      <trkpt lat="45.85598" lon="4.69228">
        <ele>199</ele>
        <time>2018-01-24T10:45:16Z</time>
      </trkpt>
      <trkpt lat="45.85597" lon="4.69235">
        <ele>199</ele>
        <time>2018-01-24T10:45:17Z</time>
      </trkpt>
      <trkpt lat="45.85596" lon="4.69242">
        <ele>199</ele>
        <time>2018-01-24T10:45:18Z</time>
      </trkpt>
      <trkpt lat="45.85595" lon="4.69248">
        <ele>199</ele>
        <time>2018-01-24T10:45:19Z</time>
      </trkpt>
      <trkpt lat="45.85594" lon="4.69255">
        <ele>199</ele>
        <time>2018-01-24T10:45:20Z</time>
      </trkpt>
      <trkpt lat="45.85595" lon="4.69262">
        <ele>199</ele>
        <time>2018-01-24T10:45:21Z</time>
      </trkpt>
      <trkpt lat="45.85596" lon="4.69269">
        <ele>198</ele>
        <time>2018-01-24T10:45:22Z</time>
      </trkpt>
      <trkpt lat="45.85598" lon="4.69276">
        <ele>198</ele>
        <time>2018-01-24T10:45:23Z</time>
      </trkpt>
      <trkpt lat="45.85599" lon="4.69282">
        <ele>198</ele>
        <time>2018-01-24T10:45:24Z</time>
      </trkpt>
      <trkpt lat="45.85601" lon="4.69289">
        <ele>198</ele>
        <time>2018-01-24T10:45:25Z</time>
      </trkpt>
      <trkpt lat="45.85603" lon="4.69296">
        <ele>198</ele>
        <time>2018-01-24T10:45:26Z</time>
      </trkpt>
      <trkpt lat="45.85605" lon="4.69304">
        <ele>198</ele>
        <time>2018-01-24T10:45:27Z</time>
      </trkpt>
      <trkpt lat="45.85605" lon="4.69312">
        <ele>198</ele>
        <time>2018-01-24T10:45:28Z</time>
      </trkpt>
      <trkpt lat="45.85606" lon="4.69321">
        <ele>198</ele>
        <time>2018-01-24T10:45:29Z</time>
      </trkpt>
      <trkpt lat="45.85607" lon="4.6933">
        <ele>198</ele>
        <time>2018-01-24T10:45:30Z</time>
      </trkpt>
      <trkpt lat="45.85608" lon="4.69338">
        <ele>198</ele>
        <time>2018-01-24T10:45:31Z</time>
      </trkpt>
      <trkpt lat="45.85609" lon="4.69348">
        <ele>198</ele>
        <time>2018-01-24T10:45:32Z</time>
      </trkpt>
      <trkpt lat="45.8561" lon="4.69357">
        <ele>198</ele>
        <time>2018-01-24T10:45:33Z</time>
      </trkpt>
      <trkpt lat="45.85611" lon="4.69365">
        <ele>198</ele>
        <time>2018-01-24T10:45:34Z</time>
      </trkpt>
      <trkpt lat="45.85612" lon="4.69374">
        <ele>198</ele>
        <time>2018-01-24T10:45:35Z</time>
      </trkpt>
      <trkpt lat="45.85613" lon="4.69382">
        <ele>198</ele>
        <time>2018-01-24T10:45:36Z</time>
      </trkpt>
      <trkpt lat="45.85613" lon="4.69391">
        <ele>198</ele>
        <time>2018-01-24T10:45:37Z</time>
      </trkpt>
      <trkpt lat="45.85614" lon="4.69398">
        <ele>198</ele>
        <time>2018-01-24T10:45:38Z</time>
      </trkpt>
      <trkpt lat="45.85614" lon="4.69405">
        <ele>198</ele>
        <time>2018-01-24T10:45:39Z</time>
      </trkpt>
      <trkpt lat="45.85615" lon="4.69413">
        <ele>198</ele>
        <time>2018-01-24T10:45:40Z</time>
      </trkpt>
      <trkpt lat="45.85616" lon="4.69421">
        <ele>198</ele>
        <time>2018-01-24T10:45:41Z</time>
      </trkpt>
      <trkpt lat="45.85617" lon="4.69429">
        <ele>198</ele>
        <time>2018-01-24T10:45:42Z</time>
      </trkpt>
      <trkpt lat="45.85618" lon="4.69438">
        <ele>198</ele>
        <time>2018-01-24T10:45:43Z</time>
      </trkpt>
      <trkpt lat="45.85619" lon="4.69446">
        <ele>198</ele>
        <time>2018-01-24T10:45:44Z</time>
      </trkpt>
      <trkpt lat="45.8562" lon="4.69454">
        <ele>198</ele>
        <time>2018-01-24T10:45:45Z</time>
      </trkpt>
      <trkpt lat="45.85621" lon="4.69462">
        <ele>198</ele>
        <time>2018-01-24T10:45:46Z</time>
      </trkpt>
      <trkpt lat="45.85622" lon="4.69471">
        <ele>198</ele>
        <time>2018-01-24T10:45:47Z</time>
      </trkpt>
      <trkpt lat="45.85622" lon="4.6948">
        <ele>198</ele>
        <time>2018-01-24T10:45:48Z</time>
      </trkpt>
      <trkpt lat="45.85623" lon="4.6949">
        <ele>198</ele>
        <time>2018-01-24T10:45:49Z</time>
      </trkpt>
      <trkpt lat="45.85623" lon="4.69497">
        <ele>198</ele>
        <time>2018-01-24T10:45:50Z</time>
      </trkpt>
      <trkpt lat="45.85625" lon="4.69506">
        <ele>198</ele>
        <time>2018-01-24T10:45:51Z</time>
      </trkpt>
      <trkpt lat="45.85625" lon="4.69513">
        <ele>198</ele>
        <time>2018-01-24T10:45:52Z</time>
      </trkpt>
      <trkpt lat="45.85625" lon="4.69521">
        <ele>198</ele>
        <time>2018-01-24T10:45:53Z</time>
      </trkpt>
      <trkpt lat="45.85626" lon="4.69528">
        <ele>198</ele>
        <time>2018-01-24T10:45:54Z</time>
      </trkpt>
      <trkpt lat="45.85628" lon="4.69536">
        <ele>198</ele>
        <time>2018-01-24T10:45:55Z</time>
      </trkpt>
      <trkpt lat="45.85628" lon="4.69544">
        <ele>198</ele>
        <time>2018-01-24T10:45:56Z</time>
      </trkpt>
      <trkpt lat="45.85629" lon="4.69552">
        <ele>198</ele>
        <time>2018-01-24T10:45:57Z</time>
      </trkpt>
      <trkpt lat="45.85629" lon="4.69559">
        <ele>198</ele>
        <time>2018-01-24T10:45:58Z</time>
      </trkpt>
      <trkpt lat="45.8563" lon="4.69566">
        <ele>198</ele>
        <time>2018-01-24T10:45:59Z</time>
      </trkpt>
      <trkpt lat="45.8563" lon="4.69574">
        <ele>198</ele>
        <time>2018-01-24T10:46:00Z</time>
      </trkpt>
      <trkpt lat="45.8563" lon="4.69581">
        <ele>198</ele>
        <time>2018-01-24T10:46:01Z</time>
      </trkpt>
      <trkpt lat="45.85631" lon="4.69588">
        <ele>197</ele>
        <time>2018-01-24T10:46:02Z</time>
      </trkpt>
      <trkpt lat="45.85632" lon="4.69596">
        <ele>197</ele>
        <time>2018-01-24T10:46:03Z</time>
      </trkpt>
      <trkpt lat="45.85633" lon="4.69604">
        <ele>197</ele>
        <time>2018-01-24T10:46:04Z</time>
      </trkpt>
      <trkpt lat="45.85634" lon="4.69611">
        <ele>197</ele>
        <time>2018-01-24T10:46:05Z</time>
      </trkpt>
      <trkpt lat="45.85634" lon="4.69618">
        <ele>197</ele>
        <time>2018-01-24T10:46:06Z</time>
      </trkpt>
      <trkpt lat="45.85635" lon="4.69627">
        <ele>197</ele>
        <time>2018-01-24T10:46:07Z</time>
      </trkpt>
      <trkpt lat="45.85636" lon="4.69636">
        <ele>197</ele>
        <time>2018-01-24T10:46:08Z</time>
      </trkpt>
      <trkpt lat="45.85637" lon="4.69645">
        <ele>197</ele>
        <time>2018-01-24T10:46:09Z</time>
      </trkpt>
      <trkpt lat="45.85638" lon="4.69653">
        <ele>197</ele>
        <time>2018-01-24T10:46:10Z</time>
      </trkpt>
      <trkpt lat="45.85639" lon="4.69661">
        <ele>197</ele>
        <time>2018-01-24T10:46:11Z</time>
      </trkpt>
      <trkpt lat="45.8564" lon="4.69669">
        <ele>196</ele>
        <time>2018-01-24T10:46:12Z</time>
      </trkpt>
      <trkpt lat="45.85641" lon="4.69677">
        <ele>196</ele>
        <time>2018-01-24T10:46:13Z</time>
      </trkpt>
      <trkpt lat="45.85641" lon="4.69686">
        <ele>196</ele>
        <time>2018-01-24T10:46:14Z</time>
      </trkpt>
      <trkpt lat="45.85642" lon="4.69694">
        <ele>196</ele>
        <time>2018-01-24T10:46:15Z</time>
      </trkpt>
      <trkpt lat="45.85642" lon="4.69701">
        <ele>196</ele>
        <time>2018-01-24T10:46:16Z</time>
      </trkpt>
      <trkpt lat="45.85643" lon="4.69709">
        <ele>196</ele>
        <time>2018-01-24T10:46:17Z</time>
      </trkpt>
      <trkpt lat="45.85644" lon="4.69716">
        <ele>196</ele>
        <time>2018-01-24T10:46:18Z</time>
      </trkpt>
      <trkpt lat="45.85645" lon="4.69724">
        <ele>196</ele>
        <time>2018-01-24T10:46:19Z</time>
      </trkpt>
      <trkpt lat="45.85646" lon="4.69733">
        <ele>195</ele>
        <time>2018-01-24T10:46:20Z</time>
      </trkpt>
      <trkpt lat="45.85647" lon="4.69741">
        <ele>195</ele>
        <time>2018-01-24T10:46:21Z</time>
      </trkpt>
      <trkpt lat="45.85647" lon="4.6975">
        <ele>195</ele>
        <time>2018-01-24T10:46:22Z</time>
      </trkpt>
      <trkpt lat="45.85648" lon="4.69758">
        <ele>195</ele>
        <time>2018-01-24T10:46:23Z</time>
      </trkpt>
      <trkpt lat="45.85648" lon="4.69766">
        <ele>195</ele>
        <time>2018-01-24T10:46:24Z</time>
      </trkpt>
      <trkpt lat="45.85649" lon="4.69776">
        <ele>195</ele>
        <time>2018-01-24T10:46:25Z</time>
      </trkpt>
      <trkpt lat="45.8565" lon="4.69784">
        <ele>195</ele>
        <time>2018-01-24T10:46:26Z</time>
      </trkpt>
      <trkpt lat="45.85651" lon="4.69794">
        <ele>195</ele>
        <time>2018-01-24T10:46:27Z</time>
      </trkpt>
      <trkpt lat="45.85651" lon="4.69801">
        <ele>195</ele>
        <time>2018-01-24T10:46:28Z</time>
      </trkpt>
      <trkpt lat="45.85652" lon="4.69809">
        <ele>195</ele>
        <time>2018-01-24T10:46:29Z</time>
      </trkpt>
      <trkpt lat="45.85653" lon="4.69818">
        <ele>195</ele>
        <time>2018-01-24T10:46:30Z</time>
      </trkpt>
      <trkpt lat="45.85654" lon="4.69825">
        <ele>195</ele>
        <time>2018-01-24T10:46:31Z</time>
      </trkpt>
      <trkpt lat="45.85654" lon="4.69832">
        <ele>195</ele>
        <time>2018-01-24T10:46:32Z</time>
      </trkpt>
      <trkpt lat="45.85654" lon="4.6984">
        <ele>195</ele>
        <time>2018-01-24T10:46:33Z</time>
      </trkpt>
      <trkpt lat="45.85655" lon="4.69847">
        <ele>195</ele>
        <time>2018-01-24T10:46:34Z</time>
      </trkpt>
      <trkpt lat="45.85656" lon="4.69855">
        <ele>195</ele>
        <time>2018-01-24T10:46:35Z</time>
      </trkpt>
      <trkpt lat="45.85657" lon="4.69862">
        <ele>195</ele>
        <time>2018-01-24T10:46:36Z</time>
      </trkpt>
      <trkpt lat="45.85658" lon="4.69871">
        <ele>195</ele>
        <time>2018-01-24T10:46:37Z</time>
      </trkpt>
      <trkpt lat="45.85659" lon="4.69879">
        <ele>195</ele>
        <time>2018-01-24T10:46:38Z</time>
      </trkpt>
      <trkpt lat="45.85659" lon="4.69888">
        <ele>195</ele>
        <time>2018-01-24T10:46:39Z</time>
      </trkpt>
      <trkpt lat="45.85661" lon="4.69897">
        <ele>195</ele>
        <time>2018-01-24T10:46:40Z</time>
      </trkpt>
      <trkpt lat="45.85662" lon="4.69905">
        <ele>195</ele>
        <time>2018-01-24T10:46:41Z</time>
      </trkpt>
      <trkpt lat="45.85664" lon="4.69915">
        <ele>195</ele>
        <time>2018-01-24T10:46:42Z</time>
      </trkpt>
      <trkpt lat="45.85666" lon="4.69924">
        <ele>195</ele>
        <time>2018-01-24T10:46:43Z</time>
      </trkpt>
      <trkpt lat="45.85668" lon="4.69932">
        <ele>195</ele>
        <time>2018-01-24T10:46:44Z</time>
      </trkpt>
      <trkpt lat="45.8567" lon="4.6994">
        <ele>195</ele>
        <time>2018-01-24T10:46:45Z</time>
      </trkpt>
      <trkpt lat="45.85672" lon="4.69948">
        <ele>195</ele>
        <time>2018-01-24T10:46:46Z</time>
      </trkpt>
      <trkpt lat="45.85674" lon="4.69956">
        <ele>195</ele>
        <time>2018-01-24T10:46:47Z</time>
      </trkpt>
      <trkpt lat="45.85676" lon="4.69965">
        <ele>195</ele>
        <time>2018-01-24T10:46:48Z</time>
      </trkpt>
      <trkpt lat="45.85678" lon="4.69972">
        <ele>195</ele>
        <time>2018-01-24T10:46:49Z</time>
      </trkpt>
      <trkpt lat="45.8568" lon="4.69979">
        <ele>195</ele>
        <time>2018-01-24T10:46:50Z</time>
      </trkpt>
      <trkpt lat="45.85682" lon="4.69986">
        <ele>195</ele>
        <time>2018-01-24T10:46:51Z</time>
      </trkpt>
      <trkpt lat="45.85683" lon="4.69992">
        <ele>195</ele>
        <time>2018-01-24T10:46:52Z</time>
      </trkpt>
      <trkpt lat="45.85683" lon="4.7">
        <ele>195</ele>
        <time>2018-01-24T10:46:53Z</time>
      </trkpt>
      <trkpt lat="45.85683" lon="4.70009">
        <ele>195</ele>
        <time>2018-01-24T10:46:54Z</time>
      </trkpt>
      <trkpt lat="45.85683" lon="4.70017">
        <ele>195</ele>
        <time>2018-01-24T10:46:55Z</time>
      </trkpt>
      <trkpt lat="45.85683" lon="4.70025">
        <ele>195</ele>
        <time>2018-01-24T10:46:56Z</time>
      </trkpt>
      <trkpt lat="45.85682" lon="4.70033">
        <ele>195</ele>
        <time>2018-01-24T10:46:57Z</time>
      </trkpt>
      <trkpt lat="45.85681" lon="4.7004">
        <ele>195</ele>
        <time>2018-01-24T10:46:58Z</time>
      </trkpt>
      <trkpt lat="45.8568" lon="4.70048">
        <ele>195</ele>
        <time>2018-01-24T10:46:59Z</time>
      </trkpt>
      <trkpt lat="45.85679" lon="4.70055">
        <ele>195</ele>
        <time>2018-01-24T10:47:00Z</time>
      </trkpt>
      <trkpt lat="45.85678" lon="4.70063">
        <ele>196</ele>
        <time>2018-01-24T10:47:01Z</time>
      </trkpt>
      <trkpt lat="45.85676" lon="4.70068">
        <ele>196</ele>
        <time>2018-01-24T10:47:02Z</time>
      </trkpt>
      <trkpt lat="45.85673" lon="4.7008">
        <ele>196</ele>
        <time>2018-01-24T10:47:04Z</time>
      </trkpt>
      <trkpt lat="45.85672" lon="4.70086">
        <ele>196</ele>
        <time>2018-01-24T10:47:05Z</time>
      </trkpt>
      <trkpt lat="45.85671" lon="4.70092">
        <ele>196</ele>
        <time>2018-01-24T10:47:06Z</time>
      </trkpt>
      <trkpt lat="45.85671" lon="4.70099">
        <ele>196</ele>
        <time>2018-01-24T10:47:07Z</time>
      </trkpt>
      <trkpt lat="45.8567" lon="4.70107">
        <ele>196</ele>
        <time>2018-01-24T10:47:08Z</time>
      </trkpt>
      <trkpt lat="45.8567" lon="4.70114">
        <ele>197</ele>
        <time>2018-01-24T10:47:09Z</time>
      </trkpt>
      <trkpt lat="45.85671" lon="4.70124">
        <ele>197</ele>
        <time>2018-01-24T10:47:10Z</time>
      </trkpt>
      <trkpt lat="45.85672" lon="4.70134">
        <ele>197</ele>
        <time>2018-01-24T10:47:11Z</time>
      </trkpt>
      <trkpt lat="45.85673" lon="4.70142">
        <ele>197</ele>
        <time>2018-01-24T10:47:12Z</time>
      </trkpt>
      <trkpt lat="45.85674" lon="4.70151">
        <ele>197</ele>
        <time>2018-01-24T10:47:13Z</time>
      </trkpt>
      <trkpt lat="45.85676" lon="4.70159">
        <ele>197</ele>
        <time>2018-01-24T10:47:14Z</time>
      </trkpt>
      <trkpt lat="45.85677" lon="4.70168">
        <ele>197</ele>
        <time>2018-01-24T10:47:15Z</time>
      </trkpt>
      <trkpt lat="45.85679" lon="4.70179">
        <ele>197</ele>
        <time>2018-01-24T10:47:16Z</time>
      </trkpt>
      <trkpt lat="45.8568" lon="4.70189">
        <ele>197</ele>
        <time>2018-01-24T10:47:17Z</time>
      </trkpt>
      <trkpt lat="45.85683" lon="4.70198">
        <ele>197</ele>
        <time>2018-01-24T10:47:18Z</time>
      </trkpt>
      <trkpt lat="45.85684" lon="4.70207">
        <ele>197</ele>
        <time>2018-01-24T10:47:19Z</time>
      </trkpt>
      <trkpt lat="45.85686" lon="4.70216">
        <ele>197</ele>
        <time>2018-01-24T10:47:20Z</time>
      </trkpt>
      <trkpt lat="45.85688" lon="4.70225">
        <ele>197</ele>
        <time>2018-01-24T10:47:21Z</time>
      </trkpt>
      <trkpt lat="45.8569" lon="4.70233">
        <ele>197</ele>
        <time>2018-01-24T10:47:22Z</time>
      </trkpt>
      <trkpt lat="45.8569" lon="4.70241">
        <ele>197</ele>
        <time>2018-01-24T10:47:23Z</time>
      </trkpt>
      <trkpt lat="45.85691" lon="4.70249">
        <ele>197</ele>
        <time>2018-01-24T10:47:24Z</time>
      </trkpt>
      <trkpt lat="45.85693" lon="4.70256">
        <ele>197</ele>
        <time>2018-01-24T10:47:25Z</time>
      </trkpt>
      <trkpt lat="45.85694" lon="4.70265">
        <ele>197</ele>
        <time>2018-01-24T10:47:26Z</time>
      </trkpt>
      <trkpt lat="45.85694" lon="4.70273">
        <ele>197</ele>
        <time>2018-01-24T10:47:27Z</time>
      </trkpt>
      <trkpt lat="45.85696" lon="4.7028">
        <ele>197</ele>
        <time>2018-01-24T10:47:28Z</time>
      </trkpt>
      <trkpt lat="45.85696" lon="4.70289">
        <ele>197</ele>
        <time>2018-01-24T10:47:29Z</time>
      </trkpt>
      <trkpt lat="45.85697" lon="4.70297">
        <ele>197</ele>
        <time>2018-01-24T10:47:30Z</time>
      </trkpt>
      <trkpt lat="45.85697" lon="4.70305">
        <ele>197</ele>
        <time>2018-01-24T10:47:31Z</time>
      </trkpt>
      <trkpt lat="45.85698" lon="4.70312">
        <ele>197</ele>
        <time>2018-01-24T10:47:32Z</time>
      </trkpt>
      <trkpt lat="45.85698" lon="4.70321">
        <ele>197</ele>
        <time>2018-01-24T10:47:33Z</time>
      </trkpt>
      <trkpt lat="45.85699" lon="4.70331">
        <ele>197</ele>
        <time>2018-01-24T10:47:34Z</time>
      </trkpt>
      <trkpt lat="45.857" lon="4.70339">
        <ele>196</ele>
        <time>2018-01-24T10:47:35Z</time>
      </trkpt>
      <trkpt lat="45.85701" lon="4.70348">
        <ele>196</ele>
        <time>2018-01-24T10:47:36Z</time>
      </trkpt>
      <trkpt lat="45.85701" lon="4.70355">
        <ele>196</ele>
        <time>2018-01-24T10:47:37Z</time>
      </trkpt>
      <trkpt lat="45.85703" lon="4.70363">
        <ele>196</ele>
        <time>2018-01-24T10:47:38Z</time>
      </trkpt>
      <trkpt lat="45.85703" lon="4.7037">
        <ele>196</ele>
        <time>2018-01-24T10:47:39Z</time>
      </trkpt>
      <trkpt lat="45.85703" lon="4.70378">
        <ele>196</ele>
        <time>2018-01-24T10:47:40Z</time>
      </trkpt>
      <trkpt lat="45.85703" lon="4.70387">
        <ele>196</ele>
        <time>2018-01-24T10:47:41Z</time>
      </trkpt>
      <trkpt lat="45.85704" lon="4.70394">
        <ele>196</ele>
        <time>2018-01-24T10:47:42Z</time>
      </trkpt>
      <trkpt lat="45.85704" lon="4.70401">
        <ele>196</ele>
        <time>2018-01-24T10:47:43Z</time>
      </trkpt>
      <trkpt lat="45.85705" lon="4.70409">
        <ele>196</ele>
        <time>2018-01-24T10:47:44Z</time>
      </trkpt>
      <trkpt lat="45.85707" lon="4.70416">
        <ele>196</ele>
        <time>2018-01-24T10:47:45Z</time>
      </trkpt>
      <trkpt lat="45.85708" lon="4.70423">
        <ele>196</ele>
        <time>2018-01-24T10:47:46Z</time>
      </trkpt>
      <trkpt lat="45.85709" lon="4.70431">
        <ele>196</ele>
        <time>2018-01-24T10:47:47Z</time>
      </trkpt>
      <trkpt lat="45.85711" lon="4.70439">
        <ele>196</ele>
        <time>2018-01-24T10:47:48Z</time>
      </trkpt>
      <trkpt lat="45.85713" lon="4.70447">
        <ele>196</ele>
        <time>2018-01-24T10:47:49Z</time>
      </trkpt>
      <trkpt lat="45.85714" lon="4.70455">
        <ele>196</ele>
        <time>2018-01-24T10:47:50Z</time>
      </trkpt>
      <trkpt lat="45.85716" lon="4.70462">
        <ele>196</ele>
        <time>2018-01-24T10:47:51Z</time>
      </trkpt>
      <trkpt lat="45.85717" lon="4.7047">
        <ele>196</ele>
        <time>2018-01-24T10:47:52Z</time>
      </trkpt>
      <trkpt lat="45.85717" lon="4.70477">
        <ele>196</ele>
        <time>2018-01-24T10:47:53Z</time>
      </trkpt>
      <trkpt lat="45.85714" lon="4.70489">
        <ele>196</ele>
        <time>2018-01-24T10:47:55Z</time>
      </trkpt>
      <trkpt lat="45.85713" lon="4.70496">
        <ele>196</ele>
        <time>2018-01-24T10:47:56Z</time>
      </trkpt>
      <trkpt lat="45.85712" lon="4.70503">
        <ele>196</ele>
        <time>2018-01-24T10:47:57Z</time>
      </trkpt>
      <trkpt lat="45.8571" lon="4.7051">
        <ele>196</ele>
        <time>2018-01-24T10:47:58Z</time>
      </trkpt>
      <trkpt lat="45.85712" lon="4.70516">
        <ele>196</ele>
        <time>2018-01-24T10:47:59Z</time>
      </trkpt>
      <trkpt lat="45.85716" lon="4.70522">
        <ele>196</ele>
        <time>2018-01-24T10:48:00Z</time>
      </trkpt>
      <trkpt lat="45.85719" lon="4.70525">
        <ele>196</ele>
        <time>2018-01-24T10:48:01Z</time>
      </trkpt>
      <trkpt lat="45.85725" lon="4.70527">
        <ele>196</ele>
        <time>2018-01-24T10:48:02Z</time>
      </trkpt>
      <trkpt lat="45.85731" lon="4.70524">
        <ele>196</ele>
        <time>2018-01-24T10:48:03Z</time>
      </trkpt>
      <trkpt lat="45.85737" lon="4.70521">
        <ele>196</ele>
        <time>2018-01-24T10:48:04Z</time>
      </trkpt>
      <trkpt lat="45.85744" lon="4.70519">
        <ele>196</ele>
        <time>2018-01-24T10:48:05Z</time>
      </trkpt>
      <trkpt lat="45.8575" lon="4.70518">
        <ele>196</ele>
        <time>2018-01-24T10:48:06Z</time>
      </trkpt>
      <trkpt lat="45.85755" lon="4.70519">
        <ele>196</ele>
        <time>2018-01-24T10:48:07Z</time>
      </trkpt>
      <trkpt lat="45.85761" lon="4.70523">
        <ele>196</ele>
        <time>2018-01-24T10:48:08Z</time>
      </trkpt>
      <trkpt lat="45.85766" lon="4.70526">
        <ele>196</ele>
        <time>2018-01-24T10:48:09Z</time>
      </trkpt>
      <trkpt lat="45.85771" lon="4.70529">
        <ele>196</ele>
        <time>2018-01-24T10:48:10Z</time>
      </trkpt>
      <trkpt lat="45.85777" lon="4.70533">
        <ele>196</ele>
        <time>2018-01-24T10:48:11Z</time>
      </trkpt>
      <trkpt lat="45.85782" lon="4.70537">
        <ele>196</ele>
        <time>2018-01-24T10:48:12Z</time>
      </trkpt>
      <trkpt lat="45.85788" lon="4.7054">
        <ele>196</ele>
        <time>2018-01-24T10:48:13Z</time>
      </trkpt>
      <trkpt lat="45.85794" lon="4.70543">
        <ele>195</ele>
        <time>2018-01-24T10:48:14Z</time>
      </trkpt>
      <trkpt lat="45.858" lon="4.70546">
        <ele>195</ele>
        <time>2018-01-24T10:48:15Z</time>
      </trkpt>
      <trkpt lat="45.85806" lon="4.70549">
        <ele>195</ele>
        <time>2018-01-24T10:48:16Z</time>
      </trkpt>
      <trkpt lat="45.85813" lon="4.70551">
        <ele>195</ele>
        <time>2018-01-24T10:48:17Z</time>
      </trkpt>
      <trkpt lat="45.85822" lon="4.70555">
        <ele>195</ele>
        <time>2018-01-24T10:48:18Z</time>
      </trkpt>
      <trkpt lat="45.85829" lon="4.70559">
        <ele>195</ele>
        <time>2018-01-24T10:48:19Z</time>
      </trkpt>
      <trkpt lat="45.85835" lon="4.70563">
        <ele>195</ele>
        <time>2018-01-24T10:48:20Z</time>
      </trkpt>
      <trkpt lat="45.85842" lon="4.70566">
        <ele>195</ele>
        <time>2018-01-24T10:48:21Z</time>
      </trkpt>
      <trkpt lat="45.85847" lon="4.70569">
        <ele>195</ele>
        <time>2018-01-24T10:48:22Z</time>
      </trkpt>
      <trkpt lat="45.85852" lon="4.70571">
        <ele>195</ele>
        <time>2018-01-24T10:48:23Z</time>
      </trkpt>
      <trkpt lat="45.85858" lon="4.70573">
        <ele>195</ele>
        <time>2018-01-24T10:48:24Z</time>
      </trkpt>
      <trkpt lat="45.85863" lon="4.70575">
        <ele>195</ele>
        <time>2018-01-24T10:48:25Z</time>
      </trkpt>
      <trkpt lat="45.85868" lon="4.70576">
        <ele>195</ele>
        <time>2018-01-24T10:48:26Z</time>
      </trkpt>
      <trkpt lat="45.85874" lon="4.70577">
        <ele>195</ele>
        <time>2018-01-24T10:48:27Z</time>
      </trkpt>
      <trkpt lat="45.85879" lon="4.70579">
        <ele>195</ele>
        <time>2018-01-24T10:48:28Z</time>
      </trkpt>
      <trkpt lat="45.85884" lon="4.7058">
        <ele>195</ele>
        <time>2018-01-24T10:48:29Z</time>
      </trkpt>
      <trkpt lat="45.8589" lon="4.70581">
        <ele>195</ele>
        <time>2018-01-24T10:48:30Z</time>
      </trkpt>
      <trkpt lat="45.85895" lon="4.70584">
        <ele>195</ele>
        <time>2018-01-24T10:48:31Z</time>
      </trkpt>
      <trkpt lat="45.85899" lon="4.70588">
        <ele>195</ele>
        <time>2018-01-24T10:48:32Z</time>
      </trkpt>
      <trkpt lat="45.85904" lon="4.7059">
        <ele>195</ele>
        <time>2018-01-24T10:48:33Z</time>
      </trkpt>
      <trkpt lat="45.85907" lon="4.70595">
        <ele>195</ele>
        <time>2018-01-24T10:48:34Z</time>
      </trkpt>
      <trkpt lat="45.85912" lon="4.706">
        <ele>195</ele>
        <time>2018-01-24T10:48:35Z</time>
      </trkpt>
      <trkpt lat="45.85916" lon="4.70606">
        <ele>195</ele>
        <time>2018-01-24T10:48:36Z</time>
      </trkpt>
      <trkpt lat="45.85921" lon="4.70612">
        <ele>194</ele>
        <time>2018-01-24T10:48:37Z</time>
      </trkpt>
      <trkpt lat="45.85925" lon="4.70618">
        <ele>194</ele>
        <time>2018-01-24T10:48:38Z</time>
      </trkpt>
      <trkpt lat="45.85929" lon="4.70625">
        <ele>194</ele>
        <time>2018-01-24T10:48:39Z</time>
      </trkpt>
      <trkpt lat="45.85934" lon="4.70631">
        <ele>194</ele>
        <time>2018-01-24T10:48:40Z</time>
      </trkpt>
      <trkpt lat="45.85937" lon="4.70639">
        <ele>194</ele>
        <time>2018-01-24T10:48:41Z</time>
      </trkpt>
      <trkpt lat="45.85941" lon="4.70646">
        <ele>194</ele>
        <time>2018-01-24T10:48:42Z</time>
      </trkpt>
      <trkpt lat="45.85945" lon="4.70654">
        <ele>194</ele>
        <time>2018-01-24T10:48:43Z</time>
      </trkpt>
      <trkpt lat="45.85948" lon="4.70659">
        <ele>194</ele>
        <time>2018-01-24T10:48:44Z</time>
      </trkpt>
      <trkpt lat="45.85952" lon="4.70665">
        <ele>194</ele>
        <time>2018-01-24T10:48:45Z</time>
      </trkpt>
      <trkpt lat="45.85956" lon="4.7067">
        <ele>194</ele>
        <time>2018-01-24T10:48:46Z</time>
      </trkpt>
      <trkpt lat="45.85959" lon="4.70675">
        <ele>194</ele>
        <time>2018-01-24T10:48:47Z</time>
      </trkpt>
      <trkpt lat="45.85961" lon="4.70681">
        <ele>194</ele>
        <time>2018-01-24T10:48:48Z</time>
      </trkpt>
      <trkpt lat="45.85962" lon="4.70688">
        <ele>194</ele>
        <time>2018-01-24T10:48:49Z</time>
      </trkpt>
      <trkpt lat="45.85962" lon="4.70696">
        <ele>194</ele>
        <time>2018-01-24T10:48:50Z</time>
      </trkpt>
      <trkpt lat="45.85962" lon="4.70704">
        <ele>194</ele>
        <time>2018-01-24T10:48:51Z</time>
      </trkpt>
      <trkpt lat="45.85961" lon="4.70713">
        <ele>194</ele>
        <time>2018-01-24T10:48:52Z</time>
      </trkpt>
      <trkpt lat="45.8596" lon="4.7072">
        <ele>194</ele>
        <time>2018-01-24T10:48:53Z</time>
      </trkpt>
      <trkpt lat="45.85959" lon="4.70728">
        <ele>194</ele>
        <time>2018-01-24T10:48:54Z</time>
      </trkpt>
      <trkpt lat="45.85957" lon="4.70735">
        <ele>194</ele>
        <time>2018-01-24T10:48:55Z</time>
      </trkpt>
      <trkpt lat="45.85956" lon="4.70744">
        <ele>194</ele>
        <time>2018-01-24T10:48:56Z</time>
      </trkpt>
      <trkpt lat="45.85955" lon="4.70753">
        <ele>195</ele>
        <time>2018-01-24T10:48:57Z</time>
      </trkpt>
      <trkpt lat="45.85953" lon="4.70762">
        <ele>195</ele>
        <time>2018-01-24T10:48:58Z</time>
      </trkpt>
      <trkpt lat="45.85954" lon="4.70772">
        <ele>195</ele>
        <time>2018-01-24T10:48:59Z</time>
      </trkpt>
      <trkpt lat="45.85953" lon="4.7078">
        <ele>195</ele>
        <time>2018-01-24T10:49:00Z</time>
      </trkpt>
      <trkpt lat="45.85953" lon="4.70787">
        <ele>195</ele>
        <time>2018-01-24T10:49:01Z</time>
      </trkpt>
      <trkpt lat="45.85952" lon="4.70795">
        <ele>195</ele>
        <time>2018-01-24T10:49:02Z</time>
      </trkpt>
      <trkpt lat="45.85952" lon="4.70802">
        <ele>195</ele>
        <time>2018-01-24T10:49:03Z</time>
      </trkpt>
      <trkpt lat="45.85953" lon="4.70808">
        <ele>195</ele>
        <time>2018-01-24T10:49:04Z</time>
      </trkpt>
      <trkpt lat="45.85955" lon="4.70821">
        <ele>195</ele>
        <time>2018-01-24T10:49:06Z</time>
      </trkpt>
      <trkpt lat="45.85956" lon="4.70826">
        <ele>196</ele>
        <time>2018-01-24T10:49:07Z</time>
      </trkpt>
      <trkpt lat="45.85958" lon="4.70838">
        <ele>196</ele>
        <time>2018-01-24T10:49:09Z</time>
      </trkpt>
      <trkpt lat="45.85958" lon="4.70845">
        <ele>196</ele>
        <time>2018-01-24T10:49:10Z</time>
      </trkpt>
      <trkpt lat="45.85957" lon="4.70857">
        <ele>196</ele>
        <time>2018-01-24T10:49:12Z</time>
      </trkpt>
      <trkpt lat="45.85956" lon="4.70862">
        <ele>196</ele>
        <time>2018-01-24T10:49:13Z</time>
      </trkpt>
      <trkpt lat="45.85954" lon="4.70874">
        <ele>196</ele>
        <time>2018-01-24T10:49:15Z</time>
      </trkpt>
      <trkpt lat="45.85954" lon="4.7088">
        <ele>197</ele>
        <time>2018-01-24T10:49:16Z</time>
      </trkpt>
      <trkpt lat="45.85951" lon="4.70891">
        <ele>197</ele>
        <time>2018-01-24T10:49:18Z</time>
      </trkpt>
      <trkpt lat="45.85949" lon="4.70897">
        <ele>197</ele>
        <time>2018-01-24T10:49:19Z</time>
      </trkpt>
      <trkpt lat="45.85947" lon="4.70908">
        <ele>197</ele>
        <time>2018-01-24T10:49:21Z</time>
      </trkpt>
      <trkpt lat="45.85946" lon="4.70913">
        <ele>197</ele>
        <time>2018-01-24T10:49:22Z</time>
      </trkpt>
      <trkpt lat="45.85944" lon="4.70921">
        <ele>197</ele>
        <time>2018-01-24T10:49:23Z</time>
      </trkpt>
      <trkpt lat="45.85944" lon="4.70929">
        <ele>197</ele>
        <time>2018-01-24T10:49:24Z</time>
      </trkpt>
      <trkpt lat="45.85942" lon="4.70935">
        <ele>197</ele>
        <time>2018-01-24T10:49:25Z</time>
      </trkpt>
      <trkpt lat="45.8594" lon="4.70941">
        <ele>197</ele>
        <time>2018-01-24T10:49:26Z</time>
      </trkpt>
      <trkpt lat="45.85937" lon="4.70953">
        <ele>197</ele>
        <time>2018-01-24T10:49:28Z</time>
      </trkpt>
      <trkpt lat="45.85937" lon="4.70958">
        <ele>197</ele>
        <time>2018-01-24T10:49:29Z</time>
      </trkpt>
      <trkpt lat="45.85941" lon="4.70969">
        <ele>197</ele>
        <time>2018-01-24T10:49:31Z</time>
      </trkpt>
      <trkpt lat="45.85945" lon="4.70971">
        <ele>197</ele>
        <time>2018-01-24T10:49:32Z</time>
      </trkpt>
      <trkpt lat="45.8595" lon="4.70973">
        <ele>197</ele>
        <time>2018-01-24T10:49:33Z</time>
      </trkpt>
      <trkpt lat="45.85955" lon="4.70973">
        <ele>197</ele>
        <time>2018-01-24T10:49:34Z</time>
      </trkpt>
      <trkpt lat="45.8596" lon="4.70974">
        <ele>197</ele>
        <time>2018-01-24T10:49:35Z</time>
      </trkpt>
      <trkpt lat="45.85966" lon="4.70974">
        <ele>197</ele>
        <time>2018-01-24T10:49:36Z</time>
      </trkpt>
      <trkpt lat="45.85972" lon="4.70976">
        <ele>197</ele>
        <time>2018-01-24T10:49:37Z</time>
      </trkpt>
      <trkpt lat="45.85977" lon="4.70978">
        <ele>197</ele>
        <time>2018-01-24T10:49:38Z</time>
      </trkpt>
      <trkpt lat="45.85983" lon="4.70981">
        <ele>197</ele>
        <time>2018-01-24T10:49:39Z</time>
      </trkpt>
      <trkpt lat="45.85988" lon="4.70985">
        <ele>197</ele>
        <time>2018-01-24T10:49:40Z</time>
      </trkpt>
      <trkpt lat="45.85993" lon="4.70988">
        <ele>197</ele>
        <time>2018-01-24T10:49:41Z</time>
      </trkpt>
      <trkpt lat="45.85999" lon="4.70992">
        <ele>197</ele>
        <time>2018-01-24T10:49:42Z</time>
      </trkpt>
      <trkpt lat="45.86003" lon="4.70996">
        <ele>197</ele>
        <time>2018-01-24T10:49:43Z</time>
      </trkpt>
      <trkpt lat="45.86007" lon="4.71001">
        <ele>197</ele>
        <time>2018-01-24T10:49:44Z</time>
      </trkpt>
      <trkpt lat="45.86012" lon="4.71005">
        <ele>197</ele>
        <time>2018-01-24T10:49:45Z</time>
      </trkpt>
      <trkpt lat="45.86015" lon="4.7101">
        <ele>197</ele>
        <time>2018-01-24T10:49:46Z</time>
      </trkpt>
      <trkpt lat="45.86018" lon="4.71015">
        <ele>197</ele>
        <time>2018-01-24T10:49:47Z</time>
      </trkpt>
      <trkpt lat="45.86021" lon="4.7102">
        <ele>197</ele>
        <time>2018-01-24T10:49:48Z</time>
      </trkpt>
      <trkpt lat="45.86024" lon="4.71026">
        <ele>197</ele>
        <time>2018-01-24T10:49:49Z</time>
      </trkpt>
      <trkpt lat="45.86027" lon="4.71031">
        <ele>197</ele>
        <time>2018-01-24T10:49:50Z</time>
      </trkpt>
      <trkpt lat="45.86029" lon="4.71038">
        <ele>197</ele>
        <time>2018-01-24T10:49:51Z</time>
      </trkpt>
      <trkpt lat="45.86031" lon="4.71046">
        <ele>197</ele>
        <time>2018-01-24T10:49:52Z</time>
      </trkpt>
      <trkpt lat="45.86033" lon="4.71054">
        <ele>197</ele>
        <time>2018-01-24T10:49:53Z</time>
      </trkpt>
      <trkpt lat="45.86034" lon="4.71063">
        <ele>197</ele>
        <time>2018-01-24T10:49:54Z</time>
      </trkpt>
      <trkpt lat="45.86036" lon="4.71072">
        <ele>197</ele>
        <time>2018-01-24T10:49:55Z</time>
      </trkpt>
      <trkpt lat="45.86038" lon="4.71079">
        <ele>197</ele>
        <time>2018-01-24T10:49:56Z</time>
      </trkpt>
      <trkpt lat="45.86041" lon="4.71087">
        <ele>197</ele>
        <time>2018-01-24T10:49:57Z</time>
      </trkpt>
      <trkpt lat="45.86044" lon="4.71094">
        <ele>197</ele>
        <time>2018-01-24T10:49:58Z</time>
      </trkpt>
      <trkpt lat="45.86047" lon="4.711">
        <ele>197</ele>
        <time>2018-01-24T10:49:59Z</time>
      </trkpt>
      <trkpt lat="45.86052" lon="4.71107">
        <ele>197</ele>
        <time>2018-01-24T10:50:00Z</time>
      </trkpt>
      <trkpt lat="45.86056" lon="4.71112">
        <ele>197</ele>
        <time>2018-01-24T10:50:01Z</time>
      </trkpt>
      <trkpt lat="45.8606" lon="4.71118">
        <ele>197</ele>
        <time>2018-01-24T10:50:02Z</time>
      </trkpt>
      <trkpt lat="45.86064" lon="4.71123">
        <ele>197</ele>
        <time>2018-01-24T10:50:03Z</time>
      </trkpt>
      <trkpt lat="45.86068" lon="4.71127">
        <ele>197</ele>
        <time>2018-01-24T10:50:04Z</time>
      </trkpt>
      <trkpt lat="45.86073" lon="4.71131">
        <ele>197</ele>
        <time>2018-01-24T10:50:05Z</time>
      </trkpt>
      <trkpt lat="45.86077" lon="4.71134">
        <ele>197</ele>
        <time>2018-01-24T10:50:06Z</time>
      </trkpt>
      <trkpt lat="45.86081" lon="4.71138">
        <ele>197</ele>
        <time>2018-01-24T10:50:07Z</time>
      </trkpt>
      <trkpt lat="45.86084" lon="4.71144">
        <ele>197</ele>
        <time>2018-01-24T10:50:08Z</time>
      </trkpt>
      <trkpt lat="45.86088" lon="4.71153">
        <ele>197</ele>
        <time>2018-01-24T10:50:10Z</time>
      </trkpt>
      <trkpt lat="45.86087" lon="4.71162">
        <ele>198</ele>
        <time>2018-01-24T10:50:11Z</time>
      </trkpt>
      <trkpt lat="45.86088" lon="4.71173">
        <ele>198</ele>
        <time>2018-01-24T10:50:13Z</time>
      </trkpt>
      <trkpt lat="45.86086" lon="4.7118">
        <ele>197</ele>
        <time>2018-01-24T10:50:14Z</time>
      </trkpt>
      <trkpt lat="45.86085" lon="4.71186">
        <ele>197</ele>
        <time>2018-01-24T10:50:15Z</time>
      </trkpt>
      <trkpt lat="45.86084" lon="4.71193">
        <ele>197</ele>
        <time>2018-01-24T10:50:16Z</time>
      </trkpt>
      <trkpt lat="45.86084" lon="4.71201">
        <ele>197</ele>
        <time>2018-01-24T10:50:17Z</time>
      </trkpt>
      <trkpt lat="45.86084" lon="4.71206">
        <ele>197</ele>
        <time>2018-01-24T10:50:18Z</time>
      </trkpt>
      <trkpt lat="45.86083" lon="4.71213">
        <ele>198</ele>
        <time>2018-01-24T10:50:19Z</time>
      </trkpt>
      <trkpt lat="45.86081" lon="4.71219">
        <ele>198</ele>
        <time>2018-01-24T10:50:20Z</time>
      </trkpt>
      <trkpt lat="45.8608" lon="4.71227">
        <ele>198</ele>
        <time>2018-01-24T10:50:21Z</time>
      </trkpt>
      <trkpt lat="45.8608" lon="4.71235">
        <ele>198</ele>
        <time>2018-01-24T10:50:22Z</time>
      </trkpt>
      <trkpt lat="45.86081" lon="4.71245">
        <ele>198</ele>
        <time>2018-01-24T10:50:23Z</time>
      </trkpt>
      <trkpt lat="45.86081" lon="4.71252">
        <ele>198</ele>
        <time>2018-01-24T10:50:24Z</time>
      </trkpt>
      <trkpt lat="45.86083" lon="4.71258">
        <ele>198</ele>
        <time>2018-01-24T10:50:25Z</time>
      </trkpt>
      <trkpt lat="45.86086" lon="4.71263">
        <ele>197</ele>
        <time>2018-01-24T10:50:26Z</time>
      </trkpt>
      <trkpt lat="45.86092" lon="4.71271">
        <ele>197</ele>
        <time>2018-01-24T10:50:28Z</time>
      </trkpt>
      <trkpt lat="45.86094" lon="4.71277">
        <ele>197</ele>
        <time>2018-01-24T10:50:29Z</time>
      </trkpt>
      <trkpt lat="45.86096" lon="4.71283">
        <ele>197</ele>
        <time>2018-01-24T10:50:30Z</time>
      </trkpt>
      <trkpt lat="45.86097" lon="4.7129">
        <ele>197</ele>
        <time>2018-01-24T10:50:31Z</time>
      </trkpt>
      <trkpt lat="45.86098" lon="4.71297">
        <ele>197</ele>
        <time>2018-01-24T10:50:32Z</time>
      </trkpt>
      <trkpt lat="45.86099" lon="4.71305">
        <ele>197</ele>
        <time>2018-01-24T10:50:33Z</time>
      </trkpt>
      <trkpt lat="45.86101" lon="4.71313">
        <ele>197</ele>
        <time>2018-01-24T10:50:34Z</time>
      </trkpt>
      <trkpt lat="45.86102" lon="4.71319">
        <ele>197</ele>
        <time>2018-01-24T10:50:35Z</time>
      </trkpt>
      <trkpt lat="45.86103" lon="4.71326">
        <ele>197</ele>
        <time>2018-01-24T10:50:36Z</time>
      </trkpt>
      <trkpt lat="45.86103" lon="4.71334">
        <ele>196</ele>
        <time>2018-01-24T10:50:37Z</time>
      </trkpt>
      <trkpt lat="45.86106" lon="4.7134">
        <ele>196</ele>
        <time>2018-01-24T10:50:38Z</time>
      </trkpt>
      <trkpt lat="45.86107" lon="4.71348">
        <ele>196</ele>
        <time>2018-01-24T10:50:39Z</time>
      </trkpt>
      <trkpt lat="45.86108" lon="4.71355">
        <ele>196</ele>
        <time>2018-01-24T10:50:40Z</time>
      </trkpt>
      <trkpt lat="45.86109" lon="4.71364">
        <ele>196</ele>
        <time>2018-01-24T10:50:41Z</time>
      </trkpt>
      <trkpt lat="45.8611" lon="4.71371">
        <ele>196</ele>
        <time>2018-01-24T10:50:42Z</time>
      </trkpt>
      <trkpt lat="45.86112" lon="4.7138">
        <ele>196</ele>
        <time>2018-01-24T10:50:43Z</time>
      </trkpt>
      <trkpt lat="45.86113" lon="4.71388">
        <ele>196</ele>
        <time>2018-01-24T10:50:44Z</time>
      </trkpt>
      <trkpt lat="45.86113" lon="4.71397">
        <ele>196</ele>
        <time>2018-01-24T10:50:45Z</time>
      </trkpt>
      <trkpt lat="45.86114" lon="4.71406">
        <ele>196</ele>
        <time>2018-01-24T10:50:46Z</time>
      </trkpt>
      <trkpt lat="45.86115" lon="4.71414">
        <ele>196</ele>
        <time>2018-01-24T10:50:47Z</time>
      </trkpt>
      <trkpt lat="45.86116" lon="4.71423">
        <ele>195</ele>
        <time>2018-01-24T10:50:48Z</time>
      </trkpt>
      <trkpt lat="45.86117" lon="4.7143">
        <ele>195</ele>
        <time>2018-01-24T10:50:49Z</time>
      </trkpt>
      <trkpt lat="45.86119" lon="4.71438">
        <ele>195</ele>
        <time>2018-01-24T10:50:50Z</time>
      </trkpt>
      <trkpt lat="45.8612" lon="4.71445">
        <ele>195</ele>
        <time>2018-01-24T10:50:51Z</time>
      </trkpt>
      <trkpt lat="45.86122" lon="4.71451">
        <ele>195</ele>
        <time>2018-01-24T10:50:52Z</time>
      </trkpt>
      <trkpt lat="45.86123" lon="4.71459">
        <ele>195</ele>
        <time>2018-01-24T10:50:53Z</time>
      </trkpt>
      <trkpt lat="45.86125" lon="4.71466">
        <ele>195</ele>
        <time>2018-01-24T10:50:54Z</time>
      </trkpt>
      <trkpt lat="45.86128" lon="4.71472">
        <ele>195</ele>
        <time>2018-01-24T10:50:55Z</time>
      </trkpt>
      <trkpt lat="45.86131" lon="4.71479">
        <ele>195</ele>
        <time>2018-01-24T10:50:56Z</time>
      </trkpt>
      <trkpt lat="45.86132" lon="4.71486">
        <ele>195</ele>
        <time>2018-01-24T10:50:57Z</time>
      </trkpt>
      <trkpt lat="45.86135" lon="4.71492">
        <ele>195</ele>
        <time>2018-01-24T10:50:58Z</time>
      </trkpt>
      <trkpt lat="45.86138" lon="4.71498">
        <ele>195</ele>
        <time>2018-01-24T10:50:59Z</time>
      </trkpt>
      <trkpt lat="45.86141" lon="4.71504">
        <ele>195</ele>
        <time>2018-01-24T10:51:00Z</time>
      </trkpt>
      <trkpt lat="45.86144" lon="4.7151">
        <ele>195</ele>
        <time>2018-01-24T10:51:01Z</time>
      </trkpt>
      <trkpt lat="45.86147" lon="4.71518">
        <ele>195</ele>
        <time>2018-01-24T10:51:02Z</time>
      </trkpt>
      <trkpt lat="45.8615" lon="4.71525">
        <ele>195</ele>
        <time>2018-01-24T10:51:03Z</time>
      </trkpt>
      <trkpt lat="45.86153" lon="4.71532">
        <ele>195</ele>
        <time>2018-01-24T10:51:04Z</time>
      </trkpt>
      <trkpt lat="45.86157" lon="4.71538">
        <ele>195</ele>
        <time>2018-01-24T10:51:05Z</time>
      </trkpt>
      <trkpt lat="45.8616" lon="4.71544">
        <ele>196</ele>
        <time>2018-01-24T10:51:06Z</time>
      </trkpt>
      <trkpt lat="45.86164" lon="4.71551">
        <ele>196</ele>
        <time>2018-01-24T10:51:07Z</time>
      </trkpt>
      <trkpt lat="45.86167" lon="4.71557">
        <ele>195</ele>
        <time>2018-01-24T10:51:08Z</time>
      </trkpt>
      <trkpt lat="45.8617" lon="4.71562">
        <ele>195</ele>
        <time>2018-01-24T10:51:09Z</time>
      </trkpt>
      <trkpt lat="45.86174" lon="4.71568">
        <ele>195</ele>
        <time>2018-01-24T10:51:10Z</time>
      </trkpt>
      <trkpt lat="45.86177" lon="4.71574">
        <ele>196</ele>
        <time>2018-01-24T10:51:11Z</time>
      </trkpt>
      <trkpt lat="45.86182" lon="4.71583">
        <ele>195</ele>
        <time>2018-01-24T10:51:13Z</time>
      </trkpt>
      <trkpt lat="45.86185" lon="4.71588">
        <ele>196</ele>
        <time>2018-01-24T10:51:14Z</time>
      </trkpt>
      <trkpt lat="45.86186" lon="4.71597">
        <ele>196</ele>
        <time>2018-01-24T10:51:16Z</time>
      </trkpt>
      <trkpt lat="45.86186" lon="4.71603">
        <ele>195</ele>
        <time>2018-01-24T10:51:17Z</time>
      </trkpt>
      <trkpt lat="45.86184" lon="4.71615">
        <ele>195</ele>
        <time>2018-01-24T10:51:19Z</time>
      </trkpt>
      <trkpt lat="45.86184" lon="4.71621">
        <ele>195</ele>
        <time>2018-01-24T10:51:20Z</time>
      </trkpt>
      <trkpt lat="45.86185" lon="4.71633">
        <ele>195</ele>
        <time>2018-01-24T10:51:22Z</time>
      </trkpt>
      <trkpt lat="45.86188" lon="4.71637">
        <ele>195</ele>
        <time>2018-01-24T10:51:23Z</time>
      </trkpt>
      <trkpt lat="45.86195" lon="4.71642">
        <ele>195</ele>
        <time>2018-01-24T10:51:25Z</time>
      </trkpt>
      <trkpt lat="45.86199" lon="4.71643">
        <ele>195</ele>
        <time>2018-01-24T10:51:26Z</time>
      </trkpt>
      <trkpt lat="45.86207" lon="4.71645">
        <ele>195</ele>
        <time>2018-01-24T10:51:28Z</time>
      </trkpt>
      <trkpt lat="45.86212" lon="4.71648">
        <ele>195</ele>
        <time>2018-01-24T10:51:29Z</time>
      </trkpt>
      <trkpt lat="45.86216" lon="4.71651">
        <ele>195</ele>
        <time>2018-01-24T10:51:30Z</time>
      </trkpt>
      <trkpt lat="45.86222" lon="4.71654">
        <ele>195</ele>
        <time>2018-01-24T10:51:31Z</time>
      </trkpt>
      <trkpt lat="45.86227" lon="4.71658">
        <ele>195</ele>
        <time>2018-01-24T10:51:32Z</time>
      </trkpt>
      <trkpt lat="45.86232" lon="4.71663">
        <ele>195</ele>
        <time>2018-01-24T10:51:33Z</time>
      </trkpt>
      <trkpt lat="45.86237" lon="4.71667">
        <ele>196</ele>
        <time>2018-01-24T10:51:34Z</time>
      </trkpt>
      <trkpt lat="45.86243" lon="4.71671">
        <ele>196</ele>
        <time>2018-01-24T10:51:35Z</time>
      </trkpt>
      <trkpt lat="45.86248" lon="4.71676">
        <ele>196</ele>
        <time>2018-01-24T10:51:36Z</time>
      </trkpt>
      <trkpt lat="45.86253" lon="4.7168">
        <ele>195</ele>
        <time>2018-01-24T10:51:37Z</time>
      </trkpt>
      <trkpt lat="45.86258" lon="4.71684">
        <ele>195</ele>
        <time>2018-01-24T10:51:38Z</time>
      </trkpt>
      <trkpt lat="45.86263" lon="4.71687">
        <ele>195</ele>
        <time>2018-01-24T10:51:39Z</time>
      </trkpt>
      <trkpt lat="45.86269" lon="4.71692">
        <ele>195</ele>
        <time>2018-01-24T10:51:40Z</time>
      </trkpt>
      <trkpt lat="45.86274" lon="4.71696">
        <ele>195</ele>
        <time>2018-01-24T10:51:41Z</time>
      </trkpt>
      <trkpt lat="45.8628" lon="4.717">
        <ele>195</ele>
        <time>2018-01-24T10:51:42Z</time>
      </trkpt>
      <trkpt lat="45.86286" lon="4.71704">
        <ele>195</ele>
        <time>2018-01-24T10:51:43Z</time>
      </trkpt>
      <trkpt lat="45.86292" lon="4.7171">
        <ele>196</ele>
        <time>2018-01-24T10:51:44Z</time>
      </trkpt>
      <trkpt lat="45.86298" lon="4.71714">
        <ele>196</ele>
        <time>2018-01-24T10:51:45Z</time>
      </trkpt>
      <trkpt lat="45.86304" lon="4.71719">
        <ele>196</ele>
        <time>2018-01-24T10:51:46Z</time>
      </trkpt>
      <trkpt lat="45.86309" lon="4.71724">
        <ele>196</ele>
        <time>2018-01-24T10:51:47Z</time>
      </trkpt>
      <trkpt lat="45.86315" lon="4.71729">
        <ele>196</ele>
        <time>2018-01-24T10:51:48Z</time>
      </trkpt>
      <trkpt lat="45.8632" lon="4.71733">
        <ele>196</ele>
        <time>2018-01-24T10:51:49Z</time>
      </trkpt>
      <trkpt lat="45.86326" lon="4.71738">
        <ele>196</ele>
        <time>2018-01-24T10:51:50Z</time>
      </trkpt>
      <trkpt lat="45.86333" lon="4.71743">
        <ele>196</ele>
        <time>2018-01-24T10:51:51Z</time>
      </trkpt>
      <trkpt lat="45.86338" lon="4.71747">
        <ele>195</ele>
        <time>2018-01-24T10:51:52Z</time>
      </trkpt>
      <trkpt lat="45.86344" lon="4.7175">
        <ele>195</ele>
        <time>2018-01-24T10:51:53Z</time>
      </trkpt>
      <trkpt lat="45.8635" lon="4.71754">
        <ele>197</ele>
        <time>2018-01-24T10:51:54Z</time>
      </trkpt>
      <trkpt lat="45.86355" lon="4.71759">
        <ele>198</ele>
        <time>2018-01-24T10:51:55Z</time>
      </trkpt>
      <trkpt lat="45.8636" lon="4.71763">
        <ele>198</ele>
        <time>2018-01-24T10:51:56Z</time>
      </trkpt>
      <trkpt lat="45.86365" lon="4.71767">
        <ele>198</ele>
        <time>2018-01-24T10:51:57Z</time>
      </trkpt>
      <trkpt lat="45.8637" lon="4.71772">
        <ele>198</ele>
        <time>2018-01-24T10:51:58Z</time>
      </trkpt>
      <trkpt lat="45.86375" lon="4.71776">
        <ele>198</ele>
        <time>2018-01-24T10:51:59Z</time>
      </trkpt>
      <trkpt lat="45.86381" lon="4.71778">
        <ele>198</ele>
        <time>2018-01-24T10:52:00Z</time>
      </trkpt>
      <trkpt lat="45.86386" lon="4.71782">
        <ele>198</ele>
        <time>2018-01-24T10:52:01Z</time>
      </trkpt>
      <trkpt lat="45.86391" lon="4.71786">
        <ele>198</ele>
        <time>2018-01-24T10:52:02Z</time>
      </trkpt>
      <trkpt lat="45.86396" lon="4.7179">
        <ele>199</ele>
        <time>2018-01-24T10:52:03Z</time>
      </trkpt>
      <trkpt lat="45.86401" lon="4.71794">
        <ele>199</ele>
        <time>2018-01-24T10:52:04Z</time>
      </trkpt>
      <trkpt lat="45.86406" lon="4.71799">
        <ele>199</ele>
        <time>2018-01-24T10:52:05Z</time>
      </trkpt>
      <trkpt lat="45.86412" lon="4.71802">
        <ele>199</ele>
        <time>2018-01-24T10:52:06Z</time>
      </trkpt>
      <trkpt lat="45.86417" lon="4.71806">
        <ele>197</ele>
        <time>2018-01-24T10:52:07Z</time>
      </trkpt>
      <trkpt lat="45.86422" lon="4.71811">
        <ele>198</ele>
        <time>2018-01-24T10:52:08Z</time>
      </trkpt>
      <trkpt lat="45.86428" lon="4.71814">
        <ele>198</ele>
        <time>2018-01-24T10:52:09Z</time>
      </trkpt>
      <trkpt lat="45.86435" lon="4.71818">
        <ele>198</ele>
        <time>2018-01-24T10:52:10Z</time>
      </trkpt>
      <trkpt lat="45.86441" lon="4.71822">
        <ele>198</ele>
        <time>2018-01-24T10:52:11Z</time>
      </trkpt>
      <trkpt lat="45.86446" lon="4.71828">
        <ele>197</ele>
        <time>2018-01-24T10:52:12Z</time>
      </trkpt>
      <trkpt lat="45.86452" lon="4.71834">
        <ele>200</ele>
        <time>2018-01-24T10:52:13Z</time>
      </trkpt>
      <trkpt lat="45.86458" lon="4.71839">
        <ele>200</ele>
        <time>2018-01-24T10:52:14Z</time>
      </trkpt>
      <trkpt lat="45.86464" lon="4.71845">
        <ele>199</ele>
        <time>2018-01-24T10:52:15Z</time>
      </trkpt>
      <trkpt lat="45.86469" lon="4.71849">
        <ele>199</ele>
        <time>2018-01-24T10:52:16Z</time>
      </trkpt>
      <trkpt lat="45.86476" lon="4.71854">
        <ele>199</ele>
        <time>2018-01-24T10:52:17Z</time>
      </trkpt>
      <trkpt lat="45.86482" lon="4.7186">
        <ele>199</ele>
        <time>2018-01-24T10:52:18Z</time>
      </trkpt>
      <trkpt lat="45.86488" lon="4.71866">
        <ele>199</ele>
        <time>2018-01-24T10:52:19Z</time>
      </trkpt>
      <trkpt lat="45.86494" lon="4.71872">
        <ele>199</ele>
        <time>2018-01-24T10:52:20Z</time>
      </trkpt>
      <trkpt lat="45.86499" lon="4.71877">
        <ele>199</ele>
        <time>2018-01-24T10:52:21Z</time>
      </trkpt>
      <trkpt lat="45.86505" lon="4.71881">
        <ele>195</ele>
        <time>2018-01-24T10:52:22Z</time>
      </trkpt>
      <trkpt lat="45.86511" lon="4.71885">
        <ele>195</ele>
        <time>2018-01-24T10:52:23Z</time>
      </trkpt>
      <trkpt lat="45.86517" lon="4.7189">
        <ele>195</ele>
        <time>2018-01-24T10:52:24Z</time>
      </trkpt>
      <trkpt lat="45.86522" lon="4.71894">
        <ele>195</ele>
        <time>2018-01-24T10:52:25Z</time>
      </trkpt>
      <trkpt lat="45.86527" lon="4.71898">
        <ele>195</ele>
        <time>2018-01-24T10:52:26Z</time>
      </trkpt>
      <trkpt lat="45.86533" lon="4.71902">
        <ele>195</ele>
        <time>2018-01-24T10:52:27Z</time>
      </trkpt>
      <trkpt lat="45.86538" lon="4.71906">
        <ele>195</ele>
        <time>2018-01-24T10:52:28Z</time>
      </trkpt>
      <trkpt lat="45.86543" lon="4.7191">
        <ele>195</ele>
        <time>2018-01-24T10:52:29Z</time>
      </trkpt>
      <trkpt lat="45.86549" lon="4.71913">
        <ele>195</ele>
        <time>2018-01-24T10:52:30Z</time>
      </trkpt>
      <trkpt lat="45.86555" lon="4.71918">
        <ele>196</ele>
        <time>2018-01-24T10:52:31Z</time>
      </trkpt>
      <trkpt lat="45.8656" lon="4.71921">
        <ele>196</ele>
        <time>2018-01-24T10:52:32Z</time>
      </trkpt>
      <trkpt lat="45.86565" lon="4.71926">
        <ele>195</ele>
        <time>2018-01-24T10:52:33Z</time>
      </trkpt>
      <trkpt lat="45.86571" lon="4.7193">
        <ele>195</ele>
        <time>2018-01-24T10:52:34Z</time>
      </trkpt>
      <trkpt lat="45.86576" lon="4.71935">
        <ele>195</ele>
        <time>2018-01-24T10:52:35Z</time>
      </trkpt>
      <trkpt lat="45.86581" lon="4.7194">
        <ele>195</ele>
        <time>2018-01-24T10:52:36Z</time>
      </trkpt>
      <trkpt lat="45.86587" lon="4.71944">
        <ele>194</ele>
        <time>2018-01-24T10:52:37Z</time>
      </trkpt>
      <trkpt lat="45.86593" lon="4.7195">
        <ele>194</ele>
        <time>2018-01-24T10:52:38Z</time>
      </trkpt>
      <trkpt lat="45.86599" lon="4.71956">
        <ele>194</ele>
        <time>2018-01-24T10:52:39Z</time>
      </trkpt>
      <trkpt lat="45.86605" lon="4.71961">
        <ele>195</ele>
        <time>2018-01-24T10:52:40Z</time>
      </trkpt>
      <trkpt lat="45.86611" lon="4.71967">
        <ele>195</ele>
        <time>2018-01-24T10:52:41Z</time>
      </trkpt>
      <trkpt lat="45.86618" lon="4.71972">
        <ele>195</ele>
        <time>2018-01-24T10:52:42Z</time>
      </trkpt>
      <trkpt lat="45.86625" lon="4.71977">
        <ele>195</ele>
        <time>2018-01-24T10:52:43Z</time>
      </trkpt>
      <trkpt lat="45.86631" lon="4.71982">
        <ele>195</ele>
        <time>2018-01-24T10:52:44Z</time>
      </trkpt>
      <trkpt lat="45.86637" lon="4.71987">
        <ele>195</ele>
        <time>2018-01-24T10:52:45Z</time>
      </trkpt>
      <trkpt lat="45.86644" lon="4.71993">
        <ele>195</ele>
        <time>2018-01-24T10:52:46Z</time>
      </trkpt>
      <trkpt lat="45.86651" lon="4.71998">
        <ele>195</ele>
        <time>2018-01-24T10:52:47Z</time>
      </trkpt>
      <trkpt lat="45.86658" lon="4.72004">
        <ele>196</ele>
        <time>2018-01-24T10:52:48Z</time>
      </trkpt>
      <trkpt lat="45.86664" lon="4.72009">
        <ele>196</ele>
        <time>2018-01-24T10:52:49Z</time>
      </trkpt>
      <trkpt lat="45.86672" lon="4.72013">
        <ele>196</ele>
        <time>2018-01-24T10:52:50Z</time>
      </trkpt>
      <trkpt lat="45.86678" lon="4.72019">
        <ele>196</ele>
        <time>2018-01-24T10:52:51Z</time>
      </trkpt>
      <trkpt lat="45.86685" lon="4.72023">
        <ele>197</ele>
        <time>2018-01-24T10:52:52Z</time>
      </trkpt>
      <trkpt lat="45.86693" lon="4.72027">
        <ele>197</ele>
        <time>2018-01-24T10:52:53Z</time>
      </trkpt>
      <trkpt lat="45.867" lon="4.72033">
        <ele>197</ele>
        <time>2018-01-24T10:52:54Z</time>
      </trkpt>
      <trkpt lat="45.86707" lon="4.72039">
        <ele>197</ele>
        <time>2018-01-24T10:52:55Z</time>
      </trkpt>
      <trkpt lat="45.86713" lon="4.72044">
        <ele>197</ele>
        <time>2018-01-24T10:52:56Z</time>
      </trkpt>
      <trkpt lat="45.8672" lon="4.72048">
        <ele>197</ele>
        <time>2018-01-24T10:52:57Z</time>
      </trkpt>
      <trkpt lat="45.86727" lon="4.72053">
        <ele>197</ele>
        <time>2018-01-24T10:52:58Z</time>
      </trkpt>
      <trkpt lat="45.86733" lon="4.72057">
        <ele>197</ele>
        <time>2018-01-24T10:52:59Z</time>
      </trkpt>
      <trkpt lat="45.8674" lon="4.7206">
        <ele>197</ele>
        <time>2018-01-24T10:53:00Z</time>
      </trkpt>
      <trkpt lat="45.86746" lon="4.72063">
        <ele>197</ele>
        <time>2018-01-24T10:53:01Z</time>
      </trkpt>
      <trkpt lat="45.86753" lon="4.72067">
        <ele>195</ele>
        <time>2018-01-24T10:53:02Z</time>
      </trkpt>
      <trkpt lat="45.8676" lon="4.72068">
        <ele>195</ele>
        <time>2018-01-24T10:53:03Z</time>
      </trkpt>
      <trkpt lat="45.86766" lon="4.72072">
        <ele>195</ele>
        <time>2018-01-24T10:53:04Z</time>
      </trkpt>
      <trkpt lat="45.86772" lon="4.72074">
        <ele>195</ele>
        <time>2018-01-24T10:53:05Z</time>
      </trkpt>
      <trkpt lat="45.86778" lon="4.72077">
        <ele>195</ele>
        <time>2018-01-24T10:53:06Z</time>
      </trkpt>
      <trkpt lat="45.86785" lon="4.72081">
        <ele>194</ele>
        <time>2018-01-24T10:53:07Z</time>
      </trkpt>
      <trkpt lat="45.86792" lon="4.72084">
        <ele>201</ele>
        <time>2018-01-24T10:53:08Z</time>
      </trkpt>
      <trkpt lat="45.86799" lon="4.72085">
        <ele>201</ele>
        <time>2018-01-24T10:53:09Z</time>
      </trkpt>
      <trkpt lat="45.86806" lon="4.72088">
        <ele>200</ele>
        <time>2018-01-24T10:53:10Z</time>
      </trkpt>
      <trkpt lat="45.86813" lon="4.72091">
        <ele>200</ele>
        <time>2018-01-24T10:53:11Z</time>
      </trkpt>
      <trkpt lat="45.8682" lon="4.72094">
        <ele>199</ele>
        <time>2018-01-24T10:53:12Z</time>
      </trkpt>
      <trkpt lat="45.86827" lon="4.72097">
        <ele>199</ele>
        <time>2018-01-24T10:53:13Z</time>
      </trkpt>
      <trkpt lat="45.86834" lon="4.721">
        <ele>198</ele>
        <time>2018-01-24T10:53:14Z</time>
      </trkpt>
      <trkpt lat="45.86841" lon="4.72102">
        <ele>199</ele>
        <time>2018-01-24T10:53:15Z</time>
      </trkpt>
      <trkpt lat="45.86848" lon="4.72106">
        <ele>200</ele>
        <time>2018-01-24T10:53:16Z</time>
      </trkpt>
      <trkpt lat="45.86855" lon="4.72109">
        <ele>201</ele>
        <time>2018-01-24T10:53:17Z</time>
      </trkpt>
      <trkpt lat="45.86862" lon="4.72112">
        <ele>201</ele>
        <time>2018-01-24T10:53:18Z</time>
      </trkpt>
      <trkpt lat="45.86868" lon="4.72114">
        <ele>201</ele>
        <time>2018-01-24T10:53:19Z</time>
      </trkpt>
      <trkpt lat="45.86874" lon="4.72117">
        <ele>202</ele>
        <time>2018-01-24T10:53:20Z</time>
      </trkpt>
      <trkpt lat="45.8688" lon="4.72118">
        <ele>202</ele>
        <time>2018-01-24T10:53:21Z</time>
      </trkpt>
      <trkpt lat="45.86886" lon="4.72121">
        <ele>202</ele>
        <time>2018-01-24T10:53:22Z</time>
      </trkpt>
      <trkpt lat="45.86893" lon="4.72124">
        <ele>202</ele>
        <time>2018-01-24T10:53:23Z</time>
      </trkpt>
      <trkpt lat="45.869" lon="4.72127">
        <ele>203</ele>
        <time>2018-01-24T10:53:24Z</time>
      </trkpt>
      <trkpt lat="45.86907" lon="4.72129">
        <ele>203</ele>
        <time>2018-01-24T10:53:25Z</time>
      </trkpt>
      <trkpt lat="45.86914" lon="4.72131">
        <ele>203</ele>
        <time>2018-01-24T10:53:26Z</time>
      </trkpt>
      <trkpt lat="45.86921" lon="4.72135">
        <ele>202</ele>
        <time>2018-01-24T10:53:27Z</time>
      </trkpt>
      <trkpt lat="45.86928" lon="4.72139">
        <ele>202</ele>
        <time>2018-01-24T10:53:28Z</time>
      </trkpt>
      <trkpt lat="45.86935" lon="4.72143">
        <ele>202</ele>
        <time>2018-01-24T10:53:29Z</time>
      </trkpt>
      <trkpt lat="45.86943" lon="4.72147">
        <ele>202</ele>
        <time>2018-01-24T10:53:30Z</time>
      </trkpt>
      <trkpt lat="45.86949" lon="4.7215">
        <ele>202</ele>
        <time>2018-01-24T10:53:31Z</time>
      </trkpt>
      <trkpt lat="45.86956" lon="4.72155">
        <ele>202</ele>
        <time>2018-01-24T10:53:32Z</time>
      </trkpt>
      <trkpt lat="45.86963" lon="4.72159">
        <ele>201</ele>
        <time>2018-01-24T10:53:33Z</time>
      </trkpt>
      <trkpt lat="45.86968" lon="4.72164">
        <ele>201</ele>
        <time>2018-01-24T10:53:34Z</time>
      </trkpt>
      <trkpt lat="45.86974" lon="4.72166">
        <ele>201</ele>
        <time>2018-01-24T10:53:35Z</time>
      </trkpt>
      <trkpt lat="45.8698" lon="4.7217">
        <ele>207</ele>
        <time>2018-01-24T10:53:36Z</time>
      </trkpt>
      <trkpt lat="45.86986" lon="4.72174">
        <ele>206</ele>
        <time>2018-01-24T10:53:37Z</time>
      </trkpt>
      <trkpt lat="45.86991" lon="4.72178">
        <ele>206</ele>
        <time>2018-01-24T10:53:38Z</time>
      </trkpt>
      <trkpt lat="45.86996" lon="4.72182">
        <ele>206</ele>
        <time>2018-01-24T10:53:39Z</time>
      </trkpt>
      <trkpt lat="45.87002" lon="4.72186">
        <ele>201</ele>
        <time>2018-01-24T10:53:40Z</time>
      </trkpt>
      <trkpt lat="45.87007" lon="4.7219">
        <ele>202</ele>
        <time>2018-01-24T10:53:41Z</time>
      </trkpt>
      <trkpt lat="45.87012" lon="4.72194">
        <ele>202</ele>
        <time>2018-01-24T10:53:42Z</time>
      </trkpt>
      <trkpt lat="45.87016" lon="4.72198">
        <ele>202</ele>
        <time>2018-01-24T10:53:43Z</time>
      </trkpt>
      <trkpt lat="45.87022" lon="4.722">
        <ele>202</ele>
        <time>2018-01-24T10:53:44Z</time>
      </trkpt>
      <trkpt lat="45.87027" lon="4.72204">
        <ele>202</ele>
        <time>2018-01-24T10:53:45Z</time>
      </trkpt>
      <trkpt lat="45.87031" lon="4.72208">
        <ele>202</ele>
        <time>2018-01-24T10:53:46Z</time>
      </trkpt>
      <trkpt lat="45.87036" lon="4.72211">
        <ele>201</ele>
        <time>2018-01-24T10:53:47Z</time>
      </trkpt>
      <trkpt lat="45.87042" lon="4.72214">
        <ele>201</ele>
        <time>2018-01-24T10:53:48Z</time>
      </trkpt>
      <trkpt lat="45.87047" lon="4.72218">
        <ele>201</ele>
        <time>2018-01-24T10:53:49Z</time>
      </trkpt>
      <trkpt lat="45.87052" lon="4.72223">
        <ele>201</ele>
        <time>2018-01-24T10:53:50Z</time>
      </trkpt>
      <trkpt lat="45.87057" lon="4.72228">
        <ele>201</ele>
        <time>2018-01-24T10:53:51Z</time>
      </trkpt>
      <trkpt lat="45.87062" lon="4.72234">
        <ele>200</ele>
        <time>2018-01-24T10:53:52Z</time>
      </trkpt>
      <trkpt lat="45.87067" lon="4.72239">
        <ele>200</ele>
        <time>2018-01-24T10:53:53Z</time>
      </trkpt>
      <trkpt lat="45.87072" lon="4.72243">
        <ele>200</ele>
        <time>2018-01-24T10:53:54Z</time>
      </trkpt>
      <trkpt lat="45.87078" lon="4.72248">
        <ele>199</ele>
        <time>2018-01-24T10:53:55Z</time>
      </trkpt>
      <trkpt lat="45.87082" lon="4.72254">
        <ele>200</ele>
        <time>2018-01-24T10:53:56Z</time>
      </trkpt>
      <trkpt lat="45.87087" lon="4.72259">
        <ele>198</ele>
        <time>2018-01-24T10:53:57Z</time>
      </trkpt>
      <trkpt lat="45.87091" lon="4.72264">
        <ele>198</ele>
        <time>2018-01-24T10:53:58Z</time>
      </trkpt>
      <trkpt lat="45.87096" lon="4.7227">
        <ele>198</ele>
        <time>2018-01-24T10:53:59Z</time>
      </trkpt>
      <trkpt lat="45.871" lon="4.72275">
        <ele>197</ele>
        <time>2018-01-24T10:54:00Z</time>
      </trkpt>
      <trkpt lat="45.87103" lon="4.7228">
        <ele>197</ele>
        <time>2018-01-24T10:54:01Z</time>
      </trkpt>
      <trkpt lat="45.87107" lon="4.72285">
        <ele>197</ele>
        <time>2018-01-24T10:54:02Z</time>
      </trkpt>
      <trkpt lat="45.87111" lon="4.7229">
        <ele>197</ele>
        <time>2018-01-24T10:54:03Z</time>
      </trkpt>
      <trkpt lat="45.87114" lon="4.72296">
        <ele>197</ele>
        <time>2018-01-24T10:54:04Z</time>
      </trkpt>
      <trkpt lat="45.87118" lon="4.72302">
        <ele>197</ele>
        <time>2018-01-24T10:54:05Z</time>
      </trkpt>
      <trkpt lat="45.87121" lon="4.72308">
        <ele>197</ele>
        <time>2018-01-24T10:54:06Z</time>
      </trkpt>
      <trkpt lat="45.87125" lon="4.72315">
        <ele>196</ele>
        <time>2018-01-24T10:54:07Z</time>
      </trkpt>
      <trkpt lat="45.87127" lon="4.72322">
        <ele>196</ele>
        <time>2018-01-24T10:54:08Z</time>
      </trkpt>
      <trkpt lat="45.8713" lon="4.72329">
        <ele>196</ele>
        <time>2018-01-24T10:54:09Z</time>
      </trkpt>
      <trkpt lat="45.87134" lon="4.72336">
        <ele>198</ele>
        <time>2018-01-24T10:54:10Z</time>
      </trkpt>
      <trkpt lat="45.87137" lon="4.72343">
        <ele>197</ele>
        <time>2018-01-24T10:54:11Z</time>
      </trkpt>
      <trkpt lat="45.87139" lon="4.72352">
        <ele>197</ele>
        <time>2018-01-24T10:54:12Z</time>
      </trkpt>
      <trkpt lat="45.87142" lon="4.7236">
        <ele>197</ele>
        <time>2018-01-24T10:54:13Z</time>
      </trkpt>
      <trkpt lat="45.87146" lon="4.72368">
        <ele>197</ele>
        <time>2018-01-24T10:54:14Z</time>
      </trkpt>
      <trkpt lat="45.87149" lon="4.72375">
        <ele>197</ele>
        <time>2018-01-24T10:54:15Z</time>
      </trkpt>
      <trkpt lat="45.87152" lon="4.72383">
        <ele>197</ele>
        <time>2018-01-24T10:54:16Z</time>
      </trkpt>
      <trkpt lat="45.87156" lon="4.72391">
        <ele>197</ele>
        <time>2018-01-24T10:54:17Z</time>
      </trkpt>
      <trkpt lat="45.87159" lon="4.72398">
        <ele>197</ele>
        <time>2018-01-24T10:54:18Z</time>
      </trkpt>
      <trkpt lat="45.87163" lon="4.72405">
        <ele>196</ele>
        <time>2018-01-24T10:54:19Z</time>
      </trkpt>
      <trkpt lat="45.87167" lon="4.72412">
        <ele>193</ele>
        <time>2018-01-24T10:54:20Z</time>
      </trkpt>
      <trkpt lat="45.87171" lon="4.72418">
        <ele>194</ele>
        <time>2018-01-24T10:54:21Z</time>
      </trkpt>
      <trkpt lat="45.87173" lon="4.72425">
        <ele>194</ele>
        <time>2018-01-24T10:54:22Z</time>
      </trkpt>
      <trkpt lat="45.87177" lon="4.72431">
        <ele>194</ele>
        <time>2018-01-24T10:54:23Z</time>
      </trkpt>
      <trkpt lat="45.87179" lon="4.72438">
        <ele>194</ele>
        <time>2018-01-24T10:54:24Z</time>
      </trkpt>
      <trkpt lat="45.87181" lon="4.72444">
        <ele>194</ele>
        <time>2018-01-24T10:54:25Z</time>
      </trkpt>
      <trkpt lat="45.87183" lon="4.72451">
        <ele>195</ele>
        <time>2018-01-24T10:54:26Z</time>
      </trkpt>
      <trkpt lat="45.87187" lon="4.72457">
        <ele>195</ele>
        <time>2018-01-24T10:54:27Z</time>
      </trkpt>
      <trkpt lat="45.87189" lon="4.72464">
        <ele>195</ele>
        <time>2018-01-24T10:54:28Z</time>
      </trkpt>
      <trkpt lat="45.87192" lon="4.7247">
        <ele>195</ele>
        <time>2018-01-24T10:54:29Z</time>
      </trkpt>
      <trkpt lat="45.87195" lon="4.72476">
        <ele>195</ele>
        <time>2018-01-24T10:54:30Z</time>
      </trkpt>
      <trkpt lat="45.87197" lon="4.72483">
        <ele>196</ele>
        <time>2018-01-24T10:54:31Z</time>
      </trkpt>
      <trkpt lat="45.87199" lon="4.7249">
        <ele>196</ele>
        <time>2018-01-24T10:54:32Z</time>
      </trkpt>
      <trkpt lat="45.872" lon="4.72497">
        <ele>196</ele>
        <time>2018-01-24T10:54:33Z</time>
      </trkpt>
      <trkpt lat="45.87202" lon="4.72504">
        <ele>198</ele>
        <time>2018-01-24T10:54:34Z</time>
      </trkpt>
      <trkpt lat="45.87203" lon="4.72511">
        <ele>198</ele>
        <time>2018-01-24T10:54:35Z</time>
      </trkpt>
      <trkpt lat="45.87205" lon="4.72519">
        <ele>198</ele>
        <time>2018-01-24T10:54:36Z</time>
      </trkpt>
      <trkpt lat="45.87205" lon="4.72527">
        <ele>198</ele>
        <time>2018-01-24T10:54:37Z</time>
      </trkpt>
      <trkpt lat="45.87207" lon="4.72534">
        <ele>198</ele>
        <time>2018-01-24T10:54:38Z</time>
      </trkpt>
      <trkpt lat="45.87207" lon="4.72541">
        <ele>198</ele>
        <time>2018-01-24T10:54:39Z</time>
      </trkpt>
      <trkpt lat="45.87208" lon="4.72549">
        <ele>198</ele>
        <time>2018-01-24T10:54:40Z</time>
      </trkpt>
      <trkpt lat="45.87207" lon="4.72556">
        <ele>199</ele>
        <time>2018-01-24T10:54:41Z</time>
      </trkpt>
      <trkpt lat="45.87207" lon="4.72564">
        <ele>199</ele>
        <time>2018-01-24T10:54:42Z</time>
      </trkpt>
      <trkpt lat="45.87206" lon="4.72572">
        <ele>199</ele>
        <time>2018-01-24T10:54:43Z</time>
      </trkpt>
      <trkpt lat="45.87205" lon="4.72584">
        <ele>199</ele>
        <time>2018-01-24T10:54:45Z</time>
      </trkpt>
      <trkpt lat="45.87203" lon="4.7259">
        <ele>199</ele>
        <time>2018-01-24T10:54:46Z</time>
      </trkpt>
      <trkpt lat="45.87202" lon="4.72596">
        <ele>199</ele>
        <time>2018-01-24T10:54:47Z</time>
      </trkpt>
      <trkpt lat="45.87201" lon="4.72603">
        <ele>199</ele>
        <time>2018-01-24T10:54:48Z</time>
      </trkpt>
      <trkpt lat="45.87199" lon="4.72615">
        <ele>199</ele>
        <time>2018-01-24T10:54:50Z</time>
      </trkpt>
      <trkpt lat="45.87197" lon="4.7262">
        <ele>199</ele>
        <time>2018-01-24T10:54:51Z</time>
      </trkpt>
      <trkpt lat="45.87195" lon="4.72626">
        <ele>199</ele>
        <time>2018-01-24T10:54:52Z</time>
      </trkpt>
      <trkpt lat="45.87194" lon="4.72632">
        <ele>199</ele>
        <time>2018-01-24T10:54:53Z</time>
      </trkpt>
      <trkpt lat="45.8719" lon="4.72643">
        <ele>199</ele>
        <time>2018-01-24T10:54:55Z</time>
      </trkpt>
      <trkpt lat="45.87189" lon="4.7265">
        <ele>199</ele>
        <time>2018-01-24T10:54:56Z</time>
      </trkpt>
      <trkpt lat="45.87186" lon="4.72661">
        <ele>199</ele>
        <time>2018-01-24T10:54:58Z</time>
      </trkpt>
      <trkpt lat="45.87184" lon="4.72667">
        <ele>199</ele>
        <time>2018-01-24T10:54:59Z</time>
      </trkpt>
      <trkpt lat="45.87181" lon="4.72678">
        <ele>199</ele>
        <time>2018-01-24T10:55:01Z</time>
      </trkpt>
      <trkpt lat="45.87179" lon="4.72684">
        <ele>199</ele>
        <time>2018-01-24T10:55:02Z</time>
      </trkpt>
      <trkpt lat="45.87176" lon="4.72695">
        <ele>199</ele>
        <time>2018-01-24T10:55:04Z</time>
      </trkpt>
      <trkpt lat="45.87174" lon="4.72701">
        <ele>199</ele>
        <time>2018-01-24T10:55:05Z</time>
      </trkpt>
      <trkpt lat="45.87171" lon="4.72713">
        <ele>199</ele>
        <time>2018-01-24T10:55:07Z</time>
      </trkpt>
      <trkpt lat="45.8717" lon="4.72719">
        <ele>199</ele>
        <time>2018-01-24T10:55:08Z</time>
      </trkpt>
      <trkpt lat="45.87167" lon="4.72731">
        <ele>200</ele>
        <time>2018-01-24T10:55:10Z</time>
      </trkpt>
      <trkpt lat="45.87166" lon="4.72737">
        <ele>202</ele>
        <time>2018-01-24T10:55:11Z</time>
      </trkpt>
      <trkpt lat="45.87165" lon="4.72744">
        <ele>201</ele>
        <time>2018-01-24T10:55:12Z</time>
      </trkpt>
      <trkpt lat="45.87164" lon="4.7275">
        <ele>201</ele>
        <time>2018-01-24T10:55:13Z</time>
      </trkpt>
      <trkpt lat="45.87163" lon="4.72762">
        <ele>202</ele>
        <time>2018-01-24T10:55:15Z</time>
      </trkpt>
      <trkpt lat="45.87163" lon="4.72769">
        <ele>203</ele>
        <time>2018-01-24T10:55:16Z</time>
      </trkpt>
      <trkpt lat="45.87163" lon="4.72781">
        <ele>203</ele>
        <time>2018-01-24T10:55:18Z</time>
      </trkpt>
      <trkpt lat="45.87163" lon="4.72787">
        <ele>203</ele>
        <time>2018-01-24T10:55:19Z</time>
      </trkpt>
      <trkpt lat="45.87164" lon="4.72799">
        <ele>203</ele>
        <time>2018-01-24T10:55:21Z</time>
      </trkpt>
      <trkpt lat="45.87165" lon="4.72805">
        <ele>203</ele>
        <time>2018-01-24T10:55:22Z</time>
      </trkpt>
      <trkpt lat="45.87165" lon="4.72817">
        <ele>203</ele>
        <time>2018-01-24T10:55:24Z</time>
      </trkpt>
      <trkpt lat="45.87164" lon="4.72823">
        <ele>203</ele>
        <time>2018-01-24T10:55:25Z</time>
      </trkpt>
      <trkpt lat="45.87163" lon="4.72835">
        <ele>203</ele>
        <time>2018-01-24T10:55:27Z</time>
      </trkpt>
      <trkpt lat="45.87163" lon="4.72841">
        <ele>203</ele>
        <time>2018-01-24T10:55:28Z</time>
      </trkpt>
      <trkpt lat="45.87162" lon="4.72853">
        <ele>204</ele>
        <time>2018-01-24T10:55:30Z</time>
      </trkpt>
      <trkpt lat="45.87162" lon="4.7286">
        <ele>205</ele>
        <time>2018-01-24T10:55:31Z</time>
      </trkpt>
      <trkpt lat="45.87162" lon="4.72872">
        <ele>205</ele>
        <time>2018-01-24T10:55:33Z</time>
      </trkpt>
      <trkpt lat="45.87162" lon="4.72878">
        <ele>205</ele>
        <time>2018-01-24T10:55:34Z</time>
      </trkpt>
      <trkpt lat="45.87162" lon="4.7289">
        <ele>205</ele>
        <time>2018-01-24T10:55:36Z</time>
      </trkpt>
      <trkpt lat="45.87162" lon="4.72896">
        <ele>205</ele>
        <time>2018-01-24T10:55:37Z</time>
      </trkpt>
      <trkpt lat="45.87162" lon="4.72907">
        <ele>205</ele>
        <time>2018-01-24T10:55:39Z</time>
      </trkpt>
      <trkpt lat="45.87162" lon="4.72912">
        <ele>205</ele>
        <time>2018-01-24T10:55:40Z</time>
      </trkpt>
      <trkpt lat="45.87162" lon="4.72923">
        <ele>205</ele>
        <time>2018-01-24T10:55:42Z</time>
      </trkpt>
      <trkpt lat="45.87162" lon="4.72929">
        <ele>205</ele>
        <time>2018-01-24T10:55:43Z</time>
      </trkpt>
      <trkpt lat="45.87162" lon="4.7294">
        <ele>206</ele>
        <time>2018-01-24T10:55:45Z</time>
      </trkpt>
      <trkpt lat="45.87162" lon="4.72946">
        <ele>206</ele>
        <time>2018-01-24T10:55:46Z</time>
      </trkpt>
      <trkpt lat="45.87162" lon="4.72957">
        <ele>206</ele>
        <time>2018-01-24T10:55:48Z</time>
      </trkpt>
      <trkpt lat="45.87161" lon="4.72963">
        <ele>206</ele>
        <time>2018-01-24T10:55:49Z</time>
      </trkpt>
      <trkpt lat="45.87161" lon="4.72975">
        <ele>206</ele>
        <time>2018-01-24T10:55:51Z</time>
      </trkpt>
      <trkpt lat="45.87161" lon="4.72981">
        <ele>206</ele>
        <time>2018-01-24T10:55:52Z</time>
      </trkpt>
      <trkpt lat="45.87162" lon="4.72993">
        <ele>205</ele>
        <time>2018-01-24T10:55:54Z</time>
      </trkpt>
      <trkpt lat="45.87162" lon="4.73">
        <ele>204</ele>
        <time>2018-01-24T10:55:55Z</time>
      </trkpt>
      <trkpt lat="45.87162" lon="4.73008">
        <ele>205</ele>
        <time>2018-01-24T10:55:56Z</time>
      </trkpt>
      <trkpt lat="45.87162" lon="4.73014">
        <ele>205</ele>
        <time>2018-01-24T10:55:57Z</time>
      </trkpt>
      <trkpt lat="45.87162" lon="4.73021">
        <ele>205</ele>
        <time>2018-01-24T10:55:58Z</time>
      </trkpt>
      <trkpt lat="45.87161" lon="4.73027">
        <ele>205</ele>
        <time>2018-01-24T10:55:59Z</time>
      </trkpt>
      <trkpt lat="45.87161" lon="4.73035">
        <ele>205</ele>
        <time>2018-01-24T10:56:00Z</time>
      </trkpt>
      <trkpt lat="45.87162" lon="4.73043">
        <ele>205</ele>
        <time>2018-01-24T10:56:01Z</time>
      </trkpt>
      <trkpt lat="45.87161" lon="4.7305">
        <ele>205</ele>
        <time>2018-01-24T10:56:02Z</time>
      </trkpt>
      <trkpt lat="45.87161" lon="4.73057">
        <ele>205</ele>
        <time>2018-01-24T10:56:03Z</time>
      </trkpt>
      <trkpt lat="45.87161" lon="4.73065">
        <ele>204</ele>
        <time>2018-01-24T10:56:04Z</time>
      </trkpt>
      <trkpt lat="45.87162" lon="4.73072">
        <ele>204</ele>
        <time>2018-01-24T10:56:05Z</time>
      </trkpt>
      <trkpt lat="45.87161" lon="4.73079">
        <ele>204</ele>
        <time>2018-01-24T10:56:06Z</time>
      </trkpt>
      <trkpt lat="45.87161" lon="4.73085">
        <ele>203</ele>
        <time>2018-01-24T10:56:07Z</time>
      </trkpt>
      <trkpt lat="45.87161" lon="4.73092">
        <ele>204</ele>
        <time>2018-01-24T10:56:08Z</time>
      </trkpt>
      <trkpt lat="45.87161" lon="4.73099">
        <ele>204</ele>
        <time>2018-01-24T10:56:09Z</time>
      </trkpt>
      <trkpt lat="45.87161" lon="4.73107">
        <ele>204</ele>
        <time>2018-01-24T10:56:10Z</time>
      </trkpt>
      <trkpt lat="45.87161" lon="4.73116">
        <ele>204</ele>
        <time>2018-01-24T10:56:11Z</time>
      </trkpt>
      <trkpt lat="45.87161" lon="4.73123">
        <ele>204</ele>
        <time>2018-01-24T10:56:12Z</time>
      </trkpt>
      <trkpt lat="45.8716" lon="4.73131">
        <ele>204</ele>
        <time>2018-01-24T10:56:13Z</time>
      </trkpt>
      <trkpt lat="45.87159" lon="4.73138">
        <ele>204</ele>
        <time>2018-01-24T10:56:14Z</time>
      </trkpt>
      <trkpt lat="45.8716" lon="4.73148">
        <ele>204</ele>
        <time>2018-01-24T10:56:15Z</time>
      </trkpt>
      <trkpt lat="45.8716" lon="4.73157">
        <ele>204</ele>
        <time>2018-01-24T10:56:16Z</time>
      </trkpt>
      <trkpt lat="45.87158" lon="4.73163">
        <ele>204</ele>
        <time>2018-01-24T10:56:17Z</time>
      </trkpt>
      <trkpt lat="45.87157" lon="4.73171">
        <ele>204</ele>
        <time>2018-01-24T10:56:18Z</time>
      </trkpt>
      <trkpt lat="45.87155" lon="4.73177">
        <ele>204</ele>
        <time>2018-01-24T10:56:19Z</time>
      </trkpt>
      <trkpt lat="45.87152" lon="4.73184">
        <ele>205</ele>
        <time>2018-01-24T10:56:20Z</time>
      </trkpt>
      <trkpt lat="45.8715" lon="4.73191">
        <ele>205</ele>
        <time>2018-01-24T10:56:21Z</time>
      </trkpt>
      <trkpt lat="45.87147" lon="4.73197">
        <ele>205</ele>
        <time>2018-01-24T10:56:22Z</time>
      </trkpt>
      <trkpt lat="45.87144" lon="4.73202">
        <ele>205</ele>
        <time>2018-01-24T10:56:23Z</time>
      </trkpt>
      <trkpt lat="45.8714" lon="4.73212">
        <ele>206</ele>
        <time>2018-01-24T10:56:25Z</time>
      </trkpt>
      <trkpt lat="45.87137" lon="4.73217">
        <ele>206</ele>
        <time>2018-01-24T10:56:26Z</time>
      </trkpt>
      <trkpt lat="45.87132" lon="4.73227">
        <ele>206</ele>
        <time>2018-01-24T10:56:28Z</time>
      </trkpt>
      <trkpt lat="45.8713" lon="4.73231">
        <ele>206</ele>
        <time>2018-01-24T10:56:29Z</time>
      </trkpt>
      <trkpt lat="45.87125" lon="4.73241">
        <ele>206</ele>
        <time>2018-01-24T10:56:31Z</time>
      </trkpt>
      <trkpt lat="45.87124" lon="4.73246">
        <ele>207</ele>
        <time>2018-01-24T10:56:32Z</time>
      </trkpt>
      <trkpt lat="45.87119" lon="4.73255">
        <ele>208</ele>
        <time>2018-01-24T10:56:34Z</time>
      </trkpt>
      <trkpt lat="45.87118" lon="4.7326">
        <ele>208</ele>
        <time>2018-01-24T10:56:35Z</time>
      </trkpt>
      <trkpt lat="45.87117" lon="4.73271">
        <ele>208</ele>
        <time>2018-01-24T10:56:37Z</time>
      </trkpt>
      <trkpt lat="45.87116" lon="4.73277">
        <ele>208</ele>
        <time>2018-01-24T10:56:38Z</time>
      </trkpt>
      <trkpt lat="45.87115" lon="4.73287">
        <ele>208</ele>
        <time>2018-01-24T10:56:40Z</time>
      </trkpt>
      <trkpt lat="45.87114" lon="4.73293">
        <ele>208</ele>
        <time>2018-01-24T10:56:41Z</time>
      </trkpt>
      <trkpt lat="45.87112" lon="4.73304">
        <ele>209</ele>
        <time>2018-01-24T10:56:43Z</time>
      </trkpt>
      <trkpt lat="45.87111" lon="4.73309">
        <ele>209</ele>
        <time>2018-01-24T10:56:44Z</time>
      </trkpt>
      <trkpt lat="45.8711" lon="4.7332">
        <ele>209</ele>
        <time>2018-01-24T10:56:46Z</time>
      </trkpt>
      <trkpt lat="45.8711" lon="4.73325">
        <ele>209</ele>
        <time>2018-01-24T10:56:47Z</time>
      </trkpt>
      <trkpt lat="45.87108" lon="4.73335">
        <ele>211</ele>
        <time>2018-01-24T10:56:49Z</time>
      </trkpt>
      <trkpt lat="45.87108" lon="4.73341">
        <ele>211</ele>
        <time>2018-01-24T10:56:50Z</time>
      </trkpt>
      <trkpt lat="45.87107" lon="4.73351">
        <ele>211</ele>
        <time>2018-01-24T10:56:52Z</time>
      </trkpt>
      <trkpt lat="45.87106" lon="4.73356">
        <ele>211</ele>
        <time>2018-01-24T10:56:53Z</time>
      </trkpt>
      <trkpt lat="45.87105" lon="4.73366">
        <ele>211</ele>
        <time>2018-01-24T10:56:55Z</time>
      </trkpt>
      <trkpt lat="45.87104" lon="4.73372">
        <ele>211</ele>
        <time>2018-01-24T10:56:56Z</time>
      </trkpt>
      <trkpt lat="45.87103" lon="4.73382">
        <ele>211</ele>
        <time>2018-01-24T10:56:58Z</time>
      </trkpt>
      <trkpt lat="45.87103" lon="4.73387">
        <ele>211</ele>
        <time>2018-01-24T10:56:59Z</time>
      </trkpt>
      <trkpt lat="45.87103" lon="4.73399">
        <ele>212</ele>
        <time>2018-01-24T10:57:01Z</time>
      </trkpt>
      <trkpt lat="45.87104" lon="4.73405">
        <ele>212</ele>
        <time>2018-01-24T10:57:02Z</time>
      </trkpt>
      <trkpt lat="45.87103" lon="4.73416">
        <ele>212</ele>
        <time>2018-01-24T10:57:04Z</time>
      </trkpt>
      <trkpt lat="45.87103" lon="4.73422">
        <ele>213</ele>
        <time>2018-01-24T10:57:05Z</time>
      </trkpt>
      <trkpt lat="45.87103" lon="4.73434">
        <ele>212</ele>
        <time>2018-01-24T10:57:07Z</time>
      </trkpt>
      <trkpt lat="45.87103" lon="4.73439">
        <ele>212</ele>
        <time>2018-01-24T10:57:08Z</time>
      </trkpt>
      <trkpt lat="45.87102" lon="4.7345">
        <ele>212</ele>
        <time>2018-01-24T10:57:10Z</time>
      </trkpt>
      <trkpt lat="45.87102" lon="4.73456">
        <ele>212</ele>
        <time>2018-01-24T10:57:11Z</time>
      </trkpt>
      <trkpt lat="45.87101" lon="4.73467">
        <ele>212</ele>
        <time>2018-01-24T10:57:13Z</time>
      </trkpt>
      <trkpt lat="45.871" lon="4.73473">
        <ele>212</ele>
        <time>2018-01-24T10:57:14Z</time>
      </trkpt>
      <trkpt lat="45.87099" lon="4.73484">
        <ele>213</ele>
        <time>2018-01-24T10:57:16Z</time>
      </trkpt>
      <trkpt lat="45.87099" lon="4.7349">
        <ele>213</ele>
        <time>2018-01-24T10:57:17Z</time>
      </trkpt>
      <trkpt lat="45.87098" lon="4.73501">
        <ele>213</ele>
        <time>2018-01-24T10:57:19Z</time>
      </trkpt>
      <trkpt lat="45.87098" lon="4.73507">
        <ele>213</ele>
        <time>2018-01-24T10:57:20Z</time>
      </trkpt>
      <trkpt lat="45.87098" lon="4.73519">
        <ele>213</ele>
        <time>2018-01-24T10:57:22Z</time>
      </trkpt>
      <trkpt lat="45.87097" lon="4.73525">
        <ele>213</ele>
        <time>2018-01-24T10:57:23Z</time>
      </trkpt>
      <trkpt lat="45.87097" lon="4.73535">
        <ele>213</ele>
        <time>2018-01-24T10:57:25Z</time>
      </trkpt>
      <trkpt lat="45.87096" lon="4.7354">
        <ele>213</ele>
        <time>2018-01-24T10:57:26Z</time>
      </trkpt>
      <trkpt lat="45.87095" lon="4.73551">
        <ele>213</ele>
        <time>2018-01-24T10:57:28Z</time>
      </trkpt>
      <trkpt lat="45.87095" lon="4.73556">
        <ele>213</ele>
        <time>2018-01-24T10:57:29Z</time>
      </trkpt>
      <trkpt lat="45.87094" lon="4.73568">
        <ele>213</ele>
        <time>2018-01-24T10:57:31Z</time>
      </trkpt>
      <trkpt lat="45.87093" lon="4.73574">
        <ele>214</ele>
        <time>2018-01-24T10:57:32Z</time>
      </trkpt>
      <trkpt lat="45.87092" lon="4.73585">
        <ele>214</ele>
        <time>2018-01-24T10:57:34Z</time>
      </trkpt>
      <trkpt lat="45.87091" lon="4.73591">
        <ele>214</ele>
        <time>2018-01-24T10:57:35Z</time>
      </trkpt>
      <trkpt lat="45.8709" lon="4.73603">
        <ele>214</ele>
        <time>2018-01-24T10:57:37Z</time>
      </trkpt>
      <trkpt lat="45.87089" lon="4.73609">
        <ele>214</ele>
        <time>2018-01-24T10:57:38Z</time>
      </trkpt>
      <trkpt lat="45.87087" lon="4.73621">
        <ele>214</ele>
        <time>2018-01-24T10:57:40Z</time>
      </trkpt>
      <trkpt lat="45.87087" lon="4.73627">
        <ele>214</ele>
        <time>2018-01-24T10:57:41Z</time>
      </trkpt>
      <trkpt lat="45.87085" lon="4.7364">
        <ele>214</ele>
        <time>2018-01-24T10:57:43Z</time>
      </trkpt>
      <trkpt lat="45.87084" lon="4.73646">
        <ele>214</ele>
        <time>2018-01-24T10:57:44Z</time>
      </trkpt>
      <trkpt lat="45.87082" lon="4.73657">
        <ele>216</ele>
        <time>2018-01-24T10:57:46Z</time>
      </trkpt>
      <trkpt lat="45.87082" lon="4.73663">
        <ele>216</ele>
        <time>2018-01-24T10:57:47Z</time>
      </trkpt>
      <trkpt lat="45.8708" lon="4.73675">
        <ele>216</ele>
        <time>2018-01-24T10:57:49Z</time>
      </trkpt>
      <trkpt lat="45.87079" lon="4.73681">
        <ele>217</ele>
        <time>2018-01-24T10:57:50Z</time>
      </trkpt>
      <trkpt lat="45.87077" lon="4.73693">
        <ele>217</ele>
        <time>2018-01-24T10:57:52Z</time>
      </trkpt>
      <trkpt lat="45.87076" lon="4.73699">
        <ele>217</ele>
        <time>2018-01-24T10:57:53Z</time>
      </trkpt>
      <trkpt lat="45.87074" lon="4.73711">
        <ele>217</ele>
        <time>2018-01-24T10:57:55Z</time>
      </trkpt>
      <trkpt lat="45.87073" lon="4.73717">
        <ele>217</ele>
        <time>2018-01-24T10:57:56Z</time>
      </trkpt>
      <trkpt lat="45.87073" lon="4.73724">
        <ele>217</ele>
        <time>2018-01-24T10:57:57Z</time>
      </trkpt>
      <trkpt lat="45.87072" lon="4.73731">
        <ele>216</ele>
        <time>2018-01-24T10:57:58Z</time>
      </trkpt>
      <trkpt lat="45.87071" lon="4.73738">
        <ele>216</ele>
        <time>2018-01-24T10:57:59Z</time>
      </trkpt>
      <trkpt lat="45.8707" lon="4.73744">
        <ele>216</ele>
        <time>2018-01-24T10:58:00Z</time>
      </trkpt>
      <trkpt lat="45.87068" lon="4.73756">
        <ele>216</ele>
        <time>2018-01-24T10:58:02Z</time>
      </trkpt>
      <trkpt lat="45.87067" lon="4.73762">
        <ele>217</ele>
        <time>2018-01-24T10:58:03Z</time>
      </trkpt>
      <trkpt lat="45.87066" lon="4.73773">
        <ele>217</ele>
        <time>2018-01-24T10:58:05Z</time>
      </trkpt>
      <trkpt lat="45.87066" lon="4.73779">
        <ele>217</ele>
        <time>2018-01-24T10:58:06Z</time>
      </trkpt>
      <trkpt lat="45.87065" lon="4.73791">
        <ele>217</ele>
        <time>2018-01-24T10:58:08Z</time>
      </trkpt>
      <trkpt lat="45.87064" lon="4.73796">
        <ele>217</ele>
        <time>2018-01-24T10:58:09Z</time>
      </trkpt>
      <trkpt lat="45.87064" lon="4.73808">
        <ele>217</ele>
        <time>2018-01-24T10:58:11Z</time>
      </trkpt>
      <trkpt lat="45.87064" lon="4.73814">
        <ele>217</ele>
        <time>2018-01-24T10:58:12Z</time>
      </trkpt>
      <trkpt lat="45.87064" lon="4.73827">
        <ele>217</ele>
        <time>2018-01-24T10:58:14Z</time>
      </trkpt>
      <trkpt lat="45.87064" lon="4.73833">
        <ele>217</ele>
        <time>2018-01-24T10:58:15Z</time>
      </trkpt>
      <trkpt lat="45.87064" lon="4.73845">
        <ele>218</ele>
        <time>2018-01-24T10:58:17Z</time>
      </trkpt>
      <trkpt lat="45.87065" lon="4.73851">
        <ele>218</ele>
        <time>2018-01-24T10:58:18Z</time>
      </trkpt>
      <trkpt lat="45.87065" lon="4.73863">
        <ele>218</ele>
        <time>2018-01-24T10:58:20Z</time>
      </trkpt>
      <trkpt lat="45.87064" lon="4.73869">
        <ele>218</ele>
        <time>2018-01-24T10:58:21Z</time>
      </trkpt>
      <trkpt lat="45.87064" lon="4.73881">
        <ele>218</ele>
        <time>2018-01-24T10:58:23Z</time>
      </trkpt>
      <trkpt lat="45.87064" lon="4.73888">
        <ele>218</ele>
        <time>2018-01-24T10:58:24Z</time>
      </trkpt>
      <trkpt lat="45.87065" lon="4.739">
        <ele>218</ele>
        <time>2018-01-24T10:58:26Z</time>
      </trkpt>
      <trkpt lat="45.87065" lon="4.73906">
        <ele>218</ele>
        <time>2018-01-24T10:58:27Z</time>
      </trkpt>
      <trkpt lat="45.87066" lon="4.73917">
        <ele>218</ele>
        <time>2018-01-24T10:58:29Z</time>
      </trkpt>
      <trkpt lat="45.87066" lon="4.73924">
        <ele>218</ele>
        <time>2018-01-24T10:58:30Z</time>
      </trkpt>
      <trkpt lat="45.87066" lon="4.73936">
        <ele>218</ele>
        <time>2018-01-24T10:58:32Z</time>
      </trkpt>
      <trkpt lat="45.87066" lon="4.73942">
        <ele>218</ele>
        <time>2018-01-24T10:58:33Z</time>
      </trkpt>
      <trkpt lat="45.87067" lon="4.73954">
        <ele>218</ele>
        <time>2018-01-24T10:58:35Z</time>
      </trkpt>
      <trkpt lat="45.87067" lon="4.73961">
        <ele>218</ele>
        <time>2018-01-24T10:58:36Z</time>
      </trkpt>
      <trkpt lat="45.87067" lon="4.73973">
        <ele>217</ele>
        <time>2018-01-24T10:58:38Z</time>
      </trkpt>
      <trkpt lat="45.87067" lon="4.73979">
        <ele>217</ele>
        <time>2018-01-24T10:58:39Z</time>
      </trkpt>
      <trkpt lat="45.87066" lon="4.73986">
        <ele>217</ele>
        <time>2018-01-24T10:58:40Z</time>
      </trkpt>
      <trkpt lat="45.87066" lon="4.73994">
        <ele>217</ele>
        <time>2018-01-24T10:58:41Z</time>
      </trkpt>
      <trkpt lat="45.87066" lon="4.74002">
        <ele>216</ele>
        <time>2018-01-24T10:58:42Z</time>
      </trkpt>
      <trkpt lat="45.87067" lon="4.7401">
        <ele>216</ele>
        <time>2018-01-24T10:58:43Z</time>
      </trkpt>
      <trkpt lat="45.87067" lon="4.74019">
        <ele>215</ele>
        <time>2018-01-24T10:58:44Z</time>
      </trkpt>
      <trkpt lat="45.87067" lon="4.74028">
        <ele>215</ele>
        <time>2018-01-24T10:58:45Z</time>
      </trkpt>
      <trkpt lat="45.87067" lon="4.74038">
        <ele>215</ele>
        <time>2018-01-24T10:58:46Z</time>
      </trkpt>
      <trkpt lat="45.87067" lon="4.74047">
        <ele>215</ele>
        <time>2018-01-24T10:58:47Z</time>
      </trkpt>
      <trkpt lat="45.87068" lon="4.74056">
        <ele>214</ele>
        <time>2018-01-24T10:58:48Z</time>
      </trkpt>
      <trkpt lat="45.87069" lon="4.74063">
        <ele>214</ele>
        <time>2018-01-24T10:58:49Z</time>
      </trkpt>
      <trkpt lat="45.87069" lon="4.74072">
        <ele>214</ele>
        <time>2018-01-24T10:58:50Z</time>
      </trkpt>
      <trkpt lat="45.87069" lon="4.74081">
        <ele>213</ele>
        <time>2018-01-24T10:58:51Z</time>
      </trkpt>
      <trkpt lat="45.87069" lon="4.7409">
        <ele>212</ele>
        <time>2018-01-24T10:58:52Z</time>
      </trkpt>
      <trkpt lat="45.87069" lon="4.74098">
        <ele>212</ele>
        <time>2018-01-24T10:58:53Z</time>
      </trkpt>
      <trkpt lat="45.87069" lon="4.74108">
        <ele>212</ele>
        <time>2018-01-24T10:58:54Z</time>
      </trkpt>
      <trkpt lat="45.87068" lon="4.74117">
        <ele>212</ele>
        <time>2018-01-24T10:58:55Z</time>
      </trkpt>
      <trkpt lat="45.87069" lon="4.74127">
        <ele>212</ele>
        <time>2018-01-24T10:58:56Z</time>
      </trkpt>
      <trkpt lat="45.87069" lon="4.74138">
        <ele>212</ele>
        <time>2018-01-24T10:58:57Z</time>
      </trkpt>
      <trkpt lat="45.87069" lon="4.74147">
        <ele>212</ele>
        <time>2018-01-24T10:58:58Z</time>
      </trkpt>
      <trkpt lat="45.87068" lon="4.74157">
        <ele>212</ele>
        <time>2018-01-24T10:58:59Z</time>
      </trkpt>
      <trkpt lat="45.87067" lon="4.74168">
        <ele>212</ele>
        <time>2018-01-24T10:59:00Z</time>
      </trkpt>
      <trkpt lat="45.87068" lon="4.74177">
        <ele>213</ele>
        <time>2018-01-24T10:59:01Z</time>
      </trkpt>
      <trkpt lat="45.87068" lon="4.74186">
        <ele>213</ele>
        <time>2018-01-24T10:59:02Z</time>
      </trkpt>
      <trkpt lat="45.87068" lon="4.74196">
        <ele>213</ele>
        <time>2018-01-24T10:59:03Z</time>
      </trkpt>
      <trkpt lat="45.87069" lon="4.74207">
        <ele>214</ele>
        <time>2018-01-24T10:59:04Z</time>
      </trkpt>
      <trkpt lat="45.87069" lon="4.74215">
        <ele>214</ele>
        <time>2018-01-24T10:59:05Z</time>
      </trkpt>
      <trkpt lat="45.87069" lon="4.74223">
        <ele>214</ele>
        <time>2018-01-24T10:59:06Z</time>
      </trkpt>
      <trkpt lat="45.87069" lon="4.7423">
        <ele>214</ele>
        <time>2018-01-24T10:59:07Z</time>
      </trkpt>
      <trkpt lat="45.87069" lon="4.74237">
        <ele>214</ele>
        <time>2018-01-24T10:59:08Z</time>
      </trkpt>
      <trkpt lat="45.87069" lon="4.74243">
        <ele>214</ele>
        <time>2018-01-24T10:59:09Z</time>
      </trkpt>
      <trkpt lat="45.8707" lon="4.74251">
        <ele>216</ele>
        <time>2018-01-24T10:59:10Z</time>
      </trkpt>
      <trkpt lat="45.87071" lon="4.74258">
        <ele>216</ele>
        <time>2018-01-24T10:59:11Z</time>
      </trkpt>
      <trkpt lat="45.87071" lon="4.74265">
        <ele>216</ele>
        <time>2018-01-24T10:59:12Z</time>
      </trkpt>
      <trkpt lat="45.87071" lon="4.74273">
        <ele>216</ele>
        <time>2018-01-24T10:59:13Z</time>
      </trkpt>
      <trkpt lat="45.87072" lon="4.74279">
        <ele>217</ele>
        <time>2018-01-24T10:59:14Z</time>
      </trkpt>
      <trkpt lat="45.87072" lon="4.74287">
        <ele>217</ele>
        <time>2018-01-24T10:59:15Z</time>
      </trkpt>
      <trkpt lat="45.87073" lon="4.74294">
        <ele>217</ele>
        <time>2018-01-24T10:59:16Z</time>
      </trkpt>
      <trkpt lat="45.87073" lon="4.74301">
        <ele>218</ele>
        <time>2018-01-24T10:59:17Z</time>
      </trkpt>
      <trkpt lat="45.87073" lon="4.74307">
        <ele>218</ele>
        <time>2018-01-24T10:59:18Z</time>
      </trkpt>
      <trkpt lat="45.87073" lon="4.74314">
        <ele>218</ele>
        <time>2018-01-24T10:59:19Z</time>
      </trkpt>
      <trkpt lat="45.87076" lon="4.74325">
        <ele>219</ele>
        <time>2018-01-24T10:59:21Z</time>
      </trkpt>
      <trkpt lat="45.87077" lon="4.74334">
        <ele>219</ele>
        <time>2018-01-24T10:59:22Z</time>
      </trkpt>
      <trkpt lat="45.87078" lon="4.74341">
        <ele>219</ele>
        <time>2018-01-24T10:59:23Z</time>
      </trkpt>
      <trkpt lat="45.8708" lon="4.74347">
        <ele>219</ele>
        <time>2018-01-24T10:59:24Z</time>
      </trkpt>
      <trkpt lat="45.87081" lon="4.7436">
        <ele>219</ele>
        <time>2018-01-24T10:59:26Z</time>
      </trkpt>
      <trkpt lat="45.87082" lon="4.74366">
        <ele>219</ele>
        <time>2018-01-24T10:59:27Z</time>
      </trkpt>
      <trkpt lat="45.87083" lon="4.74372">
        <ele>219</ele>
        <time>2018-01-24T10:59:28Z</time>
      </trkpt>
      <trkpt lat="45.87084" lon="4.74379">
        <ele>218</ele>
        <time>2018-01-24T10:59:29Z</time>
      </trkpt>
      <trkpt lat="45.87085" lon="4.74386">
        <ele>218</ele>
        <time>2018-01-24T10:59:30Z</time>
      </trkpt>
      <trkpt lat="45.87087" lon="4.74393">
        <ele>218</ele>
        <time>2018-01-24T10:59:31Z</time>
      </trkpt>
      <trkpt lat="45.87089" lon="4.74399">
        <ele>218</ele>
        <time>2018-01-24T10:59:32Z</time>
      </trkpt>
      <trkpt lat="45.8709" lon="4.74406">
        <ele>218</ele>
        <time>2018-01-24T10:59:33Z</time>
      </trkpt>
      <trkpt lat="45.87091" lon="4.74413">
        <ele>219</ele>
        <time>2018-01-24T10:59:34Z</time>
      </trkpt>
      <trkpt lat="45.87093" lon="4.74421">
        <ele>219</ele>
        <time>2018-01-24T10:59:35Z</time>
      </trkpt>
      <trkpt lat="45.87094" lon="4.74429">
        <ele>218</ele>
        <time>2018-01-24T10:59:36Z</time>
      </trkpt>
      <trkpt lat="45.87094" lon="4.74436">
        <ele>218</ele>
        <time>2018-01-24T10:59:37Z</time>
      </trkpt>
      <trkpt lat="45.87095" lon="4.74443">
        <ele>218</ele>
        <time>2018-01-24T10:59:38Z</time>
      </trkpt>
      <trkpt lat="45.87096" lon="4.7445">
        <ele>218</ele>
        <time>2018-01-24T10:59:39Z</time>
      </trkpt>
      <trkpt lat="45.87098" lon="4.74462">
        <ele>218</ele>
        <time>2018-01-24T10:59:41Z</time>
      </trkpt>
      <trkpt lat="45.87097" lon="4.74468">
        <ele>218</ele>
        <time>2018-01-24T10:59:42Z</time>
      </trkpt>
      <trkpt lat="45.87093" lon="4.74477">
        <ele>218</ele>
        <time>2018-01-24T10:59:46Z</time>
      </trkpt>
      <trkpt lat="45.87091" lon="4.7448">
        <ele>218</ele>
        <time>2018-01-24T10:59:47Z</time>
      </trkpt>
      <trkpt lat="45.87085" lon="4.74485">
        <ele>218</ele>
        <time>2018-01-24T10:59:49Z</time>
      </trkpt>
      <trkpt lat="45.87083" lon="4.74489">
        <ele>220</ele>
        <time>2018-01-24T10:59:50Z</time>
      </trkpt>
      <trkpt lat="45.87079" lon="4.74498">
        <ele>219</ele>
        <time>2018-01-24T10:59:52Z</time>
      </trkpt>
      <trkpt lat="45.87079" lon="4.74505">
        <ele>220</ele>
        <time>2018-01-24T10:59:53Z</time>
      </trkpt>
      <trkpt lat="45.87079" lon="4.74512">
        <ele>220</ele>
        <time>2018-01-24T10:59:54Z</time>
      </trkpt>
      <trkpt lat="45.87081" lon="4.74519">
        <ele>221</ele>
        <time>2018-01-24T10:59:55Z</time>
      </trkpt>
      <trkpt lat="45.87083" lon="4.74525">
        <ele>221</ele>
        <time>2018-01-24T10:59:56Z</time>
      </trkpt>
      <trkpt lat="45.87086" lon="4.74531">
        <ele>220</ele>
        <time>2018-01-24T10:59:57Z</time>
      </trkpt>
      <trkpt lat="45.8709" lon="4.74539">
        <ele>220</ele>
        <time>2018-01-24T10:59:58Z</time>
      </trkpt>
      <trkpt lat="45.87094" lon="4.74545">
        <ele>220</ele>
        <time>2018-01-24T10:59:59Z</time>
      </trkpt>
      <trkpt lat="45.87097" lon="4.74553">
        <ele>220</ele>
        <time>2018-01-24T11:00:00Z</time>
      </trkpt>
      <trkpt lat="45.87103" lon="4.74567">
        <ele>221</ele>
        <time>2018-01-24T11:00:02Z</time>
      </trkpt>
      <trkpt lat="45.87106" lon="4.74573">
        <ele>221</ele>
        <time>2018-01-24T11:00:03Z</time>
      </trkpt>
      <trkpt lat="45.87108" lon="4.74579">
        <ele>221</ele>
        <time>2018-01-24T11:00:04Z</time>
      </trkpt>
      <trkpt lat="45.8711" lon="4.74586">
        <ele>222</ele>
        <time>2018-01-24T11:00:05Z</time>
      </trkpt>
      <trkpt lat="45.87112" lon="4.74592">
        <ele>222</ele>
        <time>2018-01-24T11:00:06Z</time>
      </trkpt>
      <trkpt lat="45.87113" lon="4.74605">
        <ele>222</ele>
        <time>2018-01-24T11:00:08Z</time>
      </trkpt>
      <trkpt lat="45.87114" lon="4.74612">
        <ele>222</ele>
        <time>2018-01-24T11:00:09Z</time>
      </trkpt>
      <trkpt lat="45.87115" lon="4.7462">
        <ele>222</ele>
        <time>2018-01-24T11:00:10Z</time>
      </trkpt>
      <trkpt lat="45.87116" lon="4.74627">
        <ele>222</ele>
        <time>2018-01-24T11:00:11Z</time>
      </trkpt>
      <trkpt lat="45.87117" lon="4.74634">
        <ele>222</ele>
        <time>2018-01-24T11:00:12Z</time>
      </trkpt>
      <trkpt lat="45.87116" lon="4.74642">
        <ele>222</ele>
        <time>2018-01-24T11:00:13Z</time>
      </trkpt>
      <trkpt lat="45.87117" lon="4.74649">
        <ele>222</ele>
        <time>2018-01-24T11:00:14Z</time>
      </trkpt>
      <trkpt lat="45.87117" lon="4.74656">
        <ele>222</ele>
        <time>2018-01-24T11:00:15Z</time>
      </trkpt>
      <trkpt lat="45.87117" lon="4.74664">
        <ele>222</ele>
        <time>2018-01-24T11:00:16Z</time>
      </trkpt>
      <trkpt lat="45.87117" lon="4.74671">
        <ele>222</ele>
        <time>2018-01-24T11:00:17Z</time>
      </trkpt>
      <trkpt lat="45.87119" lon="4.74679">
        <ele>221</ele>
        <time>2018-01-24T11:00:18Z</time>
      </trkpt>
      <trkpt lat="45.87117" lon="4.74688">
        <ele>221</ele>
        <time>2018-01-24T11:00:19Z</time>
      </trkpt>
      <trkpt lat="45.87117" lon="4.74695">
        <ele>221</ele>
        <time>2018-01-24T11:00:20Z</time>
      </trkpt>
      <trkpt lat="45.87117" lon="4.74702">
        <ele>221</ele>
        <time>2018-01-24T11:00:21Z</time>
      </trkpt>
      <trkpt lat="45.87117" lon="4.74708">
        <ele>221</ele>
        <time>2018-01-24T11:00:22Z</time>
      </trkpt>
      <trkpt lat="45.87118" lon="4.74715">
        <ele>221</ele>
        <time>2018-01-24T11:00:23Z</time>
      </trkpt>
      <trkpt lat="45.87119" lon="4.74724">
        <ele>221</ele>
        <time>2018-01-24T11:00:25Z</time>
      </trkpt>
      <trkpt lat="45.87119" lon="4.74728">
        <ele>221</ele>
        <time>2018-01-24T11:00:26Z</time>
      </trkpt>
      <trkpt lat="45.87119" lon="4.74736">
        <ele>221</ele>
        <time>2018-01-24T11:00:27Z</time>
      </trkpt>
      <trkpt lat="45.87119" lon="4.74744">
        <ele>221</ele>
        <time>2018-01-24T11:00:28Z</time>
      </trkpt>
      <trkpt lat="45.8712" lon="4.74754">
        <ele>222</ele>
        <time>2018-01-24T11:00:29Z</time>
      </trkpt>
      <trkpt lat="45.87121" lon="4.74761">
        <ele>222</ele>
        <time>2018-01-24T11:00:30Z</time>
      </trkpt>
      <trkpt lat="45.87121" lon="4.7477">
        <ele>222</ele>
        <time>2018-01-24T11:00:31Z</time>
      </trkpt>
      <trkpt lat="45.87121" lon="4.74777">
        <ele>222</ele>
        <time>2018-01-24T11:00:32Z</time>
      </trkpt>
      <trkpt lat="45.87121" lon="4.74785">
        <ele>222</ele>
        <time>2018-01-24T11:00:33Z</time>
      </trkpt>
      <trkpt lat="45.87122" lon="4.74794">
        <ele>222</ele>
        <time>2018-01-24T11:00:34Z</time>
      </trkpt>
      <trkpt lat="45.87121" lon="4.74802">
        <ele>222</ele>
        <time>2018-01-24T11:00:35Z</time>
      </trkpt>
      <trkpt lat="45.87122" lon="4.7481">
        <ele>223</ele>
        <time>2018-01-24T11:00:36Z</time>
      </trkpt>
      <trkpt lat="45.87122" lon="4.74817">
        <ele>223</ele>
        <time>2018-01-24T11:00:37Z</time>
      </trkpt>
      <trkpt lat="45.87123" lon="4.74823">
        <ele>223</ele>
        <time>2018-01-24T11:00:38Z</time>
      </trkpt>
      <trkpt lat="45.87123" lon="4.74835">
        <ele>224</ele>
        <time>2018-01-24T11:00:40Z</time>
      </trkpt>
      <trkpt lat="45.87123" lon="4.74842">
        <ele>224</ele>
        <time>2018-01-24T11:00:41Z</time>
      </trkpt>
      <trkpt lat="45.87124" lon="4.74853">
        <ele>224</ele>
        <time>2018-01-24T11:00:43Z</time>
      </trkpt>
      <trkpt lat="45.87124" lon="4.74859">
        <ele>225</ele>
        <time>2018-01-24T11:00:44Z</time>
      </trkpt>
      <trkpt lat="45.87124" lon="4.74871">
        <ele>225</ele>
        <time>2018-01-24T11:00:46Z</time>
      </trkpt>
      <trkpt lat="45.87125" lon="4.74878">
        <ele>225</ele>
        <time>2018-01-24T11:00:47Z</time>
      </trkpt>
      <trkpt lat="45.87124" lon="4.74885">
        <ele>225</ele>
        <time>2018-01-24T11:00:48Z</time>
      </trkpt>
      <trkpt lat="45.87124" lon="4.74891">
        <ele>225</ele>
        <time>2018-01-24T11:00:49Z</time>
      </trkpt>
      <trkpt lat="45.87123" lon="4.74903">
        <ele>225</ele>
        <time>2018-01-24T11:00:51Z</time>
      </trkpt>
      <trkpt lat="45.87122" lon="4.74908">
        <ele>225</ele>
        <time>2018-01-24T11:00:52Z</time>
      </trkpt>
      <trkpt lat="45.87118" lon="4.74918">
        <ele>226</ele>
        <time>2018-01-24T11:00:54Z</time>
      </trkpt>
      <trkpt lat="45.87117" lon="4.74923">
        <ele>226</ele>
        <time>2018-01-24T11:00:55Z</time>
      </trkpt>
      <trkpt lat="45.87116" lon="4.74933">
        <ele>226</ele>
        <time>2018-01-24T11:00:57Z</time>
      </trkpt>
      <trkpt lat="45.87116" lon="4.74939">
        <ele>226</ele>
        <time>2018-01-24T11:00:58Z</time>
      </trkpt>
      <trkpt lat="45.87119" lon="4.7495">
        <ele>226</ele>
        <time>2018-01-24T11:01:00Z</time>
      </trkpt>
      <trkpt lat="45.87121" lon="4.74956">
        <ele>226</ele>
        <time>2018-01-24T11:01:01Z</time>
      </trkpt>
      <trkpt lat="45.87121" lon="4.74962">
        <ele>226</ele>
        <time>2018-01-24T11:01:02Z</time>
      </trkpt>
      <trkpt lat="45.87121" lon="4.74971">
        <ele>226</ele>
        <time>2018-01-24T11:01:03Z</time>
      </trkpt>
      <trkpt lat="45.87122" lon="4.74978">
        <ele>226</ele>
        <time>2018-01-24T11:01:04Z</time>
      </trkpt>
      <trkpt lat="45.87121" lon="4.74984">
        <ele>226</ele>
        <time>2018-01-24T11:01:05Z</time>
      </trkpt>
      <trkpt lat="45.87121" lon="4.74991">
        <ele>226</ele>
        <time>2018-01-24T11:01:06Z</time>
      </trkpt>
      <trkpt lat="45.87121" lon="4.74998">
        <ele>226</ele>
        <time>2018-01-24T11:01:07Z</time>
      </trkpt>
      <trkpt lat="45.87121" lon="4.75006">
        <ele>226</ele>
        <time>2018-01-24T11:01:08Z</time>
      </trkpt>
      <trkpt lat="45.87121" lon="4.75012">
        <ele>226</ele>
        <time>2018-01-24T11:01:09Z</time>
      </trkpt>
      <trkpt lat="45.87121" lon="4.75019">
        <ele>226</ele>
        <time>2018-01-24T11:01:10Z</time>
      </trkpt>
      <trkpt lat="45.87121" lon="4.75025">
        <ele>226</ele>
        <time>2018-01-24T11:01:11Z</time>
      </trkpt>
      <trkpt lat="45.87121" lon="4.75038">
        <ele>226</ele>
        <time>2018-01-24T11:01:13Z</time>
      </trkpt>
      <trkpt lat="45.87121" lon="4.75043">
        <ele>226</ele>
        <time>2018-01-24T11:01:14Z</time>
      </trkpt>
      <trkpt lat="45.87121" lon="4.75051">
        <ele>225</ele>
        <time>2018-01-24T11:01:15Z</time>
      </trkpt>
      <trkpt lat="45.87121" lon="4.75059">
        <ele>225</ele>
        <time>2018-01-24T11:01:16Z</time>
      </trkpt>
      <trkpt lat="45.87123" lon="4.75071">
        <ele>225</ele>
        <time>2018-01-24T11:01:18Z</time>
      </trkpt>
      <trkpt lat="45.87124" lon="4.75078">
        <ele>225</ele>
        <time>2018-01-24T11:01:19Z</time>
      </trkpt>
      <trkpt lat="45.87125" lon="4.75085">
        <ele>225</ele>
        <time>2018-01-24T11:01:20Z</time>
      </trkpt>
      <trkpt lat="45.87126" lon="4.75092">
        <ele>225</ele>
        <time>2018-01-24T11:01:21Z</time>
      </trkpt>
      <trkpt lat="45.87128" lon="4.751">
        <ele>225</ele>
        <time>2018-01-24T11:01:22Z</time>
      </trkpt>
      <trkpt lat="45.8713" lon="4.75109">
        <ele>225</ele>
        <time>2018-01-24T11:01:23Z</time>
      </trkpt>
      <trkpt lat="45.87131" lon="4.75117">
        <ele>225</ele>
        <time>2018-01-24T11:01:24Z</time>
      </trkpt>
      <trkpt lat="45.87133" lon="4.75127">
        <ele>225</ele>
        <time>2018-01-24T11:01:25Z</time>
      </trkpt>
      <trkpt lat="45.87134" lon="4.75135">
        <ele>225</ele>
        <time>2018-01-24T11:01:26Z</time>
      </trkpt>
      <trkpt lat="45.87136" lon="4.75143">
        <ele>225</ele>
        <time>2018-01-24T11:01:27Z</time>
      </trkpt>
      <trkpt lat="45.87137" lon="4.75151">
        <ele>225</ele>
        <time>2018-01-24T11:01:28Z</time>
      </trkpt>
      <trkpt lat="45.87138" lon="4.75158">
        <ele>225</ele>
        <time>2018-01-24T11:01:29Z</time>
      </trkpt>
      <trkpt lat="45.8714" lon="4.75165">
        <ele>225</ele>
        <time>2018-01-24T11:01:30Z</time>
      </trkpt>
      <trkpt lat="45.87142" lon="4.75171">
        <ele>225</ele>
        <time>2018-01-24T11:01:31Z</time>
      </trkpt>
      <trkpt lat="45.87143" lon="4.75178">
        <ele>225</ele>
        <time>2018-01-24T11:01:32Z</time>
      </trkpt>
      <trkpt lat="45.87144" lon="4.75184">
        <ele>225</ele>
        <time>2018-01-24T11:01:33Z</time>
      </trkpt>
      <trkpt lat="45.87146" lon="4.75191">
        <ele>225</ele>
        <time>2018-01-24T11:01:34Z</time>
      </trkpt>
      <trkpt lat="45.87148" lon="4.75198">
        <ele>225</ele>
        <time>2018-01-24T11:01:35Z</time>
      </trkpt>
      <trkpt lat="45.87149" lon="4.75205">
        <ele>225</ele>
        <time>2018-01-24T11:01:36Z</time>
      </trkpt>
      <trkpt lat="45.87151" lon="4.75211">
        <ele>225</ele>
        <time>2018-01-24T11:01:37Z</time>
      </trkpt>
      <trkpt lat="45.87152" lon="4.75218">
        <ele>225</ele>
        <time>2018-01-24T11:01:38Z</time>
      </trkpt>
      <trkpt lat="45.87153" lon="4.75225">
        <ele>225</ele>
        <time>2018-01-24T11:01:39Z</time>
      </trkpt>
      <trkpt lat="45.87155" lon="4.75231">
        <ele>224</ele>
        <time>2018-01-24T11:01:40Z</time>
      </trkpt>
      <trkpt lat="45.87156" lon="4.75239">
        <ele>224</ele>
        <time>2018-01-24T11:01:41Z</time>
      </trkpt>
      <trkpt lat="45.87158" lon="4.75247">
        <ele>224</ele>
        <time>2018-01-24T11:01:42Z</time>
      </trkpt>
      <trkpt lat="45.8716" lon="4.75255">
        <ele>224</ele>
        <time>2018-01-24T11:01:43Z</time>
      </trkpt>
      <trkpt lat="45.87161" lon="4.75263">
        <ele>224</ele>
        <time>2018-01-24T11:01:44Z</time>
      </trkpt>
      <trkpt lat="45.87163" lon="4.75272">
        <ele>224</ele>
        <time>2018-01-24T11:01:45Z</time>
      </trkpt>
      <trkpt lat="45.87165" lon="4.7528">
        <ele>224</ele>
        <time>2018-01-24T11:01:46Z</time>
      </trkpt>
      <trkpt lat="45.87166" lon="4.75289">
        <ele>224</ele>
        <time>2018-01-24T11:01:47Z</time>
      </trkpt>
      <trkpt lat="45.87166" lon="4.75297">
        <ele>224</ele>
        <time>2018-01-24T11:01:48Z</time>
      </trkpt>
      <trkpt lat="45.87167" lon="4.75308">
        <ele>223</ele>
        <time>2018-01-24T11:01:49Z</time>
      </trkpt>
      <trkpt lat="45.87168" lon="4.75316">
        <ele>223</ele>
        <time>2018-01-24T11:01:50Z</time>
      </trkpt>
      <trkpt lat="45.87169" lon="4.75325">
        <ele>224</ele>
        <time>2018-01-24T11:01:51Z</time>
      </trkpt>
      <trkpt lat="45.8717" lon="4.75333">
        <ele>224</ele>
        <time>2018-01-24T11:01:52Z</time>
      </trkpt>
      <trkpt lat="45.8717" lon="4.75341">
        <ele>224</ele>
        <time>2018-01-24T11:01:53Z</time>
      </trkpt>
      <trkpt lat="45.8717" lon="4.75351">
        <ele>223</ele>
        <time>2018-01-24T11:01:54Z</time>
      </trkpt>
      <trkpt lat="45.8717" lon="4.7536">
        <ele>223</ele>
        <time>2018-01-24T11:01:55Z</time>
      </trkpt>
      <trkpt lat="45.87169" lon="4.7537">
        <ele>223</ele>
        <time>2018-01-24T11:01:56Z</time>
      </trkpt>
      <trkpt lat="45.8717" lon="4.75378">
        <ele>223</ele>
        <time>2018-01-24T11:01:57Z</time>
      </trkpt>
      <trkpt lat="45.87171" lon="4.75386">
        <ele>223</ele>
        <time>2018-01-24T11:01:58Z</time>
      </trkpt>
      <trkpt lat="45.87171" lon="4.75395">
        <ele>223</ele>
        <time>2018-01-24T11:01:59Z</time>
      </trkpt>
      <trkpt lat="45.87171" lon="4.75403">
        <ele>223</ele>
        <time>2018-01-24T11:02:00Z</time>
      </trkpt>
      <trkpt lat="45.87171" lon="4.75412">
        <ele>223</ele>
        <time>2018-01-24T11:02:01Z</time>
      </trkpt>
      <trkpt lat="45.87171" lon="4.75421">
        <ele>223</ele>
        <time>2018-01-24T11:02:02Z</time>
      </trkpt>
      <trkpt lat="45.87172" lon="4.7543">
        <ele>223</ele>
        <time>2018-01-24T11:02:03Z</time>
      </trkpt>
      <trkpt lat="45.87172" lon="4.75438">
        <ele>222</ele>
        <time>2018-01-24T11:02:04Z</time>
      </trkpt>
      <trkpt lat="45.87173" lon="4.75446">
        <ele>222</ele>
        <time>2018-01-24T11:02:05Z</time>
      </trkpt>
      <trkpt lat="45.87172" lon="4.75455">
        <ele>222</ele>
        <time>2018-01-24T11:02:06Z</time>
      </trkpt>
      <trkpt lat="45.87171" lon="4.75464">
        <ele>222</ele>
        <time>2018-01-24T11:02:07Z</time>
      </trkpt>
      <trkpt lat="45.87171" lon="4.75473">
        <ele>222</ele>
        <time>2018-01-24T11:02:08Z</time>
      </trkpt>
      <trkpt lat="45.8717" lon="4.7548">
        <ele>222</ele>
        <time>2018-01-24T11:02:09Z</time>
      </trkpt>
      <trkpt lat="45.87168" lon="4.75486">
        <ele>223</ele>
        <time>2018-01-24T11:02:10Z</time>
      </trkpt>
      <trkpt lat="45.87168" lon="4.75492">
        <ele>223</ele>
        <time>2018-01-24T11:02:11Z</time>
      </trkpt>
      <trkpt lat="45.8717" lon="4.755">
        <ele>223</ele>
        <time>2018-01-24T11:02:12Z</time>
      </trkpt>
      <trkpt lat="45.87171" lon="4.75508">
        <ele>223</ele>
        <time>2018-01-24T11:02:13Z</time>
      </trkpt>
      <trkpt lat="45.87172" lon="4.75514">
        <ele>222</ele>
        <time>2018-01-24T11:02:14Z</time>
      </trkpt>
      <trkpt lat="45.87172" lon="4.75522">
        <ele>222</ele>
        <time>2018-01-24T11:02:15Z</time>
      </trkpt>
      <trkpt lat="45.87173" lon="4.75531">
        <ele>222</ele>
        <time>2018-01-24T11:02:16Z</time>
      </trkpt>
      <trkpt lat="45.87173" lon="4.75538">
        <ele>222</ele>
        <time>2018-01-24T11:02:17Z</time>
      </trkpt>
      <trkpt lat="45.87173" lon="4.75545">
        <ele>222</ele>
        <time>2018-01-24T11:02:18Z</time>
      </trkpt>
      <trkpt lat="45.87173" lon="4.75551">
        <ele>222</ele>
        <time>2018-01-24T11:02:19Z</time>
      </trkpt>
      <trkpt lat="45.87174" lon="4.75559">
        <ele>222</ele>
        <time>2018-01-24T11:02:20Z</time>
      </trkpt>
      <trkpt lat="45.87174" lon="4.75566">
        <ele>222</ele>
        <time>2018-01-24T11:02:21Z</time>
      </trkpt>
      <trkpt lat="45.87173" lon="4.75572">
        <ele>222</ele>
        <time>2018-01-24T11:02:22Z</time>
      </trkpt>
      <trkpt lat="45.87173" lon="4.75579">
        <ele>223</ele>
        <time>2018-01-24T11:02:23Z</time>
      </trkpt>
      <trkpt lat="45.87171" lon="4.75585">
        <ele>223</ele>
        <time>2018-01-24T11:02:24Z</time>
      </trkpt>
      <trkpt lat="45.8717" lon="4.75591">
        <ele>223</ele>
        <time>2018-01-24T11:02:25Z</time>
      </trkpt>
      <trkpt lat="45.8717" lon="4.756">
        <ele>222</ele>
        <time>2018-01-24T11:02:26Z</time>
      </trkpt>
      <trkpt lat="45.87169" lon="4.75607">
        <ele>222</ele>
        <time>2018-01-24T11:02:27Z</time>
      </trkpt>
      <trkpt lat="45.87169" lon="4.75614">
        <ele>222</ele>
        <time>2018-01-24T11:02:28Z</time>
      </trkpt>
      <trkpt lat="45.87169" lon="4.75621">
        <ele>222</ele>
        <time>2018-01-24T11:02:29Z</time>
      </trkpt>
      <trkpt lat="45.87169" lon="4.75634">
        <ele>222</ele>
        <time>2018-01-24T11:02:31Z</time>
      </trkpt>
      <trkpt lat="45.8717" lon="4.75641">
        <ele>222</ele>
        <time>2018-01-24T11:02:32Z</time>
      </trkpt>
      <trkpt lat="45.87171" lon="4.75653">
        <ele>222</ele>
        <time>2018-01-24T11:02:34Z</time>
      </trkpt>
      <trkpt lat="45.87172" lon="4.75657">
        <ele>223</ele>
        <time>2018-01-24T11:02:35Z</time>
      </trkpt>
      <trkpt lat="45.87172" lon="4.75663">
        <ele>223</ele>
        <time>2018-01-24T11:02:36Z</time>
      </trkpt>
      <trkpt lat="45.87173" lon="4.7567">
        <ele>223</ele>
        <time>2018-01-24T11:02:37Z</time>
      </trkpt>
      <trkpt lat="45.87173" lon="4.75677">
        <ele>223</ele>
        <time>2018-01-24T11:02:38Z</time>
      </trkpt>
      <trkpt lat="45.87173" lon="4.75683">
        <ele>223</ele>
        <time>2018-01-24T11:02:39Z</time>
      </trkpt>
      <trkpt lat="45.87174" lon="4.7569">
        <ele>223</ele>
        <time>2018-01-24T11:02:40Z</time>
      </trkpt>
      <trkpt lat="45.87175" lon="4.75698">
        <ele>223</ele>
        <time>2018-01-24T11:02:41Z</time>
      </trkpt>
      <trkpt lat="45.87176" lon="4.75705">
        <ele>223</ele>
        <time>2018-01-24T11:02:42Z</time>
      </trkpt>
      <trkpt lat="45.87177" lon="4.75712">
        <ele>223</ele>
        <time>2018-01-24T11:02:43Z</time>
      </trkpt>
      <trkpt lat="45.87179" lon="4.7572">
        <ele>223</ele>
        <time>2018-01-24T11:02:44Z</time>
      </trkpt>
      <trkpt lat="45.87181" lon="4.75726">
        <ele>223</ele>
        <time>2018-01-24T11:02:45Z</time>
      </trkpt>
      <trkpt lat="45.87182" lon="4.75734">
        <ele>223</ele>
        <time>2018-01-24T11:02:46Z</time>
      </trkpt>
      <trkpt lat="45.87184" lon="4.75741">
        <ele>223</ele>
        <time>2018-01-24T11:02:47Z</time>
      </trkpt>
      <trkpt lat="45.87186" lon="4.75748">
        <ele>223</ele>
        <time>2018-01-24T11:02:48Z</time>
      </trkpt>
      <trkpt lat="45.87188" lon="4.75756">
        <ele>224</ele>
        <time>2018-01-24T11:02:49Z</time>
      </trkpt>
      <trkpt lat="45.87192" lon="4.75764">
        <ele>224</ele>
        <time>2018-01-24T11:02:50Z</time>
      </trkpt>
      <trkpt lat="45.87194" lon="4.75772">
        <ele>224</ele>
        <time>2018-01-24T11:02:51Z</time>
      </trkpt>
      <trkpt lat="45.87196" lon="4.75778">
        <ele>224</ele>
        <time>2018-01-24T11:02:52Z</time>
      </trkpt>
      <trkpt lat="45.87198" lon="4.75785">
        <ele>224</ele>
        <time>2018-01-24T11:02:53Z</time>
      </trkpt>
      <trkpt lat="45.87201" lon="4.7579">
        <ele>224</ele>
        <time>2018-01-24T11:02:54Z</time>
      </trkpt>
      <trkpt lat="45.87203" lon="4.75797">
        <ele>224</ele>
        <time>2018-01-24T11:02:55Z</time>
      </trkpt>
      <trkpt lat="45.87205" lon="4.75804">
        <ele>224</ele>
        <time>2018-01-24T11:02:56Z</time>
      </trkpt>
      <trkpt lat="45.87206" lon="4.7581">
        <ele>225</ele>
        <time>2018-01-24T11:02:57Z</time>
      </trkpt>
      <trkpt lat="45.87208" lon="4.75817">
        <ele>225</ele>
        <time>2018-01-24T11:02:58Z</time>
      </trkpt>
      <trkpt lat="45.87209" lon="4.75823">
        <ele>225</ele>
        <time>2018-01-24T11:02:59Z</time>
      </trkpt>
      <trkpt lat="45.87211" lon="4.75831">
        <ele>225</ele>
        <time>2018-01-24T11:03:00Z</time>
      </trkpt>
      <trkpt lat="45.87212" lon="4.75837">
        <ele>226</ele>
        <time>2018-01-24T11:03:01Z</time>
      </trkpt>
      <trkpt lat="45.87214" lon="4.75844">
        <ele>226</ele>
        <time>2018-01-24T11:03:02Z</time>
      </trkpt>
      <trkpt lat="45.87215" lon="4.75851">
        <ele>226</ele>
        <time>2018-01-24T11:03:03Z</time>
      </trkpt>
      <trkpt lat="45.87216" lon="4.75858">
        <ele>226</ele>
        <time>2018-01-24T11:03:04Z</time>
      </trkpt>
      <trkpt lat="45.87217" lon="4.75865">
        <ele>226</ele>
        <time>2018-01-24T11:03:05Z</time>
      </trkpt>
      <trkpt lat="45.87217" lon="4.75872">
        <ele>226</ele>
        <time>2018-01-24T11:03:06Z</time>
      </trkpt>
      <trkpt lat="45.87218" lon="4.75878">
        <ele>226</ele>
        <time>2018-01-24T11:03:07Z</time>
      </trkpt>
      <trkpt lat="45.87218" lon="4.75884">
        <ele>227</ele>
        <time>2018-01-24T11:03:08Z</time>
      </trkpt>
      <trkpt lat="45.87218" lon="4.75891">
        <ele>227</ele>
        <time>2018-01-24T11:03:09Z</time>
      </trkpt>
      <trkpt lat="45.87219" lon="4.75898">
        <ele>227</ele>
        <time>2018-01-24T11:03:10Z</time>
      </trkpt>
      <trkpt lat="45.87219" lon="4.75904">
        <ele>227</ele>
        <time>2018-01-24T11:03:11Z</time>
      </trkpt>
      <trkpt lat="45.8722" lon="4.7591">
        <ele>227</ele>
        <time>2018-01-24T11:03:12Z</time>
      </trkpt>
      <trkpt lat="45.8722" lon="4.75918">
        <ele>228</ele>
        <time>2018-01-24T11:03:13Z</time>
      </trkpt>
      <trkpt lat="45.8722" lon="4.75925">
        <ele>228</ele>
        <time>2018-01-24T11:03:14Z</time>
      </trkpt>
      <trkpt lat="45.8722" lon="4.75932">
        <ele>228</ele>
        <time>2018-01-24T11:03:15Z</time>
      </trkpt>
      <trkpt lat="45.87222" lon="4.75944">
        <ele>228</ele>
        <time>2018-01-24T11:03:17Z</time>
      </trkpt>
      <trkpt lat="45.87223" lon="4.75949">
        <ele>228</ele>
        <time>2018-01-24T11:03:18Z</time>
      </trkpt>
      <trkpt lat="45.87225" lon="4.7596">
        <ele>228</ele>
        <time>2018-01-24T11:03:20Z</time>
      </trkpt>
      <trkpt lat="45.87225" lon="4.75967">
        <ele>228</ele>
        <time>2018-01-24T11:03:21Z</time>
      </trkpt>
      <trkpt lat="45.87227" lon="4.75979">
        <ele>228</ele>
        <time>2018-01-24T11:03:23Z</time>
      </trkpt>
      <trkpt lat="45.87227" lon="4.75987">
        <ele>228</ele>
        <time>2018-01-24T11:03:24Z</time>
      </trkpt>
      <trkpt lat="45.87228" lon="4.75994">
        <ele>228</ele>
        <time>2018-01-24T11:03:25Z</time>
      </trkpt>
      <trkpt lat="45.87229" lon="4.76">
        <ele>228</ele>
        <time>2018-01-24T11:03:26Z</time>
      </trkpt>
      <trkpt lat="45.87231" lon="4.76011">
        <ele>230</ele>
        <time>2018-01-24T11:03:28Z</time>
      </trkpt>
      <trkpt lat="45.87231" lon="4.76018">
        <ele>230</ele>
        <time>2018-01-24T11:03:29Z</time>
      </trkpt>
      <trkpt lat="45.87231" lon="4.7603">
        <ele>230</ele>
        <time>2018-01-24T11:03:31Z</time>
      </trkpt>
      <trkpt lat="45.87232" lon="4.76035">
        <ele>230</ele>
        <time>2018-01-24T11:03:32Z</time>
      </trkpt>
      <trkpt lat="45.87233" lon="4.76042">
        <ele>230</ele>
        <time>2018-01-24T11:03:33Z</time>
      </trkpt>
      <trkpt lat="45.87233" lon="4.76048">
        <ele>230</ele>
        <time>2018-01-24T11:03:34Z</time>
      </trkpt>
      <trkpt lat="45.87234" lon="4.76054">
        <ele>230</ele>
        <time>2018-01-24T11:03:35Z</time>
      </trkpt>
      <trkpt lat="45.87234" lon="4.76061">
        <ele>230</ele>
        <time>2018-01-24T11:03:36Z</time>
      </trkpt>
      <trkpt lat="45.87235" lon="4.76074">
        <ele>230</ele>
        <time>2018-01-24T11:03:38Z</time>
      </trkpt>
      <trkpt lat="45.87236" lon="4.7608">
        <ele>230</ele>
        <time>2018-01-24T11:03:39Z</time>
      </trkpt>
      <trkpt lat="45.87237" lon="4.76091">
        <ele>231</ele>
        <time>2018-01-24T11:03:41Z</time>
      </trkpt>
      <trkpt lat="45.87237" lon="4.76097">
        <ele>231</ele>
        <time>2018-01-24T11:03:42Z</time>
      </trkpt>
      <trkpt lat="45.87238" lon="4.76108">
        <ele>232</ele>
        <time>2018-01-24T11:03:44Z</time>
      </trkpt>
      <trkpt lat="45.87238" lon="4.76114">
        <ele>232</ele>
        <time>2018-01-24T11:03:45Z</time>
      </trkpt>
      <trkpt lat="45.87239" lon="4.76125">
        <ele>232</ele>
        <time>2018-01-24T11:03:47Z</time>
      </trkpt>
      <trkpt lat="45.87239" lon="4.76131">
        <ele>232</ele>
        <time>2018-01-24T11:03:48Z</time>
      </trkpt>
      <trkpt lat="45.87239" lon="4.76142">
        <ele>232</ele>
        <time>2018-01-24T11:03:50Z</time>
      </trkpt>
      <trkpt lat="45.87239" lon="4.76148">
        <ele>232</ele>
        <time>2018-01-24T11:03:51Z</time>
      </trkpt>
      <trkpt lat="45.87239" lon="4.7616">
        <ele>232</ele>
        <time>2018-01-24T11:03:53Z</time>
      </trkpt>
      <trkpt lat="45.8724" lon="4.76166">
        <ele>232</ele>
        <time>2018-01-24T11:03:54Z</time>
      </trkpt>
      <trkpt lat="45.8724" lon="4.76178">
        <ele>233</ele>
        <time>2018-01-24T11:03:56Z</time>
      </trkpt>
      <trkpt lat="45.87241" lon="4.76183">
        <ele>233</ele>
        <time>2018-01-24T11:03:57Z</time>
      </trkpt>
      <trkpt lat="45.87241" lon="4.76194">
        <ele>234</ele>
        <time>2018-01-24T11:03:59Z</time>
      </trkpt>
      <trkpt lat="45.87242" lon="4.76199">
        <ele>234</ele>
        <time>2018-01-24T11:04:00Z</time>
      </trkpt>
      <trkpt lat="45.87242" lon="4.76211">
        <ele>234</ele>
        <time>2018-01-24T11:04:02Z</time>
      </trkpt>
      <trkpt lat="45.87242" lon="4.76219">
        <ele>235</ele>
        <time>2018-01-24T11:04:03Z</time>
      </trkpt>
      <trkpt lat="45.87243" lon="4.76225">
        <ele>235</ele>
        <time>2018-01-24T11:04:04Z</time>
      </trkpt>
      <trkpt lat="45.87243" lon="4.76232">
        <ele>235</ele>
        <time>2018-01-24T11:04:05Z</time>
      </trkpt>
      <trkpt lat="45.87243" lon="4.76244">
        <ele>235</ele>
        <time>2018-01-24T11:04:07Z</time>
      </trkpt>
      <trkpt lat="45.87243" lon="4.7625">
        <ele>235</ele>
        <time>2018-01-24T11:04:08Z</time>
      </trkpt>
      <trkpt lat="45.87243" lon="4.76263">
        <ele>236</ele>
        <time>2018-01-24T11:04:10Z</time>
      </trkpt>
      <trkpt lat="45.87244" lon="4.76268">
        <ele>236</ele>
        <time>2018-01-24T11:04:11Z</time>
      </trkpt>
      <trkpt lat="45.87244" lon="4.76281">
        <ele>236</ele>
        <time>2018-01-24T11:04:13Z</time>
      </trkpt>
      <trkpt lat="45.87246" lon="4.76289">
        <ele>236</ele>
        <time>2018-01-24T11:04:14Z</time>
      </trkpt>
      <trkpt lat="45.87246" lon="4.76296">
        <ele>236</ele>
        <time>2018-01-24T11:04:15Z</time>
      </trkpt>
      <trkpt lat="45.87246" lon="4.76302">
        <ele>236</ele>
        <time>2018-01-24T11:04:16Z</time>
      </trkpt>
      <trkpt lat="45.87247" lon="4.76309">
        <ele>235</ele>
        <time>2018-01-24T11:04:17Z</time>
      </trkpt>
      <trkpt lat="45.87247" lon="4.76316">
        <ele>235</ele>
        <time>2018-01-24T11:04:18Z</time>
      </trkpt>
      <trkpt lat="45.87248" lon="4.76323">
        <ele>235</ele>
        <time>2018-01-24T11:04:19Z</time>
      </trkpt>
      <trkpt lat="45.87248" lon="4.76329">
        <ele>234</ele>
        <time>2018-01-24T11:04:20Z</time>
      </trkpt>
      <trkpt lat="45.87247" lon="4.7634">
        <ele>235</ele>
        <time>2018-01-24T11:04:22Z</time>
      </trkpt>
      <trkpt lat="45.87248" lon="4.76346">
        <ele>235</ele>
        <time>2018-01-24T11:04:23Z</time>
      </trkpt>
      <trkpt lat="45.87247" lon="4.76357">
        <ele>236</ele>
        <time>2018-01-24T11:04:25Z</time>
      </trkpt>
      <trkpt lat="45.87247" lon="4.76363">
        <ele>236</ele>
        <time>2018-01-24T11:04:26Z</time>
      </trkpt>
      <trkpt lat="45.87248" lon="4.76376">
        <ele>237</ele>
        <time>2018-01-24T11:04:28Z</time>
      </trkpt>
      <trkpt lat="45.87248" lon="4.76382">
        <ele>237</ele>
        <time>2018-01-24T11:04:29Z</time>
      </trkpt>
      <trkpt lat="45.87249" lon="4.76394">
        <ele>237</ele>
        <time>2018-01-24T11:04:31Z</time>
      </trkpt>
      <trkpt lat="45.87249" lon="4.764">
        <ele>237</ele>
        <time>2018-01-24T11:04:32Z</time>
      </trkpt>
      <trkpt lat="45.8725" lon="4.76413">
        <ele>236</ele>
        <time>2018-01-24T11:04:34Z</time>
      </trkpt>
      <trkpt lat="45.8725" lon="4.76418">
        <ele>236</ele>
        <time>2018-01-24T11:04:35Z</time>
      </trkpt>
      <trkpt lat="45.87251" lon="4.7643">
        <ele>236</ele>
        <time>2018-01-24T11:04:37Z</time>
      </trkpt>
      <trkpt lat="45.87251" lon="4.76438">
        <ele>235</ele>
        <time>2018-01-24T11:04:38Z</time>
      </trkpt>
      <trkpt lat="45.87251" lon="4.7645">
        <ele>235</ele>
        <time>2018-01-24T11:04:40Z</time>
      </trkpt>
      <trkpt lat="45.87251" lon="4.76456">
        <ele>235</ele>
        <time>2018-01-24T11:04:41Z</time>
      </trkpt>
      <trkpt lat="45.87251" lon="4.76468">
        <ele>236</ele>
        <time>2018-01-24T11:04:43Z</time>
      </trkpt>
      <trkpt lat="45.87252" lon="4.76474">
        <ele>236</ele>
        <time>2018-01-24T11:04:44Z</time>
      </trkpt>
      <trkpt lat="45.87252" lon="4.76486">
        <ele>236</ele>
        <time>2018-01-24T11:04:46Z</time>
      </trkpt>
      <trkpt lat="45.87252" lon="4.76491">
        <ele>236</ele>
        <time>2018-01-24T11:04:47Z</time>
      </trkpt>
      <trkpt lat="45.87251" lon="4.76503">
        <ele>237</ele>
        <time>2018-01-24T11:04:49Z</time>
      </trkpt>
      <trkpt lat="45.87251" lon="4.76511">
        <ele>236</ele>
        <time>2018-01-24T11:04:50Z</time>
      </trkpt>
      <trkpt lat="45.87251" lon="4.76517">
        <ele>236</ele>
        <time>2018-01-24T11:04:51Z</time>
      </trkpt>
      <trkpt lat="45.8725" lon="4.76524">
        <ele>236</ele>
        <time>2018-01-24T11:04:52Z</time>
      </trkpt>
      <trkpt lat="45.87251" lon="4.76531">
        <ele>236</ele>
        <time>2018-01-24T11:04:53Z</time>
      </trkpt>
      <trkpt lat="45.87251" lon="4.76539">
        <ele>236</ele>
        <time>2018-01-24T11:04:54Z</time>
      </trkpt>
      <trkpt lat="45.87251" lon="4.76546">
        <ele>236</ele>
        <time>2018-01-24T11:04:55Z</time>
      </trkpt>
      <trkpt lat="45.87251" lon="4.76554">
        <ele>236</ele>
        <time>2018-01-24T11:04:56Z</time>
      </trkpt>
      <trkpt lat="45.87251" lon="4.76563">
        <ele>236</ele>
        <time>2018-01-24T11:04:57Z</time>
      </trkpt>
      <trkpt lat="45.87251" lon="4.7657">
        <ele>236</ele>
        <time>2018-01-24T11:04:58Z</time>
      </trkpt>
      <trkpt lat="45.87252" lon="4.76578">
        <ele>236</ele>
        <time>2018-01-24T11:04:59Z</time>
      </trkpt>
      <trkpt lat="45.87252" lon="4.76586">
        <ele>236</ele>
        <time>2018-01-24T11:05:00Z</time>
      </trkpt>
      <trkpt lat="45.87252" lon="4.76594">
        <ele>235</ele>
        <time>2018-01-24T11:05:01Z</time>
      </trkpt>
      <trkpt lat="45.87252" lon="4.76602">
        <ele>235</ele>
        <time>2018-01-24T11:05:02Z</time>
      </trkpt>
      <trkpt lat="45.87252" lon="4.7661">
        <ele>235</ele>
        <time>2018-01-24T11:05:03Z</time>
      </trkpt>
      <trkpt lat="45.87252" lon="4.76617">
        <ele>235</ele>
        <time>2018-01-24T11:05:04Z</time>
      </trkpt>
      <trkpt lat="45.87251" lon="4.76625">
        <ele>234</ele>
        <time>2018-01-24T11:05:05Z</time>
      </trkpt>
      <trkpt lat="45.87251" lon="4.76633">
        <ele>234</ele>
        <time>2018-01-24T11:05:06Z</time>
      </trkpt>
      <trkpt lat="45.87253" lon="4.7664">
        <ele>234</ele>
        <time>2018-01-24T11:05:07Z</time>
      </trkpt>
      <trkpt lat="45.87252" lon="4.76648">
        <ele>234</ele>
        <time>2018-01-24T11:05:08Z</time>
      </trkpt>
      <trkpt lat="45.87252" lon="4.76656">
        <ele>235</ele>
        <time>2018-01-24T11:05:09Z</time>
      </trkpt>
      <trkpt lat="45.87252" lon="4.76663">
        <ele>235</ele>
        <time>2018-01-24T11:05:10Z</time>
      </trkpt>
      <trkpt lat="45.87252" lon="4.7667">
        <ele>235</ele>
        <time>2018-01-24T11:05:11Z</time>
      </trkpt>
      <trkpt lat="45.87252" lon="4.76678">
        <ele>234</ele>
        <time>2018-01-24T11:05:12Z</time>
      </trkpt>
      <trkpt lat="45.87253" lon="4.76684">
        <ele>234</ele>
        <time>2018-01-24T11:05:13Z</time>
      </trkpt>
      <trkpt lat="45.87254" lon="4.76693">
        <ele>234</ele>
        <time>2018-01-24T11:05:14Z</time>
      </trkpt>
      <trkpt lat="45.87254" lon="4.767">
        <ele>234</ele>
        <time>2018-01-24T11:05:15Z</time>
      </trkpt>
      <trkpt lat="45.87254" lon="4.76707">
        <ele>234</ele>
        <time>2018-01-24T11:05:16Z</time>
      </trkpt>
      <trkpt lat="45.87254" lon="4.76714">
        <ele>234</ele>
        <time>2018-01-24T11:05:17Z</time>
      </trkpt>
      <trkpt lat="45.87254" lon="4.76721">
        <ele>234</ele>
        <time>2018-01-24T11:05:18Z</time>
      </trkpt>
      <trkpt lat="45.87254" lon="4.76728">
        <ele>235</ele>
        <time>2018-01-24T11:05:19Z</time>
      </trkpt>
      <trkpt lat="45.87255" lon="4.76734">
        <ele>235</ele>
        <time>2018-01-24T11:05:20Z</time>
      </trkpt>
      <trkpt lat="45.87256" lon="4.7674">
        <ele>235</ele>
        <time>2018-01-24T11:05:21Z</time>
      </trkpt>
      <trkpt lat="45.87256" lon="4.76748">
        <ele>235</ele>
        <time>2018-01-24T11:05:22Z</time>
      </trkpt>
      <trkpt lat="45.87257" lon="4.76754">
        <ele>236</ele>
        <time>2018-01-24T11:05:23Z</time>
      </trkpt>
      <trkpt lat="45.87257" lon="4.76761">
        <ele>236</ele>
        <time>2018-01-24T11:05:24Z</time>
      </trkpt>
      <trkpt lat="45.87257" lon="4.76767">
        <ele>236</ele>
        <time>2018-01-24T11:05:25Z</time>
      </trkpt>
      <trkpt lat="45.87257" lon="4.76774">
        <ele>236</ele>
        <time>2018-01-24T11:05:26Z</time>
      </trkpt>
      <trkpt lat="45.87257" lon="4.76783">
        <ele>236</ele>
        <time>2018-01-24T11:05:27Z</time>
      </trkpt>
      <trkpt lat="45.87257" lon="4.76791">
        <ele>236</ele>
        <time>2018-01-24T11:05:28Z</time>
      </trkpt>
      <trkpt lat="45.87257" lon="4.76798">
        <ele>237</ele>
        <time>2018-01-24T11:05:29Z</time>
      </trkpt>
      <trkpt lat="45.87257" lon="4.76806">
        <ele>237</ele>
        <time>2018-01-24T11:05:30Z</time>
      </trkpt>
      <trkpt lat="45.87257" lon="4.76814">
        <ele>237</ele>
        <time>2018-01-24T11:05:31Z</time>
      </trkpt>
      <trkpt lat="45.87257" lon="4.76822">
        <ele>237</ele>
        <time>2018-01-24T11:05:32Z</time>
      </trkpt>
      <trkpt lat="45.87257" lon="4.7683">
        <ele>237</ele>
        <time>2018-01-24T11:05:33Z</time>
      </trkpt>
      <trkpt lat="45.87258" lon="4.76837">
        <ele>238</ele>
        <time>2018-01-24T11:05:34Z</time>
      </trkpt>
      <trkpt lat="45.87257" lon="4.76844">
        <ele>239</ele>
        <time>2018-01-24T11:05:35Z</time>
      </trkpt>
      <trkpt lat="45.87257" lon="4.76851">
        <ele>239</ele>
        <time>2018-01-24T11:05:36Z</time>
      </trkpt>
      <trkpt lat="45.87258" lon="4.76859">
        <ele>239</ele>
        <time>2018-01-24T11:05:37Z</time>
      </trkpt>
      <trkpt lat="45.87258" lon="4.76866">
        <ele>239</ele>
        <time>2018-01-24T11:05:38Z</time>
      </trkpt>
      <trkpt lat="45.87259" lon="4.76872">
        <ele>240</ele>
        <time>2018-01-24T11:05:39Z</time>
      </trkpt>
      <trkpt lat="45.8726" lon="4.76879">
        <ele>240</ele>
        <time>2018-01-24T11:05:40Z</time>
      </trkpt>
      <trkpt lat="45.8726" lon="4.76885">
        <ele>240</ele>
        <time>2018-01-24T11:05:41Z</time>
      </trkpt>
      <trkpt lat="45.87261" lon="4.76892">
        <ele>240</ele>
        <time>2018-01-24T11:05:42Z</time>
      </trkpt>
      <trkpt lat="45.87261" lon="4.76898">
        <ele>240</ele>
        <time>2018-01-24T11:05:43Z</time>
      </trkpt>
      <trkpt lat="45.87262" lon="4.76905">
        <ele>241</ele>
        <time>2018-01-24T11:05:44Z</time>
      </trkpt>
      <trkpt lat="45.87262" lon="4.76911">
        <ele>241</ele>
        <time>2018-01-24T11:05:45Z</time>
      </trkpt>
      <trkpt lat="45.87262" lon="4.76919">
        <ele>241</ele>
        <time>2018-01-24T11:05:46Z</time>
      </trkpt>
      <trkpt lat="45.87263" lon="4.76925">
        <ele>241</ele>
        <time>2018-01-24T11:05:47Z</time>
      </trkpt>
      <trkpt lat="45.87262" lon="4.76932">
        <ele>241</ele>
        <time>2018-01-24T11:05:48Z</time>
      </trkpt>
      <trkpt lat="45.87262" lon="4.76939">
        <ele>241</ele>
        <time>2018-01-24T11:05:49Z</time>
      </trkpt>
      <trkpt lat="45.87263" lon="4.76945">
        <ele>241</ele>
        <time>2018-01-24T11:05:50Z</time>
      </trkpt>
      <trkpt lat="45.87263" lon="4.76953">
        <ele>240</ele>
        <time>2018-01-24T11:05:51Z</time>
      </trkpt>
      <trkpt lat="45.87262" lon="4.7696">
        <ele>240</ele>
        <time>2018-01-24T11:05:52Z</time>
      </trkpt>
      <trkpt lat="45.87262" lon="4.76966">
        <ele>240</ele>
        <time>2018-01-24T11:05:53Z</time>
      </trkpt>
      <trkpt lat="45.87262" lon="4.76973">
        <ele>240</ele>
        <time>2018-01-24T11:05:54Z</time>
      </trkpt>
      <trkpt lat="45.87263" lon="4.76979">
        <ele>240</ele>
        <time>2018-01-24T11:05:55Z</time>
      </trkpt>
      <trkpt lat="45.87263" lon="4.76986">
        <ele>240</ele>
        <time>2018-01-24T11:05:56Z</time>
      </trkpt>
      <trkpt lat="45.87262" lon="4.76999">
        <ele>240</ele>
        <time>2018-01-24T11:05:58Z</time>
      </trkpt>
      <trkpt lat="45.87262" lon="4.77005">
        <ele>239</ele>
        <time>2018-01-24T11:05:59Z</time>
      </trkpt>
      <trkpt lat="45.87262" lon="4.77016">
        <ele>239</ele>
        <time>2018-01-24T11:06:01Z</time>
      </trkpt>
      <trkpt lat="45.87262" lon="4.77023">
        <ele>239</ele>
        <time>2018-01-24T11:06:02Z</time>
      </trkpt>
      <trkpt lat="45.87262" lon="4.77035">
        <ele>239</ele>
        <time>2018-01-24T11:06:04Z</time>
      </trkpt>
      <trkpt lat="45.87263" lon="4.7704">
        <ele>239</ele>
        <time>2018-01-24T11:06:05Z</time>
      </trkpt>
      <trkpt lat="45.87264" lon="4.77052">
        <ele>239</ele>
        <time>2018-01-24T11:06:07Z</time>
      </trkpt>
      <trkpt lat="45.87263" lon="4.77059">
        <ele>239</ele>
        <time>2018-01-24T11:06:08Z</time>
      </trkpt>
      <trkpt lat="45.87263" lon="4.77066">
        <ele>239</ele>
        <time>2018-01-24T11:06:09Z</time>
      </trkpt>
      <trkpt lat="45.87263" lon="4.77074">
        <ele>239</ele>
        <time>2018-01-24T11:06:10Z</time>
      </trkpt>
      <trkpt lat="45.87263" lon="4.77081">
        <ele>239</ele>
        <time>2018-01-24T11:06:11Z</time>
      </trkpt>
      <trkpt lat="45.87262" lon="4.77087">
        <ele>240</ele>
        <time>2018-01-24T11:06:12Z</time>
      </trkpt>
      <trkpt lat="45.87262" lon="4.77093">
        <ele>240</ele>
        <time>2018-01-24T11:06:13Z</time>
      </trkpt>
      <trkpt lat="45.87263" lon="4.771">
        <ele>240</ele>
        <time>2018-01-24T11:06:14Z</time>
      </trkpt>
      <trkpt lat="45.87263" lon="4.77107">
        <ele>240</ele>
        <time>2018-01-24T11:06:15Z</time>
      </trkpt>
      <trkpt lat="45.87263" lon="4.77113">
        <ele>240</ele>
        <time>2018-01-24T11:06:16Z</time>
      </trkpt>
      <trkpt lat="45.87263" lon="4.77124">
        <ele>241</ele>
        <time>2018-01-24T11:06:18Z</time>
      </trkpt>
      <trkpt lat="45.87263" lon="4.7713">
        <ele>241</ele>
        <time>2018-01-24T11:06:19Z</time>
      </trkpt>
      <trkpt lat="45.87264" lon="4.77139">
        <ele>241</ele>
        <time>2018-01-24T11:06:21Z</time>
      </trkpt>
      <trkpt lat="45.87265" lon="4.77145">
        <ele>242</ele>
        <time>2018-01-24T11:06:22Z</time>
      </trkpt>
      <trkpt lat="45.87264" lon="4.77153">
        <ele>242</ele>
        <time>2018-01-24T11:06:23Z</time>
      </trkpt>
      <trkpt lat="45.87265" lon="4.7716">
        <ele>242</ele>
        <time>2018-01-24T11:06:24Z</time>
      </trkpt>
      <trkpt lat="45.87266" lon="4.77171">
        <ele>244</ele>
        <time>2018-01-24T11:06:26Z</time>
      </trkpt>
      <trkpt lat="45.87268" lon="4.77178">
        <ele>244</ele>
        <time>2018-01-24T11:06:27Z</time>
      </trkpt>
      <trkpt lat="45.8727" lon="4.77189">
        <ele>244</ele>
        <time>2018-01-24T11:06:29Z</time>
      </trkpt>
      <trkpt lat="45.87271" lon="4.77195">
        <ele>244</ele>
        <time>2018-01-24T11:06:30Z</time>
      </trkpt>
      <trkpt lat="45.87273" lon="4.77202">
        <ele>244</ele>
        <time>2018-01-24T11:06:31Z</time>
      </trkpt>
      <trkpt lat="45.87275" lon="4.77207">
        <ele>244</ele>
        <time>2018-01-24T11:06:32Z</time>
      </trkpt>
      <trkpt lat="45.87278" lon="4.77213">
        <ele>244</ele>
        <time>2018-01-24T11:06:33Z</time>
      </trkpt>
      <trkpt lat="45.87281" lon="4.77217">
        <ele>244</ele>
        <time>2018-01-24T11:06:34Z</time>
      </trkpt>
      <trkpt lat="45.87288" lon="4.77225">
        <ele>244</ele>
        <time>2018-01-24T11:06:36Z</time>
      </trkpt>
      <trkpt lat="45.87293" lon="4.77227">
        <ele>244</ele>
        <time>2018-01-24T11:06:37Z</time>
      </trkpt>
      <trkpt lat="45.87298" lon="4.7723">
        <ele>244</ele>
        <time>2018-01-24T11:06:38Z</time>
      </trkpt>
      <trkpt lat="45.87304" lon="4.77231">
        <ele>244</ele>
        <time>2018-01-24T11:06:39Z</time>
      </trkpt>
      <trkpt lat="45.87309" lon="4.7723">
        <ele>244</ele>
        <time>2018-01-24T11:06:40Z</time>
      </trkpt>
      <trkpt lat="45.87315" lon="4.77231">
        <ele>244</ele>
        <time>2018-01-24T11:06:41Z</time>
      </trkpt>
      <trkpt lat="45.8732" lon="4.77231">
        <ele>244</ele>
        <time>2018-01-24T11:06:42Z</time>
      </trkpt>
      <trkpt lat="45.87326" lon="4.7723">
        <ele>243</ele>
        <time>2018-01-24T11:06:43Z</time>
      </trkpt>
      <trkpt lat="45.87332" lon="4.7723">
        <ele>243</ele>
        <time>2018-01-24T11:06:44Z</time>
      </trkpt>
      <trkpt lat="45.87336" lon="4.77231">
        <ele>241</ele>
        <time>2018-01-24T11:06:45Z</time>
      </trkpt>
      <trkpt lat="45.87342" lon="4.7723">
        <ele>241</ele>
        <time>2018-01-24T11:06:46Z</time>
      </trkpt>
      <trkpt lat="45.87349" lon="4.77228">
        <ele>241</ele>
        <time>2018-01-24T11:06:47Z</time>
      </trkpt>
      <trkpt lat="45.87353" lon="4.77227">
        <ele>240</ele>
        <time>2018-01-24T11:06:48Z</time>
      </trkpt>
      <trkpt lat="45.87359" lon="4.77226">
        <ele>240</ele>
        <time>2018-01-24T11:06:49Z</time>
      </trkpt>
      <trkpt lat="45.87365" lon="4.77225">
        <ele>240</ele>
        <time>2018-01-24T11:06:50Z</time>
      </trkpt>
      <trkpt lat="45.87372" lon="4.77224">
        <ele>239</ele>
        <time>2018-01-24T11:06:51Z</time>
      </trkpt>
      <trkpt lat="45.87377" lon="4.77224">
        <ele>239</ele>
        <time>2018-01-24T11:06:52Z</time>
      </trkpt>
      <trkpt lat="45.87383" lon="4.77224">
        <ele>239</ele>
        <time>2018-01-24T11:06:53Z</time>
      </trkpt>
      <trkpt lat="45.87388" lon="4.77223">
        <ele>239</ele>
        <time>2018-01-24T11:06:54Z</time>
      </trkpt>
      <trkpt lat="45.87394" lon="4.77224">
        <ele>239</ele>
        <time>2018-01-24T11:06:55Z</time>
      </trkpt>
      <trkpt lat="45.87399" lon="4.77226">
        <ele>238</ele>
        <time>2018-01-24T11:06:56Z</time>
      </trkpt>
      <trkpt lat="45.87404" lon="4.77227">
        <ele>238</ele>
        <time>2018-01-24T11:06:57Z</time>
      </trkpt>
      <trkpt lat="45.87409" lon="4.77227">
        <ele>238</ele>
        <time>2018-01-24T11:06:58Z</time>
      </trkpt>
      <trkpt lat="45.87415" lon="4.77232">
        <ele>238</ele>
        <time>2018-01-24T11:06:59Z</time>
      </trkpt>
      <trkpt lat="45.8742" lon="4.77234">
        <ele>236</ele>
        <time>2018-01-24T11:07:00Z</time>
      </trkpt>
      <trkpt lat="45.87425" lon="4.77237">
        <ele>235</ele>
        <time>2018-01-24T11:07:01Z</time>
      </trkpt>
      <trkpt lat="45.8743" lon="4.7724">
        <ele>235</ele>
        <time>2018-01-24T11:07:02Z</time>
      </trkpt>
      <trkpt lat="45.87435" lon="4.77243">
        <ele>235</ele>
        <time>2018-01-24T11:07:03Z</time>
      </trkpt>
      <trkpt lat="45.8744" lon="4.77247">
        <ele>235</ele>
        <time>2018-01-24T11:07:04Z</time>
      </trkpt>
      <trkpt lat="45.87444" lon="4.77251">
        <ele>235</ele>
        <time>2018-01-24T11:07:05Z</time>
      </trkpt>
      <trkpt lat="45.87448" lon="4.77257">
        <ele>235</ele>
        <time>2018-01-24T11:07:06Z</time>
      </trkpt>
      <trkpt lat="45.87451" lon="4.77263">
        <ele>235</ele>
        <time>2018-01-24T11:07:07Z</time>
      </trkpt>
      <trkpt lat="45.87455" lon="4.7727">
        <ele>235</ele>
        <time>2018-01-24T11:07:08Z</time>
      </trkpt>
      <trkpt lat="45.87458" lon="4.77278">
        <ele>235</ele>
        <time>2018-01-24T11:07:09Z</time>
      </trkpt>
      <trkpt lat="45.8746" lon="4.77286">
        <ele>235</ele>
        <time>2018-01-24T11:07:10Z</time>
      </trkpt>
      <trkpt lat="45.87462" lon="4.77295">
        <ele>235</ele>
        <time>2018-01-24T11:07:11Z</time>
      </trkpt>
      <trkpt lat="45.87464" lon="4.77303">
        <ele>235</ele>
        <time>2018-01-24T11:07:12Z</time>
      </trkpt>
      <trkpt lat="45.87466" lon="4.77311">
        <ele>235</ele>
        <time>2018-01-24T11:07:13Z</time>
      </trkpt>
      <trkpt lat="45.87468" lon="4.7732">
        <ele>235</ele>
        <time>2018-01-24T11:07:14Z</time>
      </trkpt>
      <trkpt lat="45.87471" lon="4.77329">
        <ele>235</ele>
        <time>2018-01-24T11:07:15Z</time>
      </trkpt>
      <trkpt lat="45.87473" lon="4.77338">
        <ele>235</ele>
        <time>2018-01-24T11:07:16Z</time>
      </trkpt>
      <trkpt lat="45.87475" lon="4.77347">
        <ele>235</ele>
        <time>2018-01-24T11:07:17Z</time>
      </trkpt>
      <trkpt lat="45.87477" lon="4.77356">
        <ele>235</ele>
        <time>2018-01-24T11:07:18Z</time>
      </trkpt>
      <trkpt lat="45.87479" lon="4.77365">
        <ele>235</ele>
        <time>2018-01-24T11:07:19Z</time>
      </trkpt>
      <trkpt lat="45.87481" lon="4.77373">
        <ele>235</ele>
        <time>2018-01-24T11:07:20Z</time>
      </trkpt>
      <trkpt lat="45.87482" lon="4.77381">
        <ele>235</ele>
        <time>2018-01-24T11:07:21Z</time>
      </trkpt>
      <trkpt lat="45.87484" lon="4.77389">
        <ele>235</ele>
        <time>2018-01-24T11:07:22Z</time>
      </trkpt>
      <trkpt lat="45.87487" lon="4.77397">
        <ele>235</ele>
        <time>2018-01-24T11:07:23Z</time>
      </trkpt>
      <trkpt lat="45.87489" lon="4.77404">
        <ele>234</ele>
        <time>2018-01-24T11:07:24Z</time>
      </trkpt>
      <trkpt lat="45.87492" lon="4.7741">
        <ele>234</ele>
        <time>2018-01-24T11:07:25Z</time>
      </trkpt>
      <trkpt lat="45.87495" lon="4.77416">
        <ele>234</ele>
        <time>2018-01-24T11:07:26Z</time>
      </trkpt>
      <trkpt lat="45.87499" lon="4.77423">
        <ele>234</ele>
        <time>2018-01-24T11:07:27Z</time>
      </trkpt>
      <trkpt lat="45.87503" lon="4.77427">
        <ele>233</ele>
        <time>2018-01-24T11:07:28Z</time>
      </trkpt>
      <trkpt lat="45.87506" lon="4.77432">
        <ele>233</ele>
        <time>2018-01-24T11:07:29Z</time>
      </trkpt>
      <trkpt lat="45.87512" lon="4.77442">
        <ele>233</ele>
        <time>2018-01-24T11:07:31Z</time>
      </trkpt>
      <trkpt lat="45.87516" lon="4.77448">
        <ele>233</ele>
        <time>2018-01-24T11:07:32Z</time>
      </trkpt>
      <trkpt lat="45.87522" lon="4.77456">
        <ele>233</ele>
        <time>2018-01-24T11:07:34Z</time>
      </trkpt>
      <trkpt lat="45.87525" lon="4.7746">
        <ele>234</ele>
        <time>2018-01-24T11:07:35Z</time>
      </trkpt>
      <trkpt lat="45.87529" lon="4.77464">
        <ele>233</ele>
        <time>2018-01-24T11:07:36Z</time>
      </trkpt>
      <trkpt lat="45.87533" lon="4.77469">
        <ele>233</ele>
        <time>2018-01-24T11:07:37Z</time>
      </trkpt>
      <trkpt lat="45.87537" lon="4.77475">
        <ele>233</ele>
        <time>2018-01-24T11:07:38Z</time>
      </trkpt>
      <trkpt lat="45.87542" lon="4.77479">
        <ele>233</ele>
        <time>2018-01-24T11:07:39Z</time>
      </trkpt>
      <trkpt lat="45.87546" lon="4.77485">
        <ele>233</ele>
        <time>2018-01-24T11:07:40Z</time>
      </trkpt>
      <trkpt lat="45.8755" lon="4.7749">
        <ele>233</ele>
        <time>2018-01-24T11:07:41Z</time>
      </trkpt>
      <trkpt lat="45.87554" lon="4.77496">
        <ele>233</ele>
        <time>2018-01-24T11:07:42Z</time>
      </trkpt>
      <trkpt lat="45.87557" lon="4.77501">
        <ele>232</ele>
        <time>2018-01-24T11:07:43Z</time>
      </trkpt>
      <trkpt lat="45.87561" lon="4.77507">
        <ele>232</ele>
        <time>2018-01-24T11:07:44Z</time>
      </trkpt>
      <trkpt lat="45.87565" lon="4.77513">
        <ele>232</ele>
        <time>2018-01-24T11:07:45Z</time>
      </trkpt>
      <trkpt lat="45.8757" lon="4.77517">
        <ele>232</ele>
        <time>2018-01-24T11:07:46Z</time>
      </trkpt>
      <trkpt lat="45.87573" lon="4.77523">
        <ele>232</ele>
        <time>2018-01-24T11:07:47Z</time>
      </trkpt>
      <trkpt lat="45.87578" lon="4.77525">
        <ele>232</ele>
        <time>2018-01-24T11:07:48Z</time>
      </trkpt>
      <trkpt lat="45.87584" lon="4.77524">
        <ele>231</ele>
        <time>2018-01-24T11:07:49Z</time>
      </trkpt>
      <trkpt lat="45.87589" lon="4.77519">
        <ele>231</ele>
        <time>2018-01-24T11:07:50Z</time>
      </trkpt>
      <trkpt lat="45.87595" lon="4.77514">
        <ele>231</ele>
        <time>2018-01-24T11:07:51Z</time>
      </trkpt>
      <trkpt lat="45.87601" lon="4.77509">
        <ele>231</ele>
        <time>2018-01-24T11:07:52Z</time>
      </trkpt>
      <trkpt lat="45.87607" lon="4.77507">
        <ele>231</ele>
        <time>2018-01-24T11:07:53Z</time>
      </trkpt>
      <trkpt lat="45.87614" lon="4.77503">
        <ele>230</ele>
        <time>2018-01-24T11:07:54Z</time>
      </trkpt>
      <trkpt lat="45.87621" lon="4.77501">
        <ele>230</ele>
        <time>2018-01-24T11:07:55Z</time>
      </trkpt>
      <trkpt lat="45.87629" lon="4.77499">
        <ele>231</ele>
        <time>2018-01-24T11:07:56Z</time>
      </trkpt>
      <trkpt lat="45.87636" lon="4.77498">
        <ele>230</ele>
        <time>2018-01-24T11:07:57Z</time>
      </trkpt>
      <trkpt lat="45.87644" lon="4.77497">
        <ele>230</ele>
        <time>2018-01-24T11:07:58Z</time>
      </trkpt>
      <trkpt lat="45.87651" lon="4.77496">
        <ele>230</ele>
        <time>2018-01-24T11:07:59Z</time>
      </trkpt>
      <trkpt lat="45.87658" lon="4.77496">
        <ele>230</ele>
        <time>2018-01-24T11:08:00Z</time>
      </trkpt>
      <trkpt lat="45.87666" lon="4.77494">
        <ele>229</ele>
        <time>2018-01-24T11:08:01Z</time>
      </trkpt>
      <trkpt lat="45.87674" lon="4.77493">
        <ele>228</ele>
        <time>2018-01-24T11:08:02Z</time>
      </trkpt>
      <trkpt lat="45.87683" lon="4.77493">
        <ele>228</ele>
        <time>2018-01-24T11:08:03Z</time>
      </trkpt>
      <trkpt lat="45.87691" lon="4.77492">
        <ele>227</ele>
        <time>2018-01-24T11:08:04Z</time>
      </trkpt>
      <trkpt lat="45.877" lon="4.77493">
        <ele>227</ele>
        <time>2018-01-24T11:08:05Z</time>
      </trkpt>
      <trkpt lat="45.87709" lon="4.77493">
        <ele>226</ele>
        <time>2018-01-24T11:08:06Z</time>
      </trkpt>
      <trkpt lat="45.87718" lon="4.77494">
        <ele>226</ele>
        <time>2018-01-24T11:08:07Z</time>
      </trkpt>
      <trkpt lat="45.87726" lon="4.77496">
        <ele>226</ele>
        <time>2018-01-24T11:08:08Z</time>
      </trkpt>
      <trkpt lat="45.87734" lon="4.77499">
        <ele>225</ele>
        <time>2018-01-24T11:08:09Z</time>
      </trkpt>
      <trkpt lat="45.8774" lon="4.77503">
        <ele>225</ele>
        <time>2018-01-24T11:08:10Z</time>
      </trkpt>
      <trkpt lat="45.87747" lon="4.77509">
        <ele>225</ele>
        <time>2018-01-24T11:08:11Z</time>
      </trkpt>
      <trkpt lat="45.87755" lon="4.77514">
        <ele>224</ele>
        <time>2018-01-24T11:08:12Z</time>
      </trkpt>
      <trkpt lat="45.87762" lon="4.7752">
        <ele>223</ele>
        <time>2018-01-24T11:08:13Z</time>
      </trkpt>
      <trkpt lat="45.87769" lon="4.77524">
        <ele>223</ele>
        <time>2018-01-24T11:08:14Z</time>
      </trkpt>
      <trkpt lat="45.87777" lon="4.77529">
        <ele>223</ele>
        <time>2018-01-24T11:08:15Z</time>
      </trkpt>
      <trkpt lat="45.87785" lon="4.77532">
        <ele>223</ele>
        <time>2018-01-24T11:08:16Z</time>
      </trkpt>
      <trkpt lat="45.87791" lon="4.77536">
        <ele>223</ele>
        <time>2018-01-24T11:08:17Z</time>
      </trkpt>
      <trkpt lat="45.87798" lon="4.77541">
        <ele>223</ele>
        <time>2018-01-24T11:08:18Z</time>
      </trkpt>
      <trkpt lat="45.87804" lon="4.77546">
        <ele>223</ele>
        <time>2018-01-24T11:08:19Z</time>
      </trkpt>
      <trkpt lat="45.87811" lon="4.77551">
        <ele>223</ele>
        <time>2018-01-24T11:08:20Z</time>
      </trkpt>
      <trkpt lat="45.87818" lon="4.77557">
        <ele>223</ele>
        <time>2018-01-24T11:08:21Z</time>
      </trkpt>
      <trkpt lat="45.87825" lon="4.77563">
        <ele>223</ele>
        <time>2018-01-24T11:08:22Z</time>
      </trkpt>
      <trkpt lat="45.87831" lon="4.77568">
        <ele>222</ele>
        <time>2018-01-24T11:08:23Z</time>
      </trkpt>
      <trkpt lat="45.87837" lon="4.77574">
        <ele>221</ele>
        <time>2018-01-24T11:08:24Z</time>
      </trkpt>
      <trkpt lat="45.87843" lon="4.77579">
        <ele>221</ele>
        <time>2018-01-24T11:08:25Z</time>
      </trkpt>
      <trkpt lat="45.87849" lon="4.77584">
        <ele>221</ele>
        <time>2018-01-24T11:08:26Z</time>
      </trkpt>
      <trkpt lat="45.87856" lon="4.7759">
        <ele>221</ele>
        <time>2018-01-24T11:08:27Z</time>
      </trkpt>
      <trkpt lat="45.87862" lon="4.77595">
        <ele>221</ele>
        <time>2018-01-24T11:08:28Z</time>
      </trkpt>
      <trkpt lat="45.87868" lon="4.776">
        <ele>221</ele>
        <time>2018-01-24T11:08:29Z</time>
      </trkpt>
      <trkpt lat="45.87874" lon="4.77604">
        <ele>221</ele>
        <time>2018-01-24T11:08:30Z</time>
      </trkpt>
      <trkpt lat="45.87879" lon="4.7761">
        <ele>221</ele>
        <time>2018-01-24T11:08:31Z</time>
      </trkpt>
      <trkpt lat="45.87885" lon="4.77615">
        <ele>221</ele>
        <time>2018-01-24T11:08:32Z</time>
      </trkpt>
      <trkpt lat="45.8789" lon="4.7762">
        <ele>221</ele>
        <time>2018-01-24T11:08:33Z</time>
      </trkpt>
      <trkpt lat="45.87895" lon="4.77625">
        <ele>221</ele>
        <time>2018-01-24T11:08:34Z</time>
      </trkpt>
      <trkpt lat="45.87901" lon="4.77629">
        <ele>221</ele>
        <time>2018-01-24T11:08:35Z</time>
      </trkpt>
      <trkpt lat="45.87907" lon="4.77632">
        <ele>221</ele>
        <time>2018-01-24T11:08:36Z</time>
      </trkpt>
      <trkpt lat="45.87912" lon="4.77637">
        <ele>221</ele>
        <time>2018-01-24T11:08:37Z</time>
      </trkpt>
      <trkpt lat="45.87917" lon="4.77642">
        <ele>219</ele>
        <time>2018-01-24T11:08:38Z</time>
      </trkpt>
      <trkpt lat="45.87923" lon="4.77647">
        <ele>219</ele>
        <time>2018-01-24T11:08:39Z</time>
      </trkpt>
      <trkpt lat="45.87928" lon="4.77653">
        <ele>219</ele>
        <time>2018-01-24T11:08:40Z</time>
      </trkpt>
      <trkpt lat="45.87933" lon="4.77658">
        <ele>219</ele>
        <time>2018-01-24T11:08:41Z</time>
      </trkpt>
      <trkpt lat="45.87937" lon="4.77665">
        <ele>219</ele>
        <time>2018-01-24T11:08:42Z</time>
      </trkpt>
      <trkpt lat="45.87942" lon="4.7767">
        <ele>219</ele>
        <time>2018-01-24T11:08:43Z</time>
      </trkpt>
      <trkpt lat="45.87946" lon="4.77675">
        <ele>219</ele>
        <time>2018-01-24T11:08:44Z</time>
      </trkpt>
      <trkpt lat="45.87951" lon="4.77681">
        <ele>218</ele>
        <time>2018-01-24T11:08:45Z</time>
      </trkpt>
      <trkpt lat="45.87956" lon="4.77686">
        <ele>218</ele>
        <time>2018-01-24T11:08:46Z</time>
      </trkpt>
      <trkpt lat="45.87961" lon="4.77689">
        <ele>218</ele>
        <time>2018-01-24T11:08:47Z</time>
      </trkpt>
      <trkpt lat="45.87967" lon="4.77691">
        <ele>218</ele>
        <time>2018-01-24T11:08:48Z</time>
      </trkpt>
      <trkpt lat="45.87973" lon="4.77693">
        <ele>218</ele>
        <time>2018-01-24T11:08:49Z</time>
      </trkpt>
      <trkpt lat="45.8798" lon="4.77693">
        <ele>218</ele>
        <time>2018-01-24T11:08:50Z</time>
      </trkpt>
      <trkpt lat="45.87987" lon="4.77694">
        <ele>217</ele>
        <time>2018-01-24T11:08:51Z</time>
      </trkpt>
      <trkpt lat="45.87994" lon="4.77695">
        <ele>217</ele>
        <time>2018-01-24T11:08:52Z</time>
      </trkpt>
      <trkpt lat="45.88001" lon="4.77695">
        <ele>216</ele>
        <time>2018-01-24T11:08:53Z</time>
      </trkpt>
      <trkpt lat="45.88008" lon="4.77695">
        <ele>216</ele>
        <time>2018-01-24T11:08:54Z</time>
      </trkpt>
      <trkpt lat="45.88015" lon="4.77696">
        <ele>216</ele>
        <time>2018-01-24T11:08:55Z</time>
      </trkpt>
      <trkpt lat="45.88022" lon="4.77696">
        <ele>216</ele>
        <time>2018-01-24T11:08:56Z</time>
      </trkpt>
      <trkpt lat="45.88029" lon="4.77696">
        <ele>216</ele>
        <time>2018-01-24T11:08:57Z</time>
      </trkpt>
      <trkpt lat="45.88036" lon="4.77696">
        <ele>216</ele>
        <time>2018-01-24T11:08:58Z</time>
      </trkpt>
      <trkpt lat="45.88042" lon="4.77694">
        <ele>216</ele>
        <time>2018-01-24T11:08:59Z</time>
      </trkpt>
      <trkpt lat="45.8805" lon="4.77693">
        <ele>216</ele>
        <time>2018-01-24T11:09:00Z</time>
      </trkpt>
      <trkpt lat="45.88056" lon="4.77691">
        <ele>216</ele>
        <time>2018-01-24T11:09:01Z</time>
      </trkpt>
      <trkpt lat="45.88063" lon="4.7769">
        <ele>216</ele>
        <time>2018-01-24T11:09:02Z</time>
      </trkpt>
      <trkpt lat="45.88069" lon="4.77689">
        <ele>216</ele>
        <time>2018-01-24T11:09:03Z</time>
      </trkpt>
      <trkpt lat="45.88076" lon="4.77688">
        <ele>215</ele>
        <time>2018-01-24T11:09:04Z</time>
      </trkpt>
      <trkpt lat="45.88082" lon="4.77687">
        <ele>215</ele>
        <time>2018-01-24T11:09:05Z</time>
      </trkpt>
      <trkpt lat="45.88089" lon="4.77685">
        <ele>214</ele>
        <time>2018-01-24T11:09:06Z</time>
      </trkpt>
      <trkpt lat="45.88095" lon="4.77684">
        <ele>214</ele>
        <time>2018-01-24T11:09:07Z</time>
      </trkpt>
      <trkpt lat="45.88102" lon="4.77683">
        <ele>214</ele>
        <time>2018-01-24T11:09:08Z</time>
      </trkpt>
      <trkpt lat="45.88109" lon="4.77681">
        <ele>214</ele>
        <time>2018-01-24T11:09:09Z</time>
      </trkpt>
      <trkpt lat="45.88115" lon="4.77681">
        <ele>214</ele>
        <time>2018-01-24T11:09:10Z</time>
      </trkpt>
      <trkpt lat="45.88121" lon="4.7768">
        <ele>214</ele>
        <time>2018-01-24T11:09:11Z</time>
      </trkpt>
      <trkpt lat="45.88128" lon="4.77679">
        <ele>214</ele>
        <time>2018-01-24T11:09:12Z</time>
      </trkpt>
      <trkpt lat="45.88135" lon="4.77678">
        <ele>213</ele>
        <time>2018-01-24T11:09:13Z</time>
      </trkpt>
      <trkpt lat="45.88142" lon="4.77677">
        <ele>213</ele>
        <time>2018-01-24T11:09:14Z</time>
      </trkpt>
      <trkpt lat="45.88148" lon="4.77677">
        <ele>213</ele>
        <time>2018-01-24T11:09:15Z</time>
      </trkpt>
      <trkpt lat="45.88154" lon="4.77676">
        <ele>213</ele>
        <time>2018-01-24T11:09:16Z</time>
      </trkpt>
      <trkpt lat="45.88159" lon="4.77675">
        <ele>213</ele>
        <time>2018-01-24T11:09:17Z</time>
      </trkpt>
      <trkpt lat="45.88166" lon="4.77674">
        <ele>212</ele>
        <time>2018-01-24T11:09:18Z</time>
      </trkpt>
      <trkpt lat="45.88173" lon="4.77673">
        <ele>212</ele>
        <time>2018-01-24T11:09:19Z</time>
      </trkpt>
      <trkpt lat="45.88181" lon="4.77671">
        <ele>212</ele>
        <time>2018-01-24T11:09:20Z</time>
      </trkpt>
      <trkpt lat="45.88188" lon="4.77671">
        <ele>212</ele>
        <time>2018-01-24T11:09:21Z</time>
      </trkpt>
      <trkpt lat="45.88194" lon="4.7767">
        <ele>212</ele>
        <time>2018-01-24T11:09:22Z</time>
      </trkpt>
      <trkpt lat="45.88201" lon="4.77668">
        <ele>212</ele>
        <time>2018-01-24T11:09:23Z</time>
      </trkpt>
      <trkpt lat="45.8821" lon="4.77663">
        <ele>211</ele>
        <time>2018-01-24T11:09:24Z</time>
      </trkpt>
      <trkpt lat="45.88217" lon="4.77662">
        <ele>211</ele>
        <time>2018-01-24T11:09:25Z</time>
      </trkpt>
      <trkpt lat="45.88224" lon="4.77661">
        <ele>211</ele>
        <time>2018-01-24T11:09:26Z</time>
      </trkpt>
      <trkpt lat="45.88232" lon="4.7766">
        <ele>211</ele>
        <time>2018-01-24T11:09:27Z</time>
      </trkpt>
      <trkpt lat="45.8824" lon="4.7766">
        <ele>211</ele>
        <time>2018-01-24T11:09:28Z</time>
      </trkpt>
      <trkpt lat="45.88248" lon="4.77659">
        <ele>211</ele>
        <time>2018-01-24T11:09:29Z</time>
      </trkpt>
      <trkpt lat="45.88255" lon="4.77659">
        <ele>210</ele>
        <time>2018-01-24T11:09:30Z</time>
      </trkpt>
      <trkpt lat="45.88263" lon="4.77659">
        <ele>210</ele>
        <time>2018-01-24T11:09:31Z</time>
      </trkpt>
      <trkpt lat="45.8827" lon="4.77659">
        <ele>210</ele>
        <time>2018-01-24T11:09:32Z</time>
      </trkpt>
      <trkpt lat="45.88277" lon="4.77659">
        <ele>210</ele>
        <time>2018-01-24T11:09:33Z</time>
      </trkpt>
      <trkpt lat="45.88284" lon="4.77659">
        <ele>210</ele>
        <time>2018-01-24T11:09:34Z</time>
      </trkpt>
      <trkpt lat="45.88292" lon="4.77658">
        <ele>209</ele>
        <time>2018-01-24T11:09:35Z</time>
      </trkpt>
      <trkpt lat="45.88298" lon="4.77658">
        <ele>209</ele>
        <time>2018-01-24T11:09:36Z</time>
      </trkpt>
      <trkpt lat="45.88305" lon="4.77657">
        <ele>209</ele>
        <time>2018-01-24T11:09:37Z</time>
      </trkpt>
      <trkpt lat="45.88313" lon="4.77657">
        <ele>209</ele>
        <time>2018-01-24T11:09:38Z</time>
      </trkpt>
      <trkpt lat="45.88321" lon="4.77657">
        <ele>209</ele>
        <time>2018-01-24T11:09:39Z</time>
      </trkpt>
      <trkpt lat="45.88329" lon="4.77656">
        <ele>208</ele>
        <time>2018-01-24T11:09:40Z</time>
      </trkpt>
      <trkpt lat="45.88337" lon="4.77655">
        <ele>208</ele>
        <time>2018-01-24T11:09:41Z</time>
      </trkpt>
      <trkpt lat="45.88345" lon="4.77656">
        <ele>208</ele>
        <time>2018-01-24T11:09:42Z</time>
      </trkpt>
      <trkpt lat="45.88353" lon="4.77656">
        <ele>208</ele>
        <time>2018-01-24T11:09:43Z</time>
      </trkpt>
      <trkpt lat="45.8836" lon="4.77656">
        <ele>208</ele>
        <time>2018-01-24T11:09:44Z</time>
      </trkpt>
      <trkpt lat="45.88368" lon="4.77658">
        <ele>207</ele>
        <time>2018-01-24T11:09:45Z</time>
      </trkpt>
      <trkpt lat="45.88375" lon="4.77659">
        <ele>207</ele>
        <time>2018-01-24T11:09:46Z</time>
      </trkpt>
      <trkpt lat="45.88383" lon="4.7766">
        <ele>207</ele>
        <time>2018-01-24T11:09:47Z</time>
      </trkpt>
      <trkpt lat="45.88389" lon="4.77662">
        <ele>207</ele>
        <time>2018-01-24T11:09:48Z</time>
      </trkpt>
      <trkpt lat="45.88397" lon="4.77663">
        <ele>207</ele>
        <time>2018-01-24T11:09:49Z</time>
      </trkpt>
      <trkpt lat="45.88403" lon="4.77665">
        <ele>207</ele>
        <time>2018-01-24T11:09:50Z</time>
      </trkpt>
      <trkpt lat="45.8841" lon="4.77665">
        <ele>206</ele>
        <time>2018-01-24T11:09:51Z</time>
      </trkpt>
      <trkpt lat="45.88417" lon="4.77667">
        <ele>206</ele>
        <time>2018-01-24T11:09:52Z</time>
      </trkpt>
      <trkpt lat="45.88425" lon="4.77669">
        <ele>206</ele>
        <time>2018-01-24T11:09:53Z</time>
      </trkpt>
      <trkpt lat="45.88432" lon="4.77671">
        <ele>206</ele>
        <time>2018-01-24T11:09:54Z</time>
      </trkpt>
      <trkpt lat="45.88439" lon="4.77672">
        <ele>206</ele>
        <time>2018-01-24T11:09:55Z</time>
      </trkpt>
      <trkpt lat="45.88447" lon="4.77673">
        <ele>206</ele>
        <time>2018-01-24T11:09:56Z</time>
      </trkpt>
      <trkpt lat="45.88454" lon="4.77675">
        <ele>206</ele>
        <time>2018-01-24T11:09:57Z</time>
      </trkpt>
      <trkpt lat="45.88462" lon="4.77676">
        <ele>206</ele>
        <time>2018-01-24T11:09:58Z</time>
      </trkpt>
      <trkpt lat="45.88469" lon="4.77678">
        <ele>206</ele>
        <time>2018-01-24T11:09:59Z</time>
      </trkpt>
      <trkpt lat="45.88476" lon="4.7768">
        <ele>206</ele>
        <time>2018-01-24T11:10:00Z</time>
      </trkpt>
      <trkpt lat="45.88484" lon="4.77682">
        <ele>206</ele>
        <time>2018-01-24T11:10:01Z</time>
      </trkpt>
      <trkpt lat="45.88492" lon="4.77685">
        <ele>206</ele>
        <time>2018-01-24T11:10:02Z</time>
      </trkpt>
      <trkpt lat="45.885" lon="4.77686">
        <ele>206</ele>
        <time>2018-01-24T11:10:03Z</time>
      </trkpt>
      <trkpt lat="45.88508" lon="4.77688">
        <ele>205</ele>
        <time>2018-01-24T11:10:04Z</time>
      </trkpt>
      <trkpt lat="45.88516" lon="4.7769">
        <ele>205</ele>
        <time>2018-01-24T11:10:05Z</time>
      </trkpt>
      <trkpt lat="45.88524" lon="4.77692">
        <ele>204</ele>
        <time>2018-01-24T11:10:06Z</time>
      </trkpt>
      <trkpt lat="45.88532" lon="4.77694">
        <ele>204</ele>
        <time>2018-01-24T11:10:07Z</time>
      </trkpt>
      <trkpt lat="45.88538" lon="4.77695">
        <ele>204</ele>
        <time>2018-01-24T11:10:08Z</time>
      </trkpt>
      <trkpt lat="45.88545" lon="4.77696">
        <ele>204</ele>
        <time>2018-01-24T11:10:09Z</time>
      </trkpt>
      <trkpt lat="45.88552" lon="4.77697">
        <ele>204</ele>
        <time>2018-01-24T11:10:10Z</time>
      </trkpt>
      <trkpt lat="45.88559" lon="4.77699">
        <ele>204</ele>
        <time>2018-01-24T11:10:11Z</time>
      </trkpt>
      <trkpt lat="45.88566" lon="4.77701">
        <ele>204</ele>
        <time>2018-01-24T11:10:12Z</time>
      </trkpt>
      <trkpt lat="45.88573" lon="4.77702">
        <ele>204</ele>
        <time>2018-01-24T11:10:13Z</time>
      </trkpt>
      <trkpt lat="45.8858" lon="4.77703">
        <ele>204</ele>
        <time>2018-01-24T11:10:14Z</time>
      </trkpt>
      <trkpt lat="45.88586" lon="4.77705">
        <ele>203</ele>
        <time>2018-01-24T11:10:15Z</time>
      </trkpt>
      <trkpt lat="45.88593" lon="4.77706">
        <ele>203</ele>
        <time>2018-01-24T11:10:16Z</time>
      </trkpt>
      <trkpt lat="45.88599" lon="4.77708">
        <ele>203</ele>
        <time>2018-01-24T11:10:17Z</time>
      </trkpt>
      <trkpt lat="45.88605" lon="4.7771">
        <ele>203</ele>
        <time>2018-01-24T11:10:18Z</time>
      </trkpt>
      <trkpt lat="45.88612" lon="4.77711">
        <ele>203</ele>
        <time>2018-01-24T11:10:19Z</time>
      </trkpt>
      <trkpt lat="45.88619" lon="4.77712">
        <ele>203</ele>
        <time>2018-01-24T11:10:20Z</time>
      </trkpt>
      <trkpt lat="45.88625" lon="4.77714">
        <ele>203</ele>
        <time>2018-01-24T11:10:21Z</time>
      </trkpt>
      <trkpt lat="45.88631" lon="4.77715">
        <ele>203</ele>
        <time>2018-01-24T11:10:22Z</time>
      </trkpt>
      <trkpt lat="45.88638" lon="4.77716">
        <ele>203</ele>
        <time>2018-01-24T11:10:23Z</time>
      </trkpt>
      <trkpt lat="45.88644" lon="4.77717">
        <ele>203</ele>
        <time>2018-01-24T11:10:24Z</time>
      </trkpt>
      <trkpt lat="45.8865" lon="4.77718">
        <ele>203</ele>
        <time>2018-01-24T11:10:25Z</time>
      </trkpt>
      <trkpt lat="45.88657" lon="4.77718">
        <ele>203</ele>
        <time>2018-01-24T11:10:26Z</time>
      </trkpt>
      <trkpt lat="45.88662" lon="4.77719">
        <ele>203</ele>
        <time>2018-01-24T11:10:27Z</time>
      </trkpt>
      <trkpt lat="45.88669" lon="4.7772">
        <ele>203</ele>
        <time>2018-01-24T11:10:28Z</time>
      </trkpt>
      <trkpt lat="45.88678" lon="4.7772">
        <ele>203</ele>
        <time>2018-01-24T11:10:29Z</time>
      </trkpt>
      <trkpt lat="45.88684" lon="4.77719">
        <ele>203</ele>
        <time>2018-01-24T11:10:30Z</time>
      </trkpt>
      <trkpt lat="45.8869" lon="4.77719">
        <ele>203</ele>
        <time>2018-01-24T11:10:31Z</time>
      </trkpt>
      <trkpt lat="45.88697" lon="4.77718">
        <ele>203</ele>
        <time>2018-01-24T11:10:32Z</time>
      </trkpt>
      <trkpt lat="45.88704" lon="4.77718">
        <ele>203</ele>
        <time>2018-01-24T11:10:33Z</time>
      </trkpt>
      <trkpt lat="45.8871" lon="4.77718">
        <ele>203</ele>
        <time>2018-01-24T11:10:34Z</time>
      </trkpt>
      <trkpt lat="45.88716" lon="4.77718">
        <ele>203</ele>
        <time>2018-01-24T11:10:35Z</time>
      </trkpt>
      <trkpt lat="45.88722" lon="4.77718">
        <ele>203</ele>
        <time>2018-01-24T11:10:36Z</time>
      </trkpt>
      <trkpt lat="45.88728" lon="4.77717">
        <ele>203</ele>
        <time>2018-01-24T11:10:37Z</time>
      </trkpt>
      <trkpt lat="45.88734" lon="4.77717">
        <ele>203</ele>
        <time>2018-01-24T11:10:38Z</time>
      </trkpt>
      <trkpt lat="45.88741" lon="4.77717">
        <ele>203</ele>
        <time>2018-01-24T11:10:39Z</time>
      </trkpt>
      <trkpt lat="45.88748" lon="4.77717">
        <ele>203</ele>
        <time>2018-01-24T11:10:40Z</time>
      </trkpt>
      <trkpt lat="45.88755" lon="4.77717">
        <ele>202</ele>
        <time>2018-01-24T11:10:41Z</time>
      </trkpt>
      <trkpt lat="45.88762" lon="4.77716">
        <ele>202</ele>
        <time>2018-01-24T11:10:42Z</time>
      </trkpt>
      <trkpt lat="45.88768" lon="4.77716">
        <ele>202</ele>
        <time>2018-01-24T11:10:43Z</time>
      </trkpt>
      <trkpt lat="45.88775" lon="4.77716">
        <ele>202</ele>
        <time>2018-01-24T11:10:44Z</time>
      </trkpt>
      <trkpt lat="45.88781" lon="4.77716">
        <ele>202</ele>
        <time>2018-01-24T11:10:45Z</time>
      </trkpt>
      <trkpt lat="45.88788" lon="4.77715">
        <ele>202</ele>
        <time>2018-01-24T11:10:46Z</time>
      </trkpt>
      <trkpt lat="45.88795" lon="4.77712">
        <ele>202</ele>
        <time>2018-01-24T11:10:47Z</time>
      </trkpt>
      <trkpt lat="45.88801" lon="4.77712">
        <ele>202</ele>
        <time>2018-01-24T11:10:48Z</time>
      </trkpt>
      <trkpt lat="45.88808" lon="4.77711">
        <ele>202</ele>
        <time>2018-01-24T11:10:49Z</time>
      </trkpt>
      <trkpt lat="45.88816" lon="4.7771">
        <ele>202</ele>
        <time>2018-01-24T11:10:50Z</time>
      </trkpt>
      <trkpt lat="45.88822" lon="4.7771">
        <ele>202</ele>
        <time>2018-01-24T11:10:51Z</time>
      </trkpt>
      <trkpt lat="45.88827" lon="4.77711">
        <ele>201</ele>
        <time>2018-01-24T11:10:52Z</time>
      </trkpt>
      <trkpt lat="45.88834" lon="4.77709">
        <ele>201</ele>
        <time>2018-01-24T11:10:53Z</time>
      </trkpt>
      <trkpt lat="45.8884" lon="4.77709">
        <ele>201</ele>
        <time>2018-01-24T11:10:54Z</time>
      </trkpt>
      <trkpt lat="45.88848" lon="4.77709">
        <ele>201</ele>
        <time>2018-01-24T11:10:55Z</time>
      </trkpt>
      <trkpt lat="45.88854" lon="4.77709">
        <ele>201</ele>
        <time>2018-01-24T11:10:56Z</time>
      </trkpt>
      <trkpt lat="45.8886" lon="4.77708">
        <ele>201</ele>
        <time>2018-01-24T11:10:57Z</time>
      </trkpt>
      <trkpt lat="45.88866" lon="4.77707">
        <ele>201</ele>
        <time>2018-01-24T11:10:58Z</time>
      </trkpt>
      <trkpt lat="45.88873" lon="4.77708">
        <ele>201</ele>
        <time>2018-01-24T11:10:59Z</time>
      </trkpt>
      <trkpt lat="45.88879" lon="4.77707">
        <ele>200</ele>
        <time>2018-01-24T11:11:00Z</time>
      </trkpt>
      <trkpt lat="45.88886" lon="4.77706">
        <ele>200</ele>
        <time>2018-01-24T11:11:01Z</time>
      </trkpt>
      <trkpt lat="45.88893" lon="4.77705">
        <ele>200</ele>
        <time>2018-01-24T11:11:02Z</time>
      </trkpt>
      <trkpt lat="45.88901" lon="4.77704">
        <ele>200</ele>
        <time>2018-01-24T11:11:03Z</time>
      </trkpt>
      <trkpt lat="45.88908" lon="4.77702">
        <ele>200</ele>
        <time>2018-01-24T11:11:04Z</time>
      </trkpt>
      <trkpt lat="45.88914" lon="4.777">
        <ele>200</ele>
        <time>2018-01-24T11:11:05Z</time>
      </trkpt>
      <trkpt lat="45.8892" lon="4.77699">
        <ele>199</ele>
        <time>2018-01-24T11:11:06Z</time>
      </trkpt>
      <trkpt lat="45.88927" lon="4.77696">
        <ele>199</ele>
        <time>2018-01-24T11:11:07Z</time>
      </trkpt>
      <trkpt lat="45.88933" lon="4.77694">
        <ele>199</ele>
        <time>2018-01-24T11:11:08Z</time>
      </trkpt>
      <trkpt lat="45.88939" lon="4.77692">
        <ele>199</ele>
        <time>2018-01-24T11:11:09Z</time>
      </trkpt>
      <trkpt lat="45.88945" lon="4.7769">
        <ele>199</ele>
        <time>2018-01-24T11:11:10Z</time>
      </trkpt>
      <trkpt lat="45.88951" lon="4.77688">
        <ele>199</ele>
        <time>2018-01-24T11:11:11Z</time>
      </trkpt>
      <trkpt lat="45.88957" lon="4.77685">
        <ele>199</ele>
        <time>2018-01-24T11:11:12Z</time>
      </trkpt>
      <trkpt lat="45.88962" lon="4.77681">
        <ele>198</ele>
        <time>2018-01-24T11:11:13Z</time>
      </trkpt>
      <trkpt lat="45.88969" lon="4.77678">
        <ele>198</ele>
        <time>2018-01-24T11:11:14Z</time>
      </trkpt>
      <trkpt lat="45.88975" lon="4.77675">
        <ele>198</ele>
        <time>2018-01-24T11:11:15Z</time>
      </trkpt>
      <trkpt lat="45.8898" lon="4.77671">
        <ele>198</ele>
        <time>2018-01-24T11:11:16Z</time>
      </trkpt>
      <trkpt lat="45.88986" lon="4.77667">
        <ele>198</ele>
        <time>2018-01-24T11:11:17Z</time>
      </trkpt>
      <trkpt lat="45.88992" lon="4.77663">
        <ele>197</ele>
        <time>2018-01-24T11:11:18Z</time>
      </trkpt>
      <trkpt lat="45.88998" lon="4.77657">
        <ele>197</ele>
        <time>2018-01-24T11:11:19Z</time>
      </trkpt>
      <trkpt lat="45.89003" lon="4.77652">
        <ele>197</ele>
        <time>2018-01-24T11:11:20Z</time>
      </trkpt>
      <trkpt lat="45.89009" lon="4.77647">
        <ele>197</ele>
        <time>2018-01-24T11:11:21Z</time>
      </trkpt>
      <trkpt lat="45.89014" lon="4.77642">
        <ele>197</ele>
        <time>2018-01-24T11:11:22Z</time>
      </trkpt>
      <trkpt lat="45.89019" lon="4.77637">
        <ele>197</ele>
        <time>2018-01-24T11:11:23Z</time>
      </trkpt>
      <trkpt lat="45.89025" lon="4.77631">
        <ele>197</ele>
        <time>2018-01-24T11:11:24Z</time>
      </trkpt>
      <trkpt lat="45.8903" lon="4.77626">
        <ele>197</ele>
        <time>2018-01-24T11:11:25Z</time>
      </trkpt>
      <trkpt lat="45.89035" lon="4.77622">
        <ele>197</ele>
        <time>2018-01-24T11:11:26Z</time>
      </trkpt>
      <trkpt lat="45.8904" lon="4.77617">
        <ele>197</ele>
        <time>2018-01-24T11:11:27Z</time>
      </trkpt>
      <trkpt lat="45.89045" lon="4.77613">
        <ele>197</ele>
        <time>2018-01-24T11:11:28Z</time>
      </trkpt>
      <trkpt lat="45.8905" lon="4.77609">
        <ele>197</ele>
        <time>2018-01-24T11:11:29Z</time>
      </trkpt>
      <trkpt lat="45.89055" lon="4.77604">
        <ele>197</ele>
        <time>2018-01-24T11:11:30Z</time>
      </trkpt>
      <trkpt lat="45.89061" lon="4.77599">
        <ele>197</ele>
        <time>2018-01-24T11:11:31Z</time>
      </trkpt>
      <trkpt lat="45.89067" lon="4.77594">
        <ele>196</ele>
        <time>2018-01-24T11:11:32Z</time>
      </trkpt>
      <trkpt lat="45.89073" lon="4.77589">
        <ele>196</ele>
        <time>2018-01-24T11:11:33Z</time>
      </trkpt>
      <trkpt lat="45.89079" lon="4.77585">
        <ele>196</ele>
        <time>2018-01-24T11:11:34Z</time>
      </trkpt>
      <trkpt lat="45.89085" lon="4.7758">
        <ele>196</ele>
        <time>2018-01-24T11:11:35Z</time>
      </trkpt>
      <trkpt lat="45.89091" lon="4.77575">
        <ele>196</ele>
        <time>2018-01-24T11:11:36Z</time>
      </trkpt>
      <trkpt lat="45.89098" lon="4.7757">
        <ele>196</ele>
        <time>2018-01-24T11:11:37Z</time>
      </trkpt>
      <trkpt lat="45.89105" lon="4.77566">
        <ele>196</ele>
        <time>2018-01-24T11:11:38Z</time>
      </trkpt>
      <trkpt lat="45.89112" lon="4.77562">
        <ele>195</ele>
        <time>2018-01-24T11:11:39Z</time>
      </trkpt>
      <trkpt lat="45.89119" lon="4.7756">
        <ele>195</ele>
        <time>2018-01-24T11:11:40Z</time>
      </trkpt>
      <trkpt lat="45.89126" lon="4.77556">
        <ele>195</ele>
        <time>2018-01-24T11:11:41Z</time>
      </trkpt>
      <trkpt lat="45.89133" lon="4.77554">
        <ele>195</ele>
        <time>2018-01-24T11:11:42Z</time>
      </trkpt>
      <trkpt lat="45.89139" lon="4.77553">
        <ele>195</ele>
        <time>2018-01-24T11:11:43Z</time>
      </trkpt>
      <trkpt lat="45.89144" lon="4.77552">
        <ele>195</ele>
        <time>2018-01-24T11:11:44Z</time>
      </trkpt>
      <trkpt lat="45.89151" lon="4.7755">
        <ele>195</ele>
        <time>2018-01-24T11:11:45Z</time>
      </trkpt>
      <trkpt lat="45.89157" lon="4.77549">
        <ele>195</ele>
        <time>2018-01-24T11:11:46Z</time>
      </trkpt>
      <trkpt lat="45.89164" lon="4.77547">
        <ele>195</ele>
        <time>2018-01-24T11:11:47Z</time>
      </trkpt>
      <trkpt lat="45.8917" lon="4.77546">
        <ele>194</ele>
        <time>2018-01-24T11:11:48Z</time>
      </trkpt>
      <trkpt lat="45.89177" lon="4.77545">
        <ele>194</ele>
        <time>2018-01-24T11:11:49Z</time>
      </trkpt>
      <trkpt lat="45.89183" lon="4.77544">
        <ele>194</ele>
        <time>2018-01-24T11:11:50Z</time>
      </trkpt>
      <trkpt lat="45.89189" lon="4.77543">
        <ele>194</ele>
        <time>2018-01-24T11:11:51Z</time>
      </trkpt>
      <trkpt lat="45.89195" lon="4.7754">
        <ele>194</ele>
        <time>2018-01-24T11:11:52Z</time>
      </trkpt>
      <trkpt lat="45.89201" lon="4.77539">
        <ele>194</ele>
        <time>2018-01-24T11:11:53Z</time>
      </trkpt>
      <trkpt lat="45.89207" lon="4.77538">
        <ele>194</ele>
        <time>2018-01-24T11:11:54Z</time>
      </trkpt>
      <trkpt lat="45.89213" lon="4.77536">
        <ele>194</ele>
        <time>2018-01-24T11:11:55Z</time>
      </trkpt>
      <trkpt lat="45.89218" lon="4.77534">
        <ele>194</ele>
        <time>2018-01-24T11:11:56Z</time>
      </trkpt>
      <trkpt lat="45.89224" lon="4.77533">
        <ele>194</ele>
        <time>2018-01-24T11:11:57Z</time>
      </trkpt>
      <trkpt lat="45.8923" lon="4.77532">
        <ele>194</ele>
        <time>2018-01-24T11:11:58Z</time>
      </trkpt>
      <trkpt lat="45.89236" lon="4.77532">
        <ele>194</ele>
        <time>2018-01-24T11:11:59Z</time>
      </trkpt>
      <trkpt lat="45.89242" lon="4.77531">
        <ele>193</ele>
        <time>2018-01-24T11:12:00Z</time>
      </trkpt>
      <trkpt lat="45.89248" lon="4.77531">
        <ele>193</ele>
        <time>2018-01-24T11:12:01Z</time>
      </trkpt>
      <trkpt lat="45.89254" lon="4.7753">
        <ele>193</ele>
        <time>2018-01-24T11:12:02Z</time>
      </trkpt>
      <trkpt lat="45.8926" lon="4.77531">
        <ele>193</ele>
        <time>2018-01-24T11:12:03Z</time>
      </trkpt>
      <trkpt lat="45.89265" lon="4.77532">
        <ele>193</ele>
        <time>2018-01-24T11:12:04Z</time>
      </trkpt>
      <trkpt lat="45.8927" lon="4.77533">
        <ele>193</ele>
        <time>2018-01-24T11:12:05Z</time>
      </trkpt>
      <trkpt lat="45.89275" lon="4.77533">
        <ele>193</ele>
        <time>2018-01-24T11:12:06Z</time>
      </trkpt>
      <trkpt lat="45.89281" lon="4.77535">
        <ele>193</ele>
        <time>2018-01-24T11:12:07Z</time>
      </trkpt>
      <trkpt lat="45.89287" lon="4.77537">
        <ele>193</ele>
        <time>2018-01-24T11:12:08Z</time>
      </trkpt>
      <trkpt lat="45.89292" lon="4.77539">
        <ele>194</ele>
        <time>2018-01-24T11:12:09Z</time>
      </trkpt>
      <trkpt lat="45.89298" lon="4.77541">
        <ele>194</ele>
        <time>2018-01-24T11:12:10Z</time>
      </trkpt>
      <trkpt lat="45.89304" lon="4.77544">
        <ele>194</ele>
        <time>2018-01-24T11:12:11Z</time>
      </trkpt>
      <trkpt lat="45.89309" lon="4.77546">
        <ele>194</ele>
        <time>2018-01-24T11:12:12Z</time>
      </trkpt>
      <trkpt lat="45.89316" lon="4.77548">
        <ele>194</ele>
        <time>2018-01-24T11:12:13Z</time>
      </trkpt>
      <trkpt lat="45.89321" lon="4.77551">
        <ele>194</ele>
        <time>2018-01-24T11:12:14Z</time>
      </trkpt>
      <trkpt lat="45.89328" lon="4.77553">
        <ele>194</ele>
        <time>2018-01-24T11:12:15Z</time>
      </trkpt>
      <trkpt lat="45.89334" lon="4.77555">
        <ele>194</ele>
        <time>2018-01-24T11:12:16Z</time>
      </trkpt>
      <trkpt lat="45.8934" lon="4.77556">
        <ele>194</ele>
        <time>2018-01-24T11:12:17Z</time>
      </trkpt>
      <trkpt lat="45.89346" lon="4.77558">
        <ele>194</ele>
        <time>2018-01-24T11:12:18Z</time>
      </trkpt>
      <trkpt lat="45.89352" lon="4.77561">
        <ele>194</ele>
        <time>2018-01-24T11:12:19Z</time>
      </trkpt>
      <trkpt lat="45.89358" lon="4.77563">
        <ele>194</ele>
        <time>2018-01-24T11:12:20Z</time>
      </trkpt>
      <trkpt lat="45.89364" lon="4.77567">
        <ele>194</ele>
        <time>2018-01-24T11:12:21Z</time>
      </trkpt>
      <trkpt lat="45.89371" lon="4.7757">
        <ele>194</ele>
        <time>2018-01-24T11:12:22Z</time>
      </trkpt>
      <trkpt lat="45.89377" lon="4.77573">
        <ele>194</ele>
        <time>2018-01-24T11:12:23Z</time>
      </trkpt>
      <trkpt lat="45.89384" lon="4.77576">
        <ele>194</ele>
        <time>2018-01-24T11:12:24Z</time>
      </trkpt>
      <trkpt lat="45.8939" lon="4.77579">
        <ele>194</ele>
        <time>2018-01-24T11:12:25Z</time>
      </trkpt>
      <trkpt lat="45.89397" lon="4.77582">
        <ele>194</ele>
        <time>2018-01-24T11:12:26Z</time>
      </trkpt>
      <trkpt lat="45.89403" lon="4.77582">
        <ele>194</ele>
        <time>2018-01-24T11:12:27Z</time>
      </trkpt>
      <trkpt lat="45.8941" lon="4.77585">
        <ele>194</ele>
        <time>2018-01-24T11:12:28Z</time>
      </trkpt>
      <trkpt lat="45.89416" lon="4.77587">
        <ele>194</ele>
        <time>2018-01-24T11:12:29Z</time>
      </trkpt>
      <trkpt lat="45.89423" lon="4.77589">
        <ele>194</ele>
        <time>2018-01-24T11:12:30Z</time>
      </trkpt>
      <trkpt lat="45.89429" lon="4.77591">
        <ele>194</ele>
        <time>2018-01-24T11:12:31Z</time>
      </trkpt>
      <trkpt lat="45.89436" lon="4.77594">
        <ele>193</ele>
        <time>2018-01-24T11:12:32Z</time>
      </trkpt>
      <trkpt lat="45.89442" lon="4.77595">
        <ele>193</ele>
        <time>2018-01-24T11:12:33Z</time>
      </trkpt>
      <trkpt lat="45.89449" lon="4.77599">
        <ele>193</ele>
        <time>2018-01-24T11:12:34Z</time>
      </trkpt>
      <trkpt lat="45.89455" lon="4.77601">
        <ele>193</ele>
        <time>2018-01-24T11:12:35Z</time>
      </trkpt>
      <trkpt lat="45.8946" lon="4.77603">
        <ele>193</ele>
        <time>2018-01-24T11:12:36Z</time>
      </trkpt>
      <trkpt lat="45.89466" lon="4.77607">
        <ele>193</ele>
        <time>2018-01-24T11:12:37Z</time>
      </trkpt>
      <trkpt lat="45.89471" lon="4.7761">
        <ele>193</ele>
        <time>2018-01-24T11:12:38Z</time>
      </trkpt>
      <trkpt lat="45.89477" lon="4.77612">
        <ele>193</ele>
        <time>2018-01-24T11:12:39Z</time>
      </trkpt>
      <trkpt lat="45.89482" lon="4.77615">
        <ele>193</ele>
        <time>2018-01-24T11:12:40Z</time>
      </trkpt>
      <trkpt lat="45.8949" lon="4.77616">
        <ele>193</ele>
        <time>2018-01-24T11:12:41Z</time>
      </trkpt>
      <trkpt lat="45.89496" lon="4.77619">
        <ele>193</ele>
        <time>2018-01-24T11:12:42Z</time>
      </trkpt>
      <trkpt lat="45.89502" lon="4.7762">
        <ele>192</ele>
        <time>2018-01-24T11:12:43Z</time>
      </trkpt>
      <trkpt lat="45.89509" lon="4.77621">
        <ele>192</ele>
        <time>2018-01-24T11:12:44Z</time>
      </trkpt>
      <trkpt lat="45.89515" lon="4.77623">
        <ele>192</ele>
        <time>2018-01-24T11:12:45Z</time>
      </trkpt>
      <trkpt lat="45.89521" lon="4.77625">
        <ele>192</ele>
        <time>2018-01-24T11:12:46Z</time>
      </trkpt>
      <trkpt lat="45.89527" lon="4.77627">
        <ele>192</ele>
        <time>2018-01-24T11:12:47Z</time>
      </trkpt>
      <trkpt lat="45.89533" lon="4.77629">
        <ele>192</ele>
        <time>2018-01-24T11:12:48Z</time>
      </trkpt>
      <trkpt lat="45.89539" lon="4.7763">
        <ele>192</ele>
        <time>2018-01-24T11:12:49Z</time>
      </trkpt>
      <trkpt lat="45.89544" lon="4.77631">
        <ele>192</ele>
        <time>2018-01-24T11:12:50Z</time>
      </trkpt>
      <trkpt lat="45.8955" lon="4.77633">
        <ele>192</ele>
        <time>2018-01-24T11:12:51Z</time>
      </trkpt>
      <trkpt lat="45.89555" lon="4.77635">
        <ele>192</ele>
        <time>2018-01-24T11:12:52Z</time>
      </trkpt>
      <trkpt lat="45.89561" lon="4.77636">
        <ele>192</ele>
        <time>2018-01-24T11:12:53Z</time>
      </trkpt>
      <trkpt lat="45.89566" lon="4.77638">
        <ele>192</ele>
        <time>2018-01-24T11:12:54Z</time>
      </trkpt>
      <trkpt lat="45.8957" lon="4.77641">
        <ele>192</ele>
        <time>2018-01-24T11:12:55Z</time>
      </trkpt>
      <trkpt lat="45.89576" lon="4.77641">
        <ele>192</ele>
        <time>2018-01-24T11:12:56Z</time>
      </trkpt>
      <trkpt lat="45.89582" lon="4.77642">
        <ele>192</ele>
        <time>2018-01-24T11:12:57Z</time>
      </trkpt>
      <trkpt lat="45.89588" lon="4.77641">
        <ele>191</ele>
        <time>2018-01-24T11:12:58Z</time>
      </trkpt>
      <trkpt lat="45.89594" lon="4.77641">
        <ele>191</ele>
        <time>2018-01-24T11:12:59Z</time>
      </trkpt>
      <trkpt lat="45.896" lon="4.77642">
        <ele>191</ele>
        <time>2018-01-24T11:13:00Z</time>
      </trkpt>
      <trkpt lat="45.89606" lon="4.77643">
        <ele>191</ele>
        <time>2018-01-24T11:13:01Z</time>
      </trkpt>
      <trkpt lat="45.89613" lon="4.77643">
        <ele>191</ele>
        <time>2018-01-24T11:13:02Z</time>
      </trkpt>
      <trkpt lat="45.89619" lon="4.77642">
        <ele>191</ele>
        <time>2018-01-24T11:13:03Z</time>
      </trkpt>
      <trkpt lat="45.89625" lon="4.77644">
        <ele>191</ele>
        <time>2018-01-24T11:13:04Z</time>
      </trkpt>
      <trkpt lat="45.89632" lon="4.77644">
        <ele>191</ele>
        <time>2018-01-24T11:13:05Z</time>
      </trkpt>
      <trkpt lat="45.89638" lon="4.77644">
        <ele>190</ele>
        <time>2018-01-24T11:13:06Z</time>
      </trkpt>
      <trkpt lat="45.89643" lon="4.77644">
        <ele>190</ele>
        <time>2018-01-24T11:13:07Z</time>
      </trkpt>
      <trkpt lat="45.89649" lon="4.77645">
        <ele>190</ele>
        <time>2018-01-24T11:13:08Z</time>
      </trkpt>
      <trkpt lat="45.89654" lon="4.77647">
        <ele>190</ele>
        <time>2018-01-24T11:13:09Z</time>
      </trkpt>
      <trkpt lat="45.8966" lon="4.77649">
        <ele>190</ele>
        <time>2018-01-24T11:13:10Z</time>
      </trkpt>
      <trkpt lat="45.89665" lon="4.77649">
        <ele>190</ele>
        <time>2018-01-24T11:13:11Z</time>
      </trkpt>
      <trkpt lat="45.89671" lon="4.7765">
        <ele>190</ele>
        <time>2018-01-24T11:13:12Z</time>
      </trkpt>
      <trkpt lat="45.89677" lon="4.7765">
        <ele>190</ele>
        <time>2018-01-24T11:13:13Z</time>
      </trkpt>
      <trkpt lat="45.89682" lon="4.77651">
        <ele>190</ele>
        <time>2018-01-24T11:13:14Z</time>
      </trkpt>
      <trkpt lat="45.89688" lon="4.77652">
        <ele>190</ele>
        <time>2018-01-24T11:13:15Z</time>
      </trkpt>
      <trkpt lat="45.89693" lon="4.77653">
        <ele>190</ele>
        <time>2018-01-24T11:13:16Z</time>
      </trkpt>
      <trkpt lat="45.89699" lon="4.77652">
        <ele>190</ele>
        <time>2018-01-24T11:13:17Z</time>
      </trkpt>
      <trkpt lat="45.89704" lon="4.77653">
        <ele>190</ele>
        <time>2018-01-24T11:13:18Z</time>
      </trkpt>
      <trkpt lat="45.8971" lon="4.77655">
        <ele>190</ele>
        <time>2018-01-24T11:13:19Z</time>
      </trkpt>
      <trkpt lat="45.89716" lon="4.77656">
        <ele>190</ele>
        <time>2018-01-24T11:13:20Z</time>
      </trkpt>
      <trkpt lat="45.89721" lon="4.77656">
        <ele>190</ele>
        <time>2018-01-24T11:13:21Z</time>
      </trkpt>
      <trkpt lat="45.89727" lon="4.77657">
        <ele>191</ele>
        <time>2018-01-24T11:13:22Z</time>
      </trkpt>
      <trkpt lat="45.89732" lon="4.77658">
        <ele>191</ele>
        <time>2018-01-24T11:13:23Z</time>
      </trkpt>
      <trkpt lat="45.89738" lon="4.77659">
        <ele>191</ele>
        <time>2018-01-24T11:13:24Z</time>
      </trkpt>
      <trkpt lat="45.89744" lon="4.77659">
        <ele>191</ele>
        <time>2018-01-24T11:13:25Z</time>
      </trkpt>
      <trkpt lat="45.8975" lon="4.7766">
        <ele>191</ele>
        <time>2018-01-24T11:13:26Z</time>
      </trkpt>
      <trkpt lat="45.89755" lon="4.77661">
        <ele>191</ele>
        <time>2018-01-24T11:13:27Z</time>
      </trkpt>
      <trkpt lat="45.8976" lon="4.77662">
        <ele>191</ele>
        <time>2018-01-24T11:13:28Z</time>
      </trkpt>
      <trkpt lat="45.89766" lon="4.77662">
        <ele>190</ele>
        <time>2018-01-24T11:13:29Z</time>
      </trkpt>
      <trkpt lat="45.89771" lon="4.77663">
        <ele>190</ele>
        <time>2018-01-24T11:13:30Z</time>
      </trkpt>
      <trkpt lat="45.89776" lon="4.77664">
        <ele>189</ele>
        <time>2018-01-24T11:13:31Z</time>
      </trkpt>
      <trkpt lat="45.89782" lon="4.77666">
        <ele>189</ele>
        <time>2018-01-24T11:13:32Z</time>
      </trkpt>
      <trkpt lat="45.89788" lon="4.77666">
        <ele>189</ele>
        <time>2018-01-24T11:13:33Z</time>
      </trkpt>
      <trkpt lat="45.89794" lon="4.77668">
        <ele>191</ele>
        <time>2018-01-24T11:13:34Z</time>
      </trkpt>
      <trkpt lat="45.898" lon="4.77669">
        <ele>190</ele>
        <time>2018-01-24T11:13:35Z</time>
      </trkpt>
      <trkpt lat="45.89807" lon="4.77669">
        <ele>190</ele>
        <time>2018-01-24T11:13:36Z</time>
      </trkpt>
      <trkpt lat="45.89814" lon="4.77668">
        <ele>190</ele>
        <time>2018-01-24T11:13:37Z</time>
      </trkpt>
      <trkpt lat="45.89822" lon="4.77669">
        <ele>190</ele>
        <time>2018-01-24T11:13:38Z</time>
      </trkpt>
      <trkpt lat="45.8983" lon="4.77669">
        <ele>189</ele>
        <time>2018-01-24T11:13:39Z</time>
      </trkpt>
      <trkpt lat="45.89837" lon="4.77669">
        <ele>189</ele>
        <time>2018-01-24T11:13:40Z</time>
      </trkpt>
      <trkpt lat="45.89845" lon="4.77669">
        <ele>189</ele>
        <time>2018-01-24T11:13:41Z</time>
      </trkpt>
      <trkpt lat="45.89852" lon="4.77669">
        <ele>189</ele>
        <time>2018-01-24T11:13:42Z</time>
      </trkpt>
      <trkpt lat="45.89861" lon="4.7767">
        <ele>189</ele>
        <time>2018-01-24T11:13:43Z</time>
      </trkpt>
      <trkpt lat="45.89869" lon="4.7767">
        <ele>189</ele>
        <time>2018-01-24T11:13:44Z</time>
      </trkpt>
      <trkpt lat="45.89876" lon="4.7767">
        <ele>189</ele>
        <time>2018-01-24T11:13:45Z</time>
      </trkpt>
      <trkpt lat="45.89884" lon="4.7767">
        <ele>189</ele>
        <time>2018-01-24T11:13:46Z</time>
      </trkpt>
      <trkpt lat="45.89891" lon="4.7767">
        <ele>188</ele>
        <time>2018-01-24T11:13:47Z</time>
      </trkpt>
      <trkpt lat="45.89898" lon="4.77671">
        <ele>188</ele>
        <time>2018-01-24T11:13:48Z</time>
      </trkpt>
      <trkpt lat="45.89906" lon="4.77671">
        <ele>188</ele>
        <time>2018-01-24T11:13:49Z</time>
      </trkpt>
      <trkpt lat="45.89913" lon="4.77671">
        <ele>188</ele>
        <time>2018-01-24T11:13:50Z</time>
      </trkpt>
      <trkpt lat="45.8992" lon="4.77673">
        <ele>187</ele>
        <time>2018-01-24T11:13:51Z</time>
      </trkpt>
      <trkpt lat="45.89927" lon="4.77673">
        <ele>187</ele>
        <time>2018-01-24T11:13:52Z</time>
      </trkpt>
      <trkpt lat="45.89934" lon="4.77674">
        <ele>187</ele>
        <time>2018-01-24T11:13:53Z</time>
      </trkpt>
      <trkpt lat="45.89942" lon="4.77674">
        <ele>187</ele>
        <time>2018-01-24T11:13:54Z</time>
      </trkpt>
      <trkpt lat="45.89949" lon="4.77673">
        <ele>187</ele>
        <time>2018-01-24T11:13:55Z</time>
      </trkpt>
      <trkpt lat="45.89956" lon="4.77674">
        <ele>187</ele>
        <time>2018-01-24T11:13:56Z</time>
      </trkpt>
      <trkpt lat="45.89962" lon="4.77674">
        <ele>187</ele>
        <time>2018-01-24T11:13:57Z</time>
      </trkpt>
      <trkpt lat="45.89969" lon="4.77675">
        <ele>187</ele>
        <time>2018-01-24T11:13:58Z</time>
      </trkpt>
      <trkpt lat="45.89976" lon="4.77674">
        <ele>187</ele>
        <time>2018-01-24T11:13:59Z</time>
      </trkpt>
      <trkpt lat="45.89982" lon="4.77675">
        <ele>187</ele>
        <time>2018-01-24T11:14:00Z</time>
      </trkpt>
      <trkpt lat="45.89989" lon="4.77675">
        <ele>186</ele>
        <time>2018-01-24T11:14:01Z</time>
      </trkpt>
      <trkpt lat="45.89996" lon="4.77675">
        <ele>186</ele>
        <time>2018-01-24T11:14:02Z</time>
      </trkpt>
      <trkpt lat="45.90002" lon="4.77676">
        <ele>186</ele>
        <time>2018-01-24T11:14:03Z</time>
      </trkpt>
      <trkpt lat="45.90009" lon="4.77675">
        <ele>186</ele>
        <time>2018-01-24T11:14:04Z</time>
      </trkpt>
      <trkpt lat="45.90015" lon="4.77674">
        <ele>185</ele>
        <time>2018-01-24T11:14:05Z</time>
      </trkpt>
      <trkpt lat="45.90021" lon="4.77674">
        <ele>185</ele>
        <time>2018-01-24T11:14:06Z</time>
      </trkpt>
      <trkpt lat="45.90027" lon="4.77672">
        <ele>185</ele>
        <time>2018-01-24T11:14:07Z</time>
      </trkpt>
      <trkpt lat="45.90033" lon="4.77673">
        <ele>185</ele>
        <time>2018-01-24T11:14:08Z</time>
      </trkpt>
      <trkpt lat="45.90039" lon="4.77672">
        <ele>185</ele>
        <time>2018-01-24T11:14:09Z</time>
      </trkpt>
      <trkpt lat="45.90046" lon="4.77672">
        <ele>185</ele>
        <time>2018-01-24T11:14:10Z</time>
      </trkpt>
      <trkpt lat="45.90052" lon="4.77673">
        <ele>184</ele>
        <time>2018-01-24T11:14:11Z</time>
      </trkpt>
      <trkpt lat="45.90058" lon="4.77673">
        <ele>184</ele>
        <time>2018-01-24T11:14:12Z</time>
      </trkpt>
      <trkpt lat="45.90064" lon="4.77673">
        <ele>184</ele>
        <time>2018-01-24T11:14:13Z</time>
      </trkpt>
      <trkpt lat="45.90071" lon="4.77673">
        <ele>184</ele>
        <time>2018-01-24T11:14:14Z</time>
      </trkpt>
      <trkpt lat="45.90078" lon="4.77673">
        <ele>184</ele>
        <time>2018-01-24T11:14:15Z</time>
      </trkpt>
      <trkpt lat="45.90084" lon="4.77674">
        <ele>183</ele>
        <time>2018-01-24T11:14:16Z</time>
      </trkpt>
      <trkpt lat="45.90091" lon="4.77675">
        <ele>184</ele>
        <time>2018-01-24T11:14:17Z</time>
      </trkpt>
      <trkpt lat="45.90097" lon="4.77674">
        <ele>184</ele>
        <time>2018-01-24T11:14:18Z</time>
      </trkpt>
      <trkpt lat="45.90104" lon="4.77675">
        <ele>184</ele>
        <time>2018-01-24T11:14:19Z</time>
      </trkpt>
      <trkpt lat="45.90111" lon="4.77675">
        <ele>184</ele>
        <time>2018-01-24T11:14:20Z</time>
      </trkpt>
      <trkpt lat="45.90117" lon="4.77674">
        <ele>184</ele>
        <time>2018-01-24T11:14:21Z</time>
      </trkpt>
      <trkpt lat="45.90122" lon="4.77675">
        <ele>184</ele>
        <time>2018-01-24T11:14:22Z</time>
      </trkpt>
      <trkpt lat="45.90127" lon="4.77676">
        <ele>185</ele>
        <time>2018-01-24T11:14:23Z</time>
      </trkpt>
      <trkpt lat="45.90133" lon="4.77678">
        <ele>185</ele>
        <time>2018-01-24T11:14:24Z</time>
      </trkpt>
      <trkpt lat="45.90138" lon="4.77679">
        <ele>185</ele>
        <time>2018-01-24T11:14:25Z</time>
      </trkpt>
      <trkpt lat="45.90143" lon="4.7768">
        <ele>185</ele>
        <time>2018-01-24T11:14:26Z</time>
      </trkpt>
      <trkpt lat="45.90148" lon="4.77681">
        <ele>185</ele>
        <time>2018-01-24T11:14:27Z</time>
      </trkpt>
      <trkpt lat="45.90153" lon="4.77681">
        <ele>185</ele>
        <time>2018-01-24T11:14:28Z</time>
      </trkpt>
      <trkpt lat="45.90158" lon="4.7768">
        <ele>185</ele>
        <time>2018-01-24T11:14:29Z</time>
      </trkpt>
      <trkpt lat="45.90165" lon="4.7768">
        <ele>185</ele>
        <time>2018-01-24T11:14:30Z</time>
      </trkpt>
      <trkpt lat="45.9017" lon="4.7768">
        <ele>185</ele>
        <time>2018-01-24T11:14:31Z</time>
      </trkpt>
      <trkpt lat="45.90176" lon="4.77681">
        <ele>185</ele>
        <time>2018-01-24T11:14:32Z</time>
      </trkpt>
      <trkpt lat="45.90182" lon="4.7768">
        <ele>185</ele>
        <time>2018-01-24T11:14:33Z</time>
      </trkpt>
      <trkpt lat="45.90188" lon="4.77681">
        <ele>185</ele>
        <time>2018-01-24T11:14:34Z</time>
      </trkpt>
      <trkpt lat="45.90194" lon="4.77681">
        <ele>185</ele>
        <time>2018-01-24T11:14:35Z</time>
      </trkpt>
      <trkpt lat="45.902" lon="4.77681">
        <ele>184</ele>
        <time>2018-01-24T11:14:36Z</time>
      </trkpt>
      <trkpt lat="45.90207" lon="4.7768">
        <ele>184</ele>
        <time>2018-01-24T11:14:37Z</time>
      </trkpt>
      <trkpt lat="45.90213" lon="4.77679">
        <ele>184</ele>
        <time>2018-01-24T11:14:38Z</time>
      </trkpt>
      <trkpt lat="45.90219" lon="4.77678">
        <ele>184</ele>
        <time>2018-01-24T11:14:39Z</time>
      </trkpt>
      <trkpt lat="45.90225" lon="4.77678">
        <ele>184</ele>
        <time>2018-01-24T11:14:40Z</time>
      </trkpt>
      <trkpt lat="45.90231" lon="4.77678">
        <ele>183</ele>
        <time>2018-01-24T11:14:41Z</time>
      </trkpt>
      <trkpt lat="45.90237" lon="4.77678">
        <ele>183</ele>
        <time>2018-01-24T11:14:42Z</time>
      </trkpt>
      <trkpt lat="45.90243" lon="4.77678">
        <ele>183</ele>
        <time>2018-01-24T11:14:43Z</time>
      </trkpt>
      <trkpt lat="45.9025" lon="4.77678">
        <ele>182</ele>
        <time>2018-01-24T11:14:44Z</time>
      </trkpt>
      <trkpt lat="45.90257" lon="4.77678">
        <ele>182</ele>
        <time>2018-01-24T11:14:45Z</time>
      </trkpt>
      <trkpt lat="45.90264" lon="4.77679">
        <ele>182</ele>
        <time>2018-01-24T11:14:46Z</time>
      </trkpt>
      <trkpt lat="45.90271" lon="4.77679">
        <ele>182</ele>
        <time>2018-01-24T11:14:47Z</time>
      </trkpt>
      <trkpt lat="45.90277" lon="4.77679">
        <ele>182</ele>
        <time>2018-01-24T11:14:48Z</time>
      </trkpt>
      <trkpt lat="45.90284" lon="4.77678">
        <ele>182</ele>
        <time>2018-01-24T11:14:49Z</time>
      </trkpt>
      <trkpt lat="45.90291" lon="4.77676">
        <ele>182</ele>
        <time>2018-01-24T11:14:50Z</time>
      </trkpt>
      <trkpt lat="45.90297" lon="4.77676">
        <ele>182</ele>
        <time>2018-01-24T11:14:51Z</time>
      </trkpt>
      <trkpt lat="45.90304" lon="4.77675">
        <ele>182</ele>
        <time>2018-01-24T11:14:52Z</time>
      </trkpt>
      <trkpt lat="45.9031" lon="4.77675">
        <ele>182</ele>
        <time>2018-01-24T11:14:53Z</time>
      </trkpt>
      <trkpt lat="45.90317" lon="4.77674">
        <ele>182</ele>
        <time>2018-01-24T11:14:54Z</time>
      </trkpt>
      <trkpt lat="45.90323" lon="4.77674">
        <ele>182</ele>
        <time>2018-01-24T11:14:55Z</time>
      </trkpt>
      <trkpt lat="45.90329" lon="4.77673">
        <ele>182</ele>
        <time>2018-01-24T11:14:56Z</time>
      </trkpt>
      <trkpt lat="45.90336" lon="4.7767">
        <ele>182</ele>
        <time>2018-01-24T11:14:57Z</time>
      </trkpt>
      <trkpt lat="45.90341" lon="4.7767">
        <ele>182</ele>
        <time>2018-01-24T11:14:58Z</time>
      </trkpt>
      <trkpt lat="45.90347" lon="4.77671">
        <ele>182</ele>
        <time>2018-01-24T11:14:59Z</time>
      </trkpt>
      <trkpt lat="45.90352" lon="4.7767">
        <ele>182</ele>
        <time>2018-01-24T11:15:00Z</time>
      </trkpt>
      <trkpt lat="45.90357" lon="4.7767">
        <ele>182</ele>
        <time>2018-01-24T11:15:01Z</time>
      </trkpt>
      <trkpt lat="45.90362" lon="4.7767">
        <ele>182</ele>
        <time>2018-01-24T11:15:02Z</time>
      </trkpt>
      <trkpt lat="45.90368" lon="4.77669">
        <ele>182</ele>
        <time>2018-01-24T11:15:03Z</time>
      </trkpt>
      <trkpt lat="45.90374" lon="4.77668">
        <ele>182</ele>
        <time>2018-01-24T11:15:04Z</time>
      </trkpt>
      <trkpt lat="45.9038" lon="4.77667">
        <ele>181</ele>
        <time>2018-01-24T11:15:05Z</time>
      </trkpt>
      <trkpt lat="45.90385" lon="4.77667">
        <ele>181</ele>
        <time>2018-01-24T11:15:06Z</time>
      </trkpt>
      <trkpt lat="45.90391" lon="4.77666">
        <ele>181</ele>
        <time>2018-01-24T11:15:07Z</time>
      </trkpt>
      <trkpt lat="45.90397" lon="4.77666">
        <ele>181</ele>
        <time>2018-01-24T11:15:08Z</time>
      </trkpt>
      <trkpt lat="45.90403" lon="4.77665">
        <ele>181</ele>
        <time>2018-01-24T11:15:09Z</time>
      </trkpt>
      <trkpt lat="45.90409" lon="4.77664">
        <ele>181</ele>
        <time>2018-01-24T11:15:10Z</time>
      </trkpt>
      <trkpt lat="45.90415" lon="4.77664">
        <ele>181</ele>
        <time>2018-01-24T11:15:11Z</time>
      </trkpt>
      <trkpt lat="45.90421" lon="4.77663">
        <ele>181</ele>
        <time>2018-01-24T11:15:12Z</time>
      </trkpt>
      <trkpt lat="45.90426" lon="4.77662">
        <ele>180</ele>
        <time>2018-01-24T11:15:13Z</time>
      </trkpt>
      <trkpt lat="45.90432" lon="4.77661">
        <ele>180</ele>
        <time>2018-01-24T11:15:14Z</time>
      </trkpt>
      <trkpt lat="45.90437" lon="4.7766">
        <ele>180</ele>
        <time>2018-01-24T11:15:15Z</time>
      </trkpt>
      <trkpt lat="45.90442" lon="4.77659">
        <ele>180</ele>
        <time>2018-01-24T11:15:16Z</time>
      </trkpt>
      <trkpt lat="45.90448" lon="4.77659">
        <ele>179</ele>
        <time>2018-01-24T11:15:17Z</time>
      </trkpt>
      <trkpt lat="45.90454" lon="4.77658">
        <ele>179</ele>
        <time>2018-01-24T11:15:18Z</time>
      </trkpt>
      <trkpt lat="45.9046" lon="4.77656">
        <ele>179</ele>
        <time>2018-01-24T11:15:19Z</time>
      </trkpt>
      <trkpt lat="45.90466" lon="4.77656">
        <ele>179</ele>
        <time>2018-01-24T11:15:20Z</time>
      </trkpt>
      <trkpt lat="45.90472" lon="4.77654">
        <ele>179</ele>
        <time>2018-01-24T11:15:21Z</time>
      </trkpt>
      <trkpt lat="45.90478" lon="4.77652">
        <ele>179</ele>
        <time>2018-01-24T11:15:22Z</time>
      </trkpt>
      <trkpt lat="45.90484" lon="4.77651">
        <ele>179</ele>
        <time>2018-01-24T11:15:23Z</time>
      </trkpt>
      <trkpt lat="45.9049" lon="4.7765">
        <ele>179</ele>
        <time>2018-01-24T11:15:24Z</time>
      </trkpt>
      <trkpt lat="45.90496" lon="4.77649">
        <ele>179</ele>
        <time>2018-01-24T11:15:25Z</time>
      </trkpt>
      <trkpt lat="45.90502" lon="4.77649">
        <ele>178</ele>
        <time>2018-01-24T11:15:26Z</time>
      </trkpt>
      <trkpt lat="45.90507" lon="4.77648">
        <ele>178</ele>
        <time>2018-01-24T11:15:27Z</time>
      </trkpt>
      <trkpt lat="45.90512" lon="4.77647">
        <ele>178</ele>
        <time>2018-01-24T11:15:28Z</time>
      </trkpt>
      <trkpt lat="45.90518" lon="4.77646">
        <ele>178</ele>
        <time>2018-01-24T11:15:29Z</time>
      </trkpt>
      <trkpt lat="45.90523" lon="4.77644">
        <ele>178</ele>
        <time>2018-01-24T11:15:30Z</time>
      </trkpt>
      <trkpt lat="45.90528" lon="4.77642">
        <ele>178</ele>
        <time>2018-01-24T11:15:31Z</time>
      </trkpt>
      <trkpt lat="45.90534" lon="4.77642">
        <ele>178</ele>
        <time>2018-01-24T11:15:32Z</time>
      </trkpt>
      <trkpt lat="45.9054" lon="4.77639">
        <ele>178</ele>
        <time>2018-01-24T11:15:33Z</time>
      </trkpt>
      <trkpt lat="45.90546" lon="4.77638">
        <ele>178</ele>
        <time>2018-01-24T11:15:34Z</time>
      </trkpt>
      <trkpt lat="45.90552" lon="4.77638">
        <ele>178</ele>
        <time>2018-01-24T11:15:35Z</time>
      </trkpt>
      <trkpt lat="45.90558" lon="4.77638">
        <ele>178</ele>
        <time>2018-01-24T11:15:36Z</time>
      </trkpt>
      <trkpt lat="45.90564" lon="4.77637">
        <ele>178</ele>
        <time>2018-01-24T11:15:37Z</time>
      </trkpt>
      <trkpt lat="45.90571" lon="4.77636">
        <ele>178</ele>
        <time>2018-01-24T11:15:38Z</time>
      </trkpt>
      <trkpt lat="45.90576" lon="4.77635">
        <ele>178</ele>
        <time>2018-01-24T11:15:39Z</time>
      </trkpt>
      <trkpt lat="45.90582" lon="4.77635">
        <ele>178</ele>
        <time>2018-01-24T11:15:40Z</time>
      </trkpt>
      <trkpt lat="45.90586" lon="4.77634">
        <ele>179</ele>
        <time>2018-01-24T11:15:41Z</time>
      </trkpt>
      <trkpt lat="45.90592" lon="4.77633">
        <ele>179</ele>
        <time>2018-01-24T11:15:42Z</time>
      </trkpt>
      <trkpt lat="45.90596" lon="4.77632">
        <ele>179</ele>
        <time>2018-01-24T11:15:43Z</time>
      </trkpt>
      <trkpt lat="45.90601" lon="4.77631">
        <ele>179</ele>
        <time>2018-01-24T11:15:44Z</time>
      </trkpt>
      <trkpt lat="45.90607" lon="4.77631">
        <ele>179</ele>
        <time>2018-01-24T11:15:45Z</time>
      </trkpt>
      <trkpt lat="45.90612" lon="4.7763">
        <ele>179</ele>
        <time>2018-01-24T11:15:46Z</time>
      </trkpt>
      <trkpt lat="45.90617" lon="4.77629">
        <ele>179</ele>
        <time>2018-01-24T11:15:47Z</time>
      </trkpt>
      <trkpt lat="45.90622" lon="4.77628">
        <ele>179</ele>
        <time>2018-01-24T11:15:48Z</time>
      </trkpt>
      <trkpt lat="45.90626" lon="4.77627">
        <ele>179</ele>
        <time>2018-01-24T11:15:49Z</time>
      </trkpt>
      <trkpt lat="45.90631" lon="4.77628">
        <ele>179</ele>
        <time>2018-01-24T11:15:50Z</time>
      </trkpt>
      <trkpt lat="45.90639" lon="4.7763">
        <ele>179</ele>
        <time>2018-01-24T11:15:52Z</time>
      </trkpt>
      <trkpt lat="45.90642" lon="4.77631">
        <ele>179</ele>
        <time>2018-01-24T11:15:53Z</time>
      </trkpt>
      <trkpt lat="45.90651" lon="4.77632">
        <ele>179</ele>
        <time>2018-01-24T11:15:55Z</time>
      </trkpt>
      <trkpt lat="45.90655" lon="4.77632">
        <ele>179</ele>
        <time>2018-01-24T11:15:56Z</time>
      </trkpt>
      <trkpt lat="45.90663" lon="4.77634">
        <ele>179</ele>
        <time>2018-01-24T11:15:58Z</time>
      </trkpt>
      <trkpt lat="45.90667" lon="4.77635">
        <ele>179</ele>
        <time>2018-01-24T11:15:59Z</time>
      </trkpt>
      <trkpt lat="45.90675" lon="4.77636">
        <ele>179</ele>
        <time>2018-01-24T11:16:01Z</time>
      </trkpt>
      <trkpt lat="45.9068" lon="4.77638">
        <ele>179</ele>
        <time>2018-01-24T11:16:02Z</time>
      </trkpt>
      <trkpt lat="45.90688" lon="4.7764">
        <ele>179</ele>
        <time>2018-01-24T11:16:04Z</time>
      </trkpt>
      <trkpt lat="45.90692" lon="4.77642">
        <ele>179</ele>
        <time>2018-01-24T11:16:05Z</time>
      </trkpt>
      <trkpt lat="45.907" lon="4.77644">
        <ele>179</ele>
        <time>2018-01-24T11:16:07Z</time>
      </trkpt>
      <trkpt lat="45.90704" lon="4.77645">
        <ele>180</ele>
        <time>2018-01-24T11:16:08Z</time>
      </trkpt>
      <trkpt lat="45.90713" lon="4.77646">
        <ele>180</ele>
        <time>2018-01-24T11:16:10Z</time>
      </trkpt>
      <trkpt lat="45.90717" lon="4.77648">
        <ele>180</ele>
        <time>2018-01-24T11:16:11Z</time>
      </trkpt>
      <trkpt lat="45.90724" lon="4.7765">
        <ele>180</ele>
        <time>2018-01-24T11:16:13Z</time>
      </trkpt>
      <trkpt lat="45.90728" lon="4.77652">
        <ele>180</ele>
        <time>2018-01-24T11:16:14Z</time>
      </trkpt>
      <trkpt lat="45.90736" lon="4.77657">
        <ele>180</ele>
        <time>2018-01-24T11:16:16Z</time>
      </trkpt>
      <trkpt lat="45.9074" lon="4.7766">
        <ele>180</ele>
        <time>2018-01-24T11:16:17Z</time>
      </trkpt>
      <trkpt lat="45.90747" lon="4.77666">
        <ele>181</ele>
        <time>2018-01-24T11:16:19Z</time>
      </trkpt>
      <trkpt lat="45.90751" lon="4.77667">
        <ele>181</ele>
        <time>2018-01-24T11:16:20Z</time>
      </trkpt>
      <trkpt lat="45.90758" lon="4.77665">
        <ele>180</ele>
        <time>2018-01-24T11:16:22Z</time>
      </trkpt>
      <trkpt lat="45.90763" lon="4.77663">
        <ele>180</ele>
        <time>2018-01-24T11:16:23Z</time>
      </trkpt>
      <trkpt lat="45.90768" lon="4.7766">
        <ele>180</ele>
        <time>2018-01-24T11:16:24Z</time>
      </trkpt>
      <trkpt lat="45.90772" lon="4.77662">
        <ele>180</ele>
        <time>2018-01-24T11:16:25Z</time>
      </trkpt>
      <trkpt lat="45.90777" lon="4.77664">
        <ele>180</ele>
        <time>2018-01-24T11:16:26Z</time>
      </trkpt>
      <trkpt lat="45.90781" lon="4.77666">
        <ele>180</ele>
        <time>2018-01-24T11:16:27Z</time>
      </trkpt>
      <trkpt lat="45.90786" lon="4.77667">
        <ele>180</ele>
        <time>2018-01-24T11:16:28Z</time>
      </trkpt>
      <trkpt lat="45.90791" lon="4.77669">
        <ele>180</ele>
        <time>2018-01-24T11:16:29Z</time>
      </trkpt>
      <trkpt lat="45.90796" lon="4.7767">
        <ele>179</ele>
        <time>2018-01-24T11:16:30Z</time>
      </trkpt>
      <trkpt lat="45.90801" lon="4.77672">
        <ele>179</ele>
        <time>2018-01-24T11:16:31Z</time>
      </trkpt>
      <trkpt lat="45.90805" lon="4.77674">
        <ele>179</ele>
        <time>2018-01-24T11:16:32Z</time>
      </trkpt>
      <trkpt lat="45.9081" lon="4.77674">
        <ele>179</ele>
        <time>2018-01-24T11:16:33Z</time>
      </trkpt>
      <trkpt lat="45.90815" lon="4.77676">
        <ele>179</ele>
        <time>2018-01-24T11:16:34Z</time>
      </trkpt>
      <trkpt lat="45.90819" lon="4.77679">
        <ele>179</ele>
        <time>2018-01-24T11:16:35Z</time>
      </trkpt>
      <trkpt lat="45.90825" lon="4.7768">
        <ele>179</ele>
        <time>2018-01-24T11:16:36Z</time>
      </trkpt>
      <trkpt lat="45.9083" lon="4.77682">
        <ele>179</ele>
        <time>2018-01-24T11:16:37Z</time>
      </trkpt>
      <trkpt lat="45.90836" lon="4.77684">
        <ele>178</ele>
        <time>2018-01-24T11:16:38Z</time>
      </trkpt>
      <trkpt lat="45.90842" lon="4.77686">
        <ele>178</ele>
        <time>2018-01-24T11:16:39Z</time>
      </trkpt>
      <trkpt lat="45.90848" lon="4.77691">
        <ele>178</ele>
        <time>2018-01-24T11:16:40Z</time>
      </trkpt>
      <trkpt lat="45.90855" lon="4.77693">
        <ele>178</ele>
        <time>2018-01-24T11:16:41Z</time>
      </trkpt>
      <trkpt lat="45.9086" lon="4.77697">
        <ele>178</ele>
        <time>2018-01-24T11:16:42Z</time>
      </trkpt>
      <trkpt lat="45.90866" lon="4.77702">
        <ele>178</ele>
        <time>2018-01-24T11:16:43Z</time>
      </trkpt>
      <trkpt lat="45.90872" lon="4.77707">
        <ele>178</ele>
        <time>2018-01-24T11:16:44Z</time>
      </trkpt>
      <trkpt lat="45.90877" lon="4.77712">
        <ele>177</ele>
        <time>2018-01-24T11:16:45Z</time>
      </trkpt>
      <trkpt lat="45.90884" lon="4.77719">
        <ele>177</ele>
        <time>2018-01-24T11:16:46Z</time>
      </trkpt>
      <trkpt lat="45.90889" lon="4.77727">
        <ele>177</ele>
        <time>2018-01-24T11:16:47Z</time>
      </trkpt>
      <trkpt lat="45.90895" lon="4.77735">
        <ele>177</ele>
        <time>2018-01-24T11:16:48Z</time>
      </trkpt>
      <trkpt lat="45.90901" lon="4.77743">
        <ele>177</ele>
        <time>2018-01-24T11:16:49Z</time>
      </trkpt>
      <trkpt lat="45.90906" lon="4.77751">
        <ele>176</ele>
        <time>2018-01-24T11:16:50Z</time>
      </trkpt>
      <trkpt lat="45.90913" lon="4.77757">
        <ele>176</ele>
        <time>2018-01-24T11:16:51Z</time>
      </trkpt>
      <trkpt lat="45.90919" lon="4.77765">
        <ele>176</ele>
        <time>2018-01-24T11:16:52Z</time>
      </trkpt>
      <trkpt lat="45.90925" lon="4.77773">
        <ele>177</ele>
        <time>2018-01-24T11:16:53Z</time>
      </trkpt>
      <trkpt lat="45.90932" lon="4.7778">
        <ele>177</ele>
        <time>2018-01-24T11:16:54Z</time>
      </trkpt>
      <trkpt lat="45.90937" lon="4.77786">
        <ele>177</ele>
        <time>2018-01-24T11:16:55Z</time>
      </trkpt>
      <trkpt lat="45.90943" lon="4.77791">
        <ele>177</ele>
        <time>2018-01-24T11:16:56Z</time>
      </trkpt>
      <trkpt lat="45.9095" lon="4.77793">
        <ele>177</ele>
        <time>2018-01-24T11:16:57Z</time>
      </trkpt>
      <trkpt lat="45.90957" lon="4.77794">
        <ele>177</ele>
        <time>2018-01-24T11:16:58Z</time>
      </trkpt>
      <trkpt lat="45.90964" lon="4.77792">
        <ele>177</ele>
        <time>2018-01-24T11:16:59Z</time>
      </trkpt>
      <trkpt lat="45.90972" lon="4.77791">
        <ele>177</ele>
        <time>2018-01-24T11:17:00Z</time>
      </trkpt>
      <trkpt lat="45.90979" lon="4.77791">
        <ele>177</ele>
        <time>2018-01-24T11:17:01Z</time>
      </trkpt>
      <trkpt lat="45.90986" lon="4.77792">
        <ele>177</ele>
        <time>2018-01-24T11:17:02Z</time>
      </trkpt>
      <trkpt lat="45.90993" lon="4.7779">
        <ele>177</ele>
        <time>2018-01-24T11:17:03Z</time>
      </trkpt>
      <trkpt lat="45.90999" lon="4.77789">
        <ele>177</ele>
        <time>2018-01-24T11:17:04Z</time>
      </trkpt>
      <trkpt lat="45.91004" lon="4.77787">
        <ele>178</ele>
        <time>2018-01-24T11:17:05Z</time>
      </trkpt>
      <trkpt lat="45.91009" lon="4.77785">
        <ele>178</ele>
        <time>2018-01-24T11:17:06Z</time>
      </trkpt>
      <trkpt lat="45.91015" lon="4.77784">
        <ele>178</ele>
        <time>2018-01-24T11:17:07Z</time>
      </trkpt>
      <trkpt lat="45.9102" lon="4.77783">
        <ele>178</ele>
        <time>2018-01-24T11:17:08Z</time>
      </trkpt>
      <trkpt lat="45.91026" lon="4.77781">
        <ele>178</ele>
        <time>2018-01-24T11:17:09Z</time>
      </trkpt>
      <trkpt lat="45.91031" lon="4.77779">
        <ele>178</ele>
        <time>2018-01-24T11:17:10Z</time>
      </trkpt>
      <trkpt lat="45.91037" lon="4.77777">
        <ele>178</ele>
        <time>2018-01-24T11:17:11Z</time>
      </trkpt>
      <trkpt lat="45.91043" lon="4.77776">
        <ele>178</ele>
        <time>2018-01-24T11:17:12Z</time>
      </trkpt>
      <trkpt lat="45.91049" lon="4.77773">
        <ele>178</ele>
        <time>2018-01-24T11:17:13Z</time>
      </trkpt>
      <trkpt lat="45.91055" lon="4.77771">
        <ele>178</ele>
        <time>2018-01-24T11:17:14Z</time>
      </trkpt>
      <trkpt lat="45.91061" lon="4.77769">
        <ele>178</ele>
        <time>2018-01-24T11:17:15Z</time>
      </trkpt>
      <trkpt lat="45.91066" lon="4.77767">
        <ele>178</ele>
        <time>2018-01-24T11:17:16Z</time>
      </trkpt>
      <trkpt lat="45.91072" lon="4.77763">
        <ele>179</ele>
        <time>2018-01-24T11:17:17Z</time>
      </trkpt>
      <trkpt lat="45.91076" lon="4.77759">
        <ele>179</ele>
        <time>2018-01-24T11:17:18Z</time>
      </trkpt>
      <trkpt lat="45.91082" lon="4.77756">
        <ele>179</ele>
        <time>2018-01-24T11:17:19Z</time>
      </trkpt>
      <trkpt lat="45.91088" lon="4.77752">
        <ele>179</ele>
        <time>2018-01-24T11:17:20Z</time>
      </trkpt>
      <trkpt lat="45.91092" lon="4.77749">
        <ele>179</ele>
        <time>2018-01-24T11:17:21Z</time>
      </trkpt>
      <trkpt lat="45.91097" lon="4.77746">
        <ele>178</ele>
        <time>2018-01-24T11:17:22Z</time>
      </trkpt>
      <trkpt lat="45.91102" lon="4.77742">
        <ele>178</ele>
        <time>2018-01-24T11:17:23Z</time>
      </trkpt>
      <trkpt lat="45.91107" lon="4.77739">
        <ele>178</ele>
        <time>2018-01-24T11:17:24Z</time>
      </trkpt>
      <trkpt lat="45.91112" lon="4.77736">
        <ele>178</ele>
        <time>2018-01-24T11:17:25Z</time>
      </trkpt>
      <trkpt lat="45.91118" lon="4.77733">
        <ele>178</ele>
        <time>2018-01-24T11:17:26Z</time>
      </trkpt>
      <trkpt lat="45.91124" lon="4.77728">
        <ele>178</ele>
        <time>2018-01-24T11:17:27Z</time>
      </trkpt>
      <trkpt lat="45.91129" lon="4.77725">
        <ele>177</ele>
        <time>2018-01-24T11:17:28Z</time>
      </trkpt>
      <trkpt lat="45.91134" lon="4.77723">
        <ele>177</ele>
        <time>2018-01-24T11:17:29Z</time>
      </trkpt>
      <trkpt lat="45.9114" lon="4.7772">
        <ele>177</ele>
        <time>2018-01-24T11:17:30Z</time>
      </trkpt>
      <trkpt lat="45.91146" lon="4.77718">
        <ele>177</ele>
        <time>2018-01-24T11:17:31Z</time>
      </trkpt>
      <trkpt lat="45.91152" lon="4.77716">
        <ele>177</ele>
        <time>2018-01-24T11:17:32Z</time>
      </trkpt>
      <trkpt lat="45.91157" lon="4.77714">
        <ele>177</ele>
        <time>2018-01-24T11:17:33Z</time>
      </trkpt>
      <trkpt lat="45.91162" lon="4.77713">
        <ele>177</ele>
        <time>2018-01-24T11:17:34Z</time>
      </trkpt>
      <trkpt lat="45.91168" lon="4.77712">
        <ele>177</ele>
        <time>2018-01-24T11:17:35Z</time>
      </trkpt>
      <trkpt lat="45.91173" lon="4.7771">
        <ele>177</ele>
        <time>2018-01-24T11:17:36Z</time>
      </trkpt>
      <trkpt lat="45.91178" lon="4.77708">
        <ele>176</ele>
        <time>2018-01-24T11:17:37Z</time>
      </trkpt>
      <trkpt lat="45.91184" lon="4.77707">
        <ele>176</ele>
        <time>2018-01-24T11:17:38Z</time>
      </trkpt>
      <trkpt lat="45.91189" lon="4.77706">
        <ele>176</ele>
        <time>2018-01-24T11:17:39Z</time>
      </trkpt>
      <trkpt lat="45.91195" lon="4.77702">
        <ele>176</ele>
        <time>2018-01-24T11:17:40Z</time>
      </trkpt>
      <trkpt lat="45.91201" lon="4.777">
        <ele>176</ele>
        <time>2018-01-24T11:17:41Z</time>
      </trkpt>
      <trkpt lat="45.91206" lon="4.77697">
        <ele>176</ele>
        <time>2018-01-24T11:17:42Z</time>
      </trkpt>
      <trkpt lat="45.91212" lon="4.77696">
        <ele>176</ele>
        <time>2018-01-24T11:17:43Z</time>
      </trkpt>
      <trkpt lat="45.91218" lon="4.77694">
        <ele>176</ele>
        <time>2018-01-24T11:17:44Z</time>
      </trkpt>
      <trkpt lat="45.91223" lon="4.77692">
        <ele>176</ele>
        <time>2018-01-24T11:17:45Z</time>
      </trkpt>
      <trkpt lat="45.91231" lon="4.77691">
        <ele>176</ele>
        <time>2018-01-24T11:17:47Z</time>
      </trkpt>
      <trkpt lat="45.91234" lon="4.7769">
        <ele>176</ele>
        <time>2018-01-24T11:17:48Z</time>
      </trkpt>
      <trkpt lat="45.9124" lon="4.77688">
        <ele>176</ele>
        <time>2018-01-24T11:17:51Z</time>
      </trkpt>
      <trkpt lat="45.91243" lon="4.77687">
        <ele>176</ele>
        <time>2018-01-24T11:17:52Z</time>
      </trkpt>
      <trkpt lat="45.91251" lon="4.77684">
        <ele>176</ele>
        <time>2018-01-24T11:17:54Z</time>
      </trkpt>
      <trkpt lat="45.91254" lon="4.77684">
        <ele>176</ele>
        <time>2018-01-24T11:17:55Z</time>
      </trkpt>
      <trkpt lat="45.91262" lon="4.77686">
        <ele>176</ele>
        <time>2018-01-24T11:17:57Z</time>
      </trkpt>
      <trkpt lat="45.91266" lon="4.77688">
        <ele>176</ele>
        <time>2018-01-24T11:17:58Z</time>
      </trkpt>
      <trkpt lat="45.91271" lon="4.7769">
        <ele>176</ele>
        <time>2018-01-24T11:17:59Z</time>
      </trkpt>
      <trkpt lat="45.91275" lon="4.77692">
        <ele>176</ele>
        <time>2018-01-24T11:18:00Z</time>
      </trkpt>
      <trkpt lat="45.91279" lon="4.77696">
        <ele>176</ele>
        <time>2018-01-24T11:18:01Z</time>
      </trkpt>
      <trkpt lat="45.91283" lon="4.77697">
        <ele>176</ele>
        <time>2018-01-24T11:18:02Z</time>
      </trkpt>
      <trkpt lat="45.91288" lon="4.777">
        <ele>176</ele>
        <time>2018-01-24T11:18:03Z</time>
      </trkpt>
      <trkpt lat="45.91294" lon="4.77701">
        <ele>176</ele>
        <time>2018-01-24T11:18:04Z</time>
      </trkpt>
      <trkpt lat="45.91301" lon="4.77706">
        <ele>176</ele>
        <time>2018-01-24T11:18:06Z</time>
      </trkpt>
      <trkpt lat="45.91304" lon="4.77708">
        <ele>176</ele>
        <time>2018-01-24T11:18:07Z</time>
      </trkpt>
      <trkpt lat="45.91312" lon="4.77711">
        <ele>176</ele>
        <time>2018-01-24T11:18:09Z</time>
      </trkpt>
      <trkpt lat="45.91316" lon="4.77713">
        <ele>176</ele>
        <time>2018-01-24T11:18:10Z</time>
      </trkpt>
      <trkpt lat="45.91323" lon="4.77717">
        <ele>176</ele>
        <time>2018-01-24T11:18:12Z</time>
      </trkpt>
      <trkpt lat="45.91327" lon="4.77718">
        <ele>176</ele>
        <time>2018-01-24T11:18:13Z</time>
      </trkpt>
      <trkpt lat="45.91336" lon="4.77719">
        <ele>176</ele>
        <time>2018-01-24T11:18:15Z</time>
      </trkpt>
      <trkpt lat="45.9134" lon="4.77719">
        <ele>176</ele>
        <time>2018-01-24T11:18:16Z</time>
      </trkpt>
      <trkpt lat="45.91347" lon="4.77721">
        <ele>176</ele>
        <time>2018-01-24T11:18:44Z</time>
      </trkpt>
      <trkpt lat="45.9135" lon="4.77721">
        <ele>176</ele>
        <time>2018-01-24T11:18:45Z</time>
      </trkpt>
      <trkpt lat="45.91358" lon="4.77721">
        <ele>176</ele>
        <time>2018-01-24T11:18:48Z</time>
      </trkpt>
      <trkpt lat="45.91361" lon="4.77721">
        <ele>176</ele>
        <time>2018-01-24T11:18:49Z</time>
      </trkpt>
      <trkpt lat="45.91369" lon="4.77721">
        <ele>176</ele>
        <time>2018-01-24T11:18:51Z</time>
      </trkpt>
      <trkpt lat="45.91373" lon="4.77721">
        <ele>176</ele>
        <time>2018-01-24T11:18:52Z</time>
      </trkpt>
      <trkpt lat="45.91379" lon="4.7772">
        <ele>176</ele>
        <time>2018-01-24T11:18:53Z</time>
      </trkpt>
      <trkpt lat="45.91383" lon="4.7772">
        <ele>176</ele>
        <time>2018-01-24T11:18:54Z</time>
      </trkpt>
      <trkpt lat="45.91388" lon="4.77719">
        <ele>177</ele>
        <time>2018-01-24T11:18:55Z</time>
      </trkpt>
      <trkpt lat="45.91394" lon="4.77719">
        <ele>177</ele>
        <time>2018-01-24T11:18:56Z</time>
      </trkpt>
      <trkpt lat="45.91399" lon="4.77718">
        <ele>177</ele>
        <time>2018-01-24T11:18:57Z</time>
      </trkpt>
      <trkpt lat="45.91404" lon="4.77718">
        <ele>177</ele>
        <time>2018-01-24T11:18:58Z</time>
      </trkpt>
      <trkpt lat="45.9141" lon="4.77719">
        <ele>177</ele>
        <time>2018-01-24T11:18:59Z</time>
      </trkpt>
      <trkpt lat="45.91415" lon="4.77718">
        <ele>177</ele>
        <time>2018-01-24T11:19:00Z</time>
      </trkpt>
      <trkpt lat="45.9142" lon="4.77718">
        <ele>177</ele>
        <time>2018-01-24T11:19:01Z</time>
      </trkpt>
      <trkpt lat="45.91425" lon="4.77717">
        <ele>177</ele>
        <time>2018-01-24T11:19:02Z</time>
      </trkpt>
      <trkpt lat="45.91429" lon="4.77716">
        <ele>177</ele>
        <time>2018-01-24T11:19:03Z</time>
      </trkpt>
      <trkpt lat="45.91434" lon="4.77714">
        <ele>177</ele>
        <time>2018-01-24T11:19:04Z</time>
      </trkpt>
      <trkpt lat="45.91439" lon="4.77714">
        <ele>177</ele>
        <time>2018-01-24T11:19:05Z</time>
      </trkpt>
      <trkpt lat="45.91444" lon="4.77713">
        <ele>177</ele>
        <time>2018-01-24T11:19:06Z</time>
      </trkpt>
      <trkpt lat="45.91449" lon="4.77712">
        <ele>177</ele>
        <time>2018-01-24T11:19:07Z</time>
      </trkpt>
      <trkpt lat="45.91454" lon="4.77711">
        <ele>177</ele>
        <time>2018-01-24T11:19:08Z</time>
      </trkpt>
      <trkpt lat="45.9146" lon="4.7771">
        <ele>177</ele>
        <time>2018-01-24T11:19:09Z</time>
      </trkpt>
      <trkpt lat="45.91465" lon="4.77709">
        <ele>177</ele>
        <time>2018-01-24T11:19:10Z</time>
      </trkpt>
      <trkpt lat="45.9147" lon="4.77708">
        <ele>177</ele>
        <time>2018-01-24T11:19:11Z</time>
      </trkpt>
      <trkpt lat="45.91476" lon="4.77707">
        <ele>177</ele>
        <time>2018-01-24T11:19:12Z</time>
      </trkpt>
      <trkpt lat="45.91481" lon="4.77706">
        <ele>177</ele>
        <time>2018-01-24T11:19:13Z</time>
      </trkpt>
      <trkpt lat="45.91486" lon="4.77704">
        <ele>177</ele>
        <time>2018-01-24T11:19:14Z</time>
      </trkpt>
      <trkpt lat="45.91493" lon="4.77703">
        <ele>177</ele>
        <time>2018-01-24T11:19:15Z</time>
      </trkpt>
      <trkpt lat="45.91497" lon="4.77701">
        <ele>177</ele>
        <time>2018-01-24T11:19:16Z</time>
      </trkpt>
      <trkpt lat="45.91505" lon="4.77702">
        <ele>176</ele>
        <time>2018-01-24T11:19:18Z</time>
      </trkpt>
      <trkpt lat="45.9151" lon="4.77701">
        <ele>176</ele>
        <time>2018-01-24T11:19:19Z</time>
      </trkpt>
      <trkpt lat="45.91515" lon="4.77698">
        <ele>176</ele>
        <time>2018-01-24T11:19:20Z</time>
      </trkpt>
      <trkpt lat="45.91519" lon="4.77694">
        <ele>176</ele>
        <time>2018-01-24T11:19:21Z</time>
      </trkpt>
      <trkpt lat="45.91522" lon="4.77688">
        <ele>175</ele>
        <time>2018-01-24T11:19:22Z</time>
      </trkpt>
      <trkpt lat="45.91526" lon="4.77684">
        <ele>175</ele>
        <time>2018-01-24T11:19:23Z</time>
      </trkpt>
      <trkpt lat="45.91529" lon="4.77678">
        <ele>175</ele>
        <time>2018-01-24T11:19:24Z</time>
      </trkpt>
      <trkpt lat="45.91532" lon="4.77672">
        <ele>175</ele>
        <time>2018-01-24T11:19:25Z</time>
      </trkpt>
      <trkpt lat="45.91535" lon="4.77666">
        <ele>174</ele>
        <time>2018-01-24T11:19:26Z</time>
      </trkpt>
      <trkpt lat="45.91539" lon="4.77659">
        <ele>174</ele>
        <time>2018-01-24T11:19:27Z</time>
      </trkpt>
      <trkpt lat="45.91543" lon="4.77653">
        <ele>174</ele>
        <time>2018-01-24T11:19:28Z</time>
      </trkpt>
      <trkpt lat="45.91546" lon="4.77647">
        <ele>174</ele>
        <time>2018-01-24T11:19:29Z</time>
      </trkpt>
      <trkpt lat="45.91551" lon="4.7764">
        <ele>174</ele>
        <time>2018-01-24T11:19:30Z</time>
      </trkpt>
      <trkpt lat="45.91555" lon="4.77633">
        <ele>174</ele>
        <time>2018-01-24T11:19:31Z</time>
      </trkpt>
      <trkpt lat="45.91558" lon="4.77627">
        <ele>174</ele>
        <time>2018-01-24T11:19:32Z</time>
      </trkpt>
      <trkpt lat="45.91563" lon="4.77621">
        <ele>174</ele>
        <time>2018-01-24T11:19:33Z</time>
      </trkpt>
      <trkpt lat="45.91566" lon="4.77614">
        <ele>174</ele>
        <time>2018-01-24T11:19:34Z</time>
      </trkpt>
      <trkpt lat="45.9157" lon="4.77609">
        <ele>174</ele>
        <time>2018-01-24T11:19:35Z</time>
      </trkpt>
      <trkpt lat="45.91575" lon="4.776">
        <ele>173</ele>
        <time>2018-01-24T11:19:36Z</time>
      </trkpt>
      <trkpt lat="45.91581" lon="4.77592">
        <ele>173</ele>
        <time>2018-01-24T11:19:37Z</time>
      </trkpt>
      <trkpt lat="45.91584" lon="4.77584">
        <ele>173</ele>
        <time>2018-01-24T11:19:38Z</time>
      </trkpt>
      <trkpt lat="45.91589" lon="4.77576">
        <ele>172</ele>
        <time>2018-01-24T11:19:39Z</time>
      </trkpt>
      <trkpt lat="45.91594" lon="4.77568">
        <ele>172</ele>
        <time>2018-01-24T11:19:40Z</time>
      </trkpt>
      <trkpt lat="45.91599" lon="4.7756">
        <ele>172</ele>
        <time>2018-01-24T11:19:41Z</time>
      </trkpt>
      <trkpt lat="45.91605" lon="4.77551">
        <ele>171</ele>
        <time>2018-01-24T11:19:42Z</time>
      </trkpt>
      <trkpt lat="45.91609" lon="4.77544">
        <ele>171</ele>
        <time>2018-01-24T11:19:43Z</time>
      </trkpt>
      <trkpt lat="45.91614" lon="4.77537">
        <ele>171</ele>
        <time>2018-01-24T11:19:44Z</time>
      </trkpt>
      <trkpt lat="45.91618" lon="4.7753">
        <ele>171</ele>
        <time>2018-01-24T11:19:45Z</time>
      </trkpt>
      <trkpt lat="45.91623" lon="4.77523">
        <ele>171</ele>
        <time>2018-01-24T11:19:46Z</time>
      </trkpt>
      <trkpt lat="45.91628" lon="4.77518">
        <ele>171</ele>
        <time>2018-01-24T11:19:47Z</time>
      </trkpt>
      <trkpt lat="45.91634" lon="4.77512">
        <ele>171</ele>
        <time>2018-01-24T11:19:48Z</time>
      </trkpt>
      <trkpt lat="45.91639" lon="4.77508">
        <ele>171</ele>
        <time>2018-01-24T11:19:49Z</time>
      </trkpt>
      <trkpt lat="45.91646" lon="4.77506">
        <ele>171</ele>
        <time>2018-01-24T11:19:50Z</time>
      </trkpt>
      <trkpt lat="45.91652" lon="4.77503">
        <ele>170</ele>
        <time>2018-01-24T11:19:51Z</time>
      </trkpt>
      <trkpt lat="45.91658" lon="4.77502">
        <ele>170</ele>
        <time>2018-01-24T11:19:52Z</time>
      </trkpt>
      <trkpt lat="45.91664" lon="4.77499">
        <ele>170</ele>
        <time>2018-01-24T11:19:53Z</time>
      </trkpt>
      <trkpt lat="45.91669" lon="4.77498">
        <ele>170</ele>
        <time>2018-01-24T11:19:54Z</time>
      </trkpt>
      <trkpt lat="45.91675" lon="4.77496">
        <ele>170</ele>
        <time>2018-01-24T11:19:55Z</time>
      </trkpt>
      <trkpt lat="45.9168" lon="4.77496">
        <ele>170</ele>
        <time>2018-01-24T11:19:56Z</time>
      </trkpt>
      <trkpt lat="45.91685" lon="4.77496">
        <ele>170</ele>
        <time>2018-01-24T11:19:57Z</time>
      </trkpt>
      <trkpt lat="45.91691" lon="4.77498">
        <ele>170</ele>
        <time>2018-01-24T11:19:58Z</time>
      </trkpt>
      <trkpt lat="45.91694" lon="4.775">
        <ele>170</ele>
        <time>2018-01-24T11:19:59Z</time>
      </trkpt>
      <trkpt lat="45.91699" lon="4.77501">
        <ele>170</ele>
        <time>2018-01-24T11:20:00Z</time>
      </trkpt>
      <trkpt lat="45.91703" lon="4.77503">
        <ele>170</ele>
        <time>2018-01-24T11:20:01Z</time>
      </trkpt>
      <trkpt lat="45.91708" lon="4.775">
        <ele>170</ele>
        <time>2018-01-24T11:20:02Z</time>
      </trkpt>
      <trkpt lat="45.91711" lon="4.77494">
        <ele>170</ele>
        <time>2018-01-24T11:20:03Z</time>
      </trkpt>
      <trkpt lat="45.91713" lon="4.77487">
        <ele>170</ele>
        <time>2018-01-24T11:20:04Z</time>
      </trkpt>
      <trkpt lat="45.91713" lon="4.77479">
        <ele>170</ele>
        <time>2018-01-24T11:20:05Z</time>
      </trkpt>
      <trkpt lat="45.91711" lon="4.77471">
        <ele>170</ele>
        <time>2018-01-24T11:20:06Z</time>
      </trkpt>
      <trkpt lat="45.91708" lon="4.77463">
        <ele>170</ele>
        <time>2018-01-24T11:20:07Z</time>
      </trkpt>
      <trkpt lat="45.91706" lon="4.77455">
        <ele>171</ele>
        <time>2018-01-24T11:20:08Z</time>
      </trkpt>
      <trkpt lat="45.91706" lon="4.77447">
        <ele>171</ele>
        <time>2018-01-24T11:20:09Z</time>
      </trkpt>
      <trkpt lat="45.91708" lon="4.7744">
        <ele>171</ele>
        <time>2018-01-24T11:20:10Z</time>
      </trkpt>
      <trkpt lat="45.91709" lon="4.77431">
        <ele>171</ele>
        <time>2018-01-24T11:20:11Z</time>
      </trkpt>
      <trkpt lat="45.9171" lon="4.77423">
        <ele>171</ele>
        <time>2018-01-24T11:20:12Z</time>
      </trkpt>
      <trkpt lat="45.91711" lon="4.77415">
        <ele>171</ele>
        <time>2018-01-24T11:20:13Z</time>
      </trkpt>
      <trkpt lat="45.91711" lon="4.77407">
        <ele>171</ele>
        <time>2018-01-24T11:20:14Z</time>
      </trkpt>
      <trkpt lat="45.91712" lon="4.77399">
        <ele>171</ele>
        <time>2018-01-24T11:20:15Z</time>
      </trkpt>
      <trkpt lat="45.91714" lon="4.77391">
        <ele>171</ele>
        <time>2018-01-24T11:20:16Z</time>
      </trkpt>
      <trkpt lat="45.91716" lon="4.77384">
        <ele>171</ele>
        <time>2018-01-24T11:20:17Z</time>
      </trkpt>
      <trkpt lat="45.91717" lon="4.77378">
        <ele>171</ele>
        <time>2018-01-24T11:20:18Z</time>
      </trkpt>
      <trkpt lat="45.91718" lon="4.7737">
        <ele>171</ele>
        <time>2018-01-24T11:20:19Z</time>
      </trkpt>
      <trkpt lat="45.91718" lon="4.77363">
        <ele>171</ele>
        <time>2018-01-24T11:20:20Z</time>
      </trkpt>
      <trkpt lat="45.91719" lon="4.77355">
        <ele>170</ele>
        <time>2018-01-24T11:20:21Z</time>
      </trkpt>
      <trkpt lat="45.91721" lon="4.77348">
        <ele>170</ele>
        <time>2018-01-24T11:20:22Z</time>
      </trkpt>
      <trkpt lat="45.91722" lon="4.77339">
        <ele>170</ele>
        <time>2018-01-24T11:20:23Z</time>
      </trkpt>
      <trkpt lat="45.91724" lon="4.7733">
        <ele>170</ele>
        <time>2018-01-24T11:20:24Z</time>
      </trkpt>
      <trkpt lat="45.91724" lon="4.77321">
        <ele>170</ele>
        <time>2018-01-24T11:20:25Z</time>
      </trkpt>
      <trkpt lat="45.91726" lon="4.77312">
        <ele>170</ele>
        <time>2018-01-24T11:20:26Z</time>
      </trkpt>
      <trkpt lat="45.91727" lon="4.77303">
        <ele>170</ele>
        <time>2018-01-24T11:20:27Z</time>
      </trkpt>
      <trkpt lat="45.91728" lon="4.77295">
        <ele>170</ele>
        <time>2018-01-24T11:20:28Z</time>
      </trkpt>
      <trkpt lat="45.91729" lon="4.77286">
        <ele>170</ele>
        <time>2018-01-24T11:20:29Z</time>
      </trkpt>
      <trkpt lat="45.91732" lon="4.77277">
        <ele>170</ele>
        <time>2018-01-24T11:20:30Z</time>
      </trkpt>
      <trkpt lat="45.91733" lon="4.77269">
        <ele>170</ele>
        <time>2018-01-24T11:20:31Z</time>
      </trkpt>
      <trkpt lat="45.91734" lon="4.77261">
        <ele>170</ele>
        <time>2018-01-24T11:20:32Z</time>
      </trkpt>
      <trkpt lat="45.91735" lon="4.77253">
        <ele>169</ele>
        <time>2018-01-24T11:20:33Z</time>
      </trkpt>
      <trkpt lat="45.91735" lon="4.77246">
        <ele>169</ele>
        <time>2018-01-24T11:20:34Z</time>
      </trkpt>
      <trkpt lat="45.91736" lon="4.7724">
        <ele>169</ele>
        <time>2018-01-24T11:20:35Z</time>
      </trkpt>
      <trkpt lat="45.91737" lon="4.77233">
        <ele>169</ele>
        <time>2018-01-24T11:20:36Z</time>
      </trkpt>
      <trkpt lat="45.91738" lon="4.77225">
        <ele>170</ele>
        <time>2018-01-24T11:20:37Z</time>
      </trkpt>
      <trkpt lat="45.91739" lon="4.77216">
        <ele>170</ele>
        <time>2018-01-24T11:20:38Z</time>
      </trkpt>
      <trkpt lat="45.91739" lon="4.77207">
        <ele>170</ele>
        <time>2018-01-24T11:20:39Z</time>
      </trkpt>
      <trkpt lat="45.9174" lon="4.77199">
        <ele>170</ele>
        <time>2018-01-24T11:20:40Z</time>
      </trkpt>
      <trkpt lat="45.91741" lon="4.7719">
        <ele>170</ele>
        <time>2018-01-24T11:20:41Z</time>
      </trkpt>
      <trkpt lat="45.91742" lon="4.77181">
        <ele>170</ele>
        <time>2018-01-24T11:20:42Z</time>
      </trkpt>
      <trkpt lat="45.91745" lon="4.77173">
        <ele>170</ele>
        <time>2018-01-24T11:20:43Z</time>
      </trkpt>
      <trkpt lat="45.91747" lon="4.77164">
        <ele>170</ele>
        <time>2018-01-24T11:20:44Z</time>
      </trkpt>
      <trkpt lat="45.91749" lon="4.77156">
        <ele>170</ele>
        <time>2018-01-24T11:20:45Z</time>
      </trkpt>
      <trkpt lat="45.91749" lon="4.77147">
        <ele>170</ele>
        <time>2018-01-24T11:20:46Z</time>
      </trkpt>
      <trkpt lat="45.91751" lon="4.77138">
        <ele>169</ele>
        <time>2018-01-24T11:20:47Z</time>
      </trkpt>
      <trkpt lat="45.91752" lon="4.77129">
        <ele>169</ele>
        <time>2018-01-24T11:20:48Z</time>
      </trkpt>
      <trkpt lat="45.91753" lon="4.77121">
        <ele>169</ele>
        <time>2018-01-24T11:20:49Z</time>
      </trkpt>
      <trkpt lat="45.91755" lon="4.77113">
        <ele>169</ele>
        <time>2018-01-24T11:20:50Z</time>
      </trkpt>
      <trkpt lat="45.91756" lon="4.77104">
        <ele>169</ele>
        <time>2018-01-24T11:20:51Z</time>
      </trkpt>
      <trkpt lat="45.91757" lon="4.77096">
        <ele>169</ele>
        <time>2018-01-24T11:20:52Z</time>
      </trkpt>
      <trkpt lat="45.91758" lon="4.77089">
        <ele>169</ele>
        <time>2018-01-24T11:20:53Z</time>
      </trkpt>
      <trkpt lat="45.91759" lon="4.77081">
        <ele>169</ele>
        <time>2018-01-24T11:20:54Z</time>
      </trkpt>
      <trkpt lat="45.91761" lon="4.77073">
        <ele>169</ele>
        <time>2018-01-24T11:20:55Z</time>
      </trkpt>
      <trkpt lat="45.91761" lon="4.77066">
        <ele>169</ele>
        <time>2018-01-24T11:20:56Z</time>
      </trkpt>
      <trkpt lat="45.91763" lon="4.77057">
        <ele>169</ele>
        <time>2018-01-24T11:20:57Z</time>
      </trkpt>
      <trkpt lat="45.91764" lon="4.77049">
        <ele>168</ele>
        <time>2018-01-24T11:20:58Z</time>
      </trkpt>
      <trkpt lat="45.91765" lon="4.77041">
        <ele>168</ele>
        <time>2018-01-24T11:20:59Z</time>
      </trkpt>
      <trkpt lat="45.91766" lon="4.77032">
        <ele>168</ele>
        <time>2018-01-24T11:21:00Z</time>
      </trkpt>
      <trkpt lat="45.91768" lon="4.77022">
        <ele>168</ele>
        <time>2018-01-24T11:21:01Z</time>
      </trkpt>
      <trkpt lat="45.91769" lon="4.77014">
        <ele>169</ele>
        <time>2018-01-24T11:21:02Z</time>
      </trkpt>
      <trkpt lat="45.9177" lon="4.77006">
        <ele>169</ele>
        <time>2018-01-24T11:21:03Z</time>
      </trkpt>
      <trkpt lat="45.91771" lon="4.76998">
        <ele>169</ele>
        <time>2018-01-24T11:21:04Z</time>
      </trkpt>
      <trkpt lat="45.91772" lon="4.76989">
        <ele>169</ele>
        <time>2018-01-24T11:21:05Z</time>
      </trkpt>
      <trkpt lat="45.91773" lon="4.7698">
        <ele>169</ele>
        <time>2018-01-24T11:21:06Z</time>
      </trkpt>
      <trkpt lat="45.91774" lon="4.7697">
        <ele>169</ele>
        <time>2018-01-24T11:21:07Z</time>
      </trkpt>
      <trkpt lat="45.91775" lon="4.76962">
        <ele>169</ele>
        <time>2018-01-24T11:21:08Z</time>
      </trkpt>
      <trkpt lat="45.91776" lon="4.76954">
        <ele>169</ele>
        <time>2018-01-24T11:21:09Z</time>
      </trkpt>
      <trkpt lat="45.91778" lon="4.76945">
        <ele>169</ele>
        <time>2018-01-24T11:21:10Z</time>
      </trkpt>
      <trkpt lat="45.91778" lon="4.76936">
        <ele>169</ele>
        <time>2018-01-24T11:21:11Z</time>
      </trkpt>
      <trkpt lat="45.9178" lon="4.76928">
        <ele>169</ele>
        <time>2018-01-24T11:21:12Z</time>
      </trkpt>
      <trkpt lat="45.9178" lon="4.7692">
        <ele>169</ele>
        <time>2018-01-24T11:21:13Z</time>
      </trkpt>
      <trkpt lat="45.91782" lon="4.76912">
        <ele>170</ele>
        <time>2018-01-24T11:21:14Z</time>
      </trkpt>
      <trkpt lat="45.91782" lon="4.76904">
        <ele>170</ele>
        <time>2018-01-24T11:21:15Z</time>
      </trkpt>
      <trkpt lat="45.91783" lon="4.76897">
        <ele>170</ele>
        <time>2018-01-24T11:21:16Z</time>
      </trkpt>
      <trkpt lat="45.91783" lon="4.7689">
        <ele>170</ele>
        <time>2018-01-24T11:21:17Z</time>
      </trkpt>
      <trkpt lat="45.91784" lon="4.76884">
        <ele>170</ele>
        <time>2018-01-24T11:21:18Z</time>
      </trkpt>
      <trkpt lat="45.91784" lon="4.76876">
        <ele>170</ele>
        <time>2018-01-24T11:21:19Z</time>
      </trkpt>
      <trkpt lat="45.91784" lon="4.76869">
        <ele>170</ele>
        <time>2018-01-24T11:21:20Z</time>
      </trkpt>
      <trkpt lat="45.91784" lon="4.76861">
        <ele>170</ele>
        <time>2018-01-24T11:21:21Z</time>
      </trkpt>
      <trkpt lat="45.91785" lon="4.76854">
        <ele>170</ele>
        <time>2018-01-24T11:21:22Z</time>
      </trkpt>
      <trkpt lat="45.91785" lon="4.76847">
        <ele>170</ele>
        <time>2018-01-24T11:21:23Z</time>
      </trkpt>
      <trkpt lat="45.91785" lon="4.7684">
        <ele>170</ele>
        <time>2018-01-24T11:21:24Z</time>
      </trkpt>
      <trkpt lat="45.91785" lon="4.76833">
        <ele>171</ele>
        <time>2018-01-24T11:21:25Z</time>
      </trkpt>
      <trkpt lat="45.91786" lon="4.76825">
        <ele>171</ele>
        <time>2018-01-24T11:21:26Z</time>
      </trkpt>
      <trkpt lat="45.91786" lon="4.76817">
        <ele>171</ele>
        <time>2018-01-24T11:21:27Z</time>
      </trkpt>
      <trkpt lat="45.91786" lon="4.76811">
        <ele>171</ele>
        <time>2018-01-24T11:21:28Z</time>
      </trkpt>
      <trkpt lat="45.91786" lon="4.76803">
        <ele>171</ele>
        <time>2018-01-24T11:21:29Z</time>
      </trkpt>
      <trkpt lat="45.91786" lon="4.76796">
        <ele>171</ele>
        <time>2018-01-24T11:21:30Z</time>
      </trkpt>
      <trkpt lat="45.91785" lon="4.76789">
        <ele>171</ele>
        <time>2018-01-24T11:21:31Z</time>
      </trkpt>
      <trkpt lat="45.91785" lon="4.76783">
        <ele>171</ele>
        <time>2018-01-24T11:21:32Z</time>
      </trkpt>
      <trkpt lat="45.91785" lon="4.76775">
        <ele>171</ele>
        <time>2018-01-24T11:21:33Z</time>
      </trkpt>
      <trkpt lat="45.91786" lon="4.76768">
        <ele>171</ele>
        <time>2018-01-24T11:21:34Z</time>
      </trkpt>
      <trkpt lat="45.91786" lon="4.7676">
        <ele>171</ele>
        <time>2018-01-24T11:21:35Z</time>
      </trkpt>
      <trkpt lat="45.91786" lon="4.76753">
        <ele>171</ele>
        <time>2018-01-24T11:21:36Z</time>
      </trkpt>
      <trkpt lat="45.91786" lon="4.76746">
        <ele>172</ele>
        <time>2018-01-24T11:21:37Z</time>
      </trkpt>
      <trkpt lat="45.91786" lon="4.76739">
        <ele>172</ele>
        <time>2018-01-24T11:21:38Z</time>
      </trkpt>
      <trkpt lat="45.91787" lon="4.76732">
        <ele>172</ele>
        <time>2018-01-24T11:21:39Z</time>
      </trkpt>
      <trkpt lat="45.91788" lon="4.76726">
        <ele>172</ele>
        <time>2018-01-24T11:21:40Z</time>
      </trkpt>
      <trkpt lat="45.91788" lon="4.76719">
        <ele>172</ele>
        <time>2018-01-24T11:21:41Z</time>
      </trkpt>
      <trkpt lat="45.91788" lon="4.76712">
        <ele>172</ele>
        <time>2018-01-24T11:21:42Z</time>
      </trkpt>
      <trkpt lat="45.91788" lon="4.76705">
        <ele>172</ele>
        <time>2018-01-24T11:21:43Z</time>
      </trkpt>
      <trkpt lat="45.91788" lon="4.76699">
        <ele>172</ele>
        <time>2018-01-24T11:21:44Z</time>
      </trkpt>
      <trkpt lat="45.91789" lon="4.76691">
        <ele>172</ele>
        <time>2018-01-24T11:21:45Z</time>
      </trkpt>
      <trkpt lat="45.9179" lon="4.76685">
        <ele>172</ele>
        <time>2018-01-24T11:21:46Z</time>
      </trkpt>
      <trkpt lat="45.91791" lon="4.76677">
        <ele>172</ele>
        <time>2018-01-24T11:21:47Z</time>
      </trkpt>
      <trkpt lat="45.9179" lon="4.76669">
        <ele>172</ele>
        <time>2018-01-24T11:21:48Z</time>
      </trkpt>
      <trkpt lat="45.91791" lon="4.76662">
        <ele>173</ele>
        <time>2018-01-24T11:21:49Z</time>
      </trkpt>
      <trkpt lat="45.91792" lon="4.76655">
        <ele>173</ele>
        <time>2018-01-24T11:21:50Z</time>
      </trkpt>
      <trkpt lat="45.91793" lon="4.76648">
        <ele>173</ele>
        <time>2018-01-24T11:21:51Z</time>
      </trkpt>
      <trkpt lat="45.91794" lon="4.76641">
        <ele>173</ele>
        <time>2018-01-24T11:21:52Z</time>
      </trkpt>
      <trkpt lat="45.91795" lon="4.76634">
        <ele>173</ele>
        <time>2018-01-24T11:21:53Z</time>
      </trkpt>
      <trkpt lat="45.91796" lon="4.76627">
        <ele>173</ele>
        <time>2018-01-24T11:21:54Z</time>
      </trkpt>
      <trkpt lat="45.91797" lon="4.7662">
        <ele>173</ele>
        <time>2018-01-24T11:21:55Z</time>
      </trkpt>
      <trkpt lat="45.91798" lon="4.76612">
        <ele>173</ele>
        <time>2018-01-24T11:21:56Z</time>
      </trkpt>
      <trkpt lat="45.918" lon="4.76605">
        <ele>173</ele>
        <time>2018-01-24T11:21:57Z</time>
      </trkpt>
      <trkpt lat="45.91802" lon="4.766">
        <ele>173</ele>
        <time>2018-01-24T11:21:58Z</time>
      </trkpt>
      <trkpt lat="45.91803" lon="4.76593">
        <ele>173</ele>
        <time>2018-01-24T11:21:59Z</time>
      </trkpt>
      <trkpt lat="45.91803" lon="4.76585">
        <ele>173</ele>
        <time>2018-01-24T11:22:00Z</time>
      </trkpt>
      <trkpt lat="45.91804" lon="4.76579">
        <ele>173</ele>
        <time>2018-01-24T11:22:01Z</time>
      </trkpt>
      <trkpt lat="45.91805" lon="4.76571">
        <ele>173</ele>
        <time>2018-01-24T11:22:02Z</time>
      </trkpt>
      <trkpt lat="45.91805" lon="4.76564">
        <ele>173</ele>
        <time>2018-01-24T11:22:03Z</time>
      </trkpt>
      <trkpt lat="45.91805" lon="4.76556">
        <ele>173</ele>
        <time>2018-01-24T11:22:04Z</time>
      </trkpt>
      <trkpt lat="45.91805" lon="4.76549">
        <ele>173</ele>
        <time>2018-01-24T11:22:05Z</time>
      </trkpt>
      <trkpt lat="45.91805" lon="4.76541">
        <ele>173</ele>
        <time>2018-01-24T11:22:06Z</time>
      </trkpt>
      <trkpt lat="45.91805" lon="4.76534">
        <ele>173</ele>
        <time>2018-01-24T11:22:07Z</time>
      </trkpt>
      <trkpt lat="45.91804" lon="4.76527">
        <ele>173</ele>
        <time>2018-01-24T11:22:08Z</time>
      </trkpt>
      <trkpt lat="45.91805" lon="4.7652">
        <ele>173</ele>
        <time>2018-01-24T11:22:09Z</time>
      </trkpt>
      <trkpt lat="45.91805" lon="4.76512">
        <ele>173</ele>
        <time>2018-01-24T11:22:10Z</time>
      </trkpt>
      <trkpt lat="45.91806" lon="4.76504">
        <ele>173</ele>
        <time>2018-01-24T11:22:11Z</time>
      </trkpt>
      <trkpt lat="45.91806" lon="4.76497">
        <ele>173</ele>
        <time>2018-01-24T11:22:12Z</time>
      </trkpt>
      <trkpt lat="45.91807" lon="4.76489">
        <ele>173</ele>
        <time>2018-01-24T11:22:13Z</time>
      </trkpt>
      <trkpt lat="45.91808" lon="4.76481">
        <ele>173</ele>
        <time>2018-01-24T11:22:14Z</time>
      </trkpt>
      <trkpt lat="45.91809" lon="4.76473">
        <ele>173</ele>
        <time>2018-01-24T11:22:15Z</time>
      </trkpt>
      <trkpt lat="45.9181" lon="4.76465">
        <ele>173</ele>
        <time>2018-01-24T11:22:16Z</time>
      </trkpt>
      <trkpt lat="45.91811" lon="4.76456">
        <ele>173</ele>
        <time>2018-01-24T11:22:17Z</time>
      </trkpt>
      <trkpt lat="45.91811" lon="4.76448">
        <ele>173</ele>
        <time>2018-01-24T11:22:18Z</time>
      </trkpt>
      <trkpt lat="45.91813" lon="4.7644">
        <ele>173</ele>
        <time>2018-01-24T11:22:19Z</time>
      </trkpt>
      <trkpt lat="45.91815" lon="4.76433">
        <ele>173</ele>
        <time>2018-01-24T11:22:20Z</time>
      </trkpt>
      <trkpt lat="45.91815" lon="4.76426">
        <ele>173</ele>
        <time>2018-01-24T11:22:21Z</time>
      </trkpt>
      <trkpt lat="45.91815" lon="4.76418">
        <ele>173</ele>
        <time>2018-01-24T11:22:22Z</time>
      </trkpt>
      <trkpt lat="45.91816" lon="4.76412">
        <ele>173</ele>
        <time>2018-01-24T11:22:23Z</time>
      </trkpt>
      <trkpt lat="45.91817" lon="4.76402">
        <ele>173</ele>
        <time>2018-01-24T11:22:24Z</time>
      </trkpt>
      <trkpt lat="45.91817" lon="4.76395">
        <ele>173</ele>
        <time>2018-01-24T11:22:25Z</time>
      </trkpt>
      <trkpt lat="45.91817" lon="4.76388">
        <ele>173</ele>
        <time>2018-01-24T11:22:26Z</time>
      </trkpt>
      <trkpt lat="45.91817" lon="4.76381">
        <ele>174</ele>
        <time>2018-01-24T11:22:27Z</time>
      </trkpt>
      <trkpt lat="45.91818" lon="4.76375">
        <ele>174</ele>
        <time>2018-01-24T11:22:28Z</time>
      </trkpt>
      <trkpt lat="45.91819" lon="4.76367">
        <ele>174</ele>
        <time>2018-01-24T11:22:29Z</time>
      </trkpt>
      <trkpt lat="45.91819" lon="4.7636">
        <ele>174</ele>
        <time>2018-01-24T11:22:30Z</time>
      </trkpt>
      <trkpt lat="45.91819" lon="4.76352">
        <ele>174</ele>
        <time>2018-01-24T11:22:31Z</time>
      </trkpt>
      <trkpt lat="45.9182" lon="4.76344">
        <ele>174</ele>
        <time>2018-01-24T11:22:32Z</time>
      </trkpt>
      <trkpt lat="45.9182" lon="4.76336">
        <ele>173</ele>
        <time>2018-01-24T11:22:33Z</time>
      </trkpt>
      <trkpt lat="45.91821" lon="4.76328">
        <ele>174</ele>
        <time>2018-01-24T11:22:34Z</time>
      </trkpt>
      <trkpt lat="45.91823" lon="4.76321">
        <ele>174</ele>
        <time>2018-01-24T11:22:35Z</time>
      </trkpt>
      <trkpt lat="45.91825" lon="4.76313">
        <ele>174</ele>
        <time>2018-01-24T11:22:36Z</time>
      </trkpt>
      <trkpt lat="45.91826" lon="4.76306">
        <ele>174</ele>
        <time>2018-01-24T11:22:37Z</time>
      </trkpt>
      <trkpt lat="45.91827" lon="4.76298">
        <ele>174</ele>
        <time>2018-01-24T11:22:38Z</time>
      </trkpt>
      <trkpt lat="45.91829" lon="4.7629">
        <ele>174</ele>
        <time>2018-01-24T11:22:39Z</time>
      </trkpt>
      <trkpt lat="45.91832" lon="4.76284">
        <ele>174</ele>
        <time>2018-01-24T11:22:40Z</time>
      </trkpt>
      <trkpt lat="45.91833" lon="4.76277">
        <ele>172</ele>
        <time>2018-01-24T11:22:41Z</time>
      </trkpt>
      <trkpt lat="45.91836" lon="4.76269">
        <ele>172</ele>
        <time>2018-01-24T11:22:42Z</time>
      </trkpt>
      <trkpt lat="45.91837" lon="4.76262">
        <ele>173</ele>
        <time>2018-01-24T11:22:43Z</time>
      </trkpt>
      <trkpt lat="45.91839" lon="4.76254">
        <ele>173</ele>
        <time>2018-01-24T11:22:44Z</time>
      </trkpt>
      <trkpt lat="45.91841" lon="4.76246">
        <ele>173</ele>
        <time>2018-01-24T11:22:45Z</time>
      </trkpt>
      <trkpt lat="45.91842" lon="4.76239">
        <ele>173</ele>
        <time>2018-01-24T11:22:46Z</time>
      </trkpt>
      <trkpt lat="45.91844" lon="4.76231">
        <ele>172</ele>
        <time>2018-01-24T11:22:47Z</time>
      </trkpt>
      <trkpt lat="45.91846" lon="4.76224">
        <ele>172</ele>
        <time>2018-01-24T11:22:48Z</time>
      </trkpt>
      <trkpt lat="45.91848" lon="4.76218">
        <ele>172</ele>
        <time>2018-01-24T11:22:49Z</time>
      </trkpt>
      <trkpt lat="45.91849" lon="4.76211">
        <ele>172</ele>
        <time>2018-01-24T11:22:50Z</time>
      </trkpt>
      <trkpt lat="45.9185" lon="4.76204">
        <ele>172</ele>
        <time>2018-01-24T11:22:51Z</time>
      </trkpt>
      <trkpt lat="45.91852" lon="4.76196">
        <ele>172</ele>
        <time>2018-01-24T11:22:52Z</time>
      </trkpt>
      <trkpt lat="45.91853" lon="4.76189">
        <ele>172</ele>
        <time>2018-01-24T11:22:53Z</time>
      </trkpt>
      <trkpt lat="45.91855" lon="4.76183">
        <ele>172</ele>
        <time>2018-01-24T11:22:54Z</time>
      </trkpt>
      <trkpt lat="45.91856" lon="4.76176">
        <ele>172</ele>
        <time>2018-01-24T11:22:55Z</time>
      </trkpt>
      <trkpt lat="45.91858" lon="4.76168">
        <ele>172</ele>
        <time>2018-01-24T11:22:56Z</time>
      </trkpt>
      <trkpt lat="45.91859" lon="4.76161">
        <ele>173</ele>
        <time>2018-01-24T11:22:57Z</time>
      </trkpt>
      <trkpt lat="45.91861" lon="4.76155">
        <ele>173</ele>
        <time>2018-01-24T11:22:58Z</time>
      </trkpt>
      <trkpt lat="45.91863" lon="4.76147">
        <ele>173</ele>
        <time>2018-01-24T11:22:59Z</time>
      </trkpt>
      <trkpt lat="45.91865" lon="4.7614">
        <ele>173</ele>
        <time>2018-01-24T11:23:00Z</time>
      </trkpt>
      <trkpt lat="45.91867" lon="4.76134">
        <ele>173</ele>
        <time>2018-01-24T11:23:01Z</time>
      </trkpt>
      <trkpt lat="45.9187" lon="4.76128">
        <ele>173</ele>
        <time>2018-01-24T11:23:02Z</time>
      </trkpt>
      <trkpt lat="45.91872" lon="4.76121">
        <ele>173</ele>
        <time>2018-01-24T11:23:03Z</time>
      </trkpt>
      <trkpt lat="45.91874" lon="4.76115">
        <ele>173</ele>
        <time>2018-01-24T11:23:04Z</time>
      </trkpt>
      <trkpt lat="45.91875" lon="4.76106">
        <ele>173</ele>
        <time>2018-01-24T11:23:05Z</time>
      </trkpt>
      <trkpt lat="45.91877" lon="4.76098">
        <ele>173</ele>
        <time>2018-01-24T11:23:06Z</time>
      </trkpt>
      <trkpt lat="45.9188" lon="4.76091">
        <ele>173</ele>
        <time>2018-01-24T11:23:07Z</time>
      </trkpt>
      <trkpt lat="45.91882" lon="4.76083">
        <ele>173</ele>
        <time>2018-01-24T11:23:08Z</time>
      </trkpt>
      <trkpt lat="45.91884" lon="4.76075">
        <ele>173</ele>
        <time>2018-01-24T11:23:09Z</time>
      </trkpt>
      <trkpt lat="45.91887" lon="4.76067">
        <ele>173</ele>
        <time>2018-01-24T11:23:10Z</time>
      </trkpt>
      <trkpt lat="45.91888" lon="4.76059">
        <ele>173</ele>
        <time>2018-01-24T11:23:11Z</time>
      </trkpt>
      <trkpt lat="45.9189" lon="4.76051">
        <ele>173</ele>
        <time>2018-01-24T11:23:12Z</time>
      </trkpt>
      <trkpt lat="45.91893" lon="4.76042">
        <ele>173</ele>
        <time>2018-01-24T11:23:13Z</time>
      </trkpt>
      <trkpt lat="45.91895" lon="4.76035">
        <ele>173</ele>
        <time>2018-01-24T11:23:14Z</time>
      </trkpt>
      <trkpt lat="45.91896" lon="4.76027">
        <ele>173</ele>
        <time>2018-01-24T11:23:15Z</time>
      </trkpt>
      <trkpt lat="45.91898" lon="4.76019">
        <ele>173</ele>
        <time>2018-01-24T11:23:16Z</time>
      </trkpt>
      <trkpt lat="45.91901" lon="4.76012">
        <ele>173</ele>
        <time>2018-01-24T11:23:17Z</time>
      </trkpt>
      <trkpt lat="45.91903" lon="4.76004">
        <ele>173</ele>
        <time>2018-01-24T11:23:18Z</time>
      </trkpt>
      <trkpt lat="45.91905" lon="4.75996">
        <ele>173</ele>
        <time>2018-01-24T11:23:19Z</time>
      </trkpt>
      <trkpt lat="45.91906" lon="4.75988">
        <ele>173</ele>
        <time>2018-01-24T11:23:20Z</time>
      </trkpt>
      <trkpt lat="45.91907" lon="4.7598">
        <ele>173</ele>
        <time>2018-01-24T11:23:21Z</time>
      </trkpt>
      <trkpt lat="45.91909" lon="4.75971">
        <ele>173</ele>
        <time>2018-01-24T11:23:22Z</time>
      </trkpt>
      <trkpt lat="45.91911" lon="4.75963">
        <ele>173</ele>
        <time>2018-01-24T11:23:23Z</time>
      </trkpt>
      <trkpt lat="45.91913" lon="4.75954">
        <ele>173</ele>
        <time>2018-01-24T11:23:24Z</time>
      </trkpt>
      <trkpt lat="45.91914" lon="4.75947">
        <ele>173</ele>
        <time>2018-01-24T11:23:25Z</time>
      </trkpt>
      <trkpt lat="45.91917" lon="4.75938">
        <ele>172</ele>
        <time>2018-01-24T11:23:26Z</time>
      </trkpt>
      <trkpt lat="45.9192" lon="4.75931">
        <ele>172</ele>
        <time>2018-01-24T11:23:27Z</time>
      </trkpt>
      <trkpt lat="45.91922" lon="4.75923">
        <ele>172</ele>
        <time>2018-01-24T11:23:28Z</time>
      </trkpt>
      <trkpt lat="45.91926" lon="4.75915">
        <ele>172</ele>
        <time>2018-01-24T11:23:29Z</time>
      </trkpt>
      <trkpt lat="45.91927" lon="4.75907">
        <ele>172</ele>
        <time>2018-01-24T11:23:30Z</time>
      </trkpt>
      <trkpt lat="45.91929" lon="4.759">
        <ele>172</ele>
        <time>2018-01-24T11:23:31Z</time>
      </trkpt>
      <trkpt lat="45.91932" lon="4.75893">
        <ele>172</ele>
        <time>2018-01-24T11:23:32Z</time>
      </trkpt>
      <trkpt lat="45.91934" lon="4.75887">
        <ele>172</ele>
        <time>2018-01-24T11:23:33Z</time>
      </trkpt>
      <trkpt lat="45.91937" lon="4.7588">
        <ele>172</ele>
        <time>2018-01-24T11:23:34Z</time>
      </trkpt>
      <trkpt lat="45.9194" lon="4.75872">
        <ele>172</ele>
        <time>2018-01-24T11:23:35Z</time>
      </trkpt>
      <trkpt lat="45.91945" lon="4.75864">
        <ele>172</ele>
        <time>2018-01-24T11:23:36Z</time>
      </trkpt>
      <trkpt lat="45.91949" lon="4.75858">
        <ele>172</ele>
        <time>2018-01-24T11:23:37Z</time>
      </trkpt>
      <trkpt lat="45.91953" lon="4.7585">
        <ele>172</ele>
        <time>2018-01-24T11:23:38Z</time>
      </trkpt>
      <trkpt lat="45.91957" lon="4.75843">
        <ele>172</ele>
        <time>2018-01-24T11:23:39Z</time>
      </trkpt>
      <trkpt lat="45.9196" lon="4.75837">
        <ele>172</ele>
        <time>2018-01-24T11:23:40Z</time>
      </trkpt>
      <trkpt lat="45.91964" lon="4.7583">
        <ele>173</ele>
        <time>2018-01-24T11:23:41Z</time>
      </trkpt>
      <trkpt lat="45.9197" lon="4.75822">
        <ele>173</ele>
        <time>2018-01-24T11:23:42Z</time>
      </trkpt>
      <trkpt lat="45.91974" lon="4.75814">
        <ele>173</ele>
        <time>2018-01-24T11:23:43Z</time>
      </trkpt>
      <trkpt lat="45.91978" lon="4.75806">
        <ele>173</ele>
        <time>2018-01-24T11:23:44Z</time>
      </trkpt>
      <trkpt lat="45.91983" lon="4.75797">
        <ele>173</ele>
        <time>2018-01-24T11:23:45Z</time>
      </trkpt>
      <trkpt lat="45.91987" lon="4.75789">
        <ele>173</ele>
        <time>2018-01-24T11:23:46Z</time>
      </trkpt>
      <trkpt lat="45.91991" lon="4.75782">
        <ele>173</ele>
        <time>2018-01-24T11:23:47Z</time>
      </trkpt>
      <trkpt lat="45.91996" lon="4.75774">
        <ele>174</ele>
        <time>2018-01-24T11:23:48Z</time>
      </trkpt>
      <trkpt lat="45.92" lon="4.75767">
        <ele>174</ele>
        <time>2018-01-24T11:23:49Z</time>
      </trkpt>
      <trkpt lat="45.92003" lon="4.7576">
        <ele>174</ele>
        <time>2018-01-24T11:23:50Z</time>
      </trkpt>
      <trkpt lat="45.92008" lon="4.75753">
        <ele>174</ele>
        <time>2018-01-24T11:23:51Z</time>
      </trkpt>
      <trkpt lat="45.92012" lon="4.75746">
        <ele>174</ele>
        <time>2018-01-24T11:23:52Z</time>
      </trkpt>
      <trkpt lat="45.92015" lon="4.7574">
        <ele>174</ele>
        <time>2018-01-24T11:23:53Z</time>
      </trkpt>
      <trkpt lat="45.92018" lon="4.75733">
        <ele>175</ele>
        <time>2018-01-24T11:23:54Z</time>
      </trkpt>
      <trkpt lat="45.92021" lon="4.75727">
        <ele>175</ele>
        <time>2018-01-24T11:23:55Z</time>
      </trkpt>
      <trkpt lat="45.92025" lon="4.7572">
        <ele>175</ele>
        <time>2018-01-24T11:23:56Z</time>
      </trkpt>
      <trkpt lat="45.92028" lon="4.75714">
        <ele>175</ele>
        <time>2018-01-24T11:23:57Z</time>
      </trkpt>
      <trkpt lat="45.92032" lon="4.75707">
        <ele>175</ele>
        <time>2018-01-24T11:23:58Z</time>
      </trkpt>
      <trkpt lat="45.92036" lon="4.75701">
        <ele>175</ele>
        <time>2018-01-24T11:23:59Z</time>
      </trkpt>
      <trkpt lat="45.92039" lon="4.75694">
        <ele>175</ele>
        <time>2018-01-24T11:24:00Z</time>
      </trkpt>
      <trkpt lat="45.92043" lon="4.75688">
        <ele>175</ele>
        <time>2018-01-24T11:24:01Z</time>
      </trkpt>
      <trkpt lat="45.92046" lon="4.75683">
        <ele>175</ele>
        <time>2018-01-24T11:24:02Z</time>
      </trkpt>
      <trkpt lat="45.9205" lon="4.75677">
        <ele>175</ele>
        <time>2018-01-24T11:24:03Z</time>
      </trkpt>
      <trkpt lat="45.92053" lon="4.7567">
        <ele>175</ele>
        <time>2018-01-24T11:24:04Z</time>
      </trkpt>
      <trkpt lat="45.92056" lon="4.75666">
        <ele>175</ele>
        <time>2018-01-24T11:24:05Z</time>
      </trkpt>
      <trkpt lat="45.92059" lon="4.7566">
        <ele>175</ele>
        <time>2018-01-24T11:24:06Z</time>
      </trkpt>
      <trkpt lat="45.92062" lon="4.75654">
        <ele>175</ele>
        <time>2018-01-24T11:24:07Z</time>
      </trkpt>
      <trkpt lat="45.92066" lon="4.75648">
        <ele>175</ele>
        <time>2018-01-24T11:24:08Z</time>
      </trkpt>
      <trkpt lat="45.92069" lon="4.75641">
        <ele>175</ele>
        <time>2018-01-24T11:24:09Z</time>
      </trkpt>
      <trkpt lat="45.92073" lon="4.75635">
        <ele>175</ele>
        <time>2018-01-24T11:24:10Z</time>
      </trkpt>
      <trkpt lat="45.92077" lon="4.75629">
        <ele>175</ele>
        <time>2018-01-24T11:24:11Z</time>
      </trkpt>
      <trkpt lat="45.9208" lon="4.75625">
        <ele>175</ele>
        <time>2018-01-24T11:24:12Z</time>
      </trkpt>
      <trkpt lat="45.92083" lon="4.75618">
        <ele>175</ele>
        <time>2018-01-24T11:24:13Z</time>
      </trkpt>
      <trkpt lat="45.92088" lon="4.75612">
        <ele>174</ele>
        <time>2018-01-24T11:24:14Z</time>
      </trkpt>
      <trkpt lat="45.92091" lon="4.75605">
        <ele>174</ele>
        <time>2018-01-24T11:24:15Z</time>
      </trkpt>
      <trkpt lat="45.92094" lon="4.756">
        <ele>174</ele>
        <time>2018-01-24T11:24:16Z</time>
      </trkpt>
      <trkpt lat="45.92096" lon="4.75594">
        <ele>174</ele>
        <time>2018-01-24T11:24:17Z</time>
      </trkpt>
      <trkpt lat="45.92099" lon="4.75588">
        <ele>174</ele>
        <time>2018-01-24T11:24:18Z</time>
      </trkpt>
      <trkpt lat="45.92102" lon="4.75583">
        <ele>174</ele>
        <time>2018-01-24T11:24:19Z</time>
      </trkpt>
      <trkpt lat="45.92106" lon="4.75577">
        <ele>174</ele>
        <time>2018-01-24T11:24:20Z</time>
      </trkpt>
      <trkpt lat="45.92109" lon="4.7557">
        <ele>174</ele>
        <time>2018-01-24T11:24:21Z</time>
      </trkpt>
      <trkpt lat="45.92113" lon="4.75564">
        <ele>174</ele>
        <time>2018-01-24T11:24:22Z</time>
      </trkpt>
      <trkpt lat="45.92117" lon="4.75558">
        <ele>174</ele>
        <time>2018-01-24T11:24:23Z</time>
      </trkpt>
      <trkpt lat="45.92121" lon="4.75552">
        <ele>174</ele>
        <time>2018-01-24T11:24:24Z</time>
      </trkpt>
      <trkpt lat="45.92123" lon="4.75545">
        <ele>174</ele>
        <time>2018-01-24T11:24:25Z</time>
      </trkpt>
      <trkpt lat="45.92127" lon="4.75539">
        <ele>174</ele>
        <time>2018-01-24T11:24:26Z</time>
      </trkpt>
      <trkpt lat="45.92131" lon="4.75533">
        <ele>174</ele>
        <time>2018-01-24T11:24:27Z</time>
      </trkpt>
      <trkpt lat="45.92134" lon="4.75527">
        <ele>174</ele>
        <time>2018-01-24T11:24:28Z</time>
      </trkpt>
      <trkpt lat="45.92138" lon="4.75521">
        <ele>174</ele>
        <time>2018-01-24T11:24:29Z</time>
      </trkpt>
      <trkpt lat="45.92142" lon="4.75514">
        <ele>174</ele>
        <time>2018-01-24T11:24:30Z</time>
      </trkpt>
      <trkpt lat="45.92145" lon="4.75507">
        <ele>175</ele>
        <time>2018-01-24T11:24:31Z</time>
      </trkpt>
      <trkpt lat="45.92147" lon="4.75499">
        <ele>175</ele>
        <time>2018-01-24T11:24:32Z</time>
      </trkpt>
      <trkpt lat="45.9215" lon="4.75492">
        <ele>175</ele>
        <time>2018-01-24T11:24:33Z</time>
      </trkpt>
      <trkpt lat="45.92152" lon="4.75485">
        <ele>176</ele>
        <time>2018-01-24T11:24:34Z</time>
      </trkpt>
      <trkpt lat="45.92155" lon="4.75478">
        <ele>176</ele>
        <time>2018-01-24T11:24:35Z</time>
      </trkpt>
      <trkpt lat="45.92158" lon="4.75471">
        <ele>176</ele>
        <time>2018-01-24T11:24:36Z</time>
      </trkpt>
      <trkpt lat="45.92161" lon="4.75463">
        <ele>176</ele>
        <time>2018-01-24T11:24:37Z</time>
      </trkpt>
      <trkpt lat="45.92164" lon="4.75455">
        <ele>176</ele>
        <time>2018-01-24T11:24:38Z</time>
      </trkpt>
      <trkpt lat="45.92167" lon="4.75447">
        <ele>177</ele>
        <time>2018-01-24T11:24:39Z</time>
      </trkpt>
      <trkpt lat="45.9217" lon="4.7544">
        <ele>177</ele>
        <time>2018-01-24T11:24:40Z</time>
      </trkpt>
      <trkpt lat="45.92173" lon="4.75432">
        <ele>177</ele>
        <time>2018-01-24T11:24:41Z</time>
      </trkpt>
      <trkpt lat="45.92175" lon="4.75426">
        <ele>177</ele>
        <time>2018-01-24T11:24:42Z</time>
      </trkpt>
      <trkpt lat="45.92178" lon="4.75419">
        <ele>177</ele>
        <time>2018-01-24T11:24:43Z</time>
      </trkpt>
      <trkpt lat="45.9218" lon="4.75413">
        <ele>177</ele>
        <time>2018-01-24T11:24:44Z</time>
      </trkpt>
      <trkpt lat="45.92183" lon="4.75407">
        <ele>177</ele>
        <time>2018-01-24T11:24:45Z</time>
      </trkpt>
      <trkpt lat="45.92185" lon="4.75401">
        <ele>177</ele>
        <time>2018-01-24T11:24:46Z</time>
      </trkpt>
      <trkpt lat="45.92187" lon="4.75394">
        <ele>177</ele>
        <time>2018-01-24T11:24:47Z</time>
      </trkpt>
      <trkpt lat="45.9219" lon="4.75388">
        <ele>177</ele>
        <time>2018-01-24T11:24:48Z</time>
      </trkpt>
      <trkpt lat="45.92193" lon="4.75382">
        <ele>177</ele>
        <time>2018-01-24T11:24:49Z</time>
      </trkpt>
      <trkpt lat="45.92196" lon="4.75375">
        <ele>177</ele>
        <time>2018-01-24T11:24:50Z</time>
      </trkpt>
      <trkpt lat="45.92198" lon="4.75367">
        <ele>177</ele>
        <time>2018-01-24T11:24:51Z</time>
      </trkpt>
      <trkpt lat="45.92201" lon="4.75362">
        <ele>177</ele>
        <time>2018-01-24T11:24:52Z</time>
      </trkpt>
      <trkpt lat="45.92203" lon="4.75354">
        <ele>177</ele>
        <time>2018-01-24T11:24:53Z</time>
      </trkpt>
      <trkpt lat="45.92205" lon="4.75347">
        <ele>177</ele>
        <time>2018-01-24T11:24:54Z</time>
      </trkpt>
      <trkpt lat="45.92207" lon="4.7534">
        <ele>177</ele>
        <time>2018-01-24T11:24:55Z</time>
      </trkpt>
      <trkpt lat="45.92208" lon="4.75332">
        <ele>176</ele>
        <time>2018-01-24T11:24:56Z</time>
      </trkpt>
      <trkpt lat="45.92209" lon="4.75325">
        <ele>176</ele>
        <time>2018-01-24T11:24:57Z</time>
      </trkpt>
      <trkpt lat="45.92209" lon="4.75316">
        <ele>176</ele>
        <time>2018-01-24T11:24:58Z</time>
      </trkpt>
      <trkpt lat="45.92211" lon="4.75308">
        <ele>176</ele>
        <time>2018-01-24T11:24:59Z</time>
      </trkpt>
      <trkpt lat="45.92211" lon="4.753">
        <ele>176</ele>
        <time>2018-01-24T11:25:00Z</time>
      </trkpt>
      <trkpt lat="45.92211" lon="4.75291">
        <ele>176</ele>
        <time>2018-01-24T11:25:01Z</time>
      </trkpt>
      <trkpt lat="45.92211" lon="4.75283">
        <ele>176</ele>
        <time>2018-01-24T11:25:02Z</time>
      </trkpt>
      <trkpt lat="45.92211" lon="4.75275">
        <ele>176</ele>
        <time>2018-01-24T11:25:03Z</time>
      </trkpt>
      <trkpt lat="45.92212" lon="4.75266">
        <ele>176</ele>
        <time>2018-01-24T11:25:04Z</time>
      </trkpt>
      <trkpt lat="45.92212" lon="4.75257">
        <ele>175</ele>
        <time>2018-01-24T11:25:05Z</time>
      </trkpt>
      <trkpt lat="45.92212" lon="4.75249">
        <ele>175</ele>
        <time>2018-01-24T11:25:06Z</time>
      </trkpt>
      <trkpt lat="45.92212" lon="4.75239">
        <ele>175</ele>
        <time>2018-01-24T11:25:07Z</time>
      </trkpt>
      <trkpt lat="45.92213" lon="4.7523">
        <ele>175</ele>
        <time>2018-01-24T11:25:08Z</time>
      </trkpt>
      <trkpt lat="45.92214" lon="4.75221">
        <ele>175</ele>
        <time>2018-01-24T11:25:09Z</time>
      </trkpt>
      <trkpt lat="45.92215" lon="4.75213">
        <ele>175</ele>
        <time>2018-01-24T11:25:10Z</time>
      </trkpt>
      <trkpt lat="45.92216" lon="4.75204">
        <ele>175</ele>
        <time>2018-01-24T11:25:11Z</time>
      </trkpt>
      <trkpt lat="45.92218" lon="4.75195">
        <ele>175</ele>
        <time>2018-01-24T11:25:12Z</time>
      </trkpt>
      <trkpt lat="45.9222" lon="4.75187">
        <ele>175</ele>
        <time>2018-01-24T11:25:13Z</time>
      </trkpt>
      <trkpt lat="45.92223" lon="4.75179">
        <ele>175</ele>
        <time>2018-01-24T11:25:14Z</time>
      </trkpt>
      <trkpt lat="45.92226" lon="4.75171">
        <ele>175</ele>
        <time>2018-01-24T11:25:15Z</time>
      </trkpt>
      <trkpt lat="45.9223" lon="4.75162">
        <ele>174</ele>
        <time>2018-01-24T11:25:16Z</time>
      </trkpt>
      <trkpt lat="45.92233" lon="4.75155">
        <ele>174</ele>
        <time>2018-01-24T11:25:17Z</time>
      </trkpt>
      <trkpt lat="45.92237" lon="4.75148">
        <ele>174</ele>
        <time>2018-01-24T11:25:18Z</time>
      </trkpt>
      <trkpt lat="45.92241" lon="4.75143">
        <ele>174</ele>
        <time>2018-01-24T11:25:19Z</time>
      </trkpt>
      <trkpt lat="45.92245" lon="4.75137">
        <ele>174</ele>
        <time>2018-01-24T11:25:20Z</time>
      </trkpt>
      <trkpt lat="45.92249" lon="4.75132">
        <ele>174</ele>
        <time>2018-01-24T11:25:21Z</time>
      </trkpt>
      <trkpt lat="45.92255" lon="4.75125">
        <ele>174</ele>
        <time>2018-01-24T11:25:22Z</time>
      </trkpt>
      <trkpt lat="45.92259" lon="4.7512">
        <ele>174</ele>
        <time>2018-01-24T11:25:23Z</time>
      </trkpt>
      <trkpt lat="45.92264" lon="4.75116">
        <ele>174</ele>
        <time>2018-01-24T11:25:24Z</time>
      </trkpt>
      <trkpt lat="45.92268" lon="4.75111">
        <ele>174</ele>
        <time>2018-01-24T11:25:25Z</time>
      </trkpt>
      <trkpt lat="45.92273" lon="4.75106">
        <ele>174</ele>
        <time>2018-01-24T11:25:26Z</time>
      </trkpt>
      <trkpt lat="45.92278" lon="4.75101">
        <ele>173</ele>
        <time>2018-01-24T11:25:27Z</time>
      </trkpt>
      <trkpt lat="45.92283" lon="4.75095">
        <ele>173</ele>
        <time>2018-01-24T11:25:28Z</time>
      </trkpt>
      <trkpt lat="45.92287" lon="4.75088">
        <ele>173</ele>
        <time>2018-01-24T11:25:29Z</time>
      </trkpt>
      <trkpt lat="45.92293" lon="4.75083">
        <ele>173</ele>
        <time>2018-01-24T11:25:30Z</time>
      </trkpt>
      <trkpt lat="45.92299" lon="4.75077">
        <ele>172</ele>
        <time>2018-01-24T11:25:31Z</time>
      </trkpt>
      <trkpt lat="45.92303" lon="4.75071">
        <ele>172</ele>
        <time>2018-01-24T11:25:32Z</time>
      </trkpt>
      <trkpt lat="45.92308" lon="4.75064">
        <ele>172</ele>
        <time>2018-01-24T11:25:33Z</time>
      </trkpt>
      <trkpt lat="45.92313" lon="4.75059">
        <ele>172</ele>
        <time>2018-01-24T11:25:34Z</time>
      </trkpt>
      <trkpt lat="45.92318" lon="4.75053">
        <ele>172</ele>
        <time>2018-01-24T11:25:35Z</time>
      </trkpt>
      <trkpt lat="45.92321" lon="4.75045">
        <ele>172</ele>
        <time>2018-01-24T11:25:36Z</time>
      </trkpt>
      <trkpt lat="45.92325" lon="4.75039">
        <ele>171</ele>
        <time>2018-01-24T11:25:37Z</time>
      </trkpt>
      <trkpt lat="45.92328" lon="4.75031">
        <ele>171</ele>
        <time>2018-01-24T11:25:38Z</time>
      </trkpt>
      <trkpt lat="45.92331" lon="4.75025">
        <ele>171</ele>
        <time>2018-01-24T11:25:39Z</time>
      </trkpt>
      <trkpt lat="45.92334" lon="4.75016">
        <ele>170</ele>
        <time>2018-01-24T11:25:40Z</time>
      </trkpt>
      <trkpt lat="45.92337" lon="4.75009">
        <ele>170</ele>
        <time>2018-01-24T11:25:41Z</time>
      </trkpt>
      <trkpt lat="45.9234" lon="4.75003">
        <ele>170</ele>
        <time>2018-01-24T11:25:42Z</time>
      </trkpt>
      <trkpt lat="45.92342" lon="4.74996">
        <ele>170</ele>
        <time>2018-01-24T11:25:43Z</time>
      </trkpt>
      <trkpt lat="45.92345" lon="4.74988">
        <ele>170</ele>
        <time>2018-01-24T11:25:44Z</time>
      </trkpt>
      <trkpt lat="45.92348" lon="4.74981">
        <ele>170</ele>
        <time>2018-01-24T11:25:45Z</time>
      </trkpt>
      <trkpt lat="45.92351" lon="4.74973">
        <ele>170</ele>
        <time>2018-01-24T11:25:46Z</time>
      </trkpt>
      <trkpt lat="45.92355" lon="4.74965">
        <ele>170</ele>
        <time>2018-01-24T11:25:47Z</time>
      </trkpt>
      <trkpt lat="45.92358" lon="4.74957">
        <ele>170</ele>
        <time>2018-01-24T11:25:48Z</time>
      </trkpt>
      <trkpt lat="45.92362" lon="4.74949">
        <ele>170</ele>
        <time>2018-01-24T11:25:49Z</time>
      </trkpt>
      <trkpt lat="45.92365" lon="4.74941">
        <ele>170</ele>
        <time>2018-01-24T11:25:50Z</time>
      </trkpt>
      <trkpt lat="45.92368" lon="4.74931">
        <ele>170</ele>
        <time>2018-01-24T11:25:51Z</time>
      </trkpt>
      <trkpt lat="45.92372" lon="4.74922">
        <ele>170</ele>
        <time>2018-01-24T11:25:52Z</time>
      </trkpt>
      <trkpt lat="45.92375" lon="4.74914">
        <ele>171</ele>
        <time>2018-01-24T11:25:53Z</time>
      </trkpt>
      <trkpt lat="45.92377" lon="4.74907">
        <ele>171</ele>
        <time>2018-01-24T11:25:54Z</time>
      </trkpt>
      <trkpt lat="45.92383" lon="4.74898">
        <ele>171</ele>
        <time>2018-01-24T11:25:55Z</time>
      </trkpt>
      <trkpt lat="45.92385" lon="4.74891">
        <ele>171</ele>
        <time>2018-01-24T11:25:56Z</time>
      </trkpt>
      <trkpt lat="45.92388" lon="4.74883">
        <ele>171</ele>
        <time>2018-01-24T11:25:57Z</time>
      </trkpt>
      <trkpt lat="45.92392" lon="4.74875">
        <ele>171</ele>
        <time>2018-01-24T11:25:58Z</time>
      </trkpt>
      <trkpt lat="45.92395" lon="4.74866">
        <ele>171</ele>
        <time>2018-01-24T11:25:59Z</time>
      </trkpt>
      <trkpt lat="45.92397" lon="4.74859">
        <ele>171</ele>
        <time>2018-01-24T11:26:00Z</time>
      </trkpt>
      <trkpt lat="45.92399" lon="4.74852">
        <ele>171</ele>
        <time>2018-01-24T11:26:01Z</time>
      </trkpt>
      <trkpt lat="45.92401" lon="4.74843">
        <ele>171</ele>
        <time>2018-01-24T11:26:02Z</time>
      </trkpt>
      <trkpt lat="45.92403" lon="4.74834">
        <ele>171</ele>
        <time>2018-01-24T11:26:03Z</time>
      </trkpt>
      <trkpt lat="45.92405" lon="4.74826">
        <ele>171</ele>
        <time>2018-01-24T11:26:04Z</time>
      </trkpt>
      <trkpt lat="45.92407" lon="4.74818">
        <ele>171</ele>
        <time>2018-01-24T11:26:05Z</time>
      </trkpt>
      <trkpt lat="45.92409" lon="4.7481">
        <ele>171</ele>
        <time>2018-01-24T11:26:06Z</time>
      </trkpt>
      <trkpt lat="45.92411" lon="4.74801">
        <ele>171</ele>
        <time>2018-01-24T11:26:07Z</time>
      </trkpt>
      <trkpt lat="45.92413" lon="4.74792">
        <ele>171</ele>
        <time>2018-01-24T11:26:08Z</time>
      </trkpt>
      <trkpt lat="45.92415" lon="4.74783">
        <ele>171</ele>
        <time>2018-01-24T11:26:09Z</time>
      </trkpt>
      <trkpt lat="45.92417" lon="4.74774">
        <ele>171</ele>
        <time>2018-01-24T11:26:10Z</time>
      </trkpt>
      <trkpt lat="45.9242" lon="4.74764">
        <ele>171</ele>
        <time>2018-01-24T11:26:11Z</time>
      </trkpt>
      <trkpt lat="45.92422" lon="4.74756">
        <ele>172</ele>
        <time>2018-01-24T11:26:12Z</time>
      </trkpt>
      <trkpt lat="45.92424" lon="4.74747">
        <ele>172</ele>
        <time>2018-01-24T11:26:13Z</time>
      </trkpt>
      <trkpt lat="45.92426" lon="4.74738">
        <ele>171</ele>
        <time>2018-01-24T11:26:14Z</time>
      </trkpt>
      <trkpt lat="45.92429" lon="4.74731">
        <ele>171</ele>
        <time>2018-01-24T11:26:15Z</time>
      </trkpt>
      <trkpt lat="45.92431" lon="4.74723">
        <ele>171</ele>
        <time>2018-01-24T11:26:16Z</time>
      </trkpt>
      <trkpt lat="45.92433" lon="4.74716">
        <ele>171</ele>
        <time>2018-01-24T11:26:17Z</time>
      </trkpt>
      <trkpt lat="45.92436" lon="4.74708">
        <ele>171</ele>
        <time>2018-01-24T11:26:18Z</time>
      </trkpt>
      <trkpt lat="45.92439" lon="4.74702">
        <ele>171</ele>
        <time>2018-01-24T11:26:19Z</time>
      </trkpt>
      <trkpt lat="45.92441" lon="4.74696">
        <ele>171</ele>
        <time>2018-01-24T11:26:20Z</time>
      </trkpt>
      <trkpt lat="45.92444" lon="4.74688">
        <ele>171</ele>
        <time>2018-01-24T11:26:21Z</time>
      </trkpt>
      <trkpt lat="45.92448" lon="4.74682">
        <ele>171</ele>
        <time>2018-01-24T11:26:22Z</time>
      </trkpt>
      <trkpt lat="45.92451" lon="4.74675">
        <ele>171</ele>
        <time>2018-01-24T11:26:23Z</time>
      </trkpt>
      <trkpt lat="45.92454" lon="4.74669">
        <ele>171</ele>
        <time>2018-01-24T11:26:24Z</time>
      </trkpt>
      <trkpt lat="45.92458" lon="4.74661">
        <ele>171</ele>
        <time>2018-01-24T11:26:25Z</time>
      </trkpt>
      <trkpt lat="45.92461" lon="4.74654">
        <ele>171</ele>
        <time>2018-01-24T11:26:26Z</time>
      </trkpt>
      <trkpt lat="45.92465" lon="4.74648">
        <ele>171</ele>
        <time>2018-01-24T11:26:27Z</time>
      </trkpt>
      <trkpt lat="45.92469" lon="4.74642">
        <ele>171</ele>
        <time>2018-01-24T11:26:28Z</time>
      </trkpt>
      <trkpt lat="45.92474" lon="4.74636">
        <ele>171</ele>
        <time>2018-01-24T11:26:29Z</time>
      </trkpt>
      <trkpt lat="45.92479" lon="4.7463">
        <ele>171</ele>
        <time>2018-01-24T11:26:30Z</time>
      </trkpt>
      <trkpt lat="45.92485" lon="4.74623">
        <ele>171</ele>
        <time>2018-01-24T11:26:31Z</time>
      </trkpt>
      <trkpt lat="45.9249" lon="4.74616">
        <ele>171</ele>
        <time>2018-01-24T11:26:32Z</time>
      </trkpt>
      <trkpt lat="45.92495" lon="4.7461">
        <ele>171</ele>
        <time>2018-01-24T11:26:33Z</time>
      </trkpt>
      <trkpt lat="45.925" lon="4.74604">
        <ele>171</ele>
        <time>2018-01-24T11:26:34Z</time>
      </trkpt>
      <trkpt lat="45.92505" lon="4.74597">
        <ele>171</ele>
        <time>2018-01-24T11:26:35Z</time>
      </trkpt>
      <trkpt lat="45.9251" lon="4.74591">
        <ele>171</ele>
        <time>2018-01-24T11:26:36Z</time>
      </trkpt>
      <trkpt lat="45.92515" lon="4.74585">
        <ele>171</ele>
        <time>2018-01-24T11:26:37Z</time>
      </trkpt>
      <trkpt lat="45.92521" lon="4.74579">
        <ele>171</ele>
        <time>2018-01-24T11:26:38Z</time>
      </trkpt>
      <trkpt lat="45.92524" lon="4.74571">
        <ele>171</ele>
        <time>2018-01-24T11:26:39Z</time>
      </trkpt>
      <trkpt lat="45.92528" lon="4.74566">
        <ele>171</ele>
        <time>2018-01-24T11:26:40Z</time>
      </trkpt>
      <trkpt lat="45.92533" lon="4.74559">
        <ele>171</ele>
        <time>2018-01-24T11:26:41Z</time>
      </trkpt>
      <trkpt lat="45.92537" lon="4.74552">
        <ele>171</ele>
        <time>2018-01-24T11:26:42Z</time>
      </trkpt>
      <trkpt lat="45.92542" lon="4.74545">
        <ele>171</ele>
        <time>2018-01-24T11:26:43Z</time>
      </trkpt>
      <trkpt lat="45.92546" lon="4.7454">
        <ele>170</ele>
        <time>2018-01-24T11:26:44Z</time>
      </trkpt>
      <trkpt lat="45.9255" lon="4.74533">
        <ele>170</ele>
        <time>2018-01-24T11:26:45Z</time>
      </trkpt>
      <trkpt lat="45.92554" lon="4.74527">
        <ele>170</ele>
        <time>2018-01-24T11:26:46Z</time>
      </trkpt>
      <trkpt lat="45.92558" lon="4.74521">
        <ele>170</ele>
        <time>2018-01-24T11:26:47Z</time>
      </trkpt>
      <trkpt lat="45.92562" lon="4.74514">
        <ele>170</ele>
        <time>2018-01-24T11:26:48Z</time>
      </trkpt>
      <trkpt lat="45.92565" lon="4.74507">
        <ele>170</ele>
        <time>2018-01-24T11:26:49Z</time>
      </trkpt>
      <trkpt lat="45.92569" lon="4.745">
        <ele>170</ele>
        <time>2018-01-24T11:26:50Z</time>
      </trkpt>
      <trkpt lat="45.92574" lon="4.74493">
        <ele>170</ele>
        <time>2018-01-24T11:26:51Z</time>
      </trkpt>
      <trkpt lat="45.92578" lon="4.74486">
        <ele>170</ele>
        <time>2018-01-24T11:26:52Z</time>
      </trkpt>
      <trkpt lat="45.92582" lon="4.74478">
        <ele>170</ele>
        <time>2018-01-24T11:26:53Z</time>
      </trkpt>
      <trkpt lat="45.92586" lon="4.74471">
        <ele>170</ele>
        <time>2018-01-24T11:26:54Z</time>
      </trkpt>
      <trkpt lat="45.9259" lon="4.74463">
        <ele>170</ele>
        <time>2018-01-24T11:26:55Z</time>
      </trkpt>
      <trkpt lat="45.92593" lon="4.74456">
        <ele>170</ele>
        <time>2018-01-24T11:26:56Z</time>
      </trkpt>
      <trkpt lat="45.92597" lon="4.74449">
        <ele>170</ele>
        <time>2018-01-24T11:26:57Z</time>
      </trkpt>
      <trkpt lat="45.92601" lon="4.74442">
        <ele>170</ele>
        <time>2018-01-24T11:26:58Z</time>
      </trkpt>
      <trkpt lat="45.92605" lon="4.74435">
        <ele>170</ele>
        <time>2018-01-24T11:26:59Z</time>
      </trkpt>
      <trkpt lat="45.92609" lon="4.74428">
        <ele>170</ele>
        <time>2018-01-24T11:27:00Z</time>
      </trkpt>
      <trkpt lat="45.92612" lon="4.74422">
        <ele>170</ele>
        <time>2018-01-24T11:27:01Z</time>
      </trkpt>
      <trkpt lat="45.92616" lon="4.74415">
        <ele>170</ele>
        <time>2018-01-24T11:27:02Z</time>
      </trkpt>
      <trkpt lat="45.9262" lon="4.74408">
        <ele>170</ele>
        <time>2018-01-24T11:27:03Z</time>
      </trkpt>
      <trkpt lat="45.92623" lon="4.74402">
        <ele>170</ele>
        <time>2018-01-24T11:27:04Z</time>
      </trkpt>
      <trkpt lat="45.92626" lon="4.74395">
        <ele>170</ele>
        <time>2018-01-24T11:27:05Z</time>
      </trkpt>
      <trkpt lat="45.9263" lon="4.74388">
        <ele>170</ele>
        <time>2018-01-24T11:27:06Z</time>
      </trkpt>
      <trkpt lat="45.92634" lon="4.74381">
        <ele>170</ele>
        <time>2018-01-24T11:27:07Z</time>
      </trkpt>
      <trkpt lat="45.92638" lon="4.74375">
        <ele>171</ele>
        <time>2018-01-24T11:27:08Z</time>
      </trkpt>
      <trkpt lat="45.92643" lon="4.74368">
        <ele>171</ele>
        <time>2018-01-24T11:27:09Z</time>
      </trkpt>
      <trkpt lat="45.92647" lon="4.74361">
        <ele>171</ele>
        <time>2018-01-24T11:27:10Z</time>
      </trkpt>
      <trkpt lat="45.9265" lon="4.74356">
        <ele>171</ele>
        <time>2018-01-24T11:27:11Z</time>
      </trkpt>
      <trkpt lat="45.92654" lon="4.74349">
        <ele>171</ele>
        <time>2018-01-24T11:27:12Z</time>
      </trkpt>
      <trkpt lat="45.92658" lon="4.74342">
        <ele>171</ele>
        <time>2018-01-24T11:27:13Z</time>
      </trkpt>
      <trkpt lat="45.92661" lon="4.74336">
        <ele>171</ele>
        <time>2018-01-24T11:27:14Z</time>
      </trkpt>
      <trkpt lat="45.92664" lon="4.7433">
        <ele>171</ele>
        <time>2018-01-24T11:27:15Z</time>
      </trkpt>
      <trkpt lat="45.92667" lon="4.74324">
        <ele>171</ele>
        <time>2018-01-24T11:27:16Z</time>
      </trkpt>
      <trkpt lat="45.92671" lon="4.74318">
        <ele>171</ele>
        <time>2018-01-24T11:27:17Z</time>
      </trkpt>
      <trkpt lat="45.92674" lon="4.74312">
        <ele>171</ele>
        <time>2018-01-24T11:27:18Z</time>
      </trkpt>
      <trkpt lat="45.92677" lon="4.74306">
        <ele>171</ele>
        <time>2018-01-24T11:27:19Z</time>
      </trkpt>
      <trkpt lat="45.9268" lon="4.743">
        <ele>171</ele>
        <time>2018-01-24T11:27:20Z</time>
      </trkpt>
      <trkpt lat="45.92683" lon="4.74294">
        <ele>171</ele>
        <time>2018-01-24T11:27:21Z</time>
      </trkpt>
      <trkpt lat="45.92687" lon="4.74287">
        <ele>171</ele>
        <time>2018-01-24T11:27:22Z</time>
      </trkpt>
      <trkpt lat="45.92692" lon="4.7428">
        <ele>171</ele>
        <time>2018-01-24T11:27:23Z</time>
      </trkpt>
      <trkpt lat="45.92696" lon="4.74274">
        <ele>171</ele>
        <time>2018-01-24T11:27:24Z</time>
      </trkpt>
      <trkpt lat="45.927" lon="4.74267">
        <ele>171</ele>
        <time>2018-01-24T11:27:25Z</time>
      </trkpt>
      <trkpt lat="45.92704" lon="4.74259">
        <ele>171</ele>
        <time>2018-01-24T11:27:26Z</time>
      </trkpt>
      <trkpt lat="45.92709" lon="4.7425">
        <ele>171</ele>
        <time>2018-01-24T11:27:27Z</time>
      </trkpt>
      <trkpt lat="45.92714" lon="4.74244">
        <ele>171</ele>
        <time>2018-01-24T11:27:28Z</time>
      </trkpt>
      <trkpt lat="45.92718" lon="4.74238">
        <ele>171</ele>
        <time>2018-01-24T11:27:29Z</time>
      </trkpt>
      <trkpt lat="45.92723" lon="4.7423">
        <ele>171</ele>
        <time>2018-01-24T11:27:30Z</time>
      </trkpt>
      <trkpt lat="45.92727" lon="4.74224">
        <ele>171</ele>
        <time>2018-01-24T11:27:31Z</time>
      </trkpt>
      <trkpt lat="45.92732" lon="4.74218">
        <ele>171</ele>
        <time>2018-01-24T11:27:32Z</time>
      </trkpt>
      <trkpt lat="45.92736" lon="4.7421">
        <ele>171</ele>
        <time>2018-01-24T11:27:33Z</time>
      </trkpt>
      <trkpt lat="45.9274" lon="4.74204">
        <ele>171</ele>
        <time>2018-01-24T11:27:34Z</time>
      </trkpt>
      <trkpt lat="45.92744" lon="4.74198">
        <ele>171</ele>
        <time>2018-01-24T11:27:35Z</time>
      </trkpt>
      <trkpt lat="45.92748" lon="4.74193">
        <ele>171</ele>
        <time>2018-01-24T11:27:36Z</time>
      </trkpt>
      <trkpt lat="45.92753" lon="4.74186">
        <ele>172</ele>
        <time>2018-01-24T11:27:37Z</time>
      </trkpt>
      <trkpt lat="45.92758" lon="4.74181">
        <ele>172</ele>
        <time>2018-01-24T11:27:38Z</time>
      </trkpt>
      <trkpt lat="45.92764" lon="4.74175">
        <ele>172</ele>
        <time>2018-01-24T11:27:39Z</time>
      </trkpt>
      <trkpt lat="45.92769" lon="4.74169">
        <ele>172</ele>
        <time>2018-01-24T11:27:40Z</time>
      </trkpt>
      <trkpt lat="45.92774" lon="4.74164">
        <ele>172</ele>
        <time>2018-01-24T11:27:41Z</time>
      </trkpt>
      <trkpt lat="45.92779" lon="4.74158">
        <ele>172</ele>
        <time>2018-01-24T11:27:42Z</time>
      </trkpt>
      <trkpt lat="45.92784" lon="4.74153">
        <ele>172</ele>
        <time>2018-01-24T11:27:43Z</time>
      </trkpt>
      <trkpt lat="45.92789" lon="4.74147">
        <ele>172</ele>
        <time>2018-01-24T11:27:44Z</time>
      </trkpt>
      <trkpt lat="45.92795" lon="4.74141">
        <ele>172</ele>
        <time>2018-01-24T11:27:45Z</time>
      </trkpt>
      <trkpt lat="45.92799" lon="4.74136">
        <ele>172</ele>
        <time>2018-01-24T11:27:46Z</time>
      </trkpt>
      <trkpt lat="45.92805" lon="4.74131">
        <ele>172</ele>
        <time>2018-01-24T11:27:47Z</time>
      </trkpt>
      <trkpt lat="45.92811" lon="4.74125">
        <ele>172</ele>
        <time>2018-01-24T11:27:48Z</time>
      </trkpt>
      <trkpt lat="45.92816" lon="4.7412">
        <ele>172</ele>
        <time>2018-01-24T11:27:49Z</time>
      </trkpt>
      <trkpt lat="45.9282" lon="4.74114">
        <ele>172</ele>
        <time>2018-01-24T11:27:50Z</time>
      </trkpt>
      <trkpt lat="45.92826" lon="4.74108">
        <ele>171</ele>
        <time>2018-01-24T11:27:51Z</time>
      </trkpt>
      <trkpt lat="45.92831" lon="4.74102">
        <ele>171</ele>
        <time>2018-01-24T11:27:52Z</time>
      </trkpt>
      <trkpt lat="45.92836" lon="4.74096">
        <ele>171</ele>
        <time>2018-01-24T11:27:53Z</time>
      </trkpt>
      <trkpt lat="45.92842" lon="4.7409">
        <ele>171</ele>
        <time>2018-01-24T11:27:54Z</time>
      </trkpt>
      <trkpt lat="45.92846" lon="4.74084">
        <ele>171</ele>
        <time>2018-01-24T11:27:55Z</time>
      </trkpt>
      <trkpt lat="45.9285" lon="4.74078">
        <ele>172</ele>
        <time>2018-01-24T11:27:56Z</time>
      </trkpt>
      <trkpt lat="45.92855" lon="4.74072">
        <ele>172</ele>
        <time>2018-01-24T11:27:57Z</time>
      </trkpt>
      <trkpt lat="45.92859" lon="4.74067">
        <ele>172</ele>
        <time>2018-01-24T11:27:58Z</time>
      </trkpt>
      <trkpt lat="45.92864" lon="4.74061">
        <ele>172</ele>
        <time>2018-01-24T11:27:59Z</time>
      </trkpt>
      <trkpt lat="45.92869" lon="4.74055">
        <ele>172</ele>
        <time>2018-01-24T11:28:00Z</time>
      </trkpt>
      <trkpt lat="45.92874" lon="4.7405">
        <ele>172</ele>
        <time>2018-01-24T11:28:01Z</time>
      </trkpt>
      <trkpt lat="45.92879" lon="4.74046">
        <ele>172</ele>
        <time>2018-01-24T11:28:02Z</time>
      </trkpt>
      <trkpt lat="45.92884" lon="4.74044">
        <ele>172</ele>
        <time>2018-01-24T11:28:03Z</time>
      </trkpt>
      <trkpt lat="45.92889" lon="4.74044">
        <ele>172</ele>
        <time>2018-01-24T11:28:04Z</time>
      </trkpt>
      <trkpt lat="45.92894" lon="4.74045">
        <ele>172</ele>
        <time>2018-01-24T11:28:05Z</time>
      </trkpt>
      <trkpt lat="45.92899" lon="4.74045">
        <ele>172</ele>
        <time>2018-01-24T11:28:06Z</time>
      </trkpt>
      <trkpt lat="45.92905" lon="4.74043">
        <ele>172</ele>
        <time>2018-01-24T11:28:07Z</time>
      </trkpt>
      <trkpt lat="45.92909" lon="4.74038">
        <ele>172</ele>
        <time>2018-01-24T11:28:08Z</time>
      </trkpt>
      <trkpt lat="45.92914" lon="4.74033">
        <ele>172</ele>
        <time>2018-01-24T11:28:09Z</time>
      </trkpt>
      <trkpt lat="45.9292" lon="4.74025">
        <ele>172</ele>
        <time>2018-01-24T11:28:10Z</time>
      </trkpt>
      <trkpt lat="45.92922" lon="4.74019">
        <ele>172</ele>
        <time>2018-01-24T11:28:11Z</time>
      </trkpt>
      <trkpt lat="45.92922" lon="4.74012">
        <ele>172</ele>
        <time>2018-01-24T11:28:12Z</time>
      </trkpt>
      <trkpt lat="45.92921" lon="4.74004">
        <ele>172</ele>
        <time>2018-01-24T11:28:13Z</time>
      </trkpt>
      <trkpt lat="45.92919" lon="4.73997">
        <ele>172</ele>
        <time>2018-01-24T11:28:14Z</time>
      </trkpt>
      <trkpt lat="45.92915" lon="4.73993">
        <ele>172</ele>
        <time>2018-01-24T11:28:15Z</time>
      </trkpt>
      <trkpt lat="45.92912" lon="4.73987">
        <ele>172</ele>
        <time>2018-01-24T11:28:16Z</time>
      </trkpt>
      <trkpt lat="45.92907" lon="4.73982">
        <ele>172</ele>
        <time>2018-01-24T11:28:17Z</time>
      </trkpt>
      <trkpt lat="45.92902" lon="4.73981">
        <ele>172</ele>
        <time>2018-01-24T11:28:18Z</time>
      </trkpt>
      <trkpt lat="45.92897" lon="4.73977">
        <ele>172</ele>
        <time>2018-01-24T11:28:19Z</time>
      </trkpt>
      <trkpt lat="45.92893" lon="4.73971">
        <ele>172</ele>
        <time>2018-01-24T11:28:20Z</time>
      </trkpt>
      <trkpt lat="45.9289" lon="4.73964">
        <ele>172</ele>
        <time>2018-01-24T11:28:21Z</time>
      </trkpt>
      <trkpt lat="45.9289" lon="4.73955">
        <ele>172</ele>
        <time>2018-01-24T11:28:22Z</time>
      </trkpt>
      <trkpt lat="45.92889" lon="4.73946">
        <ele>172</ele>
        <time>2018-01-24T11:28:23Z</time>
      </trkpt>
      <trkpt lat="45.92888" lon="4.73937">
        <ele>172</ele>
        <time>2018-01-24T11:28:24Z</time>
      </trkpt>
      <trkpt lat="45.92888" lon="4.73928">
        <ele>172</ele>
        <time>2018-01-24T11:28:25Z</time>
      </trkpt>
      <trkpt lat="45.92887" lon="4.73919">
        <ele>172</ele>
        <time>2018-01-24T11:28:26Z</time>
      </trkpt>
      <trkpt lat="45.92885" lon="4.73909">
        <ele>173</ele>
        <time>2018-01-24T11:28:27Z</time>
      </trkpt>
      <trkpt lat="45.92882" lon="4.73899">
        <ele>173</ele>
        <time>2018-01-24T11:28:28Z</time>
      </trkpt>
      <trkpt lat="45.9288" lon="4.73888">
        <ele>173</ele>
        <time>2018-01-24T11:28:29Z</time>
      </trkpt>
      <trkpt lat="45.92878" lon="4.73879">
        <ele>173</ele>
        <time>2018-01-24T11:28:30Z</time>
      </trkpt>
      <trkpt lat="45.92875" lon="4.7387">
        <ele>173</ele>
        <time>2018-01-24T11:28:31Z</time>
      </trkpt>
      <trkpt lat="45.92874" lon="4.7386">
        <ele>173</ele>
        <time>2018-01-24T11:28:32Z</time>
      </trkpt>
      <trkpt lat="45.92871" lon="4.73852">
        <ele>173</ele>
        <time>2018-01-24T11:28:33Z</time>
      </trkpt>
      <trkpt lat="45.92869" lon="4.73844">
        <ele>173</ele>
        <time>2018-01-24T11:28:34Z</time>
      </trkpt>
      <trkpt lat="45.92866" lon="4.73838">
        <ele>173</ele>
        <time>2018-01-24T11:28:35Z</time>
      </trkpt>
      <trkpt lat="45.92864" lon="4.7383">
        <ele>173</ele>
        <time>2018-01-24T11:28:36Z</time>
      </trkpt>
      <trkpt lat="45.92862" lon="4.73822">
        <ele>173</ele>
        <time>2018-01-24T11:28:37Z</time>
      </trkpt>
      <trkpt lat="45.92861" lon="4.73816">
        <ele>173</ele>
        <time>2018-01-24T11:28:38Z</time>
      </trkpt>
      <trkpt lat="45.92858" lon="4.73809">
        <ele>173</ele>
        <time>2018-01-24T11:28:39Z</time>
      </trkpt>
      <trkpt lat="45.92855" lon="4.73803">
        <ele>173</ele>
        <time>2018-01-24T11:28:40Z</time>
      </trkpt>
      <trkpt lat="45.92851" lon="4.73798">
        <ele>173</ele>
        <time>2018-01-24T11:28:41Z</time>
      </trkpt>
      <trkpt lat="45.92847" lon="4.73793">
        <ele>173</ele>
        <time>2018-01-24T11:28:42Z</time>
      </trkpt>
      <trkpt lat="45.92842" lon="4.73789">
        <ele>173</ele>
        <time>2018-01-24T11:28:43Z</time>
      </trkpt>
      <trkpt lat="45.92839" lon="4.73786">
        <ele>173</ele>
        <time>2018-01-24T11:28:44Z</time>
      </trkpt>
      <trkpt lat="45.92833" lon="4.73783">
        <ele>173</ele>
        <time>2018-01-24T11:28:45Z</time>
      </trkpt>
      <trkpt lat="45.92828" lon="4.7378">
        <ele>173</ele>
        <time>2018-01-24T11:28:46Z</time>
      </trkpt>
      <trkpt lat="45.92825" lon="4.73776">
        <ele>173</ele>
        <time>2018-01-24T11:28:47Z</time>
      </trkpt>
      <trkpt lat="45.92821" lon="4.73774">
        <ele>173</ele>
        <time>2018-01-24T11:28:48Z</time>
      </trkpt>
      <trkpt lat="45.92816" lon="4.73772">
        <ele>173</ele>
        <time>2018-01-24T11:28:49Z</time>
      </trkpt>
      <trkpt lat="45.92812" lon="4.73768">
        <ele>173</ele>
        <time>2018-01-24T11:28:50Z</time>
      </trkpt>
      <trkpt lat="45.92808" lon="4.73765">
        <ele>173</ele>
        <time>2018-01-24T11:28:51Z</time>
      </trkpt>
      <trkpt lat="45.928" lon="4.73761">
        <ele>173</ele>
        <time>2018-01-24T11:28:53Z</time>
      </trkpt>
      <trkpt lat="45.92796" lon="4.7376">
        <ele>173</ele>
        <time>2018-01-24T11:28:54Z</time>
      </trkpt>
      <trkpt lat="45.92789" lon="4.73757">
        <ele>173</ele>
        <time>2018-01-24T11:28:56Z</time>
      </trkpt>
      <trkpt lat="45.92787" lon="4.73755">
        <ele>173</ele>
        <time>2018-01-24T11:28:57Z</time>
      </trkpt>
      <trkpt lat="45.92781" lon="4.73746">
        <ele>172</ele>
        <time>2018-01-24T11:28:59Z</time>
      </trkpt>
      <trkpt lat="45.92779" lon="4.73742">
        <ele>172</ele>
        <time>2018-01-24T11:29:00Z</time>
      </trkpt>
      <trkpt lat="45.92772" lon="4.73735">
        <ele>172</ele>
        <time>2018-01-24T11:29:02Z</time>
      </trkpt>
      <trkpt lat="45.92768" lon="4.73733">
        <ele>172</ele>
        <time>2018-01-24T11:29:03Z</time>
      </trkpt>
      <trkpt lat="45.9276" lon="4.73731">
        <ele>172</ele>
        <time>2018-01-24T11:29:05Z</time>
      </trkpt>
      <trkpt lat="45.92755" lon="4.73729">
        <ele>172</ele>
        <time>2018-01-24T11:29:06Z</time>
      </trkpt>
      <trkpt lat="45.92751" lon="4.73728">
        <ele>172</ele>
        <time>2018-01-24T11:29:07Z</time>
      </trkpt>
      <trkpt lat="45.92746" lon="4.73727">
        <ele>173</ele>
        <time>2018-01-24T11:29:08Z</time>
      </trkpt>
      <trkpt lat="45.92738" lon="4.73724">
        <ele>173</ele>
        <time>2018-01-24T11:29:10Z</time>
      </trkpt>
      <trkpt lat="45.92734" lon="4.73722">
        <ele>173</ele>
        <time>2018-01-24T11:29:11Z</time>
      </trkpt>
      <trkpt lat="45.92725" lon="4.7372">
        <ele>173</ele>
        <time>2018-01-24T11:29:13Z</time>
      </trkpt>
      <trkpt lat="45.92721" lon="4.73718">
        <ele>173</ele>
        <time>2018-01-24T11:29:14Z</time>
      </trkpt>
      <trkpt lat="45.92714" lon="4.73715">
        <ele>173</ele>
        <time>2018-01-24T11:29:16Z</time>
      </trkpt>
      <trkpt lat="45.9271" lon="4.73713">
        <ele>173</ele>
        <time>2018-01-24T11:29:17Z</time>
      </trkpt>
      <trkpt lat="45.92702" lon="4.73713">
        <ele>173</ele>
        <time>2018-01-24T11:29:19Z</time>
      </trkpt>
      <trkpt lat="45.92697" lon="4.73712">
        <ele>173</ele>
        <time>2018-01-24T11:29:20Z</time>
      </trkpt>
      <trkpt lat="45.92692" lon="4.73711">
        <ele>173</ele>
        <time>2018-01-24T11:29:21Z</time>
      </trkpt>
      <trkpt lat="45.92688" lon="4.73711">
        <ele>173</ele>
        <time>2018-01-24T11:29:22Z</time>
      </trkpt>
      <trkpt lat="45.92679" lon="4.73709">
        <ele>173</ele>
        <time>2018-01-24T11:29:24Z</time>
      </trkpt>
      <trkpt lat="45.92674" lon="4.73707">
        <ele>174</ele>
        <time>2018-01-24T11:29:25Z</time>
      </trkpt>
      <trkpt lat="45.92669" lon="4.73705">
        <ele>174</ele>
        <time>2018-01-24T11:29:26Z</time>
      </trkpt>
      <trkpt lat="45.92664" lon="4.73701">
        <ele>173</ele>
        <time>2018-01-24T11:29:27Z</time>
      </trkpt>
      <trkpt lat="45.9266" lon="4.73698">
        <ele>173</ele>
        <time>2018-01-24T11:29:28Z</time>
      </trkpt>
      <trkpt lat="45.92656" lon="4.73694">
        <ele>173</ele>
        <time>2018-01-24T11:29:29Z</time>
      </trkpt>
      <trkpt lat="45.92648" lon="4.73688">
        <ele>173</ele>
        <time>2018-01-24T11:29:31Z</time>
      </trkpt>
      <trkpt lat="45.92644" lon="4.73683">
        <ele>173</ele>
        <time>2018-01-24T11:29:32Z</time>
      </trkpt>
      <trkpt lat="45.92642" lon="4.73678">
        <ele>173</ele>
        <time>2018-01-24T11:29:33Z</time>
      </trkpt>
      <trkpt lat="45.92639" lon="4.73672">
        <ele>173</ele>
        <time>2018-01-24T11:29:34Z</time>
      </trkpt>
      <trkpt lat="45.92636" lon="4.73667">
        <ele>173</ele>
        <time>2018-01-24T11:29:35Z</time>
      </trkpt>
      <trkpt lat="45.92634" lon="4.7366">
        <ele>173</ele>
        <time>2018-01-24T11:29:36Z</time>
      </trkpt>
      <trkpt lat="45.92631" lon="4.73654">
        <ele>173</ele>
        <time>2018-01-24T11:29:37Z</time>
      </trkpt>
      <trkpt lat="45.92629" lon="4.73648">
        <ele>173</ele>
        <time>2018-01-24T11:29:38Z</time>
      </trkpt>
      <trkpt lat="45.92626" lon="4.73643">
        <ele>173</ele>
        <time>2018-01-24T11:29:39Z</time>
      </trkpt>
      <trkpt lat="45.92623" lon="4.73638">
        <ele>173</ele>
        <time>2018-01-24T11:29:40Z</time>
      </trkpt>
      <trkpt lat="45.92619" lon="4.73633">
        <ele>173</ele>
        <time>2018-01-24T11:29:41Z</time>
      </trkpt>
      <trkpt lat="45.92615" lon="4.73629">
        <ele>173</ele>
        <time>2018-01-24T11:29:42Z</time>
      </trkpt>
      <trkpt lat="45.9261" lon="4.73626">
        <ele>173</ele>
        <time>2018-01-24T11:29:43Z</time>
      </trkpt>
      <trkpt lat="45.92606" lon="4.73624">
        <ele>173</ele>
        <time>2018-01-24T11:29:44Z</time>
      </trkpt>
      <trkpt lat="45.92597" lon="4.73622">
        <ele>173</ele>
        <time>2018-01-24T11:29:46Z</time>
      </trkpt>
      <trkpt lat="45.92593" lon="4.73623">
        <ele>173</ele>
        <time>2018-01-24T11:29:47Z</time>
      </trkpt>
      <trkpt lat="45.92584" lon="4.73624">
        <ele>172</ele>
        <time>2018-01-24T11:29:49Z</time>
      </trkpt>
      <trkpt lat="45.92579" lon="4.73625">
        <ele>173</ele>
        <time>2018-01-24T11:29:50Z</time>
      </trkpt>
      <trkpt lat="45.92574" lon="4.73626">
        <ele>173</ele>
        <time>2018-01-24T11:29:51Z</time>
      </trkpt>
      <trkpt lat="45.9257" lon="4.73627">
        <ele>173</ele>
        <time>2018-01-24T11:29:52Z</time>
      </trkpt>
      <trkpt lat="45.92565" lon="4.73628">
        <ele>173</ele>
        <time>2018-01-24T11:29:53Z</time>
      </trkpt>
      <trkpt lat="45.92559" lon="4.73629">
        <ele>173</ele>
        <time>2018-01-24T11:29:54Z</time>
      </trkpt>
      <trkpt lat="45.92554" lon="4.73631">
        <ele>173</ele>
        <time>2018-01-24T11:29:55Z</time>
      </trkpt>
      <trkpt lat="45.92549" lon="4.73633">
        <ele>173</ele>
        <time>2018-01-24T11:29:56Z</time>
      </trkpt>
      <trkpt lat="45.92544" lon="4.73635">
        <ele>173</ele>
        <time>2018-01-24T11:29:57Z</time>
      </trkpt>
      <trkpt lat="45.92538" lon="4.73637">
        <ele>173</ele>
        <time>2018-01-24T11:29:58Z</time>
      </trkpt>
      <trkpt lat="45.92533" lon="4.73636">
        <ele>173</ele>
        <time>2018-01-24T11:29:59Z</time>
      </trkpt>
      <trkpt lat="45.92529" lon="4.73637">
        <ele>173</ele>
        <time>2018-01-24T11:30:00Z</time>
      </trkpt>
      <trkpt lat="45.9252" lon="4.73638">
        <ele>173</ele>
        <time>2018-01-24T11:30:02Z</time>
      </trkpt>
      <trkpt lat="45.92516" lon="4.73639">
        <ele>173</ele>
        <time>2018-01-24T11:30:03Z</time>
      </trkpt>
      <trkpt lat="45.92507" lon="4.73641">
        <ele>174</ele>
        <time>2018-01-24T11:30:05Z</time>
      </trkpt>
      <trkpt lat="45.92503" lon="4.73642">
        <ele>174</ele>
        <time>2018-01-24T11:30:06Z</time>
      </trkpt>
      <trkpt lat="45.92495" lon="4.73641">
        <ele>174</ele>
        <time>2018-01-24T11:30:08Z</time>
      </trkpt>
      <trkpt lat="45.92491" lon="4.7364">
        <ele>174</ele>
        <time>2018-01-24T11:30:09Z</time>
      </trkpt>
      <trkpt lat="45.92484" lon="4.73639">
        <ele>174</ele>
        <time>2018-01-24T11:30:11Z</time>
      </trkpt>
      <trkpt lat="45.9248" lon="4.73639">
        <ele>174</ele>
        <time>2018-01-24T11:30:12Z</time>
      </trkpt>
      <trkpt lat="45.92473" lon="4.73641">
        <ele>174</ele>
        <time>2018-01-24T11:30:14Z</time>
      </trkpt>
      <trkpt lat="45.9247" lon="4.73644">
        <ele>174</ele>
        <time>2018-01-24T11:30:15Z</time>
      </trkpt>
      <trkpt lat="45.92466" lon="4.73654">
        <ele>174</ele>
        <time>2018-01-24T11:30:17Z</time>
      </trkpt>
      <trkpt lat="45.92466" lon="4.7366">
        <ele>174</ele>
        <time>2018-01-24T11:30:18Z</time>
      </trkpt>
      <trkpt lat="45.92467" lon="4.7367">
        <ele>174</ele>
        <time>2018-01-24T11:30:20Z</time>
      </trkpt>
      <trkpt lat="45.92466" lon="4.73674">
        <ele>174</ele>
        <time>2018-01-24T11:30:21Z</time>
      </trkpt>
      <trkpt lat="45.92466" lon="4.73686">
        <ele>174</ele>
        <time>2018-01-24T11:30:24Z</time>
      </trkpt>
      <trkpt lat="45.92466" lon="4.73691">
        <ele>174</ele>
        <time>2018-01-24T11:30:25Z</time>
      </trkpt>
      <trkpt lat="45.92465" lon="4.73703">
        <ele>174</ele>
        <time>2018-01-24T11:30:28Z</time>
      </trkpt>
      <trkpt lat="45.92465" lon="4.73706">
        <ele>174</ele>
        <time>2018-01-24T11:30:29Z</time>
      </trkpt>
      <trkpt lat="45.92462" lon="4.73711">
        <ele>174</ele>
        <time>2018-01-24T11:31:18.261Z</time>
      </trkpt>
    </trkseg>
  </trk>
</gpx>